<?xml version="1.0" encoding="UTF-8" standalone="no" ?>
<gpx xmlns="http://www.topografix.com/GPX/1/1" xmlns:xsi="http://www.w3.org/2001/XMLSchema-instance" xsi:schemaLocation="http://www.topografix.com/GPX/1/1 http://www.topografix.com/GPX/1/1/gpx.xsd" version="1.1" creator="VisuGPX - https://www.visugpx.com">
  <metadata>
    <name>Parcours DMA 1</name>
    <desc><![CDATA[Voici le parcours DMA (dénivellé maximum admissible) amputé du passage le plus dur (pb de timing) final. Du beau, du dur, du physique ... pour les costaud du mollet uniquement ! On y reviendra pour l\\\'intégrale !]]></desc>
  </metadata>
  <trk>
    <name><![CDATA[2011-04-09-01]]></name>
    <trkseg>
      <trkpt lat="43.58106" lon="3.74708">
        <ele>67.300003</ele>
        <time>2011-04-09T06:23:27Z</time>
      </trkpt>
      <trkpt lat="43.58106" lon="3.74708">
        <ele>67.275001</ele>
        <time>2011-04-09T06:23:28Z</time>
      </trkpt>
      <trkpt lat="43.58114" lon="3.74713">
        <ele>65.3</ele>
        <time>2011-04-09T06:24:31Z</time>
      </trkpt>
      <trkpt lat="43.58122" lon="3.74731">
        <ele>76.1</ele>
        <time>2011-04-09T06:25:23Z</time>
      </trkpt>
      <trkpt lat="43.58128" lon="3.74738">
        <ele>75.9</ele>
        <time>2011-04-09T06:25:26Z</time>
      </trkpt>
      <trkpt lat="43.58135" lon="3.74743">
        <ele>75.4</ele>
        <time>2011-04-09T06:25:29Z</time>
      </trkpt>
      <trkpt lat="43.58143" lon="3.74749">
        <ele>75.2</ele>
        <time>2011-04-09T06:25:32Z</time>
      </trkpt>
      <trkpt lat="43.58145" lon="3.7475">
        <ele>75.2</ele>
        <time>2011-04-09T06:25:33Z</time>
      </trkpt>
      <trkpt lat="43.58158" lon="3.74758">
        <ele>75.5</ele>
        <time>2011-04-09T06:25:38Z</time>
      </trkpt>
      <trkpt lat="43.58163" lon="3.74769">
        <ele>75.6</ele>
        <time>2011-04-09T06:25:41Z</time>
      </trkpt>
      <trkpt lat="43.58161" lon="3.7478">
        <ele>75.1</ele>
        <time>2011-04-09T06:25:43Z</time>
      </trkpt>
      <trkpt lat="43.58159" lon="3.74786">
        <ele>74.8</ele>
        <time>2011-04-09T06:25:44Z</time>
      </trkpt>
      <trkpt lat="43.58157" lon="3.74793">
        <ele>74.4</ele>
        <time>2011-04-09T06:25:45Z</time>
      </trkpt>
      <trkpt lat="43.58155" lon="3.74801">
        <ele>73.9</ele>
        <time>2011-04-09T06:25:46Z</time>
      </trkpt>
      <trkpt lat="43.58153" lon="3.74809">
        <ele>73.3</ele>
        <time>2011-04-09T06:25:47Z</time>
      </trkpt>
      <trkpt lat="43.5815" lon="3.74818">
        <ele>72.7</ele>
        <time>2011-04-09T06:25:48Z</time>
      </trkpt>
      <trkpt lat="43.58148" lon="3.74827">
        <ele>72</ele>
        <time>2011-04-09T06:25:49Z</time>
      </trkpt>
      <trkpt lat="43.58146" lon="3.74835">
        <ele>71.2</ele>
        <time>2011-04-09T06:25:50Z</time>
      </trkpt>
      <trkpt lat="43.58144" lon="3.74844">
        <ele>70.4</ele>
        <time>2011-04-09T06:25:51Z</time>
      </trkpt>
      <trkpt lat="43.58142" lon="3.74852">
        <ele>69.6</ele>
        <time>2011-04-09T06:25:52Z</time>
      </trkpt>
      <trkpt lat="43.5814" lon="3.7486">
        <ele>68.8</ele>
        <time>2011-04-09T06:25:53Z</time>
      </trkpt>
      <trkpt lat="43.58138" lon="3.74868">
        <ele>67.9</ele>
        <time>2011-04-09T06:25:54Z</time>
      </trkpt>
      <trkpt lat="43.58135" lon="3.74876">
        <ele>67</ele>
        <time>2011-04-09T06:25:55Z</time>
      </trkpt>
      <trkpt lat="43.5813" lon="3.74881">
        <ele>66.1</ele>
        <time>2011-04-09T06:25:56Z</time>
      </trkpt>
      <trkpt lat="43.58123" lon="3.74885">
        <ele>65.1</ele>
        <time>2011-04-09T06:25:57Z</time>
      </trkpt>
      <trkpt lat="43.58115" lon="3.74886">
        <ele>64.1</ele>
        <time>2011-04-09T06:25:58Z</time>
      </trkpt>
      <trkpt lat="43.58107" lon="3.74888">
        <ele>63</ele>
        <time>2011-04-09T06:25:59Z</time>
      </trkpt>
      <trkpt lat="43.58099" lon="3.7489">
        <ele>62</ele>
        <time>2011-04-09T06:26:00Z</time>
      </trkpt>
      <trkpt lat="43.58092" lon="3.74892">
        <ele>61.1</ele>
        <time>2011-04-09T06:26:01Z</time>
      </trkpt>
      <trkpt lat="43.58087" lon="3.74894">
        <ele>60.3</ele>
        <time>2011-04-09T06:26:02Z</time>
      </trkpt>
      <trkpt lat="43.58082" lon="3.74898">
        <ele>59.6</ele>
        <time>2011-04-09T06:26:03Z</time>
      </trkpt>
      <trkpt lat="43.58081" lon="3.74909">
        <ele>58.8</ele>
        <time>2011-04-09T06:26:05Z</time>
      </trkpt>
      <trkpt lat="43.58085" lon="3.7492">
        <ele>58.3</ele>
        <time>2011-04-09T06:26:07Z</time>
      </trkpt>
      <trkpt lat="43.58088" lon="3.74925">
        <ele>58.2</ele>
        <time>2011-04-09T06:26:08Z</time>
      </trkpt>
      <trkpt lat="43.5809" lon="3.74931">
        <ele>58</ele>
        <time>2011-04-09T06:26:09Z</time>
      </trkpt>
      <trkpt lat="43.58093" lon="3.74936">
        <ele>57.9</ele>
        <time>2011-04-09T06:26:10Z</time>
      </trkpt>
      <trkpt lat="43.58095" lon="3.74942">
        <ele>57.9</ele>
        <time>2011-04-09T06:26:11Z</time>
      </trkpt>
      <trkpt lat="43.58098" lon="3.74947">
        <ele>57.8</ele>
        <time>2011-04-09T06:26:12Z</time>
      </trkpt>
      <trkpt lat="43.581" lon="3.74953">
        <ele>57.8</ele>
        <time>2011-04-09T06:26:13Z</time>
      </trkpt>
      <trkpt lat="43.58103" lon="3.74959">
        <ele>57.7</ele>
        <time>2011-04-09T06:26:14Z</time>
      </trkpt>
      <trkpt lat="43.58105" lon="3.74965">
        <ele>57.7</ele>
        <time>2011-04-09T06:26:15Z</time>
      </trkpt>
      <trkpt lat="43.58108" lon="3.7497">
        <ele>57.6</ele>
        <time>2011-04-09T06:26:16Z</time>
      </trkpt>
      <trkpt lat="43.5811" lon="3.74976">
        <ele>57.6</ele>
        <time>2011-04-09T06:26:17Z</time>
      </trkpt>
      <trkpt lat="43.58113" lon="3.74982">
        <ele>57.6</ele>
        <time>2011-04-09T06:26:18Z</time>
      </trkpt>
      <trkpt lat="43.58116" lon="3.74987">
        <ele>57.6</ele>
        <time>2011-04-09T06:26:19Z</time>
      </trkpt>
      <trkpt lat="43.58118" lon="3.74993">
        <ele>57.5</ele>
        <time>2011-04-09T06:26:20Z</time>
      </trkpt>
      <trkpt lat="43.58121" lon="3.74998">
        <ele>57.5</ele>
        <time>2011-04-09T06:26:21Z</time>
      </trkpt>
      <trkpt lat="43.58123" lon="3.75004">
        <ele>57.5</ele>
        <time>2011-04-09T06:26:22Z</time>
      </trkpt>
      <trkpt lat="43.58126" lon="3.7501">
        <ele>57.5</ele>
        <time>2011-04-09T06:26:23Z</time>
      </trkpt>
      <trkpt lat="43.58129" lon="3.75015">
        <ele>57.5</ele>
        <time>2011-04-09T06:26:24Z</time>
      </trkpt>
      <trkpt lat="43.58131" lon="3.7502">
        <ele>57.5</ele>
        <time>2011-04-09T06:26:25Z</time>
      </trkpt>
      <trkpt lat="43.58134" lon="3.75026">
        <ele>57.5</ele>
        <time>2011-04-09T06:26:26Z</time>
      </trkpt>
      <trkpt lat="43.58137" lon="3.75031">
        <ele>57.5</ele>
        <time>2011-04-09T06:26:27Z</time>
      </trkpt>
      <trkpt lat="43.5814" lon="3.75036">
        <ele>57.5</ele>
        <time>2011-04-09T06:26:28Z</time>
      </trkpt>
      <trkpt lat="43.58143" lon="3.75041">
        <ele>57.5</ele>
        <time>2011-04-09T06:26:29Z</time>
      </trkpt>
      <trkpt lat="43.58146" lon="3.75046">
        <ele>57.5</ele>
        <time>2011-04-09T06:26:30Z</time>
      </trkpt>
      <trkpt lat="43.58149" lon="3.75052">
        <ele>57.4</ele>
        <time>2011-04-09T06:26:31Z</time>
      </trkpt>
      <trkpt lat="43.58151" lon="3.75058">
        <ele>57.4</ele>
        <time>2011-04-09T06:26:32Z</time>
      </trkpt>
      <trkpt lat="43.58154" lon="3.75064">
        <ele>57.3</ele>
        <time>2011-04-09T06:26:33Z</time>
      </trkpt>
      <trkpt lat="43.58157" lon="3.7507">
        <ele>57.2</ele>
        <time>2011-04-09T06:26:34Z</time>
      </trkpt>
      <trkpt lat="43.5816" lon="3.75076">
        <ele>57</ele>
        <time>2011-04-09T06:26:35Z</time>
      </trkpt>
      <trkpt lat="43.58163" lon="3.75083">
        <ele>56.9</ele>
        <time>2011-04-09T06:26:36Z</time>
      </trkpt>
      <trkpt lat="43.58165" lon="3.75089">
        <ele>56.7</ele>
        <time>2011-04-09T06:26:37Z</time>
      </trkpt>
      <trkpt lat="43.58168" lon="3.75096">
        <ele>56.5</ele>
        <time>2011-04-09T06:26:38Z</time>
      </trkpt>
      <trkpt lat="43.58171" lon="3.75102">
        <ele>56.3</ele>
        <time>2011-04-09T06:26:39Z</time>
      </trkpt>
      <trkpt lat="43.58174" lon="3.75109">
        <ele>56.1</ele>
        <time>2011-04-09T06:26:40Z</time>
      </trkpt>
      <trkpt lat="43.58177" lon="3.75115">
        <ele>55.9</ele>
        <time>2011-04-09T06:26:41Z</time>
      </trkpt>
      <trkpt lat="43.5818" lon="3.75122">
        <ele>55.7</ele>
        <time>2011-04-09T06:26:42Z</time>
      </trkpt>
      <trkpt lat="43.58183" lon="3.75129">
        <ele>55.5</ele>
        <time>2011-04-09T06:26:43Z</time>
      </trkpt>
      <trkpt lat="43.58186" lon="3.75136">
        <ele>55.4</ele>
        <time>2011-04-09T06:26:44Z</time>
      </trkpt>
      <trkpt lat="43.58189" lon="3.75143">
        <ele>55.2</ele>
        <time>2011-04-09T06:26:45Z</time>
      </trkpt>
      <trkpt lat="43.58192" lon="3.7515">
        <ele>55.1</ele>
        <time>2011-04-09T06:26:46Z</time>
      </trkpt>
      <trkpt lat="43.58195" lon="3.75157">
        <ele>55</ele>
        <time>2011-04-09T06:26:47Z</time>
      </trkpt>
      <trkpt lat="43.58198" lon="3.75164">
        <ele>54.9</ele>
        <time>2011-04-09T06:26:48Z</time>
      </trkpt>
      <trkpt lat="43.58201" lon="3.75171">
        <ele>54.8</ele>
        <time>2011-04-09T06:26:49Z</time>
      </trkpt>
      <trkpt lat="43.58204" lon="3.75178">
        <ele>54.8</ele>
        <time>2011-04-09T06:26:50Z</time>
      </trkpt>
      <trkpt lat="43.58207" lon="3.75184">
        <ele>54.8</ele>
        <time>2011-04-09T06:26:51Z</time>
      </trkpt>
      <trkpt lat="43.5821" lon="3.75191">
        <ele>54.7</ele>
        <time>2011-04-09T06:26:52Z</time>
      </trkpt>
      <trkpt lat="43.58213" lon="3.75198">
        <ele>54.7</ele>
        <time>2011-04-09T06:26:53Z</time>
      </trkpt>
      <trkpt lat="43.58216" lon="3.75205">
        <ele>54.6</ele>
        <time>2011-04-09T06:26:54Z</time>
      </trkpt>
      <trkpt lat="43.58219" lon="3.75211">
        <ele>54.6</ele>
        <time>2011-04-09T06:26:55Z</time>
      </trkpt>
      <trkpt lat="43.58222" lon="3.75218">
        <ele>54.5</ele>
        <time>2011-04-09T06:26:56Z</time>
      </trkpt>
      <trkpt lat="43.58225" lon="3.75225">
        <ele>54.5</ele>
        <time>2011-04-09T06:26:57Z</time>
      </trkpt>
      <trkpt lat="43.58227" lon="3.75232">
        <ele>54.4</ele>
        <time>2011-04-09T06:26:58Z</time>
      </trkpt>
      <trkpt lat="43.5823" lon="3.75238">
        <ele>54.4</ele>
        <time>2011-04-09T06:26:59Z</time>
      </trkpt>
      <trkpt lat="43.58233" lon="3.75244">
        <ele>54.3</ele>
        <time>2011-04-09T06:27:00Z</time>
      </trkpt>
      <trkpt lat="43.58236" lon="3.75251">
        <ele>54.3</ele>
        <time>2011-04-09T06:27:01Z</time>
      </trkpt>
      <trkpt lat="43.58239" lon="3.75258">
        <ele>54.2</ele>
        <time>2011-04-09T06:27:02Z</time>
      </trkpt>
      <trkpt lat="43.58242" lon="3.75264">
        <ele>54.1</ele>
        <time>2011-04-09T06:27:03Z</time>
      </trkpt>
      <trkpt lat="43.58245" lon="3.75271">
        <ele>54.1</ele>
        <time>2011-04-09T06:27:04Z</time>
      </trkpt>
      <trkpt lat="43.58248" lon="3.75278">
        <ele>54</ele>
        <time>2011-04-09T06:27:05Z</time>
      </trkpt>
      <trkpt lat="43.58251" lon="3.75284">
        <ele>53.9</ele>
        <time>2011-04-09T06:27:06Z</time>
      </trkpt>
      <trkpt lat="43.58254" lon="3.75291">
        <ele>53.8</ele>
        <time>2011-04-09T06:27:07Z</time>
      </trkpt>
      <trkpt lat="43.58257" lon="3.75297">
        <ele>53.7</ele>
        <time>2011-04-09T06:27:08Z</time>
      </trkpt>
      <trkpt lat="43.5826" lon="3.75304">
        <ele>53.5</ele>
        <time>2011-04-09T06:27:09Z</time>
      </trkpt>
      <trkpt lat="43.58263" lon="3.7531">
        <ele>53.4</ele>
        <time>2011-04-09T06:27:10Z</time>
      </trkpt>
      <trkpt lat="43.58265" lon="3.75317">
        <ele>53.2</ele>
        <time>2011-04-09T06:27:11Z</time>
      </trkpt>
      <trkpt lat="43.58268" lon="3.75323">
        <ele>53.1</ele>
        <time>2011-04-09T06:27:12Z</time>
      </trkpt>
      <trkpt lat="43.58271" lon="3.7533">
        <ele>53</ele>
        <time>2011-04-09T06:27:13Z</time>
      </trkpt>
      <trkpt lat="43.58274" lon="3.75336">
        <ele>52.8</ele>
        <time>2011-04-09T06:27:14Z</time>
      </trkpt>
      <trkpt lat="43.58277" lon="3.75343">
        <ele>52.7</ele>
        <time>2011-04-09T06:27:15Z</time>
      </trkpt>
      <trkpt lat="43.5828" lon="3.75349">
        <ele>52.5</ele>
        <time>2011-04-09T06:27:16Z</time>
      </trkpt>
      <trkpt lat="43.58282" lon="3.75356">
        <ele>52.4</ele>
        <time>2011-04-09T06:27:17Z</time>
      </trkpt>
      <trkpt lat="43.58285" lon="3.75362">
        <ele>52.3</ele>
        <time>2011-04-09T06:27:18Z</time>
      </trkpt>
      <trkpt lat="43.58288" lon="3.75369">
        <ele>52.1</ele>
        <time>2011-04-09T06:27:19Z</time>
      </trkpt>
      <trkpt lat="43.58291" lon="3.75375">
        <ele>52</ele>
        <time>2011-04-09T06:27:20Z</time>
      </trkpt>
      <trkpt lat="43.58294" lon="3.75382">
        <ele>51.8</ele>
        <time>2011-04-09T06:27:21Z</time>
      </trkpt>
      <trkpt lat="43.58297" lon="3.75388">
        <ele>51.8</ele>
        <time>2011-04-09T06:27:22Z</time>
      </trkpt>
      <trkpt lat="43.583" lon="3.75395">
        <ele>51.7</ele>
        <time>2011-04-09T06:27:23Z</time>
      </trkpt>
      <trkpt lat="43.58303" lon="3.75402">
        <ele>51.7</ele>
        <time>2011-04-09T06:27:24Z</time>
      </trkpt>
      <trkpt lat="43.58305" lon="3.75409">
        <ele>51.7</ele>
        <time>2011-04-09T06:27:25Z</time>
      </trkpt>
      <trkpt lat="43.58308" lon="3.75415">
        <ele>51.7</ele>
        <time>2011-04-09T06:27:26Z</time>
      </trkpt>
      <trkpt lat="43.58311" lon="3.75422">
        <ele>51.6</ele>
        <time>2011-04-09T06:27:27Z</time>
      </trkpt>
      <trkpt lat="43.58314" lon="3.75428">
        <ele>51.6</ele>
        <time>2011-04-09T06:27:28Z</time>
      </trkpt>
      <trkpt lat="43.58317" lon="3.75434">
        <ele>51.6</ele>
        <time>2011-04-09T06:27:29Z</time>
      </trkpt>
      <trkpt lat="43.5832" lon="3.75441">
        <ele>51.6</ele>
        <time>2011-04-09T06:27:30Z</time>
      </trkpt>
      <trkpt lat="43.58323" lon="3.75447">
        <ele>51.7</ele>
        <time>2011-04-09T06:27:31Z</time>
      </trkpt>
      <trkpt lat="43.58326" lon="3.75454">
        <ele>51.7</ele>
        <time>2011-04-09T06:27:32Z</time>
      </trkpt>
      <trkpt lat="43.58329" lon="3.75461">
        <ele>51.8</ele>
        <time>2011-04-09T06:27:33Z</time>
      </trkpt>
      <trkpt lat="43.58332" lon="3.75467">
        <ele>51.8</ele>
        <time>2011-04-09T06:27:34Z</time>
      </trkpt>
      <trkpt lat="43.58335" lon="3.75473">
        <ele>51.8</ele>
        <time>2011-04-09T06:27:35Z</time>
      </trkpt>
      <trkpt lat="43.58337" lon="3.7548">
        <ele>51.9</ele>
        <time>2011-04-09T06:27:36Z</time>
      </trkpt>
      <trkpt lat="43.5834" lon="3.75486">
        <ele>51.9</ele>
        <time>2011-04-09T06:27:37Z</time>
      </trkpt>
      <trkpt lat="43.58343" lon="3.75493">
        <ele>52</ele>
        <time>2011-04-09T06:27:38Z</time>
      </trkpt>
      <trkpt lat="43.58346" lon="3.75499">
        <ele>52</ele>
        <time>2011-04-09T06:27:39Z</time>
      </trkpt>
      <trkpt lat="43.58349" lon="3.75505">
        <ele>52</ele>
        <time>2011-04-09T06:27:40Z</time>
      </trkpt>
      <trkpt lat="43.58352" lon="3.75511">
        <ele>52.1</ele>
        <time>2011-04-09T06:27:41Z</time>
      </trkpt>
      <trkpt lat="43.58355" lon="3.75517">
        <ele>52.1</ele>
        <time>2011-04-09T06:27:42Z</time>
      </trkpt>
      <trkpt lat="43.58358" lon="3.75523">
        <ele>52.2</ele>
        <time>2011-04-09T06:27:43Z</time>
      </trkpt>
      <trkpt lat="43.58361" lon="3.75529">
        <ele>52.2</ele>
        <time>2011-04-09T06:27:44Z</time>
      </trkpt>
      <trkpt lat="43.58364" lon="3.75535">
        <ele>52.1</ele>
        <time>2011-04-09T06:27:45Z</time>
      </trkpt>
      <trkpt lat="43.58367" lon="3.75541">
        <ele>51.9</ele>
        <time>2011-04-09T06:27:46Z</time>
      </trkpt>
      <trkpt lat="43.5837" lon="3.75546">
        <ele>51.7</ele>
        <time>2011-04-09T06:27:47Z</time>
      </trkpt>
      <trkpt lat="43.58373" lon="3.75552">
        <ele>51.6</ele>
        <time>2011-04-09T06:27:48Z</time>
      </trkpt>
      <trkpt lat="43.58375" lon="3.75558">
        <ele>51.6</ele>
        <time>2011-04-09T06:27:49Z</time>
      </trkpt>
      <trkpt lat="43.58378" lon="3.75565">
        <ele>51.6</ele>
        <time>2011-04-09T06:27:50Z</time>
      </trkpt>
      <trkpt lat="43.5838" lon="3.7557">
        <ele>51.7</ele>
        <time>2011-04-09T06:27:51Z</time>
      </trkpt>
      <trkpt lat="43.58383" lon="3.75576">
        <ele>51.8</ele>
        <time>2011-04-09T06:27:52Z</time>
      </trkpt>
      <trkpt lat="43.58386" lon="3.75582">
        <ele>51.8</ele>
        <time>2011-04-09T06:27:53Z</time>
      </trkpt>
      <trkpt lat="43.58388" lon="3.75587">
        <ele>51.8</ele>
        <time>2011-04-09T06:27:54Z</time>
      </trkpt>
      <trkpt lat="43.58391" lon="3.75593">
        <ele>51.9</ele>
        <time>2011-04-09T06:27:55Z</time>
      </trkpt>
      <trkpt lat="43.58393" lon="3.75599">
        <ele>51.9</ele>
        <time>2011-04-09T06:27:56Z</time>
      </trkpt>
      <trkpt lat="43.58395" lon="3.75604">
        <ele>51.9</ele>
        <time>2011-04-09T06:27:57Z</time>
      </trkpt>
      <trkpt lat="43.58398" lon="3.7561">
        <ele>51.9</ele>
        <time>2011-04-09T06:27:58Z</time>
      </trkpt>
      <trkpt lat="43.584" lon="3.75616">
        <ele>51.9</ele>
        <time>2011-04-09T06:27:59Z</time>
      </trkpt>
      <trkpt lat="43.58402" lon="3.75621">
        <ele>52.1</ele>
        <time>2011-04-09T06:28:00Z</time>
      </trkpt>
      <trkpt lat="43.58407" lon="3.75632">
        <ele>52.5</ele>
        <time>2011-04-09T06:28:02Z</time>
      </trkpt>
      <trkpt lat="43.5841" lon="3.75637">
        <ele>52.8</ele>
        <time>2011-04-09T06:28:03Z</time>
      </trkpt>
      <trkpt lat="43.58412" lon="3.75643">
        <ele>53.1</ele>
        <time>2011-04-09T06:28:04Z</time>
      </trkpt>
      <trkpt lat="43.58414" lon="3.75648">
        <ele>53.3</ele>
        <time>2011-04-09T06:28:05Z</time>
      </trkpt>
      <trkpt lat="43.58416" lon="3.75654">
        <ele>53.5</ele>
        <time>2011-04-09T06:28:06Z</time>
      </trkpt>
      <trkpt lat="43.58419" lon="3.7566">
        <ele>53.7</ele>
        <time>2011-04-09T06:28:07Z</time>
      </trkpt>
      <trkpt lat="43.58421" lon="3.75666">
        <ele>54</ele>
        <time>2011-04-09T06:28:08Z</time>
      </trkpt>
      <trkpt lat="43.58423" lon="3.75672">
        <ele>54.3</ele>
        <time>2011-04-09T06:28:09Z</time>
      </trkpt>
      <trkpt lat="43.58426" lon="3.75678">
        <ele>54.7</ele>
        <time>2011-04-09T06:28:10Z</time>
      </trkpt>
      <trkpt lat="43.58428" lon="3.75684">
        <ele>55</ele>
        <time>2011-04-09T06:28:11Z</time>
      </trkpt>
      <trkpt lat="43.58431" lon="3.7569">
        <ele>55.3</ele>
        <time>2011-04-09T06:28:12Z</time>
      </trkpt>
      <trkpt lat="43.58433" lon="3.75696">
        <ele>55.6</ele>
        <time>2011-04-09T06:28:13Z</time>
      </trkpt>
      <trkpt lat="43.58435" lon="3.75702">
        <ele>55.8</ele>
        <time>2011-04-09T06:28:14Z</time>
      </trkpt>
      <trkpt lat="43.58438" lon="3.75708">
        <ele>56</ele>
        <time>2011-04-09T06:28:15Z</time>
      </trkpt>
      <trkpt lat="43.58441" lon="3.75714">
        <ele>56.1</ele>
        <time>2011-04-09T06:28:16Z</time>
      </trkpt>
      <trkpt lat="43.58445" lon="3.75719">
        <ele>56.2</ele>
        <time>2011-04-09T06:28:17Z</time>
      </trkpt>
      <trkpt lat="43.58447" lon="3.75725">
        <ele>56.3</ele>
        <time>2011-04-09T06:28:18Z</time>
      </trkpt>
      <trkpt lat="43.5845" lon="3.75731">
        <ele>56.4</ele>
        <time>2011-04-09T06:28:19Z</time>
      </trkpt>
      <trkpt lat="43.58452" lon="3.75736">
        <ele>56.6</ele>
        <time>2011-04-09T06:28:20Z</time>
      </trkpt>
      <trkpt lat="43.58455" lon="3.75742">
        <ele>56.7</ele>
        <time>2011-04-09T06:28:21Z</time>
      </trkpt>
      <trkpt lat="43.58457" lon="3.75747">
        <ele>56.8</ele>
        <time>2011-04-09T06:28:22Z</time>
      </trkpt>
      <trkpt lat="43.5846" lon="3.75752">
        <ele>56.8</ele>
        <time>2011-04-09T06:28:23Z</time>
      </trkpt>
      <trkpt lat="43.58467" lon="3.75758">
        <ele>56.9</ele>
        <time>2011-04-09T06:28:25Z</time>
      </trkpt>
      <trkpt lat="43.58474" lon="3.75754">
        <ele>56.9</ele>
        <time>2011-04-09T06:28:27Z</time>
      </trkpt>
      <trkpt lat="43.58477" lon="3.75747">
        <ele>56.8</ele>
        <time>2011-04-09T06:28:29Z</time>
      </trkpt>
      <trkpt lat="43.58479" lon="3.75736">
        <ele>56.6</ele>
        <time>2011-04-09T06:28:32Z</time>
      </trkpt>
      <trkpt lat="43.58478" lon="3.75724">
        <ele>61.2</ele>
        <time>2011-04-09T06:29:16Z</time>
      </trkpt>
      <trkpt lat="43.58478" lon="3.75724">
        <ele>61.4</ele>
        <time>2011-04-09T06:29:17Z</time>
      </trkpt>
      <trkpt lat="43.58478" lon="3.75737">
        <ele>61.1</ele>
        <time>2011-04-09T06:36:01Z</time>
      </trkpt>
      <trkpt lat="43.58475" lon="3.75753">
        <ele>61.2</ele>
        <time>2011-04-09T06:36:07Z</time>
      </trkpt>
      <trkpt lat="43.58468" lon="3.75756">
        <ele>61.1</ele>
        <time>2011-04-09T06:36:09Z</time>
      </trkpt>
      <trkpt lat="43.58461" lon="3.75754">
        <ele>60.9</ele>
        <time>2011-04-09T06:36:11Z</time>
      </trkpt>
      <trkpt lat="43.58456" lon="3.75746">
        <ele>60.5</ele>
        <time>2011-04-09T06:36:13Z</time>
      </trkpt>
      <trkpt lat="43.58451" lon="3.75736">
        <ele>60.2</ele>
        <time>2011-04-09T06:36:15Z</time>
      </trkpt>
      <trkpt lat="43.58446" lon="3.75727">
        <ele>59.3</ele>
        <time>2011-04-09T06:36:17Z</time>
      </trkpt>
      <trkpt lat="43.58441" lon="3.75717">
        <ele>58.8</ele>
        <time>2011-04-09T06:36:19Z</time>
      </trkpt>
      <trkpt lat="43.58437" lon="3.75708">
        <ele>59.4</ele>
        <time>2011-04-09T06:36:21Z</time>
      </trkpt>
      <trkpt lat="43.58433" lon="3.75698">
        <ele>59.5</ele>
        <time>2011-04-09T06:36:23Z</time>
      </trkpt>
      <trkpt lat="43.58429" lon="3.7569">
        <ele>59.5</ele>
        <time>2011-04-09T06:36:25Z</time>
      </trkpt>
      <trkpt lat="43.58426" lon="3.75682">
        <ele>59.7</ele>
        <time>2011-04-09T06:36:27Z</time>
      </trkpt>
      <trkpt lat="43.58422" lon="3.75673">
        <ele>59.6</ele>
        <time>2011-04-09T06:36:29Z</time>
      </trkpt>
      <trkpt lat="43.58418" lon="3.75665">
        <ele>59.3</ele>
        <time>2011-04-09T06:36:31Z</time>
      </trkpt>
      <trkpt lat="43.58415" lon="3.75656">
        <ele>59.4</ele>
        <time>2011-04-09T06:36:33Z</time>
      </trkpt>
      <trkpt lat="43.58411" lon="3.75648">
        <ele>59.4</ele>
        <time>2011-04-09T06:36:35Z</time>
      </trkpt>
      <trkpt lat="43.58408" lon="3.75639">
        <ele>59.5</ele>
        <time>2011-04-09T06:36:37Z</time>
      </trkpt>
      <trkpt lat="43.58404" lon="3.7563">
        <ele>59.7</ele>
        <time>2011-04-09T06:36:39Z</time>
      </trkpt>
      <trkpt lat="43.584" lon="3.75621">
        <ele>60</ele>
        <time>2011-04-09T06:36:41Z</time>
      </trkpt>
      <trkpt lat="43.58396" lon="3.75611">
        <ele>60.5</ele>
        <time>2011-04-09T06:36:43Z</time>
      </trkpt>
      <trkpt lat="43.58392" lon="3.75601">
        <ele>60.6</ele>
        <time>2011-04-09T06:36:45Z</time>
      </trkpt>
      <trkpt lat="43.58388" lon="3.75591">
        <ele>60.4</ele>
        <time>2011-04-09T06:36:47Z</time>
      </trkpt>
      <trkpt lat="43.58384" lon="3.75581">
        <ele>60.6</ele>
        <time>2011-04-09T06:36:49Z</time>
      </trkpt>
      <trkpt lat="43.5838" lon="3.75571">
        <ele>60.7</ele>
        <time>2011-04-09T06:36:51Z</time>
      </trkpt>
      <trkpt lat="43.58376" lon="3.75561">
        <ele>60.2</ele>
        <time>2011-04-09T06:36:53Z</time>
      </trkpt>
      <trkpt lat="43.58371" lon="3.75552">
        <ele>60</ele>
        <time>2011-04-09T06:36:55Z</time>
      </trkpt>
      <trkpt lat="43.58367" lon="3.75542">
        <ele>59.9</ele>
        <time>2011-04-09T06:36:57Z</time>
      </trkpt>
      <trkpt lat="43.58363" lon="3.75532">
        <ele>60</ele>
        <time>2011-04-09T06:36:59Z</time>
      </trkpt>
      <trkpt lat="43.58358" lon="3.75523">
        <ele>59.9</ele>
        <time>2011-04-09T06:37:01Z</time>
      </trkpt>
      <trkpt lat="43.58356" lon="3.75518">
        <ele>59.7</ele>
        <time>2011-04-09T06:37:02Z</time>
      </trkpt>
      <trkpt lat="43.58349" lon="3.75504">
        <ele>59.7</ele>
        <time>2011-04-09T06:37:05Z</time>
      </trkpt>
      <trkpt lat="43.58345" lon="3.75494">
        <ele>59.5</ele>
        <time>2011-04-09T06:37:07Z</time>
      </trkpt>
      <trkpt lat="43.5834" lon="3.75485">
        <ele>59.1</ele>
        <time>2011-04-09T06:37:09Z</time>
      </trkpt>
      <trkpt lat="43.58336" lon="3.75475">
        <ele>58.8</ele>
        <time>2011-04-09T06:37:11Z</time>
      </trkpt>
      <trkpt lat="43.58332" lon="3.75465">
        <ele>58.7</ele>
        <time>2011-04-09T06:37:13Z</time>
      </trkpt>
      <trkpt lat="43.58327" lon="3.75455">
        <ele>59</ele>
        <time>2011-04-09T06:37:15Z</time>
      </trkpt>
      <trkpt lat="43.58323" lon="3.75446">
        <ele>59.1</ele>
        <time>2011-04-09T06:37:17Z</time>
      </trkpt>
      <trkpt lat="43.58319" lon="3.75436">
        <ele>59.1</ele>
        <time>2011-04-09T06:37:19Z</time>
      </trkpt>
      <trkpt lat="43.58314" lon="3.75426">
        <ele>60</ele>
        <time>2011-04-09T06:37:21Z</time>
      </trkpt>
      <trkpt lat="43.5831" lon="3.75417">
        <ele>60.6</ele>
        <time>2011-04-09T06:37:23Z</time>
      </trkpt>
      <trkpt lat="43.58306" lon="3.75407">
        <ele>61</ele>
        <time>2011-04-09T06:37:25Z</time>
      </trkpt>
      <trkpt lat="43.58301" lon="3.75397">
        <ele>61</ele>
        <time>2011-04-09T06:37:27Z</time>
      </trkpt>
      <trkpt lat="43.58297" lon="3.75387">
        <ele>60.7</ele>
        <time>2011-04-09T06:37:29Z</time>
      </trkpt>
      <trkpt lat="43.58293" lon="3.75378">
        <ele>60.2</ele>
        <time>2011-04-09T06:37:31Z</time>
      </trkpt>
      <trkpt lat="43.58289" lon="3.75368">
        <ele>59.9</ele>
        <time>2011-04-09T06:37:33Z</time>
      </trkpt>
      <trkpt lat="43.58284" lon="3.75359">
        <ele>59.8</ele>
        <time>2011-04-09T06:37:35Z</time>
      </trkpt>
      <trkpt lat="43.5828" lon="3.75349">
        <ele>60</ele>
        <time>2011-04-09T06:37:37Z</time>
      </trkpt>
      <trkpt lat="43.58276" lon="3.7534">
        <ele>60.2</ele>
        <time>2011-04-09T06:37:39Z</time>
      </trkpt>
      <trkpt lat="43.58272" lon="3.7533">
        <ele>60.4</ele>
        <time>2011-04-09T06:37:41Z</time>
      </trkpt>
      <trkpt lat="43.58268" lon="3.75321">
        <ele>60.6</ele>
        <time>2011-04-09T06:37:43Z</time>
      </trkpt>
      <trkpt lat="43.58264" lon="3.75311">
        <ele>60.9</ele>
        <time>2011-04-09T06:37:45Z</time>
      </trkpt>
      <trkpt lat="43.5826" lon="3.75302">
        <ele>60.9</ele>
        <time>2011-04-09T06:37:47Z</time>
      </trkpt>
      <trkpt lat="43.58256" lon="3.75293">
        <ele>60.5</ele>
        <time>2011-04-09T06:37:49Z</time>
      </trkpt>
      <trkpt lat="43.58251" lon="3.75283">
        <ele>60.1</ele>
        <time>2011-04-09T06:37:51Z</time>
      </trkpt>
      <trkpt lat="43.58247" lon="3.75273">
        <ele>60.3</ele>
        <time>2011-04-09T06:37:53Z</time>
      </trkpt>
      <trkpt lat="43.58243" lon="3.75264">
        <ele>60.2</ele>
        <time>2011-04-09T06:37:55Z</time>
      </trkpt>
      <trkpt lat="43.58239" lon="3.75254">
        <ele>59.9</ele>
        <time>2011-04-09T06:37:57Z</time>
      </trkpt>
      <trkpt lat="43.58235" lon="3.75245">
        <ele>60.1</ele>
        <time>2011-04-09T06:37:59Z</time>
      </trkpt>
      <trkpt lat="43.58231" lon="3.75236">
        <ele>60.6</ele>
        <time>2011-04-09T06:38:01Z</time>
      </trkpt>
      <trkpt lat="43.58226" lon="3.75226">
        <ele>60.9</ele>
        <time>2011-04-09T06:38:03Z</time>
      </trkpt>
      <trkpt lat="43.58224" lon="3.75221">
        <ele>61</ele>
        <time>2011-04-09T06:38:04Z</time>
      </trkpt>
      <trkpt lat="43.58218" lon="3.75207">
        <ele>61.2</ele>
        <time>2011-04-09T06:38:07Z</time>
      </trkpt>
      <trkpt lat="43.58214" lon="3.75197">
        <ele>61.4</ele>
        <time>2011-04-09T06:38:09Z</time>
      </trkpt>
      <trkpt lat="43.5821" lon="3.75188">
        <ele>61.4</ele>
        <time>2011-04-09T06:38:11Z</time>
      </trkpt>
      <trkpt lat="43.58206" lon="3.75179">
        <ele>61.3</ele>
        <time>2011-04-09T06:38:13Z</time>
      </trkpt>
      <trkpt lat="43.58202" lon="3.75169">
        <ele>61.5</ele>
        <time>2011-04-09T06:38:15Z</time>
      </trkpt>
      <trkpt lat="43.58198" lon="3.7516">
        <ele>61.7</ele>
        <time>2011-04-09T06:38:17Z</time>
      </trkpt>
      <trkpt lat="43.58194" lon="3.75151">
        <ele>62</ele>
        <time>2011-04-09T06:38:19Z</time>
      </trkpt>
      <trkpt lat="43.58189" lon="3.75142">
        <ele>62</ele>
        <time>2011-04-09T06:38:21Z</time>
      </trkpt>
      <trkpt lat="43.58185" lon="3.75133">
        <ele>62</ele>
        <time>2011-04-09T06:38:23Z</time>
      </trkpt>
      <trkpt lat="43.58181" lon="3.75124">
        <ele>61.7</ele>
        <time>2011-04-09T06:38:25Z</time>
      </trkpt>
      <trkpt lat="43.58177" lon="3.75115">
        <ele>62</ele>
        <time>2011-04-09T06:38:27Z</time>
      </trkpt>
      <trkpt lat="43.58173" lon="3.75106">
        <ele>62.6</ele>
        <time>2011-04-09T06:38:29Z</time>
      </trkpt>
      <trkpt lat="43.58169" lon="3.75097">
        <ele>63</ele>
        <time>2011-04-09T06:38:31Z</time>
      </trkpt>
      <trkpt lat="43.58165" lon="3.75089">
        <ele>63.1</ele>
        <time>2011-04-09T06:38:33Z</time>
      </trkpt>
      <trkpt lat="43.58161" lon="3.7508">
        <ele>63</ele>
        <time>2011-04-09T06:38:35Z</time>
      </trkpt>
      <trkpt lat="43.58157" lon="3.75071">
        <ele>63</ele>
        <time>2011-04-09T06:38:37Z</time>
      </trkpt>
      <trkpt lat="43.58153" lon="3.75062">
        <ele>63.1</ele>
        <time>2011-04-09T06:38:39Z</time>
      </trkpt>
      <trkpt lat="43.58149" lon="3.75053">
        <ele>63.4</ele>
        <time>2011-04-09T06:38:41Z</time>
      </trkpt>
      <trkpt lat="43.58145" lon="3.75043">
        <ele>63.4</ele>
        <time>2011-04-09T06:38:43Z</time>
      </trkpt>
      <trkpt lat="43.58141" lon="3.75034">
        <ele>63.1</ele>
        <time>2011-04-09T06:38:45Z</time>
      </trkpt>
      <trkpt lat="43.58137" lon="3.75026">
        <ele>63.2</ele>
        <time>2011-04-09T06:38:47Z</time>
      </trkpt>
      <trkpt lat="43.58133" lon="3.75017">
        <ele>63.2</ele>
        <time>2011-04-09T06:38:49Z</time>
      </trkpt>
      <trkpt lat="43.58128" lon="3.75007">
        <ele>63</ele>
        <time>2011-04-09T06:38:51Z</time>
      </trkpt>
      <trkpt lat="43.58124" lon="3.74997">
        <ele>63.2</ele>
        <time>2011-04-09T06:38:53Z</time>
      </trkpt>
      <trkpt lat="43.58121" lon="3.74992">
        <ele>63.4</ele>
        <time>2011-04-09T06:38:54Z</time>
      </trkpt>
      <trkpt lat="43.58115" lon="3.74983">
        <ele>63.3</ele>
        <time>2011-04-09T06:38:56Z</time>
      </trkpt>
      <trkpt lat="43.58108" lon="3.74976">
        <ele>62.9</ele>
        <time>2011-04-09T06:38:58Z</time>
      </trkpt>
      <trkpt lat="43.58103" lon="3.74968">
        <ele>63.4</ele>
        <time>2011-04-09T06:39:00Z</time>
      </trkpt>
      <trkpt lat="43.58098" lon="3.74961">
        <ele>63.5</ele>
        <time>2011-04-09T06:39:02Z</time>
      </trkpt>
      <trkpt lat="43.58094" lon="3.74958">
        <ele>63.4</ele>
        <time>2011-04-09T06:39:03Z</time>
      </trkpt>
      <trkpt lat="43.58089" lon="3.74954">
        <ele>63.4</ele>
        <time>2011-04-09T06:39:04Z</time>
      </trkpt>
      <trkpt lat="43.58085" lon="3.74949">
        <ele>63.3</ele>
        <time>2011-04-09T06:39:05Z</time>
      </trkpt>
      <trkpt lat="43.58082" lon="3.74943">
        <ele>63.1</ele>
        <time>2011-04-09T06:39:06Z</time>
      </trkpt>
      <trkpt lat="43.58078" lon="3.74938">
        <ele>62.9</ele>
        <time>2011-04-09T06:39:07Z</time>
      </trkpt>
      <trkpt lat="43.58074" lon="3.74933">
        <ele>62.8</ele>
        <time>2011-04-09T06:39:08Z</time>
      </trkpt>
      <trkpt lat="43.58069" lon="3.74928">
        <ele>62.5</ele>
        <time>2011-04-09T06:39:09Z</time>
      </trkpt>
      <trkpt lat="43.58064" lon="3.74925">
        <ele>62.3</ele>
        <time>2011-04-09T06:39:10Z</time>
      </trkpt>
      <trkpt lat="43.58059" lon="3.74922">
        <ele>62.2</ele>
        <time>2011-04-09T06:39:11Z</time>
      </trkpt>
      <trkpt lat="43.58053" lon="3.74921">
        <ele>61.7</ele>
        <time>2011-04-09T06:39:12Z</time>
      </trkpt>
      <trkpt lat="43.58047" lon="3.74923">
        <ele>61.4</ele>
        <time>2011-04-09T06:39:13Z</time>
      </trkpt>
      <trkpt lat="43.58042" lon="3.74925">
        <ele>61.1</ele>
        <time>2011-04-09T06:39:14Z</time>
      </trkpt>
      <trkpt lat="43.58036" lon="3.74927">
        <ele>60.8</ele>
        <time>2011-04-09T06:39:15Z</time>
      </trkpt>
      <trkpt lat="43.58031" lon="3.74929">
        <ele>60.6</ele>
        <time>2011-04-09T06:39:16Z</time>
      </trkpt>
      <trkpt lat="43.58025" lon="3.74932">
        <ele>60.5</ele>
        <time>2011-04-09T06:39:17Z</time>
      </trkpt>
      <trkpt lat="43.5802" lon="3.74934">
        <ele>60.3</ele>
        <time>2011-04-09T06:39:18Z</time>
      </trkpt>
      <trkpt lat="43.58014" lon="3.74937">
        <ele>60.2</ele>
        <time>2011-04-09T06:39:19Z</time>
      </trkpt>
      <trkpt lat="43.58009" lon="3.74939">
        <ele>60.1</ele>
        <time>2011-04-09T06:39:20Z</time>
      </trkpt>
      <trkpt lat="43.58004" lon="3.74943">
        <ele>60</ele>
        <time>2011-04-09T06:39:21Z</time>
      </trkpt>
      <trkpt lat="43.57998" lon="3.74945">
        <ele>60</ele>
        <time>2011-04-09T06:39:22Z</time>
      </trkpt>
      <trkpt lat="43.57993" lon="3.74948">
        <ele>60.1</ele>
        <time>2011-04-09T06:39:23Z</time>
      </trkpt>
      <trkpt lat="43.57987" lon="3.7495">
        <ele>60.1</ele>
        <time>2011-04-09T06:39:24Z</time>
      </trkpt>
      <trkpt lat="43.57982" lon="3.74953">
        <ele>59.8</ele>
        <time>2011-04-09T06:39:25Z</time>
      </trkpt>
      <trkpt lat="43.57977" lon="3.74957">
        <ele>59.6</ele>
        <time>2011-04-09T06:39:26Z</time>
      </trkpt>
      <trkpt lat="43.57971" lon="3.7496">
        <ele>59.5</ele>
        <time>2011-04-09T06:39:27Z</time>
      </trkpt>
      <trkpt lat="43.57966" lon="3.74963">
        <ele>59.2</ele>
        <time>2011-04-09T06:39:28Z</time>
      </trkpt>
      <trkpt lat="43.57961" lon="3.74966">
        <ele>59</ele>
        <time>2011-04-09T06:39:29Z</time>
      </trkpt>
      <trkpt lat="43.57955" lon="3.74969">
        <ele>58.8</ele>
        <time>2011-04-09T06:39:30Z</time>
      </trkpt>
      <trkpt lat="43.57949" lon="3.74971">
        <ele>58.5</ele>
        <time>2011-04-09T06:39:31Z</time>
      </trkpt>
      <trkpt lat="43.57944" lon="3.74974">
        <ele>58.3</ele>
        <time>2011-04-09T06:39:32Z</time>
      </trkpt>
      <trkpt lat="43.57938" lon="3.74977">
        <ele>58.2</ele>
        <time>2011-04-09T06:39:33Z</time>
      </trkpt>
      <trkpt lat="43.57933" lon="3.7498">
        <ele>58.2</ele>
        <time>2011-04-09T06:39:34Z</time>
      </trkpt>
      <trkpt lat="43.57927" lon="3.74984">
        <ele>58.2</ele>
        <time>2011-04-09T06:39:35Z</time>
      </trkpt>
      <trkpt lat="43.57922" lon="3.74987">
        <ele>58.2</ele>
        <time>2011-04-09T06:39:36Z</time>
      </trkpt>
      <trkpt lat="43.57917" lon="3.74991">
        <ele>58.3</ele>
        <time>2011-04-09T06:39:37Z</time>
      </trkpt>
      <trkpt lat="43.57911" lon="3.74996">
        <ele>58.3</ele>
        <time>2011-04-09T06:39:38Z</time>
      </trkpt>
      <trkpt lat="43.57906" lon="3.75001">
        <ele>58.3</ele>
        <time>2011-04-09T06:39:39Z</time>
      </trkpt>
      <trkpt lat="43.57902" lon="3.75006">
        <ele>58.4</ele>
        <time>2011-04-09T06:39:40Z</time>
      </trkpt>
      <trkpt lat="43.57897" lon="3.75012">
        <ele>58</ele>
        <time>2011-04-09T06:39:41Z</time>
      </trkpt>
      <trkpt lat="43.57892" lon="3.75018">
        <ele>57.6</ele>
        <time>2011-04-09T06:39:42Z</time>
      </trkpt>
      <trkpt lat="43.57888" lon="3.75024">
        <ele>57.4</ele>
        <time>2011-04-09T06:39:43Z</time>
      </trkpt>
      <trkpt lat="43.57884" lon="3.75031">
        <ele>57.4</ele>
        <time>2011-04-09T06:39:44Z</time>
      </trkpt>
      <trkpt lat="43.5788" lon="3.75037">
        <ele>57.3</ele>
        <time>2011-04-09T06:39:45Z</time>
      </trkpt>
      <trkpt lat="43.57876" lon="3.75043">
        <ele>57.3</ele>
        <time>2011-04-09T06:39:46Z</time>
      </trkpt>
      <trkpt lat="43.57871" lon="3.75049">
        <ele>57</ele>
        <time>2011-04-09T06:39:47Z</time>
      </trkpt>
      <trkpt lat="43.57867" lon="3.75055">
        <ele>56.8</ele>
        <time>2011-04-09T06:39:48Z</time>
      </trkpt>
      <trkpt lat="43.57864" lon="3.75062">
        <ele>56.6</ele>
        <time>2011-04-09T06:39:49Z</time>
      </trkpt>
      <trkpt lat="43.5786" lon="3.75069">
        <ele>56.2</ele>
        <time>2011-04-09T06:39:50Z</time>
      </trkpt>
      <trkpt lat="43.57856" lon="3.75076">
        <ele>55.9</ele>
        <time>2011-04-09T06:39:51Z</time>
      </trkpt>
      <trkpt lat="43.57852" lon="3.75082">
        <ele>55.6</ele>
        <time>2011-04-09T06:39:52Z</time>
      </trkpt>
      <trkpt lat="43.57847" lon="3.75088">
        <ele>55.2</ele>
        <time>2011-04-09T06:39:53Z</time>
      </trkpt>
      <trkpt lat="43.57843" lon="3.75093">
        <ele>54.9</ele>
        <time>2011-04-09T06:39:54Z</time>
      </trkpt>
      <trkpt lat="43.57838" lon="3.75099">
        <ele>54.7</ele>
        <time>2011-04-09T06:39:55Z</time>
      </trkpt>
      <trkpt lat="43.57834" lon="3.75105">
        <ele>54.5</ele>
        <time>2011-04-09T06:39:56Z</time>
      </trkpt>
      <trkpt lat="43.5783" lon="3.75111">
        <ele>54.5</ele>
        <time>2011-04-09T06:39:57Z</time>
      </trkpt>
      <trkpt lat="43.57826" lon="3.75117">
        <ele>54.6</ele>
        <time>2011-04-09T06:39:58Z</time>
      </trkpt>
      <trkpt lat="43.57822" lon="3.75123">
        <ele>54.6</ele>
        <time>2011-04-09T06:39:59Z</time>
      </trkpt>
      <trkpt lat="43.57818" lon="3.75129">
        <ele>54.8</ele>
        <time>2011-04-09T06:40:00Z</time>
      </trkpt>
      <trkpt lat="43.57815" lon="3.75136">
        <ele>54.9</ele>
        <time>2011-04-09T06:40:01Z</time>
      </trkpt>
      <trkpt lat="43.57812" lon="3.75142">
        <ele>55</ele>
        <time>2011-04-09T06:40:02Z</time>
      </trkpt>
      <trkpt lat="43.57808" lon="3.75148">
        <ele>54.5</ele>
        <time>2011-04-09T06:40:03Z</time>
      </trkpt>
      <trkpt lat="43.57805" lon="3.75155">
        <ele>54.2</ele>
        <time>2011-04-09T06:40:04Z</time>
      </trkpt>
      <trkpt lat="43.57801" lon="3.75161">
        <ele>54</ele>
        <time>2011-04-09T06:40:05Z</time>
      </trkpt>
      <trkpt lat="43.57798" lon="3.75168">
        <ele>54</ele>
        <time>2011-04-09T06:40:06Z</time>
      </trkpt>
      <trkpt lat="43.57795" lon="3.75175">
        <ele>54.1</ele>
        <time>2011-04-09T06:40:07Z</time>
      </trkpt>
      <trkpt lat="43.57792" lon="3.75182">
        <ele>54.1</ele>
        <time>2011-04-09T06:40:08Z</time>
      </trkpt>
      <trkpt lat="43.57789" lon="3.75189">
        <ele>53.7</ele>
        <time>2011-04-09T06:40:09Z</time>
      </trkpt>
      <trkpt lat="43.57786" lon="3.75196">
        <ele>53.5</ele>
        <time>2011-04-09T06:40:10Z</time>
      </trkpt>
      <trkpt lat="43.57783" lon="3.75203">
        <ele>53.3</ele>
        <time>2011-04-09T06:40:11Z</time>
      </trkpt>
      <trkpt lat="43.57779" lon="3.75211">
        <ele>53.1</ele>
        <time>2011-04-09T06:40:12Z</time>
      </trkpt>
      <trkpt lat="43.57777" lon="3.75219">
        <ele>52.7</ele>
        <time>2011-04-09T06:40:13Z</time>
      </trkpt>
      <trkpt lat="43.57775" lon="3.75227">
        <ele>52.5</ele>
        <time>2011-04-09T06:40:14Z</time>
      </trkpt>
      <trkpt lat="43.57772" lon="3.75235">
        <ele>52.2</ele>
        <time>2011-04-09T06:40:15Z</time>
      </trkpt>
      <trkpt lat="43.57769" lon="3.75243">
        <ele>52.2</ele>
        <time>2011-04-09T06:40:16Z</time>
      </trkpt>
      <trkpt lat="43.57766" lon="3.7525">
        <ele>52.2</ele>
        <time>2011-04-09T06:40:17Z</time>
      </trkpt>
      <trkpt lat="43.57762" lon="3.75256">
        <ele>52.2</ele>
        <time>2011-04-09T06:40:18Z</time>
      </trkpt>
      <trkpt lat="43.57758" lon="3.75263">
        <ele>52.2</ele>
        <time>2011-04-09T06:40:19Z</time>
      </trkpt>
      <trkpt lat="43.57754" lon="3.75269">
        <ele>52.2</ele>
        <time>2011-04-09T06:40:20Z</time>
      </trkpt>
      <trkpt lat="43.5775" lon="3.75275">
        <ele>52.2</ele>
        <time>2011-04-09T06:40:21Z</time>
      </trkpt>
      <trkpt lat="43.57745" lon="3.75278">
        <ele>51.9</ele>
        <time>2011-04-09T06:40:22Z</time>
      </trkpt>
      <trkpt lat="43.57737" lon="3.75279">
        <ele>51.5</ele>
        <time>2011-04-09T06:40:24Z</time>
      </trkpt>
      <trkpt lat="43.57729" lon="3.75275">
        <ele>51.2</ele>
        <time>2011-04-09T06:40:26Z</time>
      </trkpt>
      <trkpt lat="43.57726" lon="3.75269">
        <ele>51.1</ele>
        <time>2011-04-09T06:40:27Z</time>
      </trkpt>
      <trkpt lat="43.57723" lon="3.75264">
        <ele>51.1</ele>
        <time>2011-04-09T06:40:28Z</time>
      </trkpt>
      <trkpt lat="43.5772" lon="3.75258">
        <ele>51</ele>
        <time>2011-04-09T06:40:29Z</time>
      </trkpt>
      <trkpt lat="43.57717" lon="3.75252">
        <ele>51</ele>
        <time>2011-04-09T06:40:30Z</time>
      </trkpt>
      <trkpt lat="43.57715" lon="3.75246">
        <ele>51</ele>
        <time>2011-04-09T06:40:31Z</time>
      </trkpt>
      <trkpt lat="43.57712" lon="3.75241">
        <ele>50.8</ele>
        <time>2011-04-09T06:40:32Z</time>
      </trkpt>
      <trkpt lat="43.5771" lon="3.75235">
        <ele>50.7</ele>
        <time>2011-04-09T06:40:33Z</time>
      </trkpt>
      <trkpt lat="43.57707" lon="3.75229">
        <ele>50.6</ele>
        <time>2011-04-09T06:40:34Z</time>
      </trkpt>
      <trkpt lat="43.57704" lon="3.75223">
        <ele>50.7</ele>
        <time>2011-04-09T06:40:35Z</time>
      </trkpt>
      <trkpt lat="43.57701" lon="3.75217">
        <ele>50.7</ele>
        <time>2011-04-09T06:40:36Z</time>
      </trkpt>
      <trkpt lat="43.57699" lon="3.75211">
        <ele>50.8</ele>
        <time>2011-04-09T06:40:37Z</time>
      </trkpt>
      <trkpt lat="43.57696" lon="3.75205">
        <ele>50.6</ele>
        <time>2011-04-09T06:40:38Z</time>
      </trkpt>
      <trkpt lat="43.57694" lon="3.75198">
        <ele>50.5</ele>
        <time>2011-04-09T06:40:39Z</time>
      </trkpt>
      <trkpt lat="43.57693" lon="3.75191">
        <ele>50.4</ele>
        <time>2011-04-09T06:40:40Z</time>
      </trkpt>
      <trkpt lat="43.57692" lon="3.75184">
        <ele>50.4</ele>
        <time>2011-04-09T06:40:41Z</time>
      </trkpt>
      <trkpt lat="43.5769" lon="3.75177">
        <ele>50.4</ele>
        <time>2011-04-09T06:40:42Z</time>
      </trkpt>
      <trkpt lat="43.57688" lon="3.75171">
        <ele>50.4</ele>
        <time>2011-04-09T06:40:43Z</time>
      </trkpt>
      <trkpt lat="43.57685" lon="3.75165">
        <ele>50.4</ele>
        <time>2011-04-09T06:40:44Z</time>
      </trkpt>
      <trkpt lat="43.57683" lon="3.75159">
        <ele>50.2</ele>
        <time>2011-04-09T06:40:45Z</time>
      </trkpt>
      <trkpt lat="43.5768" lon="3.75153">
        <ele>50.1</ele>
        <time>2011-04-09T06:40:46Z</time>
      </trkpt>
      <trkpt lat="43.57678" lon="3.75147">
        <ele>50</ele>
        <time>2011-04-09T06:40:47Z</time>
      </trkpt>
      <trkpt lat="43.57675" lon="3.75142">
        <ele>50.1</ele>
        <time>2011-04-09T06:40:48Z</time>
      </trkpt>
      <trkpt lat="43.57673" lon="3.75136">
        <ele>50.1</ele>
        <time>2011-04-09T06:40:49Z</time>
      </trkpt>
      <trkpt lat="43.5767" lon="3.75131">
        <ele>50.2</ele>
        <time>2011-04-09T06:40:50Z</time>
      </trkpt>
      <trkpt lat="43.57667" lon="3.75125">
        <ele>50.6</ele>
        <time>2011-04-09T06:40:51Z</time>
      </trkpt>
      <trkpt lat="43.57665" lon="3.7512">
        <ele>50.9</ele>
        <time>2011-04-09T06:40:52Z</time>
      </trkpt>
      <trkpt lat="43.57662" lon="3.75114">
        <ele>51.1</ele>
        <time>2011-04-09T06:40:53Z</time>
      </trkpt>
      <trkpt lat="43.5766" lon="3.75109">
        <ele>51.1</ele>
        <time>2011-04-09T06:40:54Z</time>
      </trkpt>
      <trkpt lat="43.57657" lon="3.75103">
        <ele>51.1</ele>
        <time>2011-04-09T06:40:55Z</time>
      </trkpt>
      <trkpt lat="43.57655" lon="3.75097">
        <ele>51.1</ele>
        <time>2011-04-09T06:40:56Z</time>
      </trkpt>
      <trkpt lat="43.57652" lon="3.75092">
        <ele>51</ele>
        <time>2011-04-09T06:40:57Z</time>
      </trkpt>
      <trkpt lat="43.5765" lon="3.75086">
        <ele>51</ele>
        <time>2011-04-09T06:40:58Z</time>
      </trkpt>
      <trkpt lat="43.57647" lon="3.75081">
        <ele>51</ele>
        <time>2011-04-09T06:40:59Z</time>
      </trkpt>
      <trkpt lat="43.57645" lon="3.75075">
        <ele>51</ele>
        <time>2011-04-09T06:41:00Z</time>
      </trkpt>
      <trkpt lat="43.57642" lon="3.7507">
        <ele>51</ele>
        <time>2011-04-09T06:41:01Z</time>
      </trkpt>
      <trkpt lat="43.5764" lon="3.75064">
        <ele>51.1</ele>
        <time>2011-04-09T06:41:02Z</time>
      </trkpt>
      <trkpt lat="43.57637" lon="3.75058">
        <ele>51.1</ele>
        <time>2011-04-09T06:41:03Z</time>
      </trkpt>
      <trkpt lat="43.57635" lon="3.75053">
        <ele>51</ele>
        <time>2011-04-09T06:41:04Z</time>
      </trkpt>
      <trkpt lat="43.57633" lon="3.75047">
        <ele>51</ele>
        <time>2011-04-09T06:41:05Z</time>
      </trkpt>
      <trkpt lat="43.5763" lon="3.75041">
        <ele>51</ele>
        <time>2011-04-09T06:41:06Z</time>
      </trkpt>
      <trkpt lat="43.57628" lon="3.75036">
        <ele>50.9</ele>
        <time>2011-04-09T06:41:07Z</time>
      </trkpt>
      <trkpt lat="43.57626" lon="3.7503">
        <ele>50.8</ele>
        <time>2011-04-09T06:41:08Z</time>
      </trkpt>
      <trkpt lat="43.57623" lon="3.75024">
        <ele>50.8</ele>
        <time>2011-04-09T06:41:09Z</time>
      </trkpt>
      <trkpt lat="43.57621" lon="3.75018">
        <ele>50.6</ele>
        <time>2011-04-09T06:41:10Z</time>
      </trkpt>
      <trkpt lat="43.57619" lon="3.75012">
        <ele>50.5</ele>
        <time>2011-04-09T06:41:11Z</time>
      </trkpt>
      <trkpt lat="43.57616" lon="3.75006">
        <ele>50.4</ele>
        <time>2011-04-09T06:41:12Z</time>
      </trkpt>
      <trkpt lat="43.57614" lon="3.75">
        <ele>50.7</ele>
        <time>2011-04-09T06:41:13Z</time>
      </trkpt>
      <trkpt lat="43.57612" lon="3.74994">
        <ele>50.9</ele>
        <time>2011-04-09T06:41:14Z</time>
      </trkpt>
      <trkpt lat="43.5761" lon="3.74988">
        <ele>51.1</ele>
        <time>2011-04-09T06:41:15Z</time>
      </trkpt>
      <trkpt lat="43.57608" lon="3.74982">
        <ele>51.2</ele>
        <time>2011-04-09T06:41:16Z</time>
      </trkpt>
      <trkpt lat="43.57607" lon="3.74976">
        <ele>51.3</ele>
        <time>2011-04-09T06:41:17Z</time>
      </trkpt>
      <trkpt lat="43.57605" lon="3.7497">
        <ele>51.3</ele>
        <time>2011-04-09T06:41:18Z</time>
      </trkpt>
      <trkpt lat="43.57602" lon="3.74959">
        <ele>51.6</ele>
        <time>2011-04-09T06:41:20Z</time>
      </trkpt>
      <trkpt lat="43.57598" lon="3.74948">
        <ele>51.9</ele>
        <time>2011-04-09T06:41:22Z</time>
      </trkpt>
      <trkpt lat="43.57595" lon="3.74936">
        <ele>52.8</ele>
        <time>2011-04-09T06:41:24Z</time>
      </trkpt>
      <trkpt lat="43.57592" lon="3.74925">
        <ele>52.9</ele>
        <time>2011-04-09T06:41:26Z</time>
      </trkpt>
      <trkpt lat="43.57588" lon="3.74914">
        <ele>52.5</ele>
        <time>2011-04-09T06:41:28Z</time>
      </trkpt>
      <trkpt lat="43.57585" lon="3.74903">
        <ele>53</ele>
        <time>2011-04-09T06:41:30Z</time>
      </trkpt>
      <trkpt lat="43.57582" lon="3.74891">
        <ele>53.2</ele>
        <time>2011-04-09T06:41:32Z</time>
      </trkpt>
      <trkpt lat="43.57578" lon="3.7488">
        <ele>53.1</ele>
        <time>2011-04-09T06:41:34Z</time>
      </trkpt>
      <trkpt lat="43.57577" lon="3.74874">
        <ele>53.1</ele>
        <time>2011-04-09T06:41:35Z</time>
      </trkpt>
      <trkpt lat="43.57575" lon="3.74868">
        <ele>53.1</ele>
        <time>2011-04-09T06:41:36Z</time>
      </trkpt>
      <trkpt lat="43.57573" lon="3.74862">
        <ele>53.2</ele>
        <time>2011-04-09T06:41:37Z</time>
      </trkpt>
      <trkpt lat="43.57572" lon="3.74856">
        <ele>53.2</ele>
        <time>2011-04-09T06:41:38Z</time>
      </trkpt>
      <trkpt lat="43.5757" lon="3.7485">
        <ele>53.3</ele>
        <time>2011-04-09T06:41:39Z</time>
      </trkpt>
      <trkpt lat="43.57568" lon="3.74845">
        <ele>53.4</ele>
        <time>2011-04-09T06:41:40Z</time>
      </trkpt>
      <trkpt lat="43.57566" lon="3.74839">
        <ele>53.5</ele>
        <time>2011-04-09T06:41:41Z</time>
      </trkpt>
      <trkpt lat="43.57564" lon="3.74833">
        <ele>53.3</ele>
        <time>2011-04-09T06:41:42Z</time>
      </trkpt>
      <trkpt lat="43.57563" lon="3.74827">
        <ele>53.1</ele>
        <time>2011-04-09T06:41:43Z</time>
      </trkpt>
      <trkpt lat="43.57561" lon="3.74821">
        <ele>53</ele>
        <time>2011-04-09T06:41:44Z</time>
      </trkpt>
      <trkpt lat="43.57559" lon="3.74815">
        <ele>53.1</ele>
        <time>2011-04-09T06:41:45Z</time>
      </trkpt>
      <trkpt lat="43.57556" lon="3.74804">
        <ele>53.4</ele>
        <time>2011-04-09T06:41:47Z</time>
      </trkpt>
      <trkpt lat="43.57557" lon="3.74792">
        <ele>53.5</ele>
        <time>2011-04-09T06:41:49Z</time>
      </trkpt>
      <trkpt lat="43.5756" lon="3.74787">
        <ele>53.6</ele>
        <time>2011-04-09T06:41:50Z</time>
      </trkpt>
      <trkpt lat="43.57563" lon="3.74782">
        <ele>53.7</ele>
        <time>2011-04-09T06:41:51Z</time>
      </trkpt>
      <trkpt lat="43.57566" lon="3.74778">
        <ele>53.7</ele>
        <time>2011-04-09T06:41:52Z</time>
      </trkpt>
      <trkpt lat="43.57569" lon="3.74773">
        <ele>53.7</ele>
        <time>2011-04-09T06:41:53Z</time>
      </trkpt>
      <trkpt lat="43.57572" lon="3.74768">
        <ele>53.7</ele>
        <time>2011-04-09T06:41:54Z</time>
      </trkpt>
      <trkpt lat="43.57576" lon="3.74764">
        <ele>54</ele>
        <time>2011-04-09T06:41:55Z</time>
      </trkpt>
      <trkpt lat="43.57582" lon="3.74755">
        <ele>54.4</ele>
        <time>2011-04-09T06:41:57Z</time>
      </trkpt>
      <trkpt lat="43.57585" lon="3.74751">
        <ele>54.6</ele>
        <time>2011-04-09T06:41:58Z</time>
      </trkpt>
      <trkpt lat="43.57591" lon="3.74742">
        <ele>54.8</ele>
        <time>2011-04-09T06:42:00Z</time>
      </trkpt>
      <trkpt lat="43.57594" lon="3.74737">
        <ele>54.8</ele>
        <time>2011-04-09T06:42:01Z</time>
      </trkpt>
      <trkpt lat="43.57598" lon="3.74733">
        <ele>54.9</ele>
        <time>2011-04-09T06:42:02Z</time>
      </trkpt>
      <trkpt lat="43.57604" lon="3.74724">
        <ele>55.1</ele>
        <time>2011-04-09T06:42:04Z</time>
      </trkpt>
      <trkpt lat="43.57607" lon="3.74719">
        <ele>55.3</ele>
        <time>2011-04-09T06:42:05Z</time>
      </trkpt>
      <trkpt lat="43.5761" lon="3.74715">
        <ele>55.4</ele>
        <time>2011-04-09T06:42:06Z</time>
      </trkpt>
      <trkpt lat="43.57614" lon="3.7471">
        <ele>55.5</ele>
        <time>2011-04-09T06:42:07Z</time>
      </trkpt>
      <trkpt lat="43.57617" lon="3.74706">
        <ele>55.9</ele>
        <time>2011-04-09T06:42:08Z</time>
      </trkpt>
      <trkpt lat="43.5762" lon="3.74701">
        <ele>56.3</ele>
        <time>2011-04-09T06:42:09Z</time>
      </trkpt>
      <trkpt lat="43.57623" lon="3.74696">
        <ele>56.5</ele>
        <time>2011-04-09T06:42:10Z</time>
      </trkpt>
      <trkpt lat="43.57627" lon="3.74692">
        <ele>56.6</ele>
        <time>2011-04-09T06:42:11Z</time>
      </trkpt>
      <trkpt lat="43.5763" lon="3.74687">
        <ele>56.6</ele>
        <time>2011-04-09T06:42:12Z</time>
      </trkpt>
      <trkpt lat="43.57633" lon="3.74683">
        <ele>56.7</ele>
        <time>2011-04-09T06:42:13Z</time>
      </trkpt>
      <trkpt lat="43.57637" lon="3.74678">
        <ele>56.5</ele>
        <time>2011-04-09T06:42:14Z</time>
      </trkpt>
      <trkpt lat="43.5764" lon="3.74674">
        <ele>56.4</ele>
        <time>2011-04-09T06:42:15Z</time>
      </trkpt>
      <trkpt lat="43.57643" lon="3.74669">
        <ele>56.3</ele>
        <time>2011-04-09T06:42:16Z</time>
      </trkpt>
      <trkpt lat="43.57647" lon="3.74664">
        <ele>56.5</ele>
        <time>2011-04-09T06:42:17Z</time>
      </trkpt>
      <trkpt lat="43.5765" lon="3.7466">
        <ele>56.7</ele>
        <time>2011-04-09T06:42:18Z</time>
      </trkpt>
      <trkpt lat="43.57653" lon="3.74655">
        <ele>56.9</ele>
        <time>2011-04-09T06:42:19Z</time>
      </trkpt>
      <trkpt lat="43.57657" lon="3.7465">
        <ele>56.8</ele>
        <time>2011-04-09T06:42:20Z</time>
      </trkpt>
      <trkpt lat="43.5766" lon="3.74646">
        <ele>56.8</ele>
        <time>2011-04-09T06:42:21Z</time>
      </trkpt>
      <trkpt lat="43.57664" lon="3.74641">
        <ele>56.8</ele>
        <time>2011-04-09T06:42:22Z</time>
      </trkpt>
      <trkpt lat="43.57667" lon="3.74636">
        <ele>56.7</ele>
        <time>2011-04-09T06:42:23Z</time>
      </trkpt>
      <trkpt lat="43.5767" lon="3.74632">
        <ele>57.2</ele>
        <time>2011-04-09T06:42:24Z</time>
      </trkpt>
      <trkpt lat="43.57674" lon="3.74627">
        <ele>57.5</ele>
        <time>2011-04-09T06:42:25Z</time>
      </trkpt>
      <trkpt lat="43.57677" lon="3.74622">
        <ele>57.8</ele>
        <time>2011-04-09T06:42:26Z</time>
      </trkpt>
      <trkpt lat="43.5768" lon="3.74617">
        <ele>57.5</ele>
        <time>2011-04-09T06:42:27Z</time>
      </trkpt>
      <trkpt lat="43.57684" lon="3.74613">
        <ele>57.3</ele>
        <time>2011-04-09T06:42:28Z</time>
      </trkpt>
      <trkpt lat="43.57687" lon="3.74608">
        <ele>57.2</ele>
        <time>2011-04-09T06:42:29Z</time>
      </trkpt>
      <trkpt lat="43.57691" lon="3.74603">
        <ele>57.4</ele>
        <time>2011-04-09T06:42:30Z</time>
      </trkpt>
      <trkpt lat="43.57694" lon="3.74598">
        <ele>57.5</ele>
        <time>2011-04-09T06:42:31Z</time>
      </trkpt>
      <trkpt lat="43.57697" lon="3.74594">
        <ele>57.6</ele>
        <time>2011-04-09T06:42:32Z</time>
      </trkpt>
      <trkpt lat="43.57701" lon="3.74589">
        <ele>57.6</ele>
        <time>2011-04-09T06:42:33Z</time>
      </trkpt>
      <trkpt lat="43.57704" lon="3.74585">
        <ele>57.7</ele>
        <time>2011-04-09T06:42:34Z</time>
      </trkpt>
      <trkpt lat="43.57707" lon="3.7458">
        <ele>57.7</ele>
        <time>2011-04-09T06:42:35Z</time>
      </trkpt>
      <trkpt lat="43.5771" lon="3.74575">
        <ele>58.1</ele>
        <time>2011-04-09T06:42:36Z</time>
      </trkpt>
      <trkpt lat="43.57714" lon="3.74571">
        <ele>58.4</ele>
        <time>2011-04-09T06:42:37Z</time>
      </trkpt>
      <trkpt lat="43.57717" lon="3.74566">
        <ele>58.6</ele>
        <time>2011-04-09T06:42:38Z</time>
      </trkpt>
      <trkpt lat="43.5772" lon="3.74561">
        <ele>58.7</ele>
        <time>2011-04-09T06:42:39Z</time>
      </trkpt>
      <trkpt lat="43.57726" lon="3.74552">
        <ele>58.7</ele>
        <time>2011-04-09T06:42:41Z</time>
      </trkpt>
      <trkpt lat="43.57729" lon="3.74548">
        <ele>58.8</ele>
        <time>2011-04-09T06:42:42Z</time>
      </trkpt>
      <trkpt lat="43.57735" lon="3.74539">
        <ele>59.1</ele>
        <time>2011-04-09T06:42:44Z</time>
      </trkpt>
      <trkpt lat="43.57741" lon="3.7453">
        <ele>59.4</ele>
        <time>2011-04-09T06:42:46Z</time>
      </trkpt>
      <trkpt lat="43.57748" lon="3.74522">
        <ele>59.7</ele>
        <time>2011-04-09T06:42:48Z</time>
      </trkpt>
      <trkpt lat="43.57753" lon="3.74514">
        <ele>60.1</ele>
        <time>2011-04-09T06:42:50Z</time>
      </trkpt>
      <trkpt lat="43.57759" lon="3.74506">
        <ele>60.7</ele>
        <time>2011-04-09T06:42:52Z</time>
      </trkpt>
      <trkpt lat="43.57765" lon="3.74498">
        <ele>61.2</ele>
        <time>2011-04-09T06:42:54Z</time>
      </trkpt>
      <trkpt lat="43.57771" lon="3.7449">
        <ele>61.5</ele>
        <time>2011-04-09T06:42:56Z</time>
      </trkpt>
      <trkpt lat="43.57776" lon="3.74482">
        <ele>61.6</ele>
        <time>2011-04-09T06:42:58Z</time>
      </trkpt>
      <trkpt lat="43.57781" lon="3.74475">
        <ele>61.9</ele>
        <time>2011-04-09T06:43:00Z</time>
      </trkpt>
      <trkpt lat="43.57786" lon="3.74468">
        <ele>62.5</ele>
        <time>2011-04-09T06:43:02Z</time>
      </trkpt>
      <trkpt lat="43.57791" lon="3.74461">
        <ele>63.2</ele>
        <time>2011-04-09T06:43:04Z</time>
      </trkpt>
      <trkpt lat="43.57796" lon="3.74455">
        <ele>64.2</ele>
        <time>2011-04-09T06:43:06Z</time>
      </trkpt>
      <trkpt lat="43.57801" lon="3.74448">
        <ele>64.5</ele>
        <time>2011-04-09T06:43:08Z</time>
      </trkpt>
      <trkpt lat="43.57803" lon="3.74445">
        <ele>64.5</ele>
        <time>2011-04-09T06:43:09Z</time>
      </trkpt>
      <trkpt lat="43.57812" lon="3.74434">
        <ele>65</ele>
        <time>2011-04-09T06:43:13Z</time>
      </trkpt>
      <trkpt lat="43.57818" lon="3.74426">
        <ele>65.5</ele>
        <time>2011-04-09T06:43:16Z</time>
      </trkpt>
      <trkpt lat="43.57824" lon="3.74417">
        <ele>66.3</ele>
        <time>2011-04-09T06:43:19Z</time>
      </trkpt>
      <trkpt lat="43.57827" lon="3.74406">
        <ele>67.4</ele>
        <time>2011-04-09T06:43:22Z</time>
      </trkpt>
      <trkpt lat="43.57827" lon="3.74394">
        <ele>68.5</ele>
        <time>2011-04-09T06:43:25Z</time>
      </trkpt>
      <trkpt lat="43.57825" lon="3.74386">
        <ele>68.8</ele>
        <time>2011-04-09T06:43:27Z</time>
      </trkpt>
      <trkpt lat="43.57821" lon="3.74377">
        <ele>69</ele>
        <time>2011-04-09T06:43:29Z</time>
      </trkpt>
      <trkpt lat="43.57816" lon="3.74369">
        <ele>68.8</ele>
        <time>2011-04-09T06:43:31Z</time>
      </trkpt>
      <trkpt lat="43.57811" lon="3.74358">
        <ele>68.3</ele>
        <time>2011-04-09T06:43:33Z</time>
      </trkpt>
      <trkpt lat="43.57809" lon="3.74348">
        <ele>67.1</ele>
        <time>2011-04-09T06:43:35Z</time>
      </trkpt>
      <trkpt lat="43.57813" lon="3.74338">
        <ele>67.4</ele>
        <time>2011-04-09T06:43:38Z</time>
      </trkpt>
      <trkpt lat="43.57814" lon="3.74329">
        <ele>67.9</ele>
        <time>2011-04-09T06:43:43Z</time>
      </trkpt>
      <trkpt lat="43.5781" lon="3.74322">
        <ele>68.2</ele>
        <time>2011-04-09T06:43:45Z</time>
      </trkpt>
      <trkpt lat="43.57807" lon="3.74314">
        <ele>67.9</ele>
        <time>2011-04-09T06:43:47Z</time>
      </trkpt>
      <trkpt lat="43.57806" lon="3.74306">
        <ele>67.3</ele>
        <time>2011-04-09T06:43:49Z</time>
      </trkpt>
      <trkpt lat="43.57813" lon="3.74299">
        <ele>66.7</ele>
        <time>2011-04-09T06:43:53Z</time>
      </trkpt>
      <trkpt lat="43.5782" lon="3.74306">
        <ele>67.9</ele>
        <time>2011-04-09T06:43:57Z</time>
      </trkpt>
      <trkpt lat="43.57827" lon="3.74309">
        <ele>69.8</ele>
        <time>2011-04-09T06:44:01Z</time>
      </trkpt>
      <trkpt lat="43.57834" lon="3.74308">
        <ele>72</ele>
        <time>2011-04-09T06:44:05Z</time>
      </trkpt>
      <trkpt lat="43.57842" lon="3.74306">
        <ele>73.1</ele>
        <time>2011-04-09T06:44:09Z</time>
      </trkpt>
      <trkpt lat="43.57843" lon="3.74305">
        <ele>73.2</ele>
        <time>2011-04-09T06:44:10Z</time>
      </trkpt>
      <trkpt lat="43.57858" lon="3.743">
        <ele>75.2</ele>
        <time>2011-04-09T06:44:19Z</time>
      </trkpt>
      <trkpt lat="43.57866" lon="3.74299">
        <ele>76.7</ele>
        <time>2011-04-09T06:44:23Z</time>
      </trkpt>
      <trkpt lat="43.57874" lon="3.74296">
        <ele>77.1</ele>
        <time>2011-04-09T06:44:28Z</time>
      </trkpt>
      <trkpt lat="43.57883" lon="3.74294">
        <ele>78.7</ele>
        <time>2011-04-09T06:44:33Z</time>
      </trkpt>
      <trkpt lat="43.5789" lon="3.74291">
        <ele>79.1</ele>
        <time>2011-04-09T06:44:37Z</time>
      </trkpt>
      <trkpt lat="43.57898" lon="3.74287">
        <ele>80.1</ele>
        <time>2011-04-09T06:44:41Z</time>
      </trkpt>
      <trkpt lat="43.57906" lon="3.74284">
        <ele>80.7</ele>
        <time>2011-04-09T06:44:45Z</time>
      </trkpt>
      <trkpt lat="43.57911" lon="3.7429">
        <ele>81.2</ele>
        <time>2011-04-09T06:44:49Z</time>
      </trkpt>
      <trkpt lat="43.57914" lon="3.74301">
        <ele>82.1</ele>
        <time>2011-04-09T06:44:53Z</time>
      </trkpt>
      <trkpt lat="43.57917" lon="3.74312">
        <ele>82.8</ele>
        <time>2011-04-09T06:44:57Z</time>
      </trkpt>
      <trkpt lat="43.57918" lon="3.74321">
        <ele>83.1</ele>
        <time>2011-04-09T06:45:00Z</time>
      </trkpt>
      <trkpt lat="43.5792" lon="3.7433">
        <ele>82.7</ele>
        <time>2011-04-09T06:45:03Z</time>
      </trkpt>
      <trkpt lat="43.57923" lon="3.74339">
        <ele>83.1</ele>
        <time>2011-04-09T06:45:06Z</time>
      </trkpt>
      <trkpt lat="43.57928" lon="3.74349">
        <ele>83.5</ele>
        <time>2011-04-09T06:45:09Z</time>
      </trkpt>
      <trkpt lat="43.57933" lon="3.74358">
        <ele>83.3</ele>
        <time>2011-04-09T06:45:12Z</time>
      </trkpt>
      <trkpt lat="43.57936" lon="3.74361">
        <ele>83.3</ele>
        <time>2011-04-09T06:45:13Z</time>
      </trkpt>
      <trkpt lat="43.57949" lon="3.74366">
        <ele>83.5</ele>
        <time>2011-04-09T06:45:18Z</time>
      </trkpt>
      <trkpt lat="43.57956" lon="3.74364">
        <ele>84.5</ele>
        <time>2011-04-09T06:45:21Z</time>
      </trkpt>
      <trkpt lat="43.57963" lon="3.74364">
        <ele>84.6</ele>
        <time>2011-04-09T06:45:24Z</time>
      </trkpt>
      <trkpt lat="43.57971" lon="3.74364">
        <ele>85.2</ele>
        <time>2011-04-09T06:45:27Z</time>
      </trkpt>
      <trkpt lat="43.57978" lon="3.74366">
        <ele>85.9</ele>
        <time>2011-04-09T06:45:30Z</time>
      </trkpt>
      <trkpt lat="43.57986" lon="3.74367">
        <ele>86.8</ele>
        <time>2011-04-09T06:45:33Z</time>
      </trkpt>
      <trkpt lat="43.57993" lon="3.74367">
        <ele>87.6</ele>
        <time>2011-04-09T06:45:36Z</time>
      </trkpt>
      <trkpt lat="43.58001" lon="3.74368">
        <ele>88.2</ele>
        <time>2011-04-09T06:45:39Z</time>
      </trkpt>
      <trkpt lat="43.58008" lon="3.74367">
        <ele>89</ele>
        <time>2011-04-09T06:45:42Z</time>
      </trkpt>
      <trkpt lat="43.58015" lon="3.74365">
        <ele>89.8</ele>
        <time>2011-04-09T06:45:45Z</time>
      </trkpt>
      <trkpt lat="43.58022" lon="3.74365">
        <ele>90.9</ele>
        <time>2011-04-09T06:45:48Z</time>
      </trkpt>
      <trkpt lat="43.58029" lon="3.74363">
        <ele>92.3</ele>
        <time>2011-04-09T06:45:51Z</time>
      </trkpt>
      <trkpt lat="43.58036" lon="3.74358">
        <ele>92.8</ele>
        <time>2011-04-09T06:45:54Z</time>
      </trkpt>
      <trkpt lat="43.58041" lon="3.7435">
        <ele>92.9</ele>
        <time>2011-04-09T06:45:57Z</time>
      </trkpt>
      <trkpt lat="43.58042" lon="3.7434">
        <ele>93.2</ele>
        <time>2011-04-09T06:46:00Z</time>
      </trkpt>
      <trkpt lat="43.58041" lon="3.74328">
        <ele>93.4</ele>
        <time>2011-04-09T06:46:04Z</time>
      </trkpt>
      <trkpt lat="43.5804" lon="3.74317">
        <ele>93.7</ele>
        <time>2011-04-09T06:46:09Z</time>
      </trkpt>
      <trkpt lat="43.58041" lon="3.74306">
        <ele>94</ele>
        <time>2011-04-09T06:46:14Z</time>
      </trkpt>
      <trkpt lat="43.58041" lon="3.74303">
        <ele>93.9</ele>
        <time>2011-04-09T06:46:15Z</time>
      </trkpt>
      <trkpt lat="43.58043" lon="3.74285">
        <ele>94.8</ele>
        <time>2011-04-09T06:46:22Z</time>
      </trkpt>
      <trkpt lat="43.58045" lon="3.74273">
        <ele>93.6</ele>
        <time>2011-04-09T06:46:26Z</time>
      </trkpt>
      <trkpt lat="43.58047" lon="3.74263">
        <ele>93.5</ele>
        <time>2011-04-09T06:46:29Z</time>
      </trkpt>
      <trkpt lat="43.58049" lon="3.74254">
        <ele>93.4</ele>
        <time>2011-04-09T06:46:32Z</time>
      </trkpt>
      <trkpt lat="43.58052" lon="3.74244">
        <ele>94</ele>
        <time>2011-04-09T06:46:35Z</time>
      </trkpt>
      <trkpt lat="43.58055" lon="3.74235">
        <ele>93.8</ele>
        <time>2011-04-09T06:46:38Z</time>
      </trkpt>
      <trkpt lat="43.58058" lon="3.74226">
        <ele>94.6</ele>
        <time>2011-04-09T06:46:41Z</time>
      </trkpt>
      <trkpt lat="43.58062" lon="3.74217">
        <ele>94</ele>
        <time>2011-04-09T06:46:44Z</time>
      </trkpt>
      <trkpt lat="43.58063" lon="3.74208">
        <ele>94.2</ele>
        <time>2011-04-09T06:46:47Z</time>
      </trkpt>
      <trkpt lat="43.58063" lon="3.7422">
        <ele>94.9</ele>
        <time>2011-04-09T06:49:16Z</time>
      </trkpt>
      <trkpt lat="43.58062" lon="3.74223">
        <ele>94.7</ele>
        <time>2011-04-09T06:49:17Z</time>
      </trkpt>
      <trkpt lat="43.58057" lon="3.74236">
        <ele>94.4</ele>
        <time>2011-04-09T06:49:20Z</time>
      </trkpt>
      <trkpt lat="43.58053" lon="3.74246">
        <ele>94.4</ele>
        <time>2011-04-09T06:49:22Z</time>
      </trkpt>
      <trkpt lat="43.5805" lon="3.74257">
        <ele>94.4</ele>
        <time>2011-04-09T06:49:24Z</time>
      </trkpt>
      <trkpt lat="43.58048" lon="3.74269">
        <ele>93.9</ele>
        <time>2011-04-09T06:49:26Z</time>
      </trkpt>
      <trkpt lat="43.58047" lon="3.74275">
        <ele>93.8</ele>
        <time>2011-04-09T06:49:27Z</time>
      </trkpt>
      <trkpt lat="43.58046" lon="3.74281">
        <ele>94.2</ele>
        <time>2011-04-09T06:49:28Z</time>
      </trkpt>
      <trkpt lat="43.58045" lon="3.74288">
        <ele>94.5</ele>
        <time>2011-04-09T06:49:29Z</time>
      </trkpt>
      <trkpt lat="43.58043" lon="3.743">
        <ele>94.2</ele>
        <time>2011-04-09T06:49:31Z</time>
      </trkpt>
      <trkpt lat="43.58042" lon="3.74312">
        <ele>93.4</ele>
        <time>2011-04-09T06:49:33Z</time>
      </trkpt>
      <trkpt lat="43.58043" lon="3.74324">
        <ele>93.8</ele>
        <time>2011-04-09T06:49:35Z</time>
      </trkpt>
      <trkpt lat="43.58043" lon="3.74335">
        <ele>94.1</ele>
        <time>2011-04-09T06:49:37Z</time>
      </trkpt>
      <trkpt lat="43.58043" lon="3.74347">
        <ele>94.7</ele>
        <time>2011-04-09T06:49:39Z</time>
      </trkpt>
      <trkpt lat="43.58039" lon="3.74357">
        <ele>94.7</ele>
        <time>2011-04-09T06:49:41Z</time>
      </trkpt>
      <trkpt lat="43.58035" lon="3.74361">
        <ele>94.7</ele>
        <time>2011-04-09T06:49:42Z</time>
      </trkpt>
      <trkpt lat="43.58031" lon="3.74363">
        <ele>94.6</ele>
        <time>2011-04-09T06:49:43Z</time>
      </trkpt>
      <trkpt lat="43.58025" lon="3.74365">
        <ele>93.9</ele>
        <time>2011-04-09T06:49:44Z</time>
      </trkpt>
      <trkpt lat="43.58019" lon="3.74365">
        <ele>93.3</ele>
        <time>2011-04-09T06:49:45Z</time>
      </trkpt>
      <trkpt lat="43.58013" lon="3.74366">
        <ele>92.9</ele>
        <time>2011-04-09T06:49:46Z</time>
      </trkpt>
      <trkpt lat="43.58006" lon="3.74367">
        <ele>92.1</ele>
        <time>2011-04-09T06:49:47Z</time>
      </trkpt>
      <trkpt lat="43.57999" lon="3.74367">
        <ele>91.5</ele>
        <time>2011-04-09T06:49:48Z</time>
      </trkpt>
      <trkpt lat="43.57992" lon="3.74367">
        <ele>91</ele>
        <time>2011-04-09T06:49:49Z</time>
      </trkpt>
      <trkpt lat="43.57984" lon="3.74367">
        <ele>89.8</ele>
        <time>2011-04-09T06:49:50Z</time>
      </trkpt>
      <trkpt lat="43.57975" lon="3.74366">
        <ele>88.8</ele>
        <time>2011-04-09T06:49:51Z</time>
      </trkpt>
      <trkpt lat="43.57966" lon="3.74366">
        <ele>88.1</ele>
        <time>2011-04-09T06:49:52Z</time>
      </trkpt>
      <trkpt lat="43.57958" lon="3.74366">
        <ele>87.6</ele>
        <time>2011-04-09T06:49:53Z</time>
      </trkpt>
      <trkpt lat="43.57951" lon="3.74366">
        <ele>86.8</ele>
        <time>2011-04-09T06:49:54Z</time>
      </trkpt>
      <trkpt lat="43.57945" lon="3.74366">
        <ele>86.2</ele>
        <time>2011-04-09T06:49:55Z</time>
      </trkpt>
      <trkpt lat="43.57937" lon="3.74363">
        <ele>85</ele>
        <time>2011-04-09T06:49:57Z</time>
      </trkpt>
      <trkpt lat="43.57931" lon="3.74357">
        <ele>83.9</ele>
        <time>2011-04-09T06:49:59Z</time>
      </trkpt>
      <trkpt lat="43.57926" lon="3.74348">
        <ele>84.2</ele>
        <time>2011-04-09T06:50:01Z</time>
      </trkpt>
      <trkpt lat="43.57923" lon="3.74338">
        <ele>83.8</ele>
        <time>2011-04-09T06:50:03Z</time>
      </trkpt>
      <trkpt lat="43.57921" lon="3.74327">
        <ele>83.2</ele>
        <time>2011-04-09T06:50:05Z</time>
      </trkpt>
      <trkpt lat="43.57919" lon="3.74316">
        <ele>83.2</ele>
        <time>2011-04-09T06:50:07Z</time>
      </trkpt>
      <trkpt lat="43.57917" lon="3.74306">
        <ele>83.2</ele>
        <time>2011-04-09T06:50:09Z</time>
      </trkpt>
      <trkpt lat="43.57917" lon="3.74293">
        <ele>82.6</ele>
        <time>2011-04-09T06:50:47Z</time>
      </trkpt>
      <trkpt lat="43.57917" lon="3.74293">
        <ele>82.2</ele>
        <time>2011-04-09T06:50:48Z</time>
      </trkpt>
      <trkpt lat="43.57911" lon="3.74281">
        <ele>82.6</ele>
        <time>2011-04-09T06:56:48Z</time>
      </trkpt>
      <trkpt lat="43.57918" lon="3.74305">
        <ele>82.9</ele>
        <time>2011-04-09T07:05:16Z</time>
      </trkpt>
      <trkpt lat="43.57917" lon="3.74307">
        <ele>82.7</ele>
        <time>2011-04-09T07:05:17Z</time>
      </trkpt>
      <trkpt lat="43.57916" lon="3.74306">
        <ele>83.1</ele>
        <time>2011-04-09T07:07:00Z</time>
      </trkpt>
      <trkpt lat="43.57917" lon="3.74308">
        <ele>83.1</ele>
        <time>2011-04-09T07:07:01Z</time>
      </trkpt>
      <trkpt lat="43.5792" lon="3.74326">
        <ele>83.5</ele>
        <time>2011-04-09T07:07:08Z</time>
      </trkpt>
      <trkpt lat="43.57922" lon="3.74337">
        <ele>83.8</ele>
        <time>2011-04-09T07:07:12Z</time>
      </trkpt>
      <trkpt lat="43.57925" lon="3.74345">
        <ele>83.7</ele>
        <time>2011-04-09T07:07:15Z</time>
      </trkpt>
      <trkpt lat="43.5793" lon="3.74353">
        <ele>83.6</ele>
        <time>2011-04-09T07:07:18Z</time>
      </trkpt>
      <trkpt lat="43.57936" lon="3.74361">
        <ele>83.8</ele>
        <time>2011-04-09T07:07:21Z</time>
      </trkpt>
      <trkpt lat="43.57943" lon="3.74366">
        <ele>84.1</ele>
        <time>2011-04-09T07:07:24Z</time>
      </trkpt>
      <trkpt lat="43.57951" lon="3.74366">
        <ele>84.4</ele>
        <time>2011-04-09T07:07:27Z</time>
      </trkpt>
      <trkpt lat="43.57958" lon="3.74363">
        <ele>85.3</ele>
        <time>2011-04-09T07:07:32Z</time>
      </trkpt>
      <trkpt lat="43.57967" lon="3.74363">
        <ele>85.8</ele>
        <time>2011-04-09T07:07:43Z</time>
      </trkpt>
      <trkpt lat="43.57976" lon="3.74364">
        <ele>88.1</ele>
        <time>2011-04-09T07:08:01Z</time>
      </trkpt>
      <trkpt lat="43.57977" lon="3.74364">
        <ele>88</ele>
        <time>2011-04-09T07:08:02Z</time>
      </trkpt>
      <trkpt lat="43.57993" lon="3.7437">
        <ele>89.4</ele>
        <time>2011-04-09T07:08:17Z</time>
      </trkpt>
      <trkpt lat="43.57985" lon="3.74365">
        <ele>89.8</ele>
        <time>2011-04-09T07:08:49Z</time>
      </trkpt>
      <trkpt lat="43.57993" lon="3.74368">
        <ele>89</ele>
        <time>2011-04-09T07:09:01Z</time>
      </trkpt>
      <trkpt lat="43.58002" lon="3.74368">
        <ele>90.8</ele>
        <time>2011-04-09T07:09:07Z</time>
      </trkpt>
      <trkpt lat="43.58003" lon="3.74368">
        <ele>91.2</ele>
        <time>2011-04-09T07:09:08Z</time>
      </trkpt>
      <trkpt lat="43.58018" lon="3.74364">
        <ele>92.1</ele>
        <time>2011-04-09T07:09:20Z</time>
      </trkpt>
      <trkpt lat="43.58026" lon="3.74363">
        <ele>92</ele>
        <time>2011-04-09T07:09:26Z</time>
      </trkpt>
      <trkpt lat="43.58034" lon="3.74361">
        <ele>92.8</ele>
        <time>2011-04-09T07:09:32Z</time>
      </trkpt>
      <trkpt lat="43.58042" lon="3.74358">
        <ele>93.7</ele>
        <time>2011-04-09T07:09:38Z</time>
      </trkpt>
      <trkpt lat="43.58047" lon="3.7435">
        <ele>95</ele>
        <time>2011-04-09T07:10:35Z</time>
      </trkpt>
      <trkpt lat="43.58047" lon="3.74347">
        <ele>95.2</ele>
        <time>2011-04-09T07:10:36Z</time>
      </trkpt>
      <trkpt lat="43.58044" lon="3.74328">
        <ele>95.1</ele>
        <time>2011-04-09T07:10:41Z</time>
      </trkpt>
      <trkpt lat="43.58043" lon="3.74317">
        <ele>95.2</ele>
        <time>2011-04-09T07:10:44Z</time>
      </trkpt>
      <trkpt lat="43.58044" lon="3.74309">
        <ele>95.7</ele>
        <time>2011-04-09T07:10:46Z</time>
      </trkpt>
      <trkpt lat="43.58044" lon="3.743">
        <ele>95.8</ele>
        <time>2011-04-09T07:10:48Z</time>
      </trkpt>
      <trkpt lat="43.58045" lon="3.74291">
        <ele>95.6</ele>
        <time>2011-04-09T07:10:50Z</time>
      </trkpt>
      <trkpt lat="43.58046" lon="3.74281">
        <ele>95.5</ele>
        <time>2011-04-09T07:10:52Z</time>
      </trkpt>
      <trkpt lat="43.58047" lon="3.74272">
        <ele>95.4</ele>
        <time>2011-04-09T07:10:54Z</time>
      </trkpt>
      <trkpt lat="43.58049" lon="3.74262">
        <ele>95.2</ele>
        <time>2011-04-09T07:10:56Z</time>
      </trkpt>
      <trkpt lat="43.58051" lon="3.74253">
        <ele>95.2</ele>
        <time>2011-04-09T07:10:58Z</time>
      </trkpt>
      <trkpt lat="43.58054" lon="3.74243">
        <ele>95.4</ele>
        <time>2011-04-09T07:11:00Z</time>
      </trkpt>
      <trkpt lat="43.58056" lon="3.74233">
        <ele>95.2</ele>
        <time>2011-04-09T07:11:02Z</time>
      </trkpt>
      <trkpt lat="43.58059" lon="3.74224">
        <ele>95.3</ele>
        <time>2011-04-09T07:11:04Z</time>
      </trkpt>
      <trkpt lat="43.58063" lon="3.74214">
        <ele>95.5</ele>
        <time>2011-04-09T07:11:06Z</time>
      </trkpt>
      <trkpt lat="43.58067" lon="3.74207">
        <ele>95.6</ele>
        <time>2011-04-09T07:11:08Z</time>
      </trkpt>
      <trkpt lat="43.58075" lon="3.74208">
        <ele>95.9</ele>
        <time>2011-04-09T07:11:11Z</time>
      </trkpt>
      <trkpt lat="43.58083" lon="3.74212">
        <ele>96.4</ele>
        <time>2011-04-09T07:11:14Z</time>
      </trkpt>
      <trkpt lat="43.58091" lon="3.74213">
        <ele>96.5</ele>
        <time>2011-04-09T07:11:17Z</time>
      </trkpt>
      <trkpt lat="43.581" lon="3.74217">
        <ele>96.9</ele>
        <time>2011-04-09T07:11:20Z</time>
      </trkpt>
      <trkpt lat="43.58107" lon="3.74223">
        <ele>98.1</ele>
        <time>2011-04-09T07:11:23Z</time>
      </trkpt>
      <trkpt lat="43.58115" lon="3.74227">
        <ele>99</ele>
        <time>2011-04-09T07:11:26Z</time>
      </trkpt>
      <trkpt lat="43.58122" lon="3.7423">
        <ele>99.5</ele>
        <time>2011-04-09T07:11:29Z</time>
      </trkpt>
      <trkpt lat="43.58127" lon="3.74236">
        <ele>100.4</ele>
        <time>2011-04-09T07:11:31Z</time>
      </trkpt>
      <trkpt lat="43.58133" lon="3.74242">
        <ele>100.8</ele>
        <time>2011-04-09T07:11:33Z</time>
      </trkpt>
      <trkpt lat="43.5814" lon="3.74244">
        <ele>100.9</ele>
        <time>2011-04-09T07:11:35Z</time>
      </trkpt>
      <trkpt lat="43.58147" lon="3.74246">
        <ele>100.8</ele>
        <time>2011-04-09T07:11:37Z</time>
      </trkpt>
      <trkpt lat="43.5815" lon="3.74247">
        <ele>100.8</ele>
        <time>2011-04-09T07:11:38Z</time>
      </trkpt>
      <trkpt lat="43.58161" lon="3.74248">
        <ele>101</ele>
        <time>2011-04-09T07:11:41Z</time>
      </trkpt>
      <trkpt lat="43.58168" lon="3.74247">
        <ele>100.9</ele>
        <time>2011-04-09T07:11:43Z</time>
      </trkpt>
      <trkpt lat="43.58174" lon="3.74244">
        <ele>100.7</ele>
        <time>2011-04-09T07:11:45Z</time>
      </trkpt>
      <trkpt lat="43.58181" lon="3.74244">
        <ele>101.3</ele>
        <time>2011-04-09T07:11:47Z</time>
      </trkpt>
      <trkpt lat="43.58188" lon="3.74246">
        <ele>101.9</ele>
        <time>2011-04-09T07:11:49Z</time>
      </trkpt>
      <trkpt lat="43.58193" lon="3.74252">
        <ele>102.3</ele>
        <time>2011-04-09T07:11:51Z</time>
      </trkpt>
      <trkpt lat="43.58198" lon="3.74261">
        <ele>101.7</ele>
        <time>2011-04-09T07:11:53Z</time>
      </trkpt>
      <trkpt lat="43.58204" lon="3.74265">
        <ele>101.3</ele>
        <time>2011-04-09T07:11:55Z</time>
      </trkpt>
      <trkpt lat="43.5821" lon="3.74261">
        <ele>101.1</ele>
        <time>2011-04-09T07:11:57Z</time>
      </trkpt>
      <trkpt lat="43.58215" lon="3.74254">
        <ele>100.9</ele>
        <time>2011-04-09T07:11:59Z</time>
      </trkpt>
      <trkpt lat="43.5822" lon="3.74249">
        <ele>100.8</ele>
        <time>2011-04-09T07:12:01Z</time>
      </trkpt>
      <trkpt lat="43.58225" lon="3.74243">
        <ele>100.4</ele>
        <time>2011-04-09T07:12:03Z</time>
      </trkpt>
      <trkpt lat="43.5823" lon="3.74235">
        <ele>100.7</ele>
        <time>2011-04-09T07:12:06Z</time>
      </trkpt>
      <trkpt lat="43.58237" lon="3.74226">
        <ele>101.1</ele>
        <time>2011-04-09T07:12:09Z</time>
      </trkpt>
      <trkpt lat="43.58241" lon="3.74221">
        <ele>101.8</ele>
        <time>2011-04-09T07:12:11Z</time>
      </trkpt>
      <trkpt lat="43.58246" lon="3.74215">
        <ele>102.5</ele>
        <time>2011-04-09T07:12:13Z</time>
      </trkpt>
      <trkpt lat="43.5825" lon="3.74209">
        <ele>103.1</ele>
        <time>2011-04-09T07:12:15Z</time>
      </trkpt>
      <trkpt lat="43.58255" lon="3.74203">
        <ele>103.4</ele>
        <time>2011-04-09T07:12:17Z</time>
      </trkpt>
      <trkpt lat="43.5826" lon="3.74196">
        <ele>103.7</ele>
        <time>2011-04-09T07:12:19Z</time>
      </trkpt>
      <trkpt lat="43.58264" lon="3.7419">
        <ele>104.1</ele>
        <time>2011-04-09T07:12:21Z</time>
      </trkpt>
      <trkpt lat="43.58268" lon="3.74183">
        <ele>104.6</ele>
        <time>2011-04-09T07:12:23Z</time>
      </trkpt>
      <trkpt lat="43.58273" lon="3.74176">
        <ele>105.2</ele>
        <time>2011-04-09T07:12:25Z</time>
      </trkpt>
      <trkpt lat="43.58277" lon="3.7417">
        <ele>105.5</ele>
        <time>2011-04-09T07:12:27Z</time>
      </trkpt>
      <trkpt lat="43.58281" lon="3.74162">
        <ele>105.7</ele>
        <time>2011-04-09T07:12:29Z</time>
      </trkpt>
      <trkpt lat="43.58284" lon="3.74154">
        <ele>106.6</ele>
        <time>2011-04-09T07:12:31Z</time>
      </trkpt>
      <trkpt lat="43.58287" lon="3.74146">
        <ele>107.2</ele>
        <time>2011-04-09T07:12:33Z</time>
      </trkpt>
      <trkpt lat="43.58291" lon="3.74137">
        <ele>107</ele>
        <time>2011-04-09T07:12:35Z</time>
      </trkpt>
      <trkpt lat="43.58292" lon="3.74128">
        <ele>106.9</ele>
        <time>2011-04-09T07:12:37Z</time>
      </trkpt>
      <trkpt lat="43.58291" lon="3.74118">
        <ele>106.9</ele>
        <time>2011-04-09T07:12:39Z</time>
      </trkpt>
      <trkpt lat="43.58289" lon="3.74114">
        <ele>107.3</ele>
        <time>2011-04-09T07:12:40Z</time>
      </trkpt>
      <trkpt lat="43.58282" lon="3.74102">
        <ele>108.1</ele>
        <time>2011-04-09T07:12:43Z</time>
      </trkpt>
      <trkpt lat="43.58276" lon="3.74095">
        <ele>108.6</ele>
        <time>2011-04-09T07:12:45Z</time>
      </trkpt>
      <trkpt lat="43.58268" lon="3.74088">
        <ele>108.3</ele>
        <time>2011-04-09T07:12:47Z</time>
      </trkpt>
      <trkpt lat="43.58265" lon="3.74085">
        <ele>108.2</ele>
        <time>2011-04-09T07:12:48Z</time>
      </trkpt>
      <trkpt lat="43.5826" lon="3.74082">
        <ele>108.1</ele>
        <time>2011-04-09T07:12:49Z</time>
      </trkpt>
      <trkpt lat="43.58256" lon="3.74078">
        <ele>107.7</ele>
        <time>2011-04-09T07:12:50Z</time>
      </trkpt>
      <trkpt lat="43.58252" lon="3.74074">
        <ele>107.5</ele>
        <time>2011-04-09T07:12:51Z</time>
      </trkpt>
      <trkpt lat="43.58248" lon="3.7407">
        <ele>107.3</ele>
        <time>2011-04-09T07:12:52Z</time>
      </trkpt>
      <trkpt lat="43.58243" lon="3.74066">
        <ele>107.3</ele>
        <time>2011-04-09T07:12:53Z</time>
      </trkpt>
      <trkpt lat="43.58239" lon="3.74061">
        <ele>107.3</ele>
        <time>2011-04-09T07:12:54Z</time>
      </trkpt>
      <trkpt lat="43.58234" lon="3.74056">
        <ele>107.3</ele>
        <time>2011-04-09T07:12:55Z</time>
      </trkpt>
      <trkpt lat="43.58229" lon="3.74052">
        <ele>107.2</ele>
        <time>2011-04-09T07:12:56Z</time>
      </trkpt>
      <trkpt lat="43.58225" lon="3.74047">
        <ele>107.2</ele>
        <time>2011-04-09T07:12:57Z</time>
      </trkpt>
      <trkpt lat="43.5822" lon="3.74042">
        <ele>107.2</ele>
        <time>2011-04-09T07:12:58Z</time>
      </trkpt>
      <trkpt lat="43.58215" lon="3.74037">
        <ele>106.7</ele>
        <time>2011-04-09T07:12:59Z</time>
      </trkpt>
      <trkpt lat="43.5821" lon="3.74032">
        <ele>106.4</ele>
        <time>2011-04-09T07:13:00Z</time>
      </trkpt>
      <trkpt lat="43.58205" lon="3.74027">
        <ele>106.1</ele>
        <time>2011-04-09T07:13:01Z</time>
      </trkpt>
      <trkpt lat="43.582" lon="3.74021">
        <ele>105.9</ele>
        <time>2011-04-09T07:13:02Z</time>
      </trkpt>
      <trkpt lat="43.58196" lon="3.74015">
        <ele>105.8</ele>
        <time>2011-04-09T07:13:03Z</time>
      </trkpt>
      <trkpt lat="43.58192" lon="3.74009">
        <ele>105.7</ele>
        <time>2011-04-09T07:13:04Z</time>
      </trkpt>
      <trkpt lat="43.58187" lon="3.74002">
        <ele>105.6</ele>
        <time>2011-04-09T07:13:05Z</time>
      </trkpt>
      <trkpt lat="43.58183" lon="3.73995">
        <ele>105.3</ele>
        <time>2011-04-09T07:13:06Z</time>
      </trkpt>
      <trkpt lat="43.58178" lon="3.73988">
        <ele>105.1</ele>
        <time>2011-04-09T07:13:07Z</time>
      </trkpt>
      <trkpt lat="43.58174" lon="3.73981">
        <ele>104.9</ele>
        <time>2011-04-09T07:13:08Z</time>
      </trkpt>
      <trkpt lat="43.58169" lon="3.73973">
        <ele>104.5</ele>
        <time>2011-04-09T07:13:09Z</time>
      </trkpt>
      <trkpt lat="43.58163" lon="3.73965">
        <ele>104.1</ele>
        <time>2011-04-09T07:13:10Z</time>
      </trkpt>
      <trkpt lat="43.58158" lon="3.73957">
        <ele>103.9</ele>
        <time>2011-04-09T07:13:11Z</time>
      </trkpt>
      <trkpt lat="43.58152" lon="3.7395">
        <ele>103.3</ele>
        <time>2011-04-09T07:13:12Z</time>
      </trkpt>
      <trkpt lat="43.58145" lon="3.73943">
        <ele>102.8</ele>
        <time>2011-04-09T07:13:13Z</time>
      </trkpt>
      <trkpt lat="43.58138" lon="3.73937">
        <ele>102.5</ele>
        <time>2011-04-09T07:13:14Z</time>
      </trkpt>
      <trkpt lat="43.5813" lon="3.73933">
        <ele>101.8</ele>
        <time>2011-04-09T07:13:15Z</time>
      </trkpt>
      <trkpt lat="43.58122" lon="3.7393">
        <ele>101.3</ele>
        <time>2011-04-09T07:13:16Z</time>
      </trkpt>
      <trkpt lat="43.58114" lon="3.73928">
        <ele>100.9</ele>
        <time>2011-04-09T07:13:17Z</time>
      </trkpt>
      <trkpt lat="43.58105" lon="3.73927">
        <ele>99.9</ele>
        <time>2011-04-09T07:13:18Z</time>
      </trkpt>
      <trkpt lat="43.58097" lon="3.73927">
        <ele>99.2</ele>
        <time>2011-04-09T07:13:19Z</time>
      </trkpt>
      <trkpt lat="43.58088" lon="3.73929">
        <ele>98.6</ele>
        <time>2011-04-09T07:13:20Z</time>
      </trkpt>
      <trkpt lat="43.5808" lon="3.73932">
        <ele>98.2</ele>
        <time>2011-04-09T07:13:21Z</time>
      </trkpt>
      <trkpt lat="43.58072" lon="3.73937">
        <ele>97.5</ele>
        <time>2011-04-09T07:13:22Z</time>
      </trkpt>
      <trkpt lat="43.58065" lon="3.73944">
        <ele>96.9</ele>
        <time>2011-04-09T07:13:23Z</time>
      </trkpt>
      <trkpt lat="43.58058" lon="3.73951">
        <ele>96.5</ele>
        <time>2011-04-09T07:13:24Z</time>
      </trkpt>
      <trkpt lat="43.58051" lon="3.7396">
        <ele>95.5</ele>
        <time>2011-04-09T07:13:25Z</time>
      </trkpt>
      <trkpt lat="43.58045" lon="3.7397">
        <ele>94.8</ele>
        <time>2011-04-09T07:13:26Z</time>
      </trkpt>
      <trkpt lat="43.5804" lon="3.7398">
        <ele>94.2</ele>
        <time>2011-04-09T07:13:27Z</time>
      </trkpt>
      <trkpt lat="43.58034" lon="3.7399">
        <ele>93.2</ele>
        <time>2011-04-09T07:13:28Z</time>
      </trkpt>
      <trkpt lat="43.58029" lon="3.74">
        <ele>92.5</ele>
        <time>2011-04-09T07:13:29Z</time>
      </trkpt>
      <trkpt lat="43.58024" lon="3.7401">
        <ele>92</ele>
        <time>2011-04-09T07:13:30Z</time>
      </trkpt>
      <trkpt lat="43.58019" lon="3.74021">
        <ele>91.5</ele>
        <time>2011-04-09T07:13:31Z</time>
      </trkpt>
      <trkpt lat="43.58015" lon="3.74031">
        <ele>91.2</ele>
        <time>2011-04-09T07:13:32Z</time>
      </trkpt>
      <trkpt lat="43.5801" lon="3.74041">
        <ele>91</ele>
        <time>2011-04-09T07:13:33Z</time>
      </trkpt>
      <trkpt lat="43.58005" lon="3.74051">
        <ele>90.5</ele>
        <time>2011-04-09T07:13:34Z</time>
      </trkpt>
      <trkpt lat="43.58" lon="3.7406">
        <ele>90.1</ele>
        <time>2011-04-09T07:13:35Z</time>
      </trkpt>
      <trkpt lat="43.57995" lon="3.7407">
        <ele>89.8</ele>
        <time>2011-04-09T07:13:36Z</time>
      </trkpt>
      <trkpt lat="43.5799" lon="3.74079">
        <ele>89.5</ele>
        <time>2011-04-09T07:13:37Z</time>
      </trkpt>
      <trkpt lat="43.57986" lon="3.74088">
        <ele>89.3</ele>
        <time>2011-04-09T07:13:38Z</time>
      </trkpt>
      <trkpt lat="43.57981" lon="3.74096">
        <ele>89.1</ele>
        <time>2011-04-09T07:13:39Z</time>
      </trkpt>
      <trkpt lat="43.57975" lon="3.74103">
        <ele>89</ele>
        <time>2011-04-09T07:13:40Z</time>
      </trkpt>
      <trkpt lat="43.57969" lon="3.74108">
        <ele>88.6</ele>
        <time>2011-04-09T07:13:41Z</time>
      </trkpt>
      <trkpt lat="43.57963" lon="3.74112">
        <ele>88.2</ele>
        <time>2011-04-09T07:13:42Z</time>
      </trkpt>
      <trkpt lat="43.57956" lon="3.74114">
        <ele>88</ele>
        <time>2011-04-09T07:13:43Z</time>
      </trkpt>
      <trkpt lat="43.57951" lon="3.74116">
        <ele>88</ele>
        <time>2011-04-09T07:13:44Z</time>
      </trkpt>
      <trkpt lat="43.57943" lon="3.74117">
        <ele>87.9</ele>
        <time>2011-04-09T07:13:46Z</time>
      </trkpt>
      <trkpt lat="43.57935" lon="3.74118">
        <ele>87.5</ele>
        <time>2011-04-09T07:13:48Z</time>
      </trkpt>
      <trkpt lat="43.57928" lon="3.74119">
        <ele>87.2</ele>
        <time>2011-04-09T07:13:50Z</time>
      </trkpt>
      <trkpt lat="43.5792" lon="3.74119">
        <ele>86.5</ele>
        <time>2011-04-09T07:13:54Z</time>
      </trkpt>
      <trkpt lat="43.57912" lon="3.74115">
        <ele>85.8</ele>
        <time>2011-04-09T07:13:58Z</time>
      </trkpt>
      <trkpt lat="43.5791" lon="3.74104">
        <ele>85.7</ele>
        <time>2011-04-09T07:14:01Z</time>
      </trkpt>
      <trkpt lat="43.57905" lon="3.74096">
        <ele>84.4</ele>
        <time>2011-04-09T07:14:04Z</time>
      </trkpt>
      <trkpt lat="43.57899" lon="3.7409">
        <ele>83.3</ele>
        <time>2011-04-09T07:14:06Z</time>
      </trkpt>
      <trkpt lat="43.57893" lon="3.74085">
        <ele>82.3</ele>
        <time>2011-04-09T07:14:08Z</time>
      </trkpt>
      <trkpt lat="43.57887" lon="3.7408">
        <ele>80.7</ele>
        <time>2011-04-09T07:14:10Z</time>
      </trkpt>
      <trkpt lat="43.57883" lon="3.74072">
        <ele>79.6</ele>
        <time>2011-04-09T07:14:13Z</time>
      </trkpt>
      <trkpt lat="43.5788" lon="3.7406">
        <ele>78.5</ele>
        <time>2011-04-09T07:14:18Z</time>
      </trkpt>
      <trkpt lat="43.57882" lon="3.74051">
        <ele>75.9</ele>
        <time>2011-04-09T07:14:23Z</time>
      </trkpt>
      <trkpt lat="43.57884" lon="3.74047">
        <ele>75.8</ele>
        <time>2011-04-09T07:14:24Z</time>
      </trkpt>
      <trkpt lat="43.57887" lon="3.7404">
        <ele>74.2</ele>
        <time>2011-04-09T07:14:25Z</time>
      </trkpt>
      <trkpt lat="43.5789" lon="3.74033">
        <ele>73.1</ele>
        <time>2011-04-09T07:14:26Z</time>
      </trkpt>
      <trkpt lat="43.57892" lon="3.74026">
        <ele>72.3</ele>
        <time>2011-04-09T07:14:27Z</time>
      </trkpt>
      <trkpt lat="43.57894" lon="3.74016">
        <ele>70.5</ele>
        <time>2011-04-09T07:14:29Z</time>
      </trkpt>
      <trkpt lat="43.57898" lon="3.74004">
        <ele>69</ele>
        <time>2011-04-09T07:14:32Z</time>
      </trkpt>
      <trkpt lat="43.579" lon="3.73993">
        <ele>69</ele>
        <time>2011-04-09T07:14:35Z</time>
      </trkpt>
      <trkpt lat="43.579" lon="3.73982">
        <ele>69.8</ele>
        <time>2011-04-09T07:14:38Z</time>
      </trkpt>
      <trkpt lat="43.57906" lon="3.73974">
        <ele>70.7</ele>
        <time>2011-04-09T07:14:42Z</time>
      </trkpt>
      <trkpt lat="43.57908" lon="3.73972">
        <ele>70.8</ele>
        <time>2011-04-09T07:14:43Z</time>
      </trkpt>
      <trkpt lat="43.57912" lon="3.73954">
        <ele>73.5</ele>
        <time>2011-04-09T07:14:50Z</time>
      </trkpt>
      <trkpt lat="43.57915" lon="3.73943">
        <ele>75.2</ele>
        <time>2011-04-09T07:14:55Z</time>
      </trkpt>
      <trkpt lat="43.57918" lon="3.73933">
        <ele>77.8</ele>
        <time>2011-04-09T07:15:08Z</time>
      </trkpt>
      <trkpt lat="43.57916" lon="3.73923">
        <ele>78.1</ele>
        <time>2011-04-09T07:15:13Z</time>
      </trkpt>
      <trkpt lat="43.57915" lon="3.73912">
        <ele>78.4</ele>
        <time>2011-04-09T07:15:18Z</time>
      </trkpt>
      <trkpt lat="43.57913" lon="3.739">
        <ele>79.5</ele>
        <time>2011-04-09T07:15:23Z</time>
      </trkpt>
      <trkpt lat="43.57912" lon="3.7389">
        <ele>80.4</ele>
        <time>2011-04-09T07:15:27Z</time>
      </trkpt>
      <trkpt lat="43.57909" lon="3.7388">
        <ele>81.6</ele>
        <time>2011-04-09T07:15:31Z</time>
      </trkpt>
      <trkpt lat="43.57907" lon="3.73868">
        <ele>83.4</ele>
        <time>2011-04-09T07:15:36Z</time>
      </trkpt>
      <trkpt lat="43.57904" lon="3.73857">
        <ele>84.2</ele>
        <time>2011-04-09T07:15:41Z</time>
      </trkpt>
      <trkpt lat="43.579" lon="3.73848">
        <ele>85.3</ele>
        <time>2011-04-09T07:15:45Z</time>
      </trkpt>
      <trkpt lat="43.579" lon="3.73846">
        <ele>85.7</ele>
        <time>2011-04-09T07:15:46Z</time>
      </trkpt>
      <trkpt lat="43.5789" lon="3.7383">
        <ele>87.7</ele>
        <time>2011-04-09T07:15:55Z</time>
      </trkpt>
      <trkpt lat="43.57885" lon="3.73822">
        <ele>88.8</ele>
        <time>2011-04-09T07:16:00Z</time>
      </trkpt>
      <trkpt lat="43.57882" lon="3.73811">
        <ele>89.8</ele>
        <time>2011-04-09T07:16:05Z</time>
      </trkpt>
      <trkpt lat="43.5788" lon="3.738">
        <ele>91.1</ele>
        <time>2011-04-09T07:16:10Z</time>
      </trkpt>
      <trkpt lat="43.57878" lon="3.73789">
        <ele>92.4</ele>
        <time>2011-04-09T07:16:15Z</time>
      </trkpt>
      <trkpt lat="43.57872" lon="3.7378">
        <ele>94.4</ele>
        <time>2011-04-09T07:16:20Z</time>
      </trkpt>
      <trkpt lat="43.57867" lon="3.73772">
        <ele>96.2</ele>
        <time>2011-04-09T07:16:25Z</time>
      </trkpt>
      <trkpt lat="43.57865" lon="3.73761">
        <ele>96.9</ele>
        <time>2011-04-09T07:16:30Z</time>
      </trkpt>
      <trkpt lat="43.57862" lon="3.73752">
        <ele>98.4</ele>
        <time>2011-04-09T07:16:35Z</time>
      </trkpt>
      <trkpt lat="43.57858" lon="3.73742">
        <ele>99.3</ele>
        <time>2011-04-09T07:16:40Z</time>
      </trkpt>
      <trkpt lat="43.57855" lon="3.73731">
        <ele>100.5</ele>
        <time>2011-04-09T07:16:45Z</time>
      </trkpt>
      <trkpt lat="43.57852" lon="3.73722">
        <ele>100.9</ele>
        <time>2011-04-09T07:16:49Z</time>
      </trkpt>
      <trkpt lat="43.57851" lon="3.73719">
        <ele>100.9</ele>
        <time>2011-04-09T07:16:50Z</time>
      </trkpt>
      <trkpt lat="43.57846" lon="3.73703">
        <ele>101.5</ele>
        <time>2011-04-09T07:16:57Z</time>
      </trkpt>
      <trkpt lat="43.57841" lon="3.73693">
        <ele>103</ele>
        <time>2011-04-09T07:17:02Z</time>
      </trkpt>
      <trkpt lat="43.57836" lon="3.73685">
        <ele>103.2</ele>
        <time>2011-04-09T07:17:06Z</time>
      </trkpt>
      <trkpt lat="43.57833" lon="3.73675">
        <ele>103.8</ele>
        <time>2011-04-09T07:17:10Z</time>
      </trkpt>
      <trkpt lat="43.57832" lon="3.73664">
        <ele>104.6</ele>
        <time>2011-04-09T07:17:14Z</time>
      </trkpt>
      <trkpt lat="43.57832" lon="3.73652">
        <ele>105.3</ele>
        <time>2011-04-09T07:17:18Z</time>
      </trkpt>
      <trkpt lat="43.5783" lon="3.73642">
        <ele>105.1</ele>
        <time>2011-04-09T07:17:22Z</time>
      </trkpt>
      <trkpt lat="43.57826" lon="3.73633">
        <ele>105.4</ele>
        <time>2011-04-09T07:17:26Z</time>
      </trkpt>
      <trkpt lat="43.57822" lon="3.73625">
        <ele>106.6</ele>
        <time>2011-04-09T07:17:29Z</time>
      </trkpt>
      <trkpt lat="43.57816" lon="3.73619">
        <ele>106.5</ele>
        <time>2011-04-09T07:17:33Z</time>
      </trkpt>
      <trkpt lat="43.57809" lon="3.73616">
        <ele>106.1</ele>
        <time>2011-04-09T07:17:36Z</time>
      </trkpt>
      <trkpt lat="43.57804" lon="3.73611">
        <ele>106.3</ele>
        <time>2011-04-09T07:17:38Z</time>
      </trkpt>
      <trkpt lat="43.57799" lon="3.73605">
        <ele>106</ele>
        <time>2011-04-09T07:17:40Z</time>
      </trkpt>
      <trkpt lat="43.57794" lon="3.73597">
        <ele>105.5</ele>
        <time>2011-04-09T07:17:42Z</time>
      </trkpt>
      <trkpt lat="43.5779" lon="3.73587">
        <ele>104.7</ele>
        <time>2011-04-09T07:17:44Z</time>
      </trkpt>
      <trkpt lat="43.57786" lon="3.73577">
        <ele>104.2</ele>
        <time>2011-04-09T07:17:46Z</time>
      </trkpt>
      <trkpt lat="43.57783" lon="3.73567">
        <ele>104.3</ele>
        <time>2011-04-09T07:17:48Z</time>
      </trkpt>
      <trkpt lat="43.57777" lon="3.73559">
        <ele>104.3</ele>
        <time>2011-04-09T07:17:50Z</time>
      </trkpt>
      <trkpt lat="43.57773" lon="3.73554">
        <ele>104.3</ele>
        <time>2011-04-09T07:17:51Z</time>
      </trkpt>
      <trkpt lat="43.57769" lon="3.73549">
        <ele>104.4</ele>
        <time>2011-04-09T07:17:52Z</time>
      </trkpt>
      <trkpt lat="43.57766" lon="3.73543">
        <ele>104.1</ele>
        <time>2011-04-09T07:17:53Z</time>
      </trkpt>
      <trkpt lat="43.57762" lon="3.73537">
        <ele>103.8</ele>
        <time>2011-04-09T07:17:54Z</time>
      </trkpt>
      <trkpt lat="43.57758" lon="3.73531">
        <ele>103.7</ele>
        <time>2011-04-09T07:17:55Z</time>
      </trkpt>
      <trkpt lat="43.57755" lon="3.73526">
        <ele>102.7</ele>
        <time>2011-04-09T07:17:56Z</time>
      </trkpt>
      <trkpt lat="43.5775" lon="3.73518">
        <ele>101.5</ele>
        <time>2011-04-09T07:17:58Z</time>
      </trkpt>
      <trkpt lat="43.57744" lon="3.73512">
        <ele>102.4</ele>
        <time>2011-04-09T07:18:01Z</time>
      </trkpt>
      <trkpt lat="43.57737" lon="3.73508">
        <ele>103.9</ele>
        <time>2011-04-09T07:18:04Z</time>
      </trkpt>
      <trkpt lat="43.57729" lon="3.73506">
        <ele>105</ele>
        <time>2011-04-09T07:18:07Z</time>
      </trkpt>
      <trkpt lat="43.5772" lon="3.73503">
        <ele>104.8</ele>
        <time>2011-04-09T07:18:10Z</time>
      </trkpt>
      <trkpt lat="43.57712" lon="3.735">
        <ele>105.3</ele>
        <time>2011-04-09T07:18:13Z</time>
      </trkpt>
      <trkpt lat="43.57706" lon="3.73498">
        <ele>105.3</ele>
        <time>2011-04-09T07:18:15Z</time>
      </trkpt>
      <trkpt lat="43.57701" lon="3.73494">
        <ele>105</ele>
        <time>2011-04-09T07:18:17Z</time>
      </trkpt>
      <trkpt lat="43.57696" lon="3.73488">
        <ele>104.5</ele>
        <time>2011-04-09T07:18:19Z</time>
      </trkpt>
      <trkpt lat="43.57693" lon="3.7348">
        <ele>104.2</ele>
        <time>2011-04-09T07:18:21Z</time>
      </trkpt>
      <trkpt lat="43.57689" lon="3.73473">
        <ele>105</ele>
        <time>2011-04-09T07:18:23Z</time>
      </trkpt>
      <trkpt lat="43.57684" lon="3.73465">
        <ele>105.4</ele>
        <time>2011-04-09T07:18:25Z</time>
      </trkpt>
      <trkpt lat="43.57682" lon="3.73457">
        <ele>105.6</ele>
        <time>2011-04-09T07:18:27Z</time>
      </trkpt>
      <trkpt lat="43.57681" lon="3.73448">
        <ele>106.4</ele>
        <time>2011-04-09T07:18:29Z</time>
      </trkpt>
      <trkpt lat="43.57682" lon="3.73439">
        <ele>107</ele>
        <time>2011-04-09T07:18:31Z</time>
      </trkpt>
      <trkpt lat="43.57682" lon="3.7343">
        <ele>107.4</ele>
        <time>2011-04-09T07:18:33Z</time>
      </trkpt>
      <trkpt lat="43.57683" lon="3.73422">
        <ele>108.6</ele>
        <time>2011-04-09T07:18:35Z</time>
      </trkpt>
      <trkpt lat="43.57688" lon="3.73412">
        <ele>109.3</ele>
        <time>2011-04-09T07:18:38Z</time>
      </trkpt>
      <trkpt lat="43.57693" lon="3.73408">
        <ele>109.3</ele>
        <time>2011-04-09T07:18:40Z</time>
      </trkpt>
      <trkpt lat="43.57698" lon="3.73398">
        <ele>109.4</ele>
        <time>2011-04-09T07:18:43Z</time>
      </trkpt>
      <trkpt lat="43.57698" lon="3.73387">
        <ele>110</ele>
        <time>2011-04-09T07:18:46Z</time>
      </trkpt>
      <trkpt lat="43.57695" lon="3.73376">
        <ele>111.4</ele>
        <time>2011-04-09T07:18:50Z</time>
      </trkpt>
      <trkpt lat="43.57691" lon="3.73366">
        <ele>112</ele>
        <time>2011-04-09T07:18:54Z</time>
      </trkpt>
      <trkpt lat="43.5769" lon="3.73363">
        <ele>111.7</ele>
        <time>2011-04-09T07:18:55Z</time>
      </trkpt>
      <trkpt lat="43.57685" lon="3.73347">
        <ele>111.9</ele>
        <time>2011-04-09T07:19:02Z</time>
      </trkpt>
      <trkpt lat="43.57683" lon="3.73336">
        <ele>111.8</ele>
        <time>2011-04-09T07:19:07Z</time>
      </trkpt>
      <trkpt lat="43.57681" lon="3.73326">
        <ele>111.7</ele>
        <time>2011-04-09T07:19:12Z</time>
      </trkpt>
      <trkpt lat="43.57683" lon="3.73315">
        <ele>112.5</ele>
        <time>2011-04-09T07:19:17Z</time>
      </trkpt>
      <trkpt lat="43.57688" lon="3.73306">
        <ele>112.1</ele>
        <time>2011-04-09T07:19:22Z</time>
      </trkpt>
      <trkpt lat="43.57693" lon="3.73298">
        <ele>112.8</ele>
        <time>2011-04-09T07:19:27Z</time>
      </trkpt>
      <trkpt lat="43.57698" lon="3.7329">
        <ele>113</ele>
        <time>2011-04-09T07:19:33Z</time>
      </trkpt>
      <trkpt lat="43.57703" lon="3.73282">
        <ele>113.2</ele>
        <time>2011-04-09T07:19:38Z</time>
      </trkpt>
      <trkpt lat="43.57709" lon="3.73273">
        <ele>113.1</ele>
        <time>2011-04-09T07:19:43Z</time>
      </trkpt>
      <trkpt lat="43.5771" lon="3.73261">
        <ele>112.6</ele>
        <time>2011-04-09T07:19:50Z</time>
      </trkpt>
      <trkpt lat="43.57719" lon="3.7326">
        <ele>112.8</ele>
        <time>2011-04-09T07:20:55Z</time>
      </trkpt>
      <trkpt lat="43.5772" lon="3.73258">
        <ele>112.6</ele>
        <time>2011-04-09T07:20:56Z</time>
      </trkpt>
      <trkpt lat="43.5773" lon="3.73246">
        <ele>113</ele>
        <time>2011-04-09T07:21:02Z</time>
      </trkpt>
      <trkpt lat="43.57736" lon="3.7324">
        <ele>112.5</ele>
        <time>2011-04-09T07:21:04Z</time>
      </trkpt>
      <trkpt lat="43.57743" lon="3.73233">
        <ele>111.7</ele>
        <time>2011-04-09T07:21:06Z</time>
      </trkpt>
      <trkpt lat="43.5775" lon="3.73226">
        <ele>111.5</ele>
        <time>2011-04-09T07:21:08Z</time>
      </trkpt>
      <trkpt lat="43.57754" lon="3.73221">
        <ele>111.6</ele>
        <time>2011-04-09T07:21:09Z</time>
      </trkpt>
      <trkpt lat="43.57757" lon="3.73217">
        <ele>111.7</ele>
        <time>2011-04-09T07:21:10Z</time>
      </trkpt>
      <trkpt lat="43.57761" lon="3.73212">
        <ele>111.3</ele>
        <time>2011-04-09T07:21:11Z</time>
      </trkpt>
      <trkpt lat="43.57763" lon="3.73206">
        <ele>110.9</ele>
        <time>2011-04-09T07:21:12Z</time>
      </trkpt>
      <trkpt lat="43.57762" lon="3.73193">
        <ele>110.2</ele>
        <time>2011-04-09T07:21:14Z</time>
      </trkpt>
      <trkpt lat="43.57758" lon="3.7319">
        <ele>109.8</ele>
        <time>2011-04-09T07:21:15Z</time>
      </trkpt>
      <trkpt lat="43.57754" lon="3.73187">
        <ele>109.5</ele>
        <time>2011-04-09T07:21:16Z</time>
      </trkpt>
      <trkpt lat="43.5775" lon="3.73184">
        <ele>109.4</ele>
        <time>2011-04-09T07:21:17Z</time>
      </trkpt>
      <trkpt lat="43.57745" lon="3.73181">
        <ele>109.3</ele>
        <time>2011-04-09T07:21:18Z</time>
      </trkpt>
      <trkpt lat="43.57741" lon="3.73178">
        <ele>109.2</ele>
        <time>2011-04-09T07:21:19Z</time>
      </trkpt>
      <trkpt lat="43.57737" lon="3.73175">
        <ele>109.3</ele>
        <time>2011-04-09T07:21:20Z</time>
      </trkpt>
      <trkpt lat="43.57733" lon="3.73171">
        <ele>109.4</ele>
        <time>2011-04-09T07:21:21Z</time>
      </trkpt>
      <trkpt lat="43.57729" lon="3.73167">
        <ele>109.4</ele>
        <time>2011-04-09T07:21:22Z</time>
      </trkpt>
      <trkpt lat="43.57725" lon="3.73163">
        <ele>109.4</ele>
        <time>2011-04-09T07:21:23Z</time>
      </trkpt>
      <trkpt lat="43.57721" lon="3.73159">
        <ele>108.9</ele>
        <time>2011-04-09T07:21:24Z</time>
      </trkpt>
      <trkpt lat="43.57717" lon="3.73155">
        <ele>108.5</ele>
        <time>2011-04-09T07:21:25Z</time>
      </trkpt>
      <trkpt lat="43.57713" lon="3.73152">
        <ele>108.2</ele>
        <time>2011-04-09T07:21:26Z</time>
      </trkpt>
      <trkpt lat="43.57709" lon="3.73148">
        <ele>108.4</ele>
        <time>2011-04-09T07:21:27Z</time>
      </trkpt>
      <trkpt lat="43.57706" lon="3.73144">
        <ele>108.6</ele>
        <time>2011-04-09T07:21:28Z</time>
      </trkpt>
      <trkpt lat="43.57702" lon="3.73141">
        <ele>108.7</ele>
        <time>2011-04-09T07:21:29Z</time>
      </trkpt>
      <trkpt lat="43.57698" lon="3.73137">
        <ele>108.6</ele>
        <time>2011-04-09T07:21:30Z</time>
      </trkpt>
      <trkpt lat="43.5769" lon="3.73131">
        <ele>108.3</ele>
        <time>2011-04-09T07:21:32Z</time>
      </trkpt>
      <trkpt lat="43.57683" lon="3.73125">
        <ele>109.1</ele>
        <time>2011-04-09T07:21:34Z</time>
      </trkpt>
      <trkpt lat="43.57675" lon="3.73119">
        <ele>109.7</ele>
        <time>2011-04-09T07:21:36Z</time>
      </trkpt>
      <trkpt lat="43.57668" lon="3.73113">
        <ele>110</ele>
        <time>2011-04-09T07:21:38Z</time>
      </trkpt>
      <trkpt lat="43.57661" lon="3.73108">
        <ele>110.2</ele>
        <time>2011-04-09T07:21:40Z</time>
      </trkpt>
      <trkpt lat="43.57654" lon="3.73103">
        <ele>110.3</ele>
        <time>2011-04-09T07:21:42Z</time>
      </trkpt>
      <trkpt lat="43.57646" lon="3.73097">
        <ele>110.3</ele>
        <time>2011-04-09T07:21:44Z</time>
      </trkpt>
      <trkpt lat="43.57642" lon="3.73094">
        <ele>110.3</ele>
        <time>2011-04-09T07:21:45Z</time>
      </trkpt>
      <trkpt lat="43.57637" lon="3.73091">
        <ele>110.2</ele>
        <time>2011-04-09T07:21:46Z</time>
      </trkpt>
      <trkpt lat="43.57633" lon="3.73087">
        <ele>110.2</ele>
        <time>2011-04-09T07:21:47Z</time>
      </trkpt>
      <trkpt lat="43.57629" lon="3.73083">
        <ele>110.2</ele>
        <time>2011-04-09T07:21:48Z</time>
      </trkpt>
      <trkpt lat="43.57625" lon="3.73079">
        <ele>109.9</ele>
        <time>2011-04-09T07:21:49Z</time>
      </trkpt>
      <trkpt lat="43.57622" lon="3.73074">
        <ele>109.8</ele>
        <time>2011-04-09T07:21:50Z</time>
      </trkpt>
      <trkpt lat="43.57619" lon="3.73069">
        <ele>109.6</ele>
        <time>2011-04-09T07:21:51Z</time>
      </trkpt>
      <trkpt lat="43.57616" lon="3.73063">
        <ele>109.2</ele>
        <time>2011-04-09T07:21:52Z</time>
      </trkpt>
      <trkpt lat="43.57613" lon="3.73057">
        <ele>108.9</ele>
        <time>2011-04-09T07:21:53Z</time>
      </trkpt>
      <trkpt lat="43.5761" lon="3.73051">
        <ele>108.7</ele>
        <time>2011-04-09T07:21:54Z</time>
      </trkpt>
      <trkpt lat="43.57607" lon="3.73045">
        <ele>108.3</ele>
        <time>2011-04-09T07:21:55Z</time>
      </trkpt>
      <trkpt lat="43.57603" lon="3.73039">
        <ele>108</ele>
        <time>2011-04-09T07:21:56Z</time>
      </trkpt>
      <trkpt lat="43.576" lon="3.73033">
        <ele>107.8</ele>
        <time>2011-04-09T07:21:57Z</time>
      </trkpt>
      <trkpt lat="43.57596" lon="3.73027">
        <ele>107.7</ele>
        <time>2011-04-09T07:21:58Z</time>
      </trkpt>
      <trkpt lat="43.57593" lon="3.73021">
        <ele>107.6</ele>
        <time>2011-04-09T07:21:59Z</time>
      </trkpt>
      <trkpt lat="43.57589" lon="3.73015">
        <ele>107.6</ele>
        <time>2011-04-09T07:22:00Z</time>
      </trkpt>
      <trkpt lat="43.57585" lon="3.73009">
        <ele>107.6</ele>
        <time>2011-04-09T07:22:01Z</time>
      </trkpt>
      <trkpt lat="43.57581" lon="3.73003">
        <ele>107.3</ele>
        <time>2011-04-09T07:22:02Z</time>
      </trkpt>
      <trkpt lat="43.57577" lon="3.72997">
        <ele>107.2</ele>
        <time>2011-04-09T07:22:03Z</time>
      </trkpt>
      <trkpt lat="43.57573" lon="3.72991">
        <ele>107</ele>
        <time>2011-04-09T07:22:04Z</time>
      </trkpt>
      <trkpt lat="43.57569" lon="3.72986">
        <ele>106.5</ele>
        <time>2011-04-09T07:22:05Z</time>
      </trkpt>
      <trkpt lat="43.57565" lon="3.72981">
        <ele>106.2</ele>
        <time>2011-04-09T07:22:06Z</time>
      </trkpt>
      <trkpt lat="43.5756" lon="3.72976">
        <ele>105.9</ele>
        <time>2011-04-09T07:22:07Z</time>
      </trkpt>
      <trkpt lat="43.57556" lon="3.72972">
        <ele>105.4</ele>
        <time>2011-04-09T07:22:08Z</time>
      </trkpt>
      <trkpt lat="43.57552" lon="3.72968">
        <ele>105</ele>
        <time>2011-04-09T07:22:09Z</time>
      </trkpt>
      <trkpt lat="43.57547" lon="3.72966">
        <ele>104.7</ele>
        <time>2011-04-09T07:22:10Z</time>
      </trkpt>
      <trkpt lat="43.57543" lon="3.72964">
        <ele>104.9</ele>
        <time>2011-04-09T07:22:11Z</time>
      </trkpt>
      <trkpt lat="43.57539" lon="3.72962">
        <ele>105.1</ele>
        <time>2011-04-09T07:22:12Z</time>
      </trkpt>
      <trkpt lat="43.57534" lon="3.7296">
        <ele>105.2</ele>
        <time>2011-04-09T07:22:13Z</time>
      </trkpt>
      <trkpt lat="43.5753" lon="3.72958">
        <ele>105.3</ele>
        <time>2011-04-09T07:22:14Z</time>
      </trkpt>
      <trkpt lat="43.57525" lon="3.72956">
        <ele>105.2</ele>
        <time>2011-04-09T07:22:15Z</time>
      </trkpt>
      <trkpt lat="43.57521" lon="3.72954">
        <ele>105.1</ele>
        <time>2011-04-09T07:22:16Z</time>
      </trkpt>
      <trkpt lat="43.57516" lon="3.72952">
        <ele>105.1</ele>
        <time>2011-04-09T07:22:17Z</time>
      </trkpt>
      <trkpt lat="43.57512" lon="3.72951">
        <ele>104.6</ele>
        <time>2011-04-09T07:22:18Z</time>
      </trkpt>
      <trkpt lat="43.57507" lon="3.72949">
        <ele>104.2</ele>
        <time>2011-04-09T07:22:19Z</time>
      </trkpt>
      <trkpt lat="43.57503" lon="3.72947">
        <ele>104</ele>
        <time>2011-04-09T07:22:20Z</time>
      </trkpt>
      <trkpt lat="43.57498" lon="3.72946">
        <ele>103.8</ele>
        <time>2011-04-09T07:22:21Z</time>
      </trkpt>
      <trkpt lat="43.57493" lon="3.72945">
        <ele>103.6</ele>
        <time>2011-04-09T07:22:22Z</time>
      </trkpt>
      <trkpt lat="43.57489" lon="3.72945">
        <ele>103.5</ele>
        <time>2011-04-09T07:22:23Z</time>
      </trkpt>
      <trkpt lat="43.57484" lon="3.72945">
        <ele>103.2</ele>
        <time>2011-04-09T07:22:24Z</time>
      </trkpt>
      <trkpt lat="43.57479" lon="3.72946">
        <ele>102.9</ele>
        <time>2011-04-09T07:22:25Z</time>
      </trkpt>
      <trkpt lat="43.57474" lon="3.72947">
        <ele>102.8</ele>
        <time>2011-04-09T07:22:26Z</time>
      </trkpt>
      <trkpt lat="43.57469" lon="3.72946">
        <ele>102.4</ele>
        <time>2011-04-09T07:22:27Z</time>
      </trkpt>
      <trkpt lat="43.57464" lon="3.72946">
        <ele>102.1</ele>
        <time>2011-04-09T07:22:28Z</time>
      </trkpt>
      <trkpt lat="43.57459" lon="3.72947">
        <ele>101.8</ele>
        <time>2011-04-09T07:22:29Z</time>
      </trkpt>
      <trkpt lat="43.57454" lon="3.72949">
        <ele>101.7</ele>
        <time>2011-04-09T07:22:30Z</time>
      </trkpt>
      <trkpt lat="43.57446" lon="3.72953">
        <ele>101.5</ele>
        <time>2011-04-09T07:22:32Z</time>
      </trkpt>
      <trkpt lat="43.5744" lon="3.72954">
        <ele>101</ele>
        <time>2011-04-09T07:22:34Z</time>
      </trkpt>
      <trkpt lat="43.57431" lon="3.72953">
        <ele>99.4</ele>
        <time>2011-04-09T07:22:37Z</time>
      </trkpt>
      <trkpt lat="43.57423" lon="3.72953">
        <ele>96.8</ele>
        <time>2011-04-09T07:22:40Z</time>
      </trkpt>
      <trkpt lat="43.57415" lon="3.72948">
        <ele>94</ele>
        <time>2011-04-09T07:22:43Z</time>
      </trkpt>
      <trkpt lat="43.5741" lon="3.72943">
        <ele>92.6</ele>
        <time>2011-04-09T07:22:45Z</time>
      </trkpt>
      <trkpt lat="43.57404" lon="3.72938">
        <ele>91</ele>
        <time>2011-04-09T07:22:47Z</time>
      </trkpt>
      <trkpt lat="43.57401" lon="3.72935">
        <ele>90.1</ele>
        <time>2011-04-09T07:22:48Z</time>
      </trkpt>
      <trkpt lat="43.57396" lon="3.72931">
        <ele>89.4</ele>
        <time>2011-04-09T07:22:49Z</time>
      </trkpt>
      <trkpt lat="43.5739" lon="3.72926">
        <ele>87.7</ele>
        <time>2011-04-09T07:22:50Z</time>
      </trkpt>
      <trkpt lat="43.57382" lon="3.72921">
        <ele>86.4</ele>
        <time>2011-04-09T07:22:51Z</time>
      </trkpt>
      <trkpt lat="43.57374" lon="3.72916">
        <ele>85.4</ele>
        <time>2011-04-09T07:22:52Z</time>
      </trkpt>
      <trkpt lat="43.57366" lon="3.72909">
        <ele>82.7</ele>
        <time>2011-04-09T07:22:53Z</time>
      </trkpt>
      <trkpt lat="43.57358" lon="3.72905">
        <ele>80.7</ele>
        <time>2011-04-09T07:22:54Z</time>
      </trkpt>
      <trkpt lat="43.57352" lon="3.72905">
        <ele>79.3</ele>
        <time>2011-04-09T07:22:55Z</time>
      </trkpt>
      <trkpt lat="43.57346" lon="3.72912">
        <ele>78.4</ele>
        <time>2011-04-09T07:22:57Z</time>
      </trkpt>
      <trkpt lat="43.57345" lon="3.72916">
        <ele>78.1</ele>
        <time>2011-04-09T07:22:58Z</time>
      </trkpt>
      <trkpt lat="43.57337" lon="3.72929">
        <ele>78.9</ele>
        <time>2011-04-09T07:23:04Z</time>
      </trkpt>
      <trkpt lat="43.57332" lon="3.72937">
        <ele>78.9</ele>
        <time>2011-04-09T07:23:07Z</time>
      </trkpt>
      <trkpt lat="43.57325" lon="3.72941">
        <ele>78.5</ele>
        <time>2011-04-09T07:23:10Z</time>
      </trkpt>
      <trkpt lat="43.57318" lon="3.72942">
        <ele>79.1</ele>
        <time>2011-04-09T07:23:13Z</time>
      </trkpt>
      <trkpt lat="43.57311" lon="3.72941">
        <ele>79.9</ele>
        <time>2011-04-09T07:23:16Z</time>
      </trkpt>
      <trkpt lat="43.57303" lon="3.72938">
        <ele>81.4</ele>
        <time>2011-04-09T07:23:20Z</time>
      </trkpt>
      <trkpt lat="43.57295" lon="3.72934">
        <ele>83.1</ele>
        <time>2011-04-09T07:23:26Z</time>
      </trkpt>
      <trkpt lat="43.57287" lon="3.72931">
        <ele>84.8</ele>
        <time>2011-04-09T07:23:31Z</time>
      </trkpt>
      <trkpt lat="43.57279" lon="3.72927">
        <ele>86.9</ele>
        <time>2011-04-09T07:23:37Z</time>
      </trkpt>
      <trkpt lat="43.57271" lon="3.72924">
        <ele>88.3</ele>
        <time>2011-04-09T07:23:43Z</time>
      </trkpt>
      <trkpt lat="43.57264" lon="3.72919">
        <ele>90.2</ele>
        <time>2011-04-09T07:23:49Z</time>
      </trkpt>
      <trkpt lat="43.57256" lon="3.72915">
        <ele>92.7</ele>
        <time>2011-04-09T07:23:55Z</time>
      </trkpt>
      <trkpt lat="43.57249" lon="3.72913">
        <ele>95.1</ele>
        <time>2011-04-09T07:24:01Z</time>
      </trkpt>
      <trkpt lat="43.57247" lon="3.72913">
        <ele>95.6</ele>
        <time>2011-04-09T07:24:02Z</time>
      </trkpt>
      <trkpt lat="43.57233" lon="3.72904">
        <ele>98.1</ele>
        <time>2011-04-09T07:24:14Z</time>
      </trkpt>
      <trkpt lat="43.57225" lon="3.72901">
        <ele>99.6</ele>
        <time>2011-04-09T07:24:20Z</time>
      </trkpt>
      <trkpt lat="43.57217" lon="3.72898">
        <ele>101.6</ele>
        <time>2011-04-09T07:24:25Z</time>
      </trkpt>
      <trkpt lat="43.5721" lon="3.72895">
        <ele>101.9</ele>
        <time>2011-04-09T07:24:30Z</time>
      </trkpt>
      <trkpt lat="43.57201" lon="3.72894">
        <ele>103.7</ele>
        <time>2011-04-09T07:25:05Z</time>
      </trkpt>
      <trkpt lat="43.57201" lon="3.72894">
        <ele>103.8</ele>
        <time>2011-04-09T07:25:06Z</time>
      </trkpt>
      <trkpt lat="43.57202" lon="3.72871">
        <ele>104.1</ele>
        <time>2011-04-09T07:25:57Z</time>
      </trkpt>
      <trkpt lat="43.57201" lon="3.7286">
        <ele>105.9</ele>
        <time>2011-04-09T07:26:02Z</time>
      </trkpt>
      <trkpt lat="43.57197" lon="3.7285">
        <ele>107</ele>
        <time>2011-04-09T07:26:07Z</time>
      </trkpt>
      <trkpt lat="43.57196" lon="3.72847">
        <ele>107.1</ele>
        <time>2011-04-09T07:26:08Z</time>
      </trkpt>
      <trkpt lat="43.5719" lon="3.72833">
        <ele>108.9</ele>
        <time>2011-04-09T07:26:15Z</time>
      </trkpt>
      <trkpt lat="43.57184" lon="3.72827">
        <ele>108.6</ele>
        <time>2011-04-09T07:26:18Z</time>
      </trkpt>
      <trkpt lat="43.57181" lon="3.7282">
        <ele>107.8</ele>
        <time>2011-04-09T07:26:20Z</time>
      </trkpt>
      <trkpt lat="43.57176" lon="3.7281">
        <ele>106.8</ele>
        <time>2011-04-09T07:26:23Z</time>
      </trkpt>
      <trkpt lat="43.57168" lon="3.72808">
        <ele>106.5</ele>
        <time>2011-04-09T07:26:26Z</time>
      </trkpt>
      <trkpt lat="43.57163" lon="3.72803">
        <ele>106.2</ele>
        <time>2011-04-09T07:26:28Z</time>
      </trkpt>
      <trkpt lat="43.57157" lon="3.72798">
        <ele>105.9</ele>
        <time>2011-04-09T07:26:30Z</time>
      </trkpt>
      <trkpt lat="43.57151" lon="3.72794">
        <ele>105.7</ele>
        <time>2011-04-09T07:26:32Z</time>
      </trkpt>
      <trkpt lat="43.57144" lon="3.72788">
        <ele>105</ele>
        <time>2011-04-09T07:26:34Z</time>
      </trkpt>
      <trkpt lat="43.57139" lon="3.7278">
        <ele>104.6</ele>
        <time>2011-04-09T07:26:36Z</time>
      </trkpt>
      <trkpt lat="43.57134" lon="3.72772">
        <ele>104.4</ele>
        <time>2011-04-09T07:26:38Z</time>
      </trkpt>
      <trkpt lat="43.57129" lon="3.72764">
        <ele>104.2</ele>
        <time>2011-04-09T07:26:40Z</time>
      </trkpt>
      <trkpt lat="43.57125" lon="3.72757">
        <ele>103.9</ele>
        <time>2011-04-09T07:26:42Z</time>
      </trkpt>
      <trkpt lat="43.57122" lon="3.72747">
        <ele>103.4</ele>
        <time>2011-04-09T07:26:45Z</time>
      </trkpt>
      <trkpt lat="43.57119" lon="3.72735">
        <ele>103.4</ele>
        <time>2011-04-09T07:26:50Z</time>
      </trkpt>
      <trkpt lat="43.5712" lon="3.72725">
        <ele>102.8</ele>
        <time>2011-04-09T07:26:54Z</time>
      </trkpt>
      <trkpt lat="43.57118" lon="3.72713">
        <ele>104.1</ele>
        <time>2011-04-09T07:26:59Z</time>
      </trkpt>
      <trkpt lat="43.57114" lon="3.72702">
        <ele>104.5</ele>
        <time>2011-04-09T07:27:05Z</time>
      </trkpt>
      <trkpt lat="43.57117" lon="3.72693">
        <ele>104.7</ele>
        <time>2011-04-09T07:27:08Z</time>
      </trkpt>
      <trkpt lat="43.57117" lon="3.7269">
        <ele>104.7</ele>
        <time>2011-04-09T07:27:09Z</time>
      </trkpt>
      <trkpt lat="43.57117" lon="3.72674">
        <ele>104.6</ele>
        <time>2011-04-09T07:27:14Z</time>
      </trkpt>
      <trkpt lat="43.57117" lon="3.72664">
        <ele>104.9</ele>
        <time>2011-04-09T07:27:17Z</time>
      </trkpt>
      <trkpt lat="43.57115" lon="3.72655">
        <ele>105.4</ele>
        <time>2011-04-09T07:27:21Z</time>
      </trkpt>
      <trkpt lat="43.57112" lon="3.72646">
        <ele>105.7</ele>
        <time>2011-04-09T07:27:24Z</time>
      </trkpt>
      <trkpt lat="43.57109" lon="3.72635">
        <ele>106</ele>
        <time>2011-04-09T07:27:27Z</time>
      </trkpt>
      <trkpt lat="43.5711" lon="3.72624">
        <ele>106.2</ele>
        <time>2011-04-09T07:27:30Z</time>
      </trkpt>
      <trkpt lat="43.57114" lon="3.72614">
        <ele>106.8</ele>
        <time>2011-04-09T07:27:33Z</time>
      </trkpt>
      <trkpt lat="43.57118" lon="3.72604">
        <ele>107.3</ele>
        <time>2011-04-09T07:27:36Z</time>
      </trkpt>
      <trkpt lat="43.57118" lon="3.72592">
        <ele>106.9</ele>
        <time>2011-04-09T07:27:39Z</time>
      </trkpt>
      <trkpt lat="43.57116" lon="3.72582">
        <ele>107.1</ele>
        <time>2011-04-09T07:27:42Z</time>
      </trkpt>
      <trkpt lat="43.57118" lon="3.72571">
        <ele>107.9</ele>
        <time>2011-04-09T07:27:45Z</time>
      </trkpt>
      <trkpt lat="43.57121" lon="3.7256">
        <ele>109.3</ele>
        <time>2011-04-09T07:27:48Z</time>
      </trkpt>
      <trkpt lat="43.57124" lon="3.7255">
        <ele>110.3</ele>
        <time>2011-04-09T07:27:51Z</time>
      </trkpt>
      <trkpt lat="43.57127" lon="3.7254">
        <ele>111.2</ele>
        <time>2011-04-09T07:27:54Z</time>
      </trkpt>
      <trkpt lat="43.57129" lon="3.72528">
        <ele>111.4</ele>
        <time>2011-04-09T07:27:57Z</time>
      </trkpt>
      <trkpt lat="43.5713" lon="3.72517">
        <ele>112</ele>
        <time>2011-04-09T07:28:00Z</time>
      </trkpt>
      <trkpt lat="43.57128" lon="3.72505">
        <ele>112.8</ele>
        <time>2011-04-09T07:28:03Z</time>
      </trkpt>
      <trkpt lat="43.57126" lon="3.72495">
        <ele>114</ele>
        <time>2011-04-09T07:28:06Z</time>
      </trkpt>
      <trkpt lat="43.57123" lon="3.72485">
        <ele>114.5</ele>
        <time>2011-04-09T07:28:09Z</time>
      </trkpt>
      <trkpt lat="43.57123" lon="3.72481">
        <ele>114.4</ele>
        <time>2011-04-09T07:28:10Z</time>
      </trkpt>
      <trkpt lat="43.57118" lon="3.72465">
        <ele>115.7</ele>
        <time>2011-04-09T07:28:15Z</time>
      </trkpt>
      <trkpt lat="43.57117" lon="3.72454">
        <ele>115.7</ele>
        <time>2011-04-09T07:28:18Z</time>
      </trkpt>
      <trkpt lat="43.57118" lon="3.72442">
        <ele>116.1</ele>
        <time>2011-04-09T07:28:21Z</time>
      </trkpt>
      <trkpt lat="43.57118" lon="3.72432">
        <ele>117.1</ele>
        <time>2011-04-09T07:28:24Z</time>
      </trkpt>
      <trkpt lat="43.57118" lon="3.7242">
        <ele>117.2</ele>
        <time>2011-04-09T07:28:27Z</time>
      </trkpt>
      <trkpt lat="43.57118" lon="3.72408">
        <ele>117.8</ele>
        <time>2011-04-09T07:28:30Z</time>
      </trkpt>
      <trkpt lat="43.57117" lon="3.72399">
        <ele>117.9</ele>
        <time>2011-04-09T07:28:32Z</time>
      </trkpt>
      <trkpt lat="43.57116" lon="3.72391">
        <ele>118</ele>
        <time>2011-04-09T07:28:34Z</time>
      </trkpt>
      <trkpt lat="43.57112" lon="3.7238">
        <ele>118.1</ele>
        <time>2011-04-09T07:28:37Z</time>
      </trkpt>
      <trkpt lat="43.57108" lon="3.72374">
        <ele>118.3</ele>
        <time>2011-04-09T07:28:39Z</time>
      </trkpt>
      <trkpt lat="43.57104" lon="3.72368">
        <ele>118.6</ele>
        <time>2011-04-09T07:28:41Z</time>
      </trkpt>
      <trkpt lat="43.57099" lon="3.72362">
        <ele>118.8</ele>
        <time>2011-04-09T07:28:43Z</time>
      </trkpt>
      <trkpt lat="43.57093" lon="3.72358">
        <ele>119.9</ele>
        <time>2011-04-09T07:28:45Z</time>
      </trkpt>
      <trkpt lat="43.57088" lon="3.72353">
        <ele>120.5</ele>
        <time>2011-04-09T07:28:47Z</time>
      </trkpt>
      <trkpt lat="43.57083" lon="3.72348">
        <ele>120.9</ele>
        <time>2011-04-09T07:28:49Z</time>
      </trkpt>
      <trkpt lat="43.57078" lon="3.72342">
        <ele>120.9</ele>
        <time>2011-04-09T07:28:51Z</time>
      </trkpt>
      <trkpt lat="43.57074" lon="3.72336">
        <ele>121</ele>
        <time>2011-04-09T07:28:53Z</time>
      </trkpt>
      <trkpt lat="43.5707" lon="3.72329">
        <ele>121.4</ele>
        <time>2011-04-09T07:28:55Z</time>
      </trkpt>
      <trkpt lat="43.57065" lon="3.72322">
        <ele>121.5</ele>
        <time>2011-04-09T07:28:57Z</time>
      </trkpt>
      <trkpt lat="43.5706" lon="3.72315">
        <ele>121.5</ele>
        <time>2011-04-09T07:28:59Z</time>
      </trkpt>
      <trkpt lat="43.57055" lon="3.72308">
        <ele>121.3</ele>
        <time>2011-04-09T07:29:01Z</time>
      </trkpt>
      <trkpt lat="43.57049" lon="3.723">
        <ele>121.3</ele>
        <time>2011-04-09T07:29:03Z</time>
      </trkpt>
      <trkpt lat="43.57043" lon="3.7229">
        <ele>121.4</ele>
        <time>2011-04-09T07:29:05Z</time>
      </trkpt>
      <trkpt lat="43.57041" lon="3.72285">
        <ele>121.2</ele>
        <time>2011-04-09T07:29:06Z</time>
      </trkpt>
      <trkpt lat="43.57037" lon="3.72279">
        <ele>121.1</ele>
        <time>2011-04-09T07:29:07Z</time>
      </trkpt>
      <trkpt lat="43.57034" lon="3.72274">
        <ele>121</ele>
        <time>2011-04-09T07:29:08Z</time>
      </trkpt>
      <trkpt lat="43.5703" lon="3.72268">
        <ele>120.9</ele>
        <time>2011-04-09T07:29:09Z</time>
      </trkpt>
      <trkpt lat="43.57026" lon="3.72262">
        <ele>120.5</ele>
        <time>2011-04-09T07:29:10Z</time>
      </trkpt>
      <trkpt lat="43.57022" lon="3.72256">
        <ele>120.2</ele>
        <time>2011-04-09T07:29:11Z</time>
      </trkpt>
      <trkpt lat="43.57017" lon="3.72251">
        <ele>120</ele>
        <time>2011-04-09T07:29:12Z</time>
      </trkpt>
      <trkpt lat="43.57012" lon="3.72246">
        <ele>119.1</ele>
        <time>2011-04-09T07:29:13Z</time>
      </trkpt>
      <trkpt lat="43.57007" lon="3.72241">
        <ele>118.4</ele>
        <time>2011-04-09T07:29:14Z</time>
      </trkpt>
      <trkpt lat="43.57001" lon="3.72237">
        <ele>117.9</ele>
        <time>2011-04-09T07:29:15Z</time>
      </trkpt>
      <trkpt lat="43.56995" lon="3.72233">
        <ele>117.4</ele>
        <time>2011-04-09T07:29:16Z</time>
      </trkpt>
      <trkpt lat="43.56988" lon="3.72229">
        <ele>116.9</ele>
        <time>2011-04-09T07:29:17Z</time>
      </trkpt>
      <trkpt lat="43.56983" lon="3.72226">
        <ele>116.6</ele>
        <time>2011-04-09T07:29:18Z</time>
      </trkpt>
      <trkpt lat="43.56978" lon="3.72221">
        <ele>116.3</ele>
        <time>2011-04-09T07:29:19Z</time>
      </trkpt>
      <trkpt lat="43.56973" lon="3.72217">
        <ele>116</ele>
        <time>2011-04-09T07:29:20Z</time>
      </trkpt>
      <trkpt lat="43.56968" lon="3.72213">
        <ele>115.8</ele>
        <time>2011-04-09T07:29:21Z</time>
      </trkpt>
      <trkpt lat="43.56964" lon="3.7221">
        <ele>115.4</ele>
        <time>2011-04-09T07:29:22Z</time>
      </trkpt>
      <trkpt lat="43.56959" lon="3.72207">
        <ele>115.1</ele>
        <time>2011-04-09T07:29:23Z</time>
      </trkpt>
      <trkpt lat="43.56954" lon="3.72205">
        <ele>114.8</ele>
        <time>2011-04-09T07:29:24Z</time>
      </trkpt>
      <trkpt lat="43.56949" lon="3.72202">
        <ele>114.7</ele>
        <time>2011-04-09T07:29:25Z</time>
      </trkpt>
      <trkpt lat="43.56944" lon="3.722">
        <ele>114.8</ele>
        <time>2011-04-09T07:29:26Z</time>
      </trkpt>
      <trkpt lat="43.5694" lon="3.72198">
        <ele>114.9</ele>
        <time>2011-04-09T07:29:27Z</time>
      </trkpt>
      <trkpt lat="43.56935" lon="3.72196">
        <ele>115</ele>
        <time>2011-04-09T07:29:28Z</time>
      </trkpt>
      <trkpt lat="43.56931" lon="3.72193">
        <ele>115</ele>
        <time>2011-04-09T07:29:29Z</time>
      </trkpt>
      <trkpt lat="43.56926" lon="3.72191">
        <ele>115.1</ele>
        <time>2011-04-09T07:29:30Z</time>
      </trkpt>
      <trkpt lat="43.56921" lon="3.72189">
        <ele>115.1</ele>
        <time>2011-04-09T07:29:31Z</time>
      </trkpt>
      <trkpt lat="43.56917" lon="3.72186">
        <ele>115.4</ele>
        <time>2011-04-09T07:29:32Z</time>
      </trkpt>
      <trkpt lat="43.56912" lon="3.72183">
        <ele>115.6</ele>
        <time>2011-04-09T07:29:33Z</time>
      </trkpt>
      <trkpt lat="43.56908" lon="3.72179">
        <ele>115.8</ele>
        <time>2011-04-09T07:29:34Z</time>
      </trkpt>
      <trkpt lat="43.56904" lon="3.72175">
        <ele>115.8</ele>
        <time>2011-04-09T07:29:35Z</time>
      </trkpt>
      <trkpt lat="43.56901" lon="3.7217">
        <ele>115.9</ele>
        <time>2011-04-09T07:29:36Z</time>
      </trkpt>
      <trkpt lat="43.56897" lon="3.72164">
        <ele>115.9</ele>
        <time>2011-04-09T07:29:37Z</time>
      </trkpt>
      <trkpt lat="43.56894" lon="3.72158">
        <ele>115.2</ele>
        <time>2011-04-09T07:29:38Z</time>
      </trkpt>
      <trkpt lat="43.5689" lon="3.72152">
        <ele>114.7</ele>
        <time>2011-04-09T07:29:39Z</time>
      </trkpt>
      <trkpt lat="43.56887" lon="3.72146">
        <ele>114.4</ele>
        <time>2011-04-09T07:29:40Z</time>
      </trkpt>
      <trkpt lat="43.56884" lon="3.72139">
        <ele>113.8</ele>
        <time>2011-04-09T07:29:41Z</time>
      </trkpt>
      <trkpt lat="43.56882" lon="3.72132">
        <ele>113.4</ele>
        <time>2011-04-09T07:29:42Z</time>
      </trkpt>
      <trkpt lat="43.56881" lon="3.72124">
        <ele>113.1</ele>
        <time>2011-04-09T07:29:43Z</time>
      </trkpt>
      <trkpt lat="43.5688" lon="3.72117">
        <ele>112.9</ele>
        <time>2011-04-09T07:29:44Z</time>
      </trkpt>
      <trkpt lat="43.56878" lon="3.7211">
        <ele>112.7</ele>
        <time>2011-04-09T07:29:45Z</time>
      </trkpt>
      <trkpt lat="43.56875" lon="3.72104">
        <ele>112.6</ele>
        <time>2011-04-09T07:29:46Z</time>
      </trkpt>
      <trkpt lat="43.56872" lon="3.72099">
        <ele>112.5</ele>
        <time>2011-04-09T07:29:47Z</time>
      </trkpt>
      <trkpt lat="43.56869" lon="3.72094">
        <ele>112.2</ele>
        <time>2011-04-09T07:29:48Z</time>
      </trkpt>
      <trkpt lat="43.56867" lon="3.72088">
        <ele>112</ele>
        <time>2011-04-09T07:29:49Z</time>
      </trkpt>
      <trkpt lat="43.56864" lon="3.72077">
        <ele>111.6</ele>
        <time>2011-04-09T07:29:51Z</time>
      </trkpt>
      <trkpt lat="43.56859" lon="3.72068">
        <ele>111.2</ele>
        <time>2011-04-09T07:29:54Z</time>
      </trkpt>
      <trkpt lat="43.56859" lon="3.72058">
        <ele>110.8</ele>
        <time>2011-04-09T07:29:58Z</time>
      </trkpt>
      <trkpt lat="43.56865" lon="3.72053">
        <ele>110.8</ele>
        <time>2011-04-09T07:30:00Z</time>
      </trkpt>
      <trkpt lat="43.5687" lon="3.72046">
        <ele>110.6</ele>
        <time>2011-04-09T07:30:02Z</time>
      </trkpt>
      <trkpt lat="43.56871" lon="3.72034">
        <ele>110.2</ele>
        <time>2011-04-09T07:30:04Z</time>
      </trkpt>
      <trkpt lat="43.56867" lon="3.72025">
        <ele>109.9</ele>
        <time>2011-04-09T07:30:06Z</time>
      </trkpt>
      <trkpt lat="43.56861" lon="3.72019">
        <ele>108.7</ele>
        <time>2011-04-09T07:30:08Z</time>
      </trkpt>
      <trkpt lat="43.56854" lon="3.72013">
        <ele>108.3</ele>
        <time>2011-04-09T07:30:10Z</time>
      </trkpt>
      <trkpt lat="43.56848" lon="3.72007">
        <ele>108.3</ele>
        <time>2011-04-09T07:30:12Z</time>
      </trkpt>
      <trkpt lat="43.56844" lon="3.72004">
        <ele>108.6</ele>
        <time>2011-04-09T07:30:13Z</time>
      </trkpt>
      <trkpt lat="43.56836" lon="3.71995">
        <ele>109.3</ele>
        <time>2011-04-09T07:30:16Z</time>
      </trkpt>
      <trkpt lat="43.56831" lon="3.71987">
        <ele>111.6</ele>
        <time>2011-04-09T07:30:18Z</time>
      </trkpt>
      <trkpt lat="43.56827" lon="3.71978">
        <ele>111.4</ele>
        <time>2011-04-09T07:30:20Z</time>
      </trkpt>
      <trkpt lat="43.56824" lon="3.71967">
        <ele>110.1</ele>
        <time>2011-04-09T07:30:22Z</time>
      </trkpt>
      <trkpt lat="43.5682" lon="3.71957">
        <ele>109.2</ele>
        <time>2011-04-09T07:30:24Z</time>
      </trkpt>
      <trkpt lat="43.56816" lon="3.71946">
        <ele>108.7</ele>
        <time>2011-04-09T07:30:26Z</time>
      </trkpt>
      <trkpt lat="43.56813" lon="3.71935">
        <ele>108.3</ele>
        <time>2011-04-09T07:30:28Z</time>
      </trkpt>
      <trkpt lat="43.56808" lon="3.71926">
        <ele>108.7</ele>
        <time>2011-04-09T07:30:30Z</time>
      </trkpt>
      <trkpt lat="43.56803" lon="3.71918">
        <ele>108.9</ele>
        <time>2011-04-09T07:30:32Z</time>
      </trkpt>
      <trkpt lat="43.56798" lon="3.71911">
        <ele>108.8</ele>
        <time>2011-04-09T07:30:34Z</time>
      </trkpt>
      <trkpt lat="43.56792" lon="3.71904">
        <ele>108.8</ele>
        <time>2011-04-09T07:30:36Z</time>
      </trkpt>
      <trkpt lat="43.56789" lon="3.71896">
        <ele>109</ele>
        <time>2011-04-09T07:30:38Z</time>
      </trkpt>
      <trkpt lat="43.56793" lon="3.71885">
        <ele>109.6</ele>
        <time>2011-04-09T07:30:41Z</time>
      </trkpt>
      <trkpt lat="43.56801" lon="3.71881">
        <ele>109.1</ele>
        <time>2011-04-09T07:30:44Z</time>
      </trkpt>
      <trkpt lat="43.56808" lon="3.71877">
        <ele>108.5</ele>
        <time>2011-04-09T07:30:46Z</time>
      </trkpt>
      <trkpt lat="43.56815" lon="3.71873">
        <ele>108.2</ele>
        <time>2011-04-09T07:30:48Z</time>
      </trkpt>
      <trkpt lat="43.56821" lon="3.71871">
        <ele>107.7</ele>
        <time>2011-04-09T07:30:50Z</time>
      </trkpt>
      <trkpt lat="43.56827" lon="3.71868">
        <ele>106.9</ele>
        <time>2011-04-09T07:30:52Z</time>
      </trkpt>
      <trkpt lat="43.56833" lon="3.71864">
        <ele>106.1</ele>
        <time>2011-04-09T07:30:54Z</time>
      </trkpt>
      <trkpt lat="43.56839" lon="3.7186">
        <ele>104.3</ele>
        <time>2011-04-09T07:30:56Z</time>
      </trkpt>
      <trkpt lat="43.56847" lon="3.71857">
        <ele>102.4</ele>
        <time>2011-04-09T07:30:58Z</time>
      </trkpt>
      <trkpt lat="43.56852" lon="3.71856">
        <ele>101.4</ele>
        <time>2011-04-09T07:30:59Z</time>
      </trkpt>
      <trkpt lat="43.56857" lon="3.71855">
        <ele>100.6</ele>
        <time>2011-04-09T07:31:00Z</time>
      </trkpt>
      <trkpt lat="43.56864" lon="3.71854">
        <ele>98.4</ele>
        <time>2011-04-09T07:31:01Z</time>
      </trkpt>
      <trkpt lat="43.56871" lon="3.71852">
        <ele>96.7</ele>
        <time>2011-04-09T07:31:02Z</time>
      </trkpt>
      <trkpt lat="43.56878" lon="3.71852">
        <ele>95.4</ele>
        <time>2011-04-09T07:31:03Z</time>
      </trkpt>
      <trkpt lat="43.56886" lon="3.71851">
        <ele>94.4</ele>
        <time>2011-04-09T07:31:04Z</time>
      </trkpt>
      <trkpt lat="43.56894" lon="3.71848">
        <ele>92.3</ele>
        <time>2011-04-09T07:31:05Z</time>
      </trkpt>
      <trkpt lat="43.56901" lon="3.71843">
        <ele>90.8</ele>
        <time>2011-04-09T07:31:06Z</time>
      </trkpt>
      <trkpt lat="43.56907" lon="3.71836">
        <ele>89.6</ele>
        <time>2011-04-09T07:31:07Z</time>
      </trkpt>
      <trkpt lat="43.56912" lon="3.71829">
        <ele>88.9</ele>
        <time>2011-04-09T07:31:08Z</time>
      </trkpt>
      <trkpt lat="43.56916" lon="3.71822">
        <ele>88.5</ele>
        <time>2011-04-09T07:31:09Z</time>
      </trkpt>
      <trkpt lat="43.5692" lon="3.71815">
        <ele>88.1</ele>
        <time>2011-04-09T07:31:10Z</time>
      </trkpt>
      <trkpt lat="43.56924" lon="3.71809">
        <ele>87.4</ele>
        <time>2011-04-09T07:31:11Z</time>
      </trkpt>
      <trkpt lat="43.56927" lon="3.71804">
        <ele>86.8</ele>
        <time>2011-04-09T07:31:12Z</time>
      </trkpt>
      <trkpt lat="43.5693" lon="3.71794">
        <ele>86.9</ele>
        <time>2011-04-09T07:31:14Z</time>
      </trkpt>
      <trkpt lat="43.56932" lon="3.71791">
        <ele>87.2</ele>
        <time>2011-04-09T07:31:15Z</time>
      </trkpt>
      <trkpt lat="43.5694" lon="3.71778">
        <ele>88.6</ele>
        <time>2011-04-09T07:31:20Z</time>
      </trkpt>
      <trkpt lat="43.56948" lon="3.71779">
        <ele>89.6</ele>
        <time>2011-04-09T07:31:24Z</time>
      </trkpt>
      <trkpt lat="43.56954" lon="3.71788">
        <ele>90.7</ele>
        <time>2011-04-09T07:31:28Z</time>
      </trkpt>
      <trkpt lat="43.5696" lon="3.71796">
        <ele>91.4</ele>
        <time>2011-04-09T07:31:32Z</time>
      </trkpt>
      <trkpt lat="43.56966" lon="3.71803">
        <ele>92.6</ele>
        <time>2011-04-09T07:31:36Z</time>
      </trkpt>
      <trkpt lat="43.56971" lon="3.71808">
        <ele>92.2</ele>
        <time>2011-04-09T07:31:39Z</time>
      </trkpt>
      <trkpt lat="43.56977" lon="3.71815">
        <ele>92.1</ele>
        <time>2011-04-09T07:31:42Z</time>
      </trkpt>
      <trkpt lat="43.56983" lon="3.7182">
        <ele>92.7</ele>
        <time>2011-04-09T07:31:45Z</time>
      </trkpt>
      <trkpt lat="43.56989" lon="3.71825">
        <ele>93.6</ele>
        <time>2011-04-09T07:31:48Z</time>
      </trkpt>
      <trkpt lat="43.56997" lon="3.71829">
        <ele>93.8</ele>
        <time>2011-04-09T07:31:51Z</time>
      </trkpt>
      <trkpt lat="43.57005" lon="3.71834">
        <ele>93.6</ele>
        <time>2011-04-09T07:31:54Z</time>
      </trkpt>
      <trkpt lat="43.57014" lon="3.71836">
        <ele>93.8</ele>
        <time>2011-04-09T07:31:57Z</time>
      </trkpt>
      <trkpt lat="43.5702" lon="3.71838">
        <ele>93.7</ele>
        <time>2011-04-09T07:31:59Z</time>
      </trkpt>
      <trkpt lat="43.57025" lon="3.71841">
        <ele>93.5</ele>
        <time>2011-04-09T07:32:01Z</time>
      </trkpt>
      <trkpt lat="43.57034" lon="3.71843">
        <ele>94.4</ele>
        <time>2011-04-09T07:32:04Z</time>
      </trkpt>
      <trkpt lat="43.57041" lon="3.7185">
        <ele>95</ele>
        <time>2011-04-09T07:32:08Z</time>
      </trkpt>
      <trkpt lat="43.57048" lon="3.71855">
        <ele>95.8</ele>
        <time>2011-04-09T07:32:11Z</time>
      </trkpt>
      <trkpt lat="43.57054" lon="3.7186">
        <ele>96.4</ele>
        <time>2011-04-09T07:32:14Z</time>
      </trkpt>
      <trkpt lat="43.57062" lon="3.7186">
        <ele>97</ele>
        <time>2011-04-09T07:32:18Z</time>
      </trkpt>
      <trkpt lat="43.57064" lon="3.71861">
        <ele>97.4</ele>
        <time>2011-04-09T07:32:19Z</time>
      </trkpt>
      <trkpt lat="43.57073" lon="3.71877">
        <ele>98.8</ele>
        <time>2011-04-09T07:32:26Z</time>
      </trkpt>
      <trkpt lat="43.57081" lon="3.71879">
        <ele>100.4</ele>
        <time>2011-04-09T07:32:30Z</time>
      </trkpt>
      <trkpt lat="43.57088" lon="3.71884">
        <ele>101.5</ele>
        <time>2011-04-09T07:32:34Z</time>
      </trkpt>
      <trkpt lat="43.57094" lon="3.71892">
        <ele>102.2</ele>
        <time>2011-04-09T07:32:38Z</time>
      </trkpt>
      <trkpt lat="43.57097" lon="3.71903">
        <ele>102.6</ele>
        <time>2011-04-09T07:32:42Z</time>
      </trkpt>
      <trkpt lat="43.57102" lon="3.71909">
        <ele>103.2</ele>
        <time>2011-04-09T07:32:45Z</time>
      </trkpt>
      <trkpt lat="43.57108" lon="3.71915">
        <ele>103.6</ele>
        <time>2011-04-09T07:32:48Z</time>
      </trkpt>
      <trkpt lat="43.57115" lon="3.71918">
        <ele>104.4</ele>
        <time>2011-04-09T07:32:51Z</time>
      </trkpt>
      <trkpt lat="43.57123" lon="3.71922">
        <ele>104.8</ele>
        <time>2011-04-09T07:32:54Z</time>
      </trkpt>
      <trkpt lat="43.5713" lon="3.71928">
        <ele>104.2</ele>
        <time>2011-04-09T07:32:57Z</time>
      </trkpt>
      <trkpt lat="43.57137" lon="3.71934">
        <ele>104.4</ele>
        <time>2011-04-09T07:33:00Z</time>
      </trkpt>
      <trkpt lat="43.57142" lon="3.71938">
        <ele>104.7</ele>
        <time>2011-04-09T07:33:02Z</time>
      </trkpt>
      <trkpt lat="43.57147" lon="3.71943">
        <ele>104.7</ele>
        <time>2011-04-09T07:33:04Z</time>
      </trkpt>
      <trkpt lat="43.57153" lon="3.71948">
        <ele>104.7</ele>
        <time>2011-04-09T07:33:06Z</time>
      </trkpt>
      <trkpt lat="43.57157" lon="3.71955">
        <ele>104.8</ele>
        <time>2011-04-09T07:33:08Z</time>
      </trkpt>
      <trkpt lat="43.57161" lon="3.71965">
        <ele>105.3</ele>
        <time>2011-04-09T07:33:11Z</time>
      </trkpt>
      <trkpt lat="43.57164" lon="3.71973">
        <ele>105.9</ele>
        <time>2011-04-09T07:33:13Z</time>
      </trkpt>
      <trkpt lat="43.57168" lon="3.7198">
        <ele>106.2</ele>
        <time>2011-04-09T07:33:15Z</time>
      </trkpt>
      <trkpt lat="43.57173" lon="3.71986">
        <ele>106.4</ele>
        <time>2011-04-09T07:33:17Z</time>
      </trkpt>
      <trkpt lat="43.57178" lon="3.71991">
        <ele>106.4</ele>
        <time>2011-04-09T07:33:19Z</time>
      </trkpt>
      <trkpt lat="43.57181" lon="3.71992">
        <ele>106.5</ele>
        <time>2011-04-09T07:33:20Z</time>
      </trkpt>
      <trkpt lat="43.57193" lon="3.71997">
        <ele>106.7</ele>
        <time>2011-04-09T07:33:25Z</time>
      </trkpt>
      <trkpt lat="43.57199" lon="3.7199">
        <ele>107</ele>
        <time>2011-04-09T07:33:29Z</time>
      </trkpt>
      <trkpt lat="43.57206" lon="3.71996">
        <ele>106.4</ele>
        <time>2011-04-09T07:33:43Z</time>
      </trkpt>
      <trkpt lat="43.57203" lon="3.72005">
        <ele>107.7</ele>
        <time>2011-04-09T07:33:46Z</time>
      </trkpt>
      <trkpt lat="43.57202" lon="3.72015">
        <ele>108.4</ele>
        <time>2011-04-09T07:33:49Z</time>
      </trkpt>
      <trkpt lat="43.57202" lon="3.72025">
        <ele>108</ele>
        <time>2011-04-09T07:33:52Z</time>
      </trkpt>
      <trkpt lat="43.57205" lon="3.72037">
        <ele>107.8</ele>
        <time>2011-04-09T07:33:55Z</time>
      </trkpt>
      <trkpt lat="43.57209" lon="3.72047">
        <ele>108.5</ele>
        <time>2011-04-09T07:33:58Z</time>
      </trkpt>
      <trkpt lat="43.57212" lon="3.72054">
        <ele>108.8</ele>
        <time>2011-04-09T07:34:00Z</time>
      </trkpt>
      <trkpt lat="43.57215" lon="3.72066">
        <ele>108.9</ele>
        <time>2011-04-09T07:34:03Z</time>
      </trkpt>
      <trkpt lat="43.57217" lon="3.72074">
        <ele>108.9</ele>
        <time>2011-04-09T07:34:05Z</time>
      </trkpt>
      <trkpt lat="43.57219" lon="3.72082">
        <ele>108.6</ele>
        <time>2011-04-09T07:34:07Z</time>
      </trkpt>
      <trkpt lat="43.57221" lon="3.7209">
        <ele>108.5</ele>
        <time>2011-04-09T07:34:09Z</time>
      </trkpt>
      <trkpt lat="43.57224" lon="3.72098">
        <ele>109.1</ele>
        <time>2011-04-09T07:34:11Z</time>
      </trkpt>
      <trkpt lat="43.57225" lon="3.72107">
        <ele>109.3</ele>
        <time>2011-04-09T07:34:13Z</time>
      </trkpt>
      <trkpt lat="43.57227" lon="3.72117">
        <ele>109.3</ele>
        <time>2011-04-09T07:34:15Z</time>
      </trkpt>
      <trkpt lat="43.57231" lon="3.72126">
        <ele>109.2</ele>
        <time>2011-04-09T07:34:17Z</time>
      </trkpt>
      <trkpt lat="43.57237" lon="3.72135">
        <ele>108.6</ele>
        <time>2011-04-09T07:34:19Z</time>
      </trkpt>
      <trkpt lat="43.5724" lon="3.72139">
        <ele>108.2</ele>
        <time>2011-04-09T07:34:20Z</time>
      </trkpt>
      <trkpt lat="43.57244" lon="3.72143">
        <ele>108</ele>
        <time>2011-04-09T07:34:21Z</time>
      </trkpt>
      <trkpt lat="43.57247" lon="3.72148">
        <ele>108.1</ele>
        <time>2011-04-09T07:34:22Z</time>
      </trkpt>
      <trkpt lat="43.5725" lon="3.72153">
        <ele>108.1</ele>
        <time>2011-04-09T07:34:23Z</time>
      </trkpt>
      <trkpt lat="43.57253" lon="3.72159">
        <ele>108.2</ele>
        <time>2011-04-09T07:34:24Z</time>
      </trkpt>
      <trkpt lat="43.57255" lon="3.72165">
        <ele>108.2</ele>
        <time>2011-04-09T07:34:25Z</time>
      </trkpt>
      <trkpt lat="43.57258" lon="3.72171">
        <ele>107.8</ele>
        <time>2011-04-09T07:34:26Z</time>
      </trkpt>
      <trkpt lat="43.57261" lon="3.72177">
        <ele>107.4</ele>
        <time>2011-04-09T07:34:27Z</time>
      </trkpt>
      <trkpt lat="43.57265" lon="3.72182">
        <ele>107.2</ele>
        <time>2011-04-09T07:34:28Z</time>
      </trkpt>
      <trkpt lat="43.57269" lon="3.72185">
        <ele>106.8</ele>
        <time>2011-04-09T07:34:29Z</time>
      </trkpt>
      <trkpt lat="43.57275" lon="3.72187">
        <ele>106.6</ele>
        <time>2011-04-09T07:34:30Z</time>
      </trkpt>
      <trkpt lat="43.57281" lon="3.7219">
        <ele>106.4</ele>
        <time>2011-04-09T07:34:31Z</time>
      </trkpt>
      <trkpt lat="43.57286" lon="3.72195">
        <ele>105.8</ele>
        <time>2011-04-09T07:34:32Z</time>
      </trkpt>
      <trkpt lat="43.57289" lon="3.72202">
        <ele>105.4</ele>
        <time>2011-04-09T07:34:33Z</time>
      </trkpt>
      <trkpt lat="43.57293" lon="3.72209">
        <ele>105.1</ele>
        <time>2011-04-09T07:34:34Z</time>
      </trkpt>
      <trkpt lat="43.57296" lon="3.72216">
        <ele>104.6</ele>
        <time>2011-04-09T07:34:35Z</time>
      </trkpt>
      <trkpt lat="43.57299" lon="3.72224">
        <ele>104.2</ele>
        <time>2011-04-09T07:34:36Z</time>
      </trkpt>
      <trkpt lat="43.57303" lon="3.72231">
        <ele>103.9</ele>
        <time>2011-04-09T07:34:37Z</time>
      </trkpt>
      <trkpt lat="43.57306" lon="3.72238">
        <ele>103.2</ele>
        <time>2011-04-09T07:34:38Z</time>
      </trkpt>
      <trkpt lat="43.5731" lon="3.72246">
        <ele>102.7</ele>
        <time>2011-04-09T07:34:39Z</time>
      </trkpt>
      <trkpt lat="43.57313" lon="3.72253">
        <ele>102.3</ele>
        <time>2011-04-09T07:34:40Z</time>
      </trkpt>
      <trkpt lat="43.57316" lon="3.7226">
        <ele>102</ele>
        <time>2011-04-09T07:34:41Z</time>
      </trkpt>
      <trkpt lat="43.57318" lon="3.72265">
        <ele>102.1</ele>
        <time>2011-04-09T07:34:42Z</time>
      </trkpt>
      <trkpt lat="43.57324" lon="3.72275">
        <ele>102.3</ele>
        <time>2011-04-09T07:34:44Z</time>
      </trkpt>
      <trkpt lat="43.57329" lon="3.72285">
        <ele>102.5</ele>
        <time>2011-04-09T07:34:46Z</time>
      </trkpt>
      <trkpt lat="43.57332" lon="3.7229">
        <ele>102.6</ele>
        <time>2011-04-09T07:34:47Z</time>
      </trkpt>
      <trkpt lat="43.57334" lon="3.72295">
        <ele>102.8</ele>
        <time>2011-04-09T07:34:48Z</time>
      </trkpt>
      <trkpt lat="43.57336" lon="3.72301">
        <ele>103</ele>
        <time>2011-04-09T07:34:49Z</time>
      </trkpt>
      <trkpt lat="43.57339" lon="3.72306">
        <ele>103.2</ele>
        <time>2011-04-09T07:34:50Z</time>
      </trkpt>
      <trkpt lat="43.57342" lon="3.72312">
        <ele>102.9</ele>
        <time>2011-04-09T07:34:51Z</time>
      </trkpt>
      <trkpt lat="43.57345" lon="3.72317">
        <ele>102.7</ele>
        <time>2011-04-09T07:34:52Z</time>
      </trkpt>
      <trkpt lat="43.57348" lon="3.72322">
        <ele>102.6</ele>
        <time>2011-04-09T07:34:53Z</time>
      </trkpt>
      <trkpt lat="43.57352" lon="3.72326">
        <ele>102.1</ele>
        <time>2011-04-09T07:34:54Z</time>
      </trkpt>
      <trkpt lat="43.57356" lon="3.7233">
        <ele>101.8</ele>
        <time>2011-04-09T07:34:55Z</time>
      </trkpt>
      <trkpt lat="43.5736" lon="3.72334">
        <ele>101.6</ele>
        <time>2011-04-09T07:34:56Z</time>
      </trkpt>
      <trkpt lat="43.57365" lon="3.7234">
        <ele>101.4</ele>
        <time>2011-04-09T07:34:57Z</time>
      </trkpt>
      <trkpt lat="43.57369" lon="3.72346">
        <ele>101.3</ele>
        <time>2011-04-09T07:34:58Z</time>
      </trkpt>
      <trkpt lat="43.57373" lon="3.72352">
        <ele>101.2</ele>
        <time>2011-04-09T07:34:59Z</time>
      </trkpt>
      <trkpt lat="43.57377" lon="3.72358">
        <ele>101.2</ele>
        <time>2011-04-09T07:35:00Z</time>
      </trkpt>
      <trkpt lat="43.57381" lon="3.72364">
        <ele>100.7</ele>
        <time>2011-04-09T07:35:01Z</time>
      </trkpt>
      <trkpt lat="43.57384" lon="3.72371">
        <ele>100.3</ele>
        <time>2011-04-09T07:35:02Z</time>
      </trkpt>
      <trkpt lat="43.57386" lon="3.72379">
        <ele>100</ele>
        <time>2011-04-09T07:35:03Z</time>
      </trkpt>
      <trkpt lat="43.57388" lon="3.72386">
        <ele>99.7</ele>
        <time>2011-04-09T07:35:04Z</time>
      </trkpt>
      <trkpt lat="43.5739" lon="3.72394">
        <ele>99.4</ele>
        <time>2011-04-09T07:35:05Z</time>
      </trkpt>
      <trkpt lat="43.57393" lon="3.72401">
        <ele>99.3</ele>
        <time>2011-04-09T07:35:06Z</time>
      </trkpt>
      <trkpt lat="43.57395" lon="3.72408">
        <ele>98.8</ele>
        <time>2011-04-09T07:35:07Z</time>
      </trkpt>
      <trkpt lat="43.57398" lon="3.72414">
        <ele>98.4</ele>
        <time>2011-04-09T07:35:08Z</time>
      </trkpt>
      <trkpt lat="43.57402" lon="3.72421">
        <ele>98.2</ele>
        <time>2011-04-09T07:35:09Z</time>
      </trkpt>
      <trkpt lat="43.57405" lon="3.72428">
        <ele>97.5</ele>
        <time>2011-04-09T07:35:10Z</time>
      </trkpt>
      <trkpt lat="43.57408" lon="3.72435">
        <ele>97.1</ele>
        <time>2011-04-09T07:35:11Z</time>
      </trkpt>
      <trkpt lat="43.57411" lon="3.72441">
        <ele>96.7</ele>
        <time>2011-04-09T07:35:12Z</time>
      </trkpt>
      <trkpt lat="43.57415" lon="3.72448">
        <ele>96.5</ele>
        <time>2011-04-09T07:35:13Z</time>
      </trkpt>
      <trkpt lat="43.57419" lon="3.72455">
        <ele>96.3</ele>
        <time>2011-04-09T07:35:14Z</time>
      </trkpt>
      <trkpt lat="43.57423" lon="3.72462">
        <ele>96.1</ele>
        <time>2011-04-09T07:35:15Z</time>
      </trkpt>
      <trkpt lat="43.57427" lon="3.72468">
        <ele>96</ele>
        <time>2011-04-09T07:35:16Z</time>
      </trkpt>
      <trkpt lat="43.57431" lon="3.72474">
        <ele>95.7</ele>
        <time>2011-04-09T07:35:17Z</time>
      </trkpt>
      <trkpt lat="43.57435" lon="3.7248">
        <ele>95.4</ele>
        <time>2011-04-09T07:35:18Z</time>
      </trkpt>
      <trkpt lat="43.57438" lon="3.72486">
        <ele>95.2</ele>
        <time>2011-04-09T07:35:19Z</time>
      </trkpt>
      <trkpt lat="43.57442" lon="3.72493">
        <ele>94.5</ele>
        <time>2011-04-09T07:35:20Z</time>
      </trkpt>
      <trkpt lat="43.57446" lon="3.725">
        <ele>94</ele>
        <time>2011-04-09T07:35:21Z</time>
      </trkpt>
      <trkpt lat="43.57449" lon="3.72506">
        <ele>93.6</ele>
        <time>2011-04-09T07:35:22Z</time>
      </trkpt>
      <trkpt lat="43.57453" lon="3.72512">
        <ele>92.9</ele>
        <time>2011-04-09T07:35:23Z</time>
      </trkpt>
      <trkpt lat="43.57458" lon="3.72515">
        <ele>92.4</ele>
        <time>2011-04-09T07:35:24Z</time>
      </trkpt>
      <trkpt lat="43.57462" lon="3.72519">
        <ele>92</ele>
        <time>2011-04-09T07:35:25Z</time>
      </trkpt>
      <trkpt lat="43.57465" lon="3.72524">
        <ele>91.4</ele>
        <time>2011-04-09T07:35:26Z</time>
      </trkpt>
      <trkpt lat="43.57468" lon="3.72531">
        <ele>90.9</ele>
        <time>2011-04-09T07:35:27Z</time>
      </trkpt>
      <trkpt lat="43.57471" lon="3.72537">
        <ele>90.5</ele>
        <time>2011-04-09T07:35:28Z</time>
      </trkpt>
      <trkpt lat="43.57475" lon="3.72541">
        <ele>90.2</ele>
        <time>2011-04-09T07:35:29Z</time>
      </trkpt>
      <trkpt lat="43.57479" lon="3.72545">
        <ele>89.9</ele>
        <time>2011-04-09T07:35:30Z</time>
      </trkpt>
      <trkpt lat="43.57482" lon="3.72551">
        <ele>89.6</ele>
        <time>2011-04-09T07:35:31Z</time>
      </trkpt>
      <trkpt lat="43.57485" lon="3.72556">
        <ele>89.5</ele>
        <time>2011-04-09T07:35:32Z</time>
      </trkpt>
      <trkpt lat="43.57488" lon="3.72563">
        <ele>88.8</ele>
        <time>2011-04-09T07:35:33Z</time>
      </trkpt>
      <trkpt lat="43.57491" lon="3.72569">
        <ele>88.3</ele>
        <time>2011-04-09T07:35:34Z</time>
      </trkpt>
      <trkpt lat="43.57495" lon="3.72575">
        <ele>88</ele>
        <time>2011-04-09T07:35:35Z</time>
      </trkpt>
      <trkpt lat="43.57498" lon="3.72582">
        <ele>87.7</ele>
        <time>2011-04-09T07:35:36Z</time>
      </trkpt>
      <trkpt lat="43.57501" lon="3.72589">
        <ele>87.5</ele>
        <time>2011-04-09T07:35:37Z</time>
      </trkpt>
      <trkpt lat="43.57504" lon="3.72596">
        <ele>87.4</ele>
        <time>2011-04-09T07:35:38Z</time>
      </trkpt>
      <trkpt lat="43.57507" lon="3.72603">
        <ele>87</ele>
        <time>2011-04-09T07:35:39Z</time>
      </trkpt>
      <trkpt lat="43.5751" lon="3.7261">
        <ele>86.6</ele>
        <time>2011-04-09T07:35:40Z</time>
      </trkpt>
      <trkpt lat="43.57512" lon="3.72618">
        <ele>86.4</ele>
        <time>2011-04-09T07:35:41Z</time>
      </trkpt>
      <trkpt lat="43.57514" lon="3.72625">
        <ele>86.1</ele>
        <time>2011-04-09T07:35:42Z</time>
      </trkpt>
      <trkpt lat="43.57515" lon="3.72632">
        <ele>85.9</ele>
        <time>2011-04-09T07:35:43Z</time>
      </trkpt>
      <trkpt lat="43.57517" lon="3.7264">
        <ele>85.7</ele>
        <time>2011-04-09T07:35:44Z</time>
      </trkpt>
      <trkpt lat="43.57518" lon="3.72647">
        <ele>85.2</ele>
        <time>2011-04-09T07:35:45Z</time>
      </trkpt>
      <trkpt lat="43.57519" lon="3.72654">
        <ele>84.8</ele>
        <time>2011-04-09T07:35:46Z</time>
      </trkpt>
      <trkpt lat="43.57521" lon="3.72662">
        <ele>84.5</ele>
        <time>2011-04-09T07:35:47Z</time>
      </trkpt>
      <trkpt lat="43.57522" lon="3.72669">
        <ele>84.3</ele>
        <time>2011-04-09T07:35:48Z</time>
      </trkpt>
      <trkpt lat="43.57523" lon="3.72676">
        <ele>84</ele>
        <time>2011-04-09T07:35:49Z</time>
      </trkpt>
      <trkpt lat="43.57524" lon="3.72682">
        <ele>83.9</ele>
        <time>2011-04-09T07:35:50Z</time>
      </trkpt>
      <trkpt lat="43.57525" lon="3.72688">
        <ele>83.8</ele>
        <time>2011-04-09T07:35:51Z</time>
      </trkpt>
      <trkpt lat="43.57525" lon="3.727">
        <ele>83.8</ele>
        <time>2011-04-09T07:35:53Z</time>
      </trkpt>
      <trkpt lat="43.57526" lon="3.72712">
        <ele>83.6</ele>
        <time>2011-04-09T07:35:55Z</time>
      </trkpt>
      <trkpt lat="43.57527" lon="3.72722">
        <ele>83.4</ele>
        <time>2011-04-09T07:35:57Z</time>
      </trkpt>
      <trkpt lat="43.57536" lon="3.72725">
        <ele>82.9</ele>
        <time>2011-04-09T07:36:00Z</time>
      </trkpt>
      <trkpt lat="43.57543" lon="3.72732">
        <ele>83.2</ele>
        <time>2011-04-09T07:36:03Z</time>
      </trkpt>
      <trkpt lat="43.57547" lon="3.72742">
        <ele>83.8</ele>
        <time>2011-04-09T07:36:06Z</time>
      </trkpt>
      <trkpt lat="43.57552" lon="3.72747">
        <ele>83.9</ele>
        <time>2011-04-09T07:36:08Z</time>
      </trkpt>
      <trkpt lat="43.57558" lon="3.72752">
        <ele>83.8</ele>
        <time>2011-04-09T07:36:10Z</time>
      </trkpt>
      <trkpt lat="43.57564" lon="3.72756">
        <ele>83.2</ele>
        <time>2011-04-09T07:36:12Z</time>
      </trkpt>
      <trkpt lat="43.5757" lon="3.72761">
        <ele>83.3</ele>
        <time>2011-04-09T07:36:14Z</time>
      </trkpt>
      <trkpt lat="43.57575" lon="3.72765">
        <ele>83.7</ele>
        <time>2011-04-09T07:36:16Z</time>
      </trkpt>
      <trkpt lat="43.5758" lon="3.7277">
        <ele>84.2</ele>
        <time>2011-04-09T07:36:18Z</time>
      </trkpt>
      <trkpt lat="43.57585" lon="3.72775">
        <ele>84.4</ele>
        <time>2011-04-09T07:36:20Z</time>
      </trkpt>
      <trkpt lat="43.57592" lon="3.72781">
        <ele>85</ele>
        <time>2011-04-09T07:36:23Z</time>
      </trkpt>
      <trkpt lat="43.57595" lon="3.72783">
        <ele>85.1</ele>
        <time>2011-04-09T07:36:24Z</time>
      </trkpt>
      <trkpt lat="43.57604" lon="3.72788">
        <ele>85.5</ele>
        <time>2011-04-09T07:36:27Z</time>
      </trkpt>
      <trkpt lat="43.5761" lon="3.72791">
        <ele>85.8</ele>
        <time>2011-04-09T07:36:29Z</time>
      </trkpt>
      <trkpt lat="43.57616" lon="3.72795">
        <ele>86</ele>
        <time>2011-04-09T07:36:31Z</time>
      </trkpt>
      <trkpt lat="43.57621" lon="3.72802">
        <ele>86.4</ele>
        <time>2011-04-09T07:36:33Z</time>
      </trkpt>
      <trkpt lat="43.57626" lon="3.72809">
        <ele>87.5</ele>
        <time>2011-04-09T07:36:36Z</time>
      </trkpt>
      <trkpt lat="43.57632" lon="3.72817">
        <ele>89.2</ele>
        <time>2011-04-09T07:36:40Z</time>
      </trkpt>
      <trkpt lat="43.57637" lon="3.72824">
        <ele>89.9</ele>
        <time>2011-04-09T07:36:43Z</time>
      </trkpt>
      <trkpt lat="43.57643" lon="3.72833">
        <ele>91.3</ele>
        <time>2011-04-09T07:36:48Z</time>
      </trkpt>
      <trkpt lat="43.57643" lon="3.72845">
        <ele>93.5</ele>
        <time>2011-04-09T07:36:52Z</time>
      </trkpt>
      <trkpt lat="43.57642" lon="3.72858">
        <ele>95.5</ele>
        <time>2011-04-09T07:36:58Z</time>
      </trkpt>
      <trkpt lat="43.57644" lon="3.72869">
        <ele>96.6</ele>
        <time>2011-04-09T07:37:03Z</time>
      </trkpt>
      <trkpt lat="43.57649" lon="3.72877">
        <ele>98.2</ele>
        <time>2011-04-09T07:37:07Z</time>
      </trkpt>
      <trkpt lat="43.57654" lon="3.72885">
        <ele>99.3</ele>
        <time>2011-04-09T07:37:11Z</time>
      </trkpt>
      <trkpt lat="43.57658" lon="3.72893">
        <ele>100.3</ele>
        <time>2011-04-09T07:37:15Z</time>
      </trkpt>
      <trkpt lat="43.57664" lon="3.72901">
        <ele>101.2</ele>
        <time>2011-04-09T07:37:19Z</time>
      </trkpt>
      <trkpt lat="43.57671" lon="3.72907">
        <ele>100.8</ele>
        <time>2011-04-09T07:37:23Z</time>
      </trkpt>
      <trkpt lat="43.57677" lon="3.72914">
        <ele>102.4</ele>
        <time>2011-04-09T07:37:27Z</time>
      </trkpt>
      <trkpt lat="43.5768" lon="3.72916">
        <ele>102.6</ele>
        <time>2011-04-09T07:37:28Z</time>
      </trkpt>
      <trkpt lat="43.57691" lon="3.72924">
        <ele>103.6</ele>
        <time>2011-04-09T07:37:34Z</time>
      </trkpt>
      <trkpt lat="43.57698" lon="3.72931">
        <ele>104.2</ele>
        <time>2011-04-09T07:37:38Z</time>
      </trkpt>
      <trkpt lat="43.57703" lon="3.72938">
        <ele>104.4</ele>
        <time>2011-04-09T07:37:41Z</time>
      </trkpt>
      <trkpt lat="43.57708" lon="3.72946">
        <ele>104.5</ele>
        <time>2011-04-09T07:37:44Z</time>
      </trkpt>
      <trkpt lat="43.57712" lon="3.72954">
        <ele>104.4</ele>
        <time>2011-04-09T07:37:47Z</time>
      </trkpt>
      <trkpt lat="43.57717" lon="3.72962">
        <ele>104.4</ele>
        <time>2011-04-09T07:37:50Z</time>
      </trkpt>
      <trkpt lat="43.57722" lon="3.72971">
        <ele>104.6</ele>
        <time>2011-04-09T07:37:53Z</time>
      </trkpt>
      <trkpt lat="43.57726" lon="3.72978">
        <ele>104.5</ele>
        <time>2011-04-09T07:37:55Z</time>
      </trkpt>
      <trkpt lat="43.5773" lon="3.72984">
        <ele>104.2</ele>
        <time>2011-04-09T07:37:57Z</time>
      </trkpt>
      <trkpt lat="43.57735" lon="3.7299">
        <ele>104.5</ele>
        <time>2011-04-09T07:37:59Z</time>
      </trkpt>
      <trkpt lat="43.5774" lon="3.72996">
        <ele>105</ele>
        <time>2011-04-09T07:38:01Z</time>
      </trkpt>
      <trkpt lat="43.57746" lon="3.73002">
        <ele>105</ele>
        <time>2011-04-09T07:38:03Z</time>
      </trkpt>
      <trkpt lat="43.57751" lon="3.73008">
        <ele>104.7</ele>
        <time>2011-04-09T07:38:05Z</time>
      </trkpt>
      <trkpt lat="43.57757" lon="3.73014">
        <ele>104.7</ele>
        <time>2011-04-09T07:38:07Z</time>
      </trkpt>
      <trkpt lat="43.57762" lon="3.73021">
        <ele>104.5</ele>
        <time>2011-04-09T07:38:09Z</time>
      </trkpt>
      <trkpt lat="43.57765" lon="3.73029">
        <ele>104.4</ele>
        <time>2011-04-09T07:38:11Z</time>
      </trkpt>
      <trkpt lat="43.5777" lon="3.73038">
        <ele>104.2</ele>
        <time>2011-04-09T07:38:13Z</time>
      </trkpt>
      <trkpt lat="43.57775" lon="3.73045">
        <ele>104.7</ele>
        <time>2011-04-09T07:38:16Z</time>
      </trkpt>
      <trkpt lat="43.5778" lon="3.73053">
        <ele>104.9</ele>
        <time>2011-04-09T07:38:19Z</time>
      </trkpt>
      <trkpt lat="43.57784" lon="3.7306">
        <ele>104.8</ele>
        <time>2011-04-09T07:38:21Z</time>
      </trkpt>
      <trkpt lat="43.57786" lon="3.73069">
        <ele>105</ele>
        <time>2011-04-09T07:38:23Z</time>
      </trkpt>
      <trkpt lat="43.57787" lon="3.73078">
        <ele>105.1</ele>
        <time>2011-04-09T07:38:25Z</time>
      </trkpt>
      <trkpt lat="43.57788" lon="3.73087">
        <ele>105.1</ele>
        <time>2011-04-09T07:38:27Z</time>
      </trkpt>
      <trkpt lat="43.57788" lon="3.73097">
        <ele>105.5</ele>
        <time>2011-04-09T07:38:29Z</time>
      </trkpt>
      <trkpt lat="43.57789" lon="3.73101">
        <ele>105.7</ele>
        <time>2011-04-09T07:38:30Z</time>
      </trkpt>
      <trkpt lat="43.5779" lon="3.73115">
        <ele>106.5</ele>
        <time>2011-04-09T07:38:33Z</time>
      </trkpt>
      <trkpt lat="43.57791" lon="3.73125">
        <ele>106.9</ele>
        <time>2011-04-09T07:38:35Z</time>
      </trkpt>
      <trkpt lat="43.57793" lon="3.73133">
        <ele>107.1</ele>
        <time>2011-04-09T07:38:37Z</time>
      </trkpt>
      <trkpt lat="43.57796" lon="3.73142">
        <ele>107.8</ele>
        <time>2011-04-09T07:38:39Z</time>
      </trkpt>
      <trkpt lat="43.578" lon="3.73152">
        <ele>107.9</ele>
        <time>2011-04-09T07:38:42Z</time>
      </trkpt>
      <trkpt lat="43.57805" lon="3.7316">
        <ele>108.4</ele>
        <time>2011-04-09T07:38:45Z</time>
      </trkpt>
      <trkpt lat="43.57811" lon="3.73168">
        <ele>109.3</ele>
        <time>2011-04-09T07:38:49Z</time>
      </trkpt>
      <trkpt lat="43.57815" lon="3.73178">
        <ele>109</ele>
        <time>2011-04-09T07:39:41Z</time>
      </trkpt>
      <trkpt lat="43.57815" lon="3.7318">
        <ele>109.1</ele>
        <time>2011-04-09T07:39:42Z</time>
      </trkpt>
      <trkpt lat="43.57819" lon="3.73201">
        <ele>110.8</ele>
        <time>2011-04-09T07:39:51Z</time>
      </trkpt>
      <trkpt lat="43.5782" lon="3.73211">
        <ele>111.2</ele>
        <time>2011-04-09T07:39:55Z</time>
      </trkpt>
      <trkpt lat="43.57822" lon="3.73221">
        <ele>111.3</ele>
        <time>2011-04-09T07:39:58Z</time>
      </trkpt>
      <trkpt lat="43.57827" lon="3.73231">
        <ele>111.3</ele>
        <time>2011-04-09T07:40:02Z</time>
      </trkpt>
      <trkpt lat="43.57832" lon="3.73238">
        <ele>111.6</ele>
        <time>2011-04-09T07:40:05Z</time>
      </trkpt>
      <trkpt lat="43.57837" lon="3.73246">
        <ele>111.8</ele>
        <time>2011-04-09T07:40:08Z</time>
      </trkpt>
      <trkpt lat="43.57843" lon="3.73255">
        <ele>111.6</ele>
        <time>2011-04-09T07:40:11Z</time>
      </trkpt>
      <trkpt lat="43.57848" lon="3.7326">
        <ele>111.5</ele>
        <time>2011-04-09T07:40:13Z</time>
      </trkpt>
      <trkpt lat="43.57853" lon="3.73266">
        <ele>111.9</ele>
        <time>2011-04-09T07:40:15Z</time>
      </trkpt>
      <trkpt lat="43.57858" lon="3.73272">
        <ele>112.1</ele>
        <time>2011-04-09T07:40:17Z</time>
      </trkpt>
      <trkpt lat="43.57861" lon="3.7328">
        <ele>112.3</ele>
        <time>2011-04-09T07:40:19Z</time>
      </trkpt>
      <trkpt lat="43.57865" lon="3.73288">
        <ele>112.1</ele>
        <time>2011-04-09T07:40:21Z</time>
      </trkpt>
      <trkpt lat="43.57868" lon="3.73295">
        <ele>112.2</ele>
        <time>2011-04-09T07:40:23Z</time>
      </trkpt>
      <trkpt lat="43.57871" lon="3.73303">
        <ele>112.4</ele>
        <time>2011-04-09T07:40:25Z</time>
      </trkpt>
      <trkpt lat="43.57873" lon="3.73312">
        <ele>112.7</ele>
        <time>2011-04-09T07:40:27Z</time>
      </trkpt>
      <trkpt lat="43.57876" lon="3.73321">
        <ele>112.6</ele>
        <time>2011-04-09T07:40:29Z</time>
      </trkpt>
      <trkpt lat="43.57879" lon="3.7333">
        <ele>112.4</ele>
        <time>2011-04-09T07:40:31Z</time>
      </trkpt>
      <trkpt lat="43.57882" lon="3.7334">
        <ele>112.3</ele>
        <time>2011-04-09T07:40:33Z</time>
      </trkpt>
      <trkpt lat="43.57884" lon="3.73349">
        <ele>112.4</ele>
        <time>2011-04-09T07:40:35Z</time>
      </trkpt>
      <trkpt lat="43.57886" lon="3.73358">
        <ele>112.1</ele>
        <time>2011-04-09T07:40:37Z</time>
      </trkpt>
      <trkpt lat="43.57887" lon="3.73368">
        <ele>112.4</ele>
        <time>2011-04-09T07:40:39Z</time>
      </trkpt>
      <trkpt lat="43.57888" lon="3.73378">
        <ele>112.9</ele>
        <time>2011-04-09T07:40:41Z</time>
      </trkpt>
      <trkpt lat="43.5789" lon="3.73386">
        <ele>112.8</ele>
        <time>2011-04-09T07:40:43Z</time>
      </trkpt>
      <trkpt lat="43.57892" lon="3.7339">
        <ele>112.7</ele>
        <time>2011-04-09T07:40:44Z</time>
      </trkpt>
      <trkpt lat="43.57901" lon="3.73402">
        <ele>112.3</ele>
        <time>2011-04-09T07:40:47Z</time>
      </trkpt>
      <trkpt lat="43.57903" lon="3.73408">
        <ele>112.2</ele>
        <time>2011-04-09T07:40:48Z</time>
      </trkpt>
      <trkpt lat="43.57905" lon="3.73414">
        <ele>112</ele>
        <time>2011-04-09T07:40:49Z</time>
      </trkpt>
      <trkpt lat="43.57907" lon="3.7342">
        <ele>111.8</ele>
        <time>2011-04-09T07:40:50Z</time>
      </trkpt>
      <trkpt lat="43.57909" lon="3.73427">
        <ele>111.7</ele>
        <time>2011-04-09T07:40:51Z</time>
      </trkpt>
      <trkpt lat="43.57913" lon="3.73437">
        <ele>110.6</ele>
        <time>2011-04-09T07:40:53Z</time>
      </trkpt>
      <trkpt lat="43.57917" lon="3.73444">
        <ele>110.1</ele>
        <time>2011-04-09T07:40:55Z</time>
      </trkpt>
      <trkpt lat="43.57921" lon="3.73453">
        <ele>109.9</ele>
        <time>2011-04-09T07:40:57Z</time>
      </trkpt>
      <trkpt lat="43.57926" lon="3.73461">
        <ele>109</ele>
        <time>2011-04-09T07:40:59Z</time>
      </trkpt>
      <trkpt lat="43.57933" lon="3.7347">
        <ele>107.9</ele>
        <time>2011-04-09T07:41:02Z</time>
      </trkpt>
      <trkpt lat="43.57939" lon="3.73478">
        <ele>107.5</ele>
        <time>2011-04-09T07:41:04Z</time>
      </trkpt>
      <trkpt lat="43.57942" lon="3.73483">
        <ele>106.7</ele>
        <time>2011-04-09T07:41:05Z</time>
      </trkpt>
      <trkpt lat="43.57945" lon="3.73488">
        <ele>106.1</ele>
        <time>2011-04-09T07:41:06Z</time>
      </trkpt>
      <trkpt lat="43.57951" lon="3.73496">
        <ele>105</ele>
        <time>2011-04-09T07:41:08Z</time>
      </trkpt>
      <trkpt lat="43.57956" lon="3.73503">
        <ele>104</ele>
        <time>2011-04-09T07:41:10Z</time>
      </trkpt>
      <trkpt lat="43.57961" lon="3.7351">
        <ele>102.4</ele>
        <time>2011-04-09T07:41:12Z</time>
      </trkpt>
      <trkpt lat="43.57966" lon="3.73517">
        <ele>101.4</ele>
        <time>2011-04-09T07:41:14Z</time>
      </trkpt>
      <trkpt lat="43.57972" lon="3.73522">
        <ele>100.8</ele>
        <time>2011-04-09T07:41:16Z</time>
      </trkpt>
      <trkpt lat="43.57977" lon="3.73528">
        <ele>99.1</ele>
        <time>2011-04-09T07:41:18Z</time>
      </trkpt>
      <trkpt lat="43.57984" lon="3.73535">
        <ele>97.3</ele>
        <time>2011-04-09T07:41:21Z</time>
      </trkpt>
      <trkpt lat="43.5799" lon="3.73543">
        <ele>95.7</ele>
        <time>2011-04-09T07:41:24Z</time>
      </trkpt>
      <trkpt lat="43.57994" lon="3.73551">
        <ele>94.9</ele>
        <time>2011-04-09T07:41:26Z</time>
      </trkpt>
      <trkpt lat="43.57997" lon="3.7356">
        <ele>93.1</ele>
        <time>2011-04-09T07:41:28Z</time>
      </trkpt>
      <trkpt lat="43.58001" lon="3.73569">
        <ele>91.4</ele>
        <time>2011-04-09T07:41:31Z</time>
      </trkpt>
      <trkpt lat="43.58001" lon="3.73578">
        <ele>90.7</ele>
        <time>2011-04-09T07:41:34Z</time>
      </trkpt>
      <trkpt lat="43.58004" lon="3.73586">
        <ele>90.5</ele>
        <time>2011-04-09T07:41:36Z</time>
      </trkpt>
      <trkpt lat="43.58008" lon="3.73597">
        <ele>89.8</ele>
        <time>2011-04-09T07:41:38Z</time>
      </trkpt>
      <trkpt lat="43.58013" lon="3.73607">
        <ele>88.8</ele>
        <time>2011-04-09T07:41:40Z</time>
      </trkpt>
      <trkpt lat="43.58016" lon="3.73618">
        <ele>87.9</ele>
        <time>2011-04-09T07:41:42Z</time>
      </trkpt>
      <trkpt lat="43.58019" lon="3.73628">
        <ele>87.4</ele>
        <time>2011-04-09T07:41:44Z</time>
      </trkpt>
      <trkpt lat="43.58021" lon="3.73633">
        <ele>87.2</ele>
        <time>2011-04-09T07:41:45Z</time>
      </trkpt>
      <trkpt lat="43.58026" lon="3.73643">
        <ele>85.6</ele>
        <time>2011-04-09T07:41:47Z</time>
      </trkpt>
      <trkpt lat="43.58028" lon="3.73649">
        <ele>85</ele>
        <time>2011-04-09T07:41:48Z</time>
      </trkpt>
      <trkpt lat="43.5803" lon="3.73655">
        <ele>84.1</ele>
        <time>2011-04-09T07:41:49Z</time>
      </trkpt>
      <trkpt lat="43.58032" lon="3.73661">
        <ele>83.5</ele>
        <time>2011-04-09T07:41:50Z</time>
      </trkpt>
      <trkpt lat="43.58034" lon="3.73672">
        <ele>82.6</ele>
        <time>2011-04-09T07:41:52Z</time>
      </trkpt>
      <trkpt lat="43.58037" lon="3.73682">
        <ele>81.1</ele>
        <time>2011-04-09T07:41:54Z</time>
      </trkpt>
      <trkpt lat="43.58039" lon="3.73689">
        <ele>80.7</ele>
        <time>2011-04-09T07:41:56Z</time>
      </trkpt>
      <trkpt lat="43.58043" lon="3.73698">
        <ele>80.7</ele>
        <time>2011-04-09T07:41:58Z</time>
      </trkpt>
      <trkpt lat="43.58047" lon="3.73708">
        <ele>79.3</ele>
        <time>2011-04-09T07:42:00Z</time>
      </trkpt>
      <trkpt lat="43.58048" lon="3.73717">
        <ele>78.5</ele>
        <time>2011-04-09T07:42:02Z</time>
      </trkpt>
      <trkpt lat="43.58048" lon="3.73727">
        <ele>78.1</ele>
        <time>2011-04-09T07:42:04Z</time>
      </trkpt>
      <trkpt lat="43.58047" lon="3.73739">
        <ele>76.8</ele>
        <time>2011-04-09T07:42:07Z</time>
      </trkpt>
      <trkpt lat="43.58051" lon="3.73749">
        <ele>76.7</ele>
        <time>2011-04-09T07:42:10Z</time>
      </trkpt>
      <trkpt lat="43.58053" lon="3.73756">
        <ele>76.4</ele>
        <time>2011-04-09T07:42:12Z</time>
      </trkpt>
      <trkpt lat="43.58058" lon="3.73764">
        <ele>76.1</ele>
        <time>2011-04-09T07:42:14Z</time>
      </trkpt>
      <trkpt lat="43.58061" lon="3.73772">
        <ele>74.8</ele>
        <time>2011-04-09T07:42:16Z</time>
      </trkpt>
      <trkpt lat="43.58065" lon="3.73783">
        <ele>75.2</ele>
        <time>2011-04-09T07:42:19Z</time>
      </trkpt>
      <trkpt lat="43.58074" lon="3.7378">
        <ele>76.1</ele>
        <time>2011-04-09T07:42:25Z</time>
      </trkpt>
      <trkpt lat="43.5808" lon="3.73771">
        <ele>76.1</ele>
        <time>2011-04-09T07:42:30Z</time>
      </trkpt>
      <trkpt lat="43.58088" lon="3.73769">
        <ele>76.4</ele>
        <time>2011-04-09T07:42:47Z</time>
      </trkpt>
      <trkpt lat="43.5809" lon="3.73769">
        <ele>76.1</ele>
        <time>2011-04-09T07:42:48Z</time>
      </trkpt>
      <trkpt lat="43.58103" lon="3.73766">
        <ele>76.5</ele>
        <time>2011-04-09T07:42:54Z</time>
      </trkpt>
      <trkpt lat="43.5811" lon="3.73764">
        <ele>76.1</ele>
        <time>2011-04-09T07:42:57Z</time>
      </trkpt>
      <trkpt lat="43.58117" lon="3.73762">
        <ele>76.2</ele>
        <time>2011-04-09T07:43:00Z</time>
      </trkpt>
      <trkpt lat="43.58125" lon="3.73761">
        <ele>76.7</ele>
        <time>2011-04-09T07:43:03Z</time>
      </trkpt>
      <trkpt lat="43.58132" lon="3.73758">
        <ele>76.5</ele>
        <time>2011-04-09T07:43:06Z</time>
      </trkpt>
      <trkpt lat="43.58139" lon="3.73756">
        <ele>76.5</ele>
        <time>2011-04-09T07:43:09Z</time>
      </trkpt>
      <trkpt lat="43.58147" lon="3.73753">
        <ele>77.1</ele>
        <time>2011-04-09T07:43:12Z</time>
      </trkpt>
      <trkpt lat="43.58155" lon="3.73751">
        <ele>77.5</ele>
        <time>2011-04-09T07:43:15Z</time>
      </trkpt>
      <trkpt lat="43.58163" lon="3.73748">
        <ele>77.8</ele>
        <time>2011-04-09T07:43:18Z</time>
      </trkpt>
      <trkpt lat="43.5817" lon="3.73744">
        <ele>77.6</ele>
        <time>2011-04-09T07:43:21Z</time>
      </trkpt>
      <trkpt lat="43.58181" lon="3.73737">
        <ele>77.1</ele>
        <time>2011-04-09T07:43:26Z</time>
      </trkpt>
      <trkpt lat="43.58188" lon="3.73732">
        <ele>77.4</ele>
        <time>2011-04-09T07:43:29Z</time>
      </trkpt>
      <trkpt lat="43.58195" lon="3.73728">
        <ele>77.6</ele>
        <time>2011-04-09T07:43:32Z</time>
      </trkpt>
      <trkpt lat="43.58203" lon="3.73724">
        <ele>77.7</ele>
        <time>2011-04-09T07:43:35Z</time>
      </trkpt>
      <trkpt lat="43.58209" lon="3.7372">
        <ele>77.6</ele>
        <time>2011-04-09T07:43:38Z</time>
      </trkpt>
      <trkpt lat="43.58217" lon="3.73714">
        <ele>77.7</ele>
        <time>2011-04-09T07:43:41Z</time>
      </trkpt>
      <trkpt lat="43.58223" lon="3.7371">
        <ele>78.1</ele>
        <time>2011-04-09T07:43:44Z</time>
      </trkpt>
      <trkpt lat="43.58231" lon="3.73706">
        <ele>77.7</ele>
        <time>2011-04-09T07:43:48Z</time>
      </trkpt>
      <trkpt lat="43.58233" lon="3.73705">
        <ele>77.6</ele>
        <time>2011-04-09T07:43:49Z</time>
      </trkpt>
      <trkpt lat="43.5824" lon="3.73718">
        <ele>78</ele>
        <time>2011-04-09T07:43:55Z</time>
      </trkpt>
      <trkpt lat="43.58243" lon="3.73727">
        <ele>78.8</ele>
        <time>2011-04-09T07:43:58Z</time>
      </trkpt>
      <trkpt lat="43.58247" lon="3.73736">
        <ele>79.3</ele>
        <time>2011-04-09T07:44:01Z</time>
      </trkpt>
      <trkpt lat="43.58246" lon="3.73746">
        <ele>79.7</ele>
        <time>2011-04-09T07:44:05Z</time>
      </trkpt>
      <trkpt lat="43.5824" lon="3.73754">
        <ele>80.5</ele>
        <time>2011-04-09T07:44:08Z</time>
      </trkpt>
      <trkpt lat="43.58235" lon="3.7376">
        <ele>80.8</ele>
        <time>2011-04-09T07:44:11Z</time>
      </trkpt>
      <trkpt lat="43.58228" lon="3.73767">
        <ele>81.1</ele>
        <time>2011-04-09T07:44:14Z</time>
      </trkpt>
      <trkpt lat="43.58222" lon="3.73775">
        <ele>81.6</ele>
        <time>2011-04-09T07:44:17Z</time>
      </trkpt>
      <trkpt lat="43.58218" lon="3.73782">
        <ele>81.9</ele>
        <time>2011-04-09T07:44:20Z</time>
      </trkpt>
      <trkpt lat="43.58213" lon="3.7379">
        <ele>83.1</ele>
        <time>2011-04-09T07:44:24Z</time>
      </trkpt>
      <trkpt lat="43.58207" lon="3.73798">
        <ele>83.2</ele>
        <time>2011-04-09T07:44:27Z</time>
      </trkpt>
      <trkpt lat="43.58205" lon="3.73809">
        <ele>82.6</ele>
        <time>2011-04-09T07:44:30Z</time>
      </trkpt>
      <trkpt lat="43.58205" lon="3.73821">
        <ele>82.4</ele>
        <time>2011-04-09T07:44:34Z</time>
      </trkpt>
      <trkpt lat="43.5821" lon="3.73832">
        <ele>83.8</ele>
        <time>2011-04-09T07:44:40Z</time>
      </trkpt>
      <trkpt lat="43.58214" lon="3.7384">
        <ele>84.7</ele>
        <time>2011-04-09T07:44:45Z</time>
      </trkpt>
      <trkpt lat="43.58221" lon="3.73848">
        <ele>85.4</ele>
        <time>2011-04-09T07:44:49Z</time>
      </trkpt>
      <trkpt lat="43.58222" lon="3.73849">
        <ele>85.5</ele>
        <time>2011-04-09T07:44:50Z</time>
      </trkpt>
      <trkpt lat="43.58233" lon="3.73863">
        <ele>87.7</ele>
        <time>2011-04-09T07:44:57Z</time>
      </trkpt>
      <trkpt lat="43.58237" lon="3.73872">
        <ele>87.4</ele>
        <time>2011-04-09T07:45:01Z</time>
      </trkpt>
      <trkpt lat="43.5824" lon="3.73883">
        <ele>87.6</ele>
        <time>2011-04-09T07:45:05Z</time>
      </trkpt>
      <trkpt lat="43.58246" lon="3.73888">
        <ele>88.1</ele>
        <time>2011-04-09T07:45:08Z</time>
      </trkpt>
      <trkpt lat="43.58252" lon="3.73896">
        <ele>89.9</ele>
        <time>2011-04-09T07:45:17Z</time>
      </trkpt>
      <trkpt lat="43.58257" lon="3.73904">
        <ele>90.1</ele>
        <time>2011-04-09T07:45:22Z</time>
      </trkpt>
      <trkpt lat="43.58264" lon="3.73912">
        <ele>91.2</ele>
        <time>2011-04-09T07:45:26Z</time>
      </trkpt>
      <trkpt lat="43.58272" lon="3.73918">
        <ele>91.8</ele>
        <time>2011-04-09T07:45:30Z</time>
      </trkpt>
      <trkpt lat="43.5828" lon="3.73918">
        <ele>92.3</ele>
        <time>2011-04-09T07:45:34Z</time>
      </trkpt>
      <trkpt lat="43.58289" lon="3.73921">
        <ele>92.9</ele>
        <time>2011-04-09T07:45:38Z</time>
      </trkpt>
      <trkpt lat="43.58296" lon="3.73926">
        <ele>93.5</ele>
        <time>2011-04-09T07:45:42Z</time>
      </trkpt>
      <trkpt lat="43.583" lon="3.73936">
        <ele>94</ele>
        <time>2011-04-09T07:45:47Z</time>
      </trkpt>
      <trkpt lat="43.58308" lon="3.73938">
        <ele>94.8</ele>
        <time>2011-04-09T07:45:51Z</time>
      </trkpt>
      <trkpt lat="43.58309" lon="3.73939">
        <ele>95</ele>
        <time>2011-04-09T07:45:52Z</time>
      </trkpt>
      <trkpt lat="43.58321" lon="3.7395">
        <ele>95.6</ele>
        <time>2011-04-09T07:46:01Z</time>
      </trkpt>
      <trkpt lat="43.58325" lon="3.73961">
        <ele>95.8</ele>
        <time>2011-04-09T07:46:06Z</time>
      </trkpt>
      <trkpt lat="43.58324" lon="3.73972">
        <ele>96.5</ele>
        <time>2011-04-09T07:46:10Z</time>
      </trkpt>
      <trkpt lat="43.58319" lon="3.73983">
        <ele>96.5</ele>
        <time>2011-04-09T07:46:15Z</time>
      </trkpt>
      <trkpt lat="43.5832" lon="3.73993">
        <ele>97.8</ele>
        <time>2011-04-09T07:46:21Z</time>
      </trkpt>
      <trkpt lat="43.58323" lon="3.74004">
        <ele>98.4</ele>
        <time>2011-04-09T07:46:27Z</time>
      </trkpt>
      <trkpt lat="43.58319" lon="3.74015">
        <ele>100.6</ele>
        <time>2011-04-09T07:46:34Z</time>
      </trkpt>
      <trkpt lat="43.58315" lon="3.74025">
        <ele>102.1</ele>
        <time>2011-04-09T07:46:42Z</time>
      </trkpt>
      <trkpt lat="43.58312" lon="3.74038">
        <ele>104</ele>
        <time>2011-04-09T07:46:52Z</time>
      </trkpt>
      <trkpt lat="43.58311" lon="3.74039">
        <ele>105.4</ele>
        <time>2011-04-09T07:46:54Z</time>
      </trkpt>
      <trkpt lat="43.58309" lon="3.74056">
        <ele>107.6</ele>
        <time>2011-04-09T07:48:42Z</time>
      </trkpt>
      <trkpt lat="43.5831" lon="3.74057">
        <ele>107.6</ele>
        <time>2011-04-09T07:48:43Z</time>
      </trkpt>
      <trkpt lat="43.58322" lon="3.7407">
        <ele>108.3</ele>
        <time>2011-04-09T07:48:52Z</time>
      </trkpt>
      <trkpt lat="43.58326" lon="3.74077">
        <ele>108.2</ele>
        <time>2011-04-09T07:48:56Z</time>
      </trkpt>
      <trkpt lat="43.58328" lon="3.74086">
        <ele>108.5</ele>
        <time>2011-04-09T07:48:59Z</time>
      </trkpt>
      <trkpt lat="43.5833" lon="3.74097">
        <ele>108.7</ele>
        <time>2011-04-09T07:49:02Z</time>
      </trkpt>
      <trkpt lat="43.58335" lon="3.74106">
        <ele>109.3</ele>
        <time>2011-04-09T07:49:05Z</time>
      </trkpt>
      <trkpt lat="43.58342" lon="3.74105">
        <ele>109.1</ele>
        <time>2011-04-09T07:49:07Z</time>
      </trkpt>
      <trkpt lat="43.58347" lon="3.741">
        <ele>108.7</ele>
        <time>2011-04-09T07:49:09Z</time>
      </trkpt>
      <trkpt lat="43.58351" lon="3.74094">
        <ele>108.4</ele>
        <time>2011-04-09T07:49:11Z</time>
      </trkpt>
      <trkpt lat="43.58356" lon="3.74088">
        <ele>108.5</ele>
        <time>2011-04-09T07:49:13Z</time>
      </trkpt>
      <trkpt lat="43.5836" lon="3.74082">
        <ele>108.7</ele>
        <time>2011-04-09T07:49:15Z</time>
      </trkpt>
      <trkpt lat="43.58365" lon="3.74074">
        <ele>108.9</ele>
        <time>2011-04-09T07:49:17Z</time>
      </trkpt>
      <trkpt lat="43.58369" lon="3.74065">
        <ele>108.8</ele>
        <time>2011-04-09T07:49:19Z</time>
      </trkpt>
      <trkpt lat="43.58372" lon="3.74055">
        <ele>108.6</ele>
        <time>2011-04-09T07:49:21Z</time>
      </trkpt>
      <trkpt lat="43.58375" lon="3.74044">
        <ele>108.4</ele>
        <time>2011-04-09T07:49:23Z</time>
      </trkpt>
      <trkpt lat="43.5838" lon="3.74035">
        <ele>108.2</ele>
        <time>2011-04-09T07:49:25Z</time>
      </trkpt>
      <trkpt lat="43.58385" lon="3.74027">
        <ele>107.9</ele>
        <time>2011-04-09T07:49:27Z</time>
      </trkpt>
      <trkpt lat="43.58389" lon="3.74019">
        <ele>107.8</ele>
        <time>2011-04-09T07:49:29Z</time>
      </trkpt>
      <trkpt lat="43.58393" lon="3.74012">
        <ele>107.8</ele>
        <time>2011-04-09T07:49:31Z</time>
      </trkpt>
      <trkpt lat="43.58397" lon="3.74004">
        <ele>108.2</ele>
        <time>2011-04-09T07:49:33Z</time>
      </trkpt>
      <trkpt lat="43.58401" lon="3.73997">
        <ele>108.4</ele>
        <time>2011-04-09T07:49:35Z</time>
      </trkpt>
      <trkpt lat="43.58405" lon="3.7399">
        <ele>108.7</ele>
        <time>2011-04-09T07:49:37Z</time>
      </trkpt>
      <trkpt lat="43.58409" lon="3.73984">
        <ele>108.8</ele>
        <time>2011-04-09T07:49:39Z</time>
      </trkpt>
      <trkpt lat="43.58413" lon="3.73974">
        <ele>109.2</ele>
        <time>2011-04-09T07:49:42Z</time>
      </trkpt>
      <trkpt lat="43.58416" lon="3.73965">
        <ele>110.2</ele>
        <time>2011-04-09T07:49:46Z</time>
      </trkpt>
      <trkpt lat="43.58417" lon="3.73963">
        <ele>110.3</ele>
        <time>2011-04-09T07:49:47Z</time>
      </trkpt>
      <trkpt lat="43.58419" lon="3.73943">
        <ele>111.2</ele>
        <time>2011-04-09T07:49:53Z</time>
      </trkpt>
      <trkpt lat="43.5842" lon="3.73933">
        <ele>111.3</ele>
        <time>2011-04-09T07:49:56Z</time>
      </trkpt>
      <trkpt lat="43.58422" lon="3.73923">
        <ele>111.5</ele>
        <time>2011-04-09T07:49:59Z</time>
      </trkpt>
      <trkpt lat="43.58424" lon="3.73912">
        <ele>112.8</ele>
        <time>2011-04-09T07:50:02Z</time>
      </trkpt>
      <trkpt lat="43.58427" lon="3.73902">
        <ele>113.8</ele>
        <time>2011-04-09T07:50:05Z</time>
      </trkpt>
      <trkpt lat="43.58429" lon="3.73891">
        <ele>114.8</ele>
        <time>2011-04-09T07:50:08Z</time>
      </trkpt>
      <trkpt lat="43.5843" lon="3.7388">
        <ele>115.3</ele>
        <time>2011-04-09T07:50:11Z</time>
      </trkpt>
      <trkpt lat="43.58431" lon="3.73869">
        <ele>115.6</ele>
        <time>2011-04-09T07:50:14Z</time>
      </trkpt>
      <trkpt lat="43.58432" lon="3.73859">
        <ele>116</ele>
        <time>2011-04-09T07:50:17Z</time>
      </trkpt>
      <trkpt lat="43.58431" lon="3.7385">
        <ele>116.6</ele>
        <time>2011-04-09T07:50:20Z</time>
      </trkpt>
      <trkpt lat="43.58432" lon="3.7384">
        <ele>117.5</ele>
        <time>2011-04-09T07:50:23Z</time>
      </trkpt>
      <trkpt lat="43.58433" lon="3.73828">
        <ele>118.1</ele>
        <time>2011-04-09T07:50:27Z</time>
      </trkpt>
      <trkpt lat="43.58434" lon="3.73819">
        <ele>118.2</ele>
        <time>2011-04-09T07:50:30Z</time>
      </trkpt>
      <trkpt lat="43.58435" lon="3.73809">
        <ele>118.4</ele>
        <time>2011-04-09T07:50:33Z</time>
      </trkpt>
      <trkpt lat="43.58437" lon="3.738">
        <ele>119.2</ele>
        <time>2011-04-09T07:50:36Z</time>
      </trkpt>
      <trkpt lat="43.58439" lon="3.73791">
        <ele>120</ele>
        <time>2011-04-09T07:50:39Z</time>
      </trkpt>
      <trkpt lat="43.58444" lon="3.73781">
        <ele>120.6</ele>
        <time>2011-04-09T07:50:43Z</time>
      </trkpt>
      <trkpt lat="43.58451" lon="3.73774">
        <ele>121.5</ele>
        <time>2011-04-09T07:50:47Z</time>
      </trkpt>
      <trkpt lat="43.58456" lon="3.73764">
        <ele>122.4</ele>
        <time>2011-04-09T07:50:51Z</time>
      </trkpt>
      <trkpt lat="43.58457" lon="3.73762">
        <ele>122.8</ele>
        <time>2011-04-09T07:50:52Z</time>
      </trkpt>
      <trkpt lat="43.58474" lon="3.73735">
        <ele>125</ele>
        <time>2011-04-09T07:51:04Z</time>
      </trkpt>
      <trkpt lat="43.58479" lon="3.73725">
        <ele>126</ele>
        <time>2011-04-09T07:51:08Z</time>
      </trkpt>
      <trkpt lat="43.58483" lon="3.73716">
        <ele>126.6</ele>
        <time>2011-04-09T07:51:11Z</time>
      </trkpt>
      <trkpt lat="43.58486" lon="3.73708">
        <ele>126.6</ele>
        <time>2011-04-09T07:51:13Z</time>
      </trkpt>
      <trkpt lat="43.5849" lon="3.737">
        <ele>126.4</ele>
        <time>2011-04-09T07:51:15Z</time>
      </trkpt>
      <trkpt lat="43.58496" lon="3.73692">
        <ele>126.4</ele>
        <time>2011-04-09T07:51:17Z</time>
      </trkpt>
      <trkpt lat="43.58499" lon="3.73687">
        <ele>125.7</ele>
        <time>2011-04-09T07:51:18Z</time>
      </trkpt>
      <trkpt lat="43.58502" lon="3.73682">
        <ele>125.3</ele>
        <time>2011-04-09T07:51:19Z</time>
      </trkpt>
      <trkpt lat="43.58505" lon="3.73677">
        <ele>124.9</ele>
        <time>2011-04-09T07:51:20Z</time>
      </trkpt>
      <trkpt lat="43.58508" lon="3.73671">
        <ele>124.8</ele>
        <time>2011-04-09T07:51:21Z</time>
      </trkpt>
      <trkpt lat="43.58512" lon="3.73664">
        <ele>124.7</ele>
        <time>2011-04-09T07:51:22Z</time>
      </trkpt>
      <trkpt lat="43.58515" lon="3.73658">
        <ele>124.6</ele>
        <time>2011-04-09T07:51:23Z</time>
      </trkpt>
      <trkpt lat="43.58518" lon="3.7365">
        <ele>124.2</ele>
        <time>2011-04-09T07:51:24Z</time>
      </trkpt>
      <trkpt lat="43.58522" lon="3.73643">
        <ele>123.9</ele>
        <time>2011-04-09T07:51:25Z</time>
      </trkpt>
      <trkpt lat="43.58526" lon="3.73636">
        <ele>123.6</ele>
        <time>2011-04-09T07:51:26Z</time>
      </trkpt>
      <trkpt lat="43.5853" lon="3.73629">
        <ele>123.1</ele>
        <time>2011-04-09T07:51:27Z</time>
      </trkpt>
      <trkpt lat="43.58533" lon="3.73622">
        <ele>122.8</ele>
        <time>2011-04-09T07:51:28Z</time>
      </trkpt>
      <trkpt lat="43.58536" lon="3.73615">
        <ele>122.5</ele>
        <time>2011-04-09T07:51:29Z</time>
      </trkpt>
      <trkpt lat="43.58539" lon="3.73607">
        <ele>122.3</ele>
        <time>2011-04-09T07:51:30Z</time>
      </trkpt>
      <trkpt lat="43.58541" lon="3.73599">
        <ele>122.1</ele>
        <time>2011-04-09T07:51:31Z</time>
      </trkpt>
      <trkpt lat="43.58543" lon="3.73592">
        <ele>122</ele>
        <time>2011-04-09T07:51:32Z</time>
      </trkpt>
      <trkpt lat="43.58551" lon="3.73585">
        <ele>121.1</ele>
        <time>2011-04-09T07:51:34Z</time>
      </trkpt>
      <trkpt lat="43.58557" lon="3.73587">
        <ele>120.5</ele>
        <time>2011-04-09T07:51:36Z</time>
      </trkpt>
      <trkpt lat="43.58564" lon="3.73589">
        <ele>121.9</ele>
        <time>2011-04-09T07:51:38Z</time>
      </trkpt>
      <trkpt lat="43.58572" lon="3.73592">
        <ele>122.5</ele>
        <time>2011-04-09T07:51:40Z</time>
      </trkpt>
      <trkpt lat="43.58579" lon="3.73595">
        <ele>122.6</ele>
        <time>2011-04-09T07:51:42Z</time>
      </trkpt>
      <trkpt lat="43.58587" lon="3.73599">
        <ele>122.8</ele>
        <time>2011-04-09T07:51:44Z</time>
      </trkpt>
      <trkpt lat="43.58594" lon="3.73603">
        <ele>122.7</ele>
        <time>2011-04-09T07:51:46Z</time>
      </trkpt>
      <trkpt lat="43.58601" lon="3.73608">
        <ele>122.6</ele>
        <time>2011-04-09T07:51:48Z</time>
      </trkpt>
      <trkpt lat="43.58609" lon="3.73611">
        <ele>122.1</ele>
        <time>2011-04-09T07:51:50Z</time>
      </trkpt>
      <trkpt lat="43.58617" lon="3.73615">
        <ele>121.8</ele>
        <time>2011-04-09T07:51:52Z</time>
      </trkpt>
      <trkpt lat="43.58621" lon="3.73617">
        <ele>121.7</ele>
        <time>2011-04-09T07:51:53Z</time>
      </trkpt>
      <trkpt lat="43.58633" lon="3.7362">
        <ele>121.1</ele>
        <time>2011-04-09T07:51:56Z</time>
      </trkpt>
      <trkpt lat="43.58641" lon="3.73616">
        <ele>120.6</ele>
        <time>2011-04-09T07:51:58Z</time>
      </trkpt>
      <trkpt lat="43.58648" lon="3.73614">
        <ele>120.6</ele>
        <time>2011-04-09T07:52:00Z</time>
      </trkpt>
      <trkpt lat="43.58656" lon="3.73614">
        <ele>120.9</ele>
        <time>2011-04-09T07:52:02Z</time>
      </trkpt>
      <trkpt lat="43.58663" lon="3.73614">
        <ele>121.3</ele>
        <time>2011-04-09T07:52:04Z</time>
      </trkpt>
      <trkpt lat="43.58669" lon="3.73617">
        <ele>121.2</ele>
        <time>2011-04-09T07:52:06Z</time>
      </trkpt>
      <trkpt lat="43.58675" lon="3.73622">
        <ele>121.1</ele>
        <time>2011-04-09T07:52:08Z</time>
      </trkpt>
      <trkpt lat="43.58681" lon="3.73628">
        <ele>121.3</ele>
        <time>2011-04-09T07:52:10Z</time>
      </trkpt>
      <trkpt lat="43.58687" lon="3.73633">
        <ele>121.4</ele>
        <time>2011-04-09T07:52:12Z</time>
      </trkpt>
      <trkpt lat="43.58693" lon="3.73638">
        <ele>121.4</ele>
        <time>2011-04-09T07:52:14Z</time>
      </trkpt>
      <trkpt lat="43.58699" lon="3.73645">
        <ele>122.2</ele>
        <time>2011-04-09T07:52:16Z</time>
      </trkpt>
      <trkpt lat="43.58706" lon="3.7365">
        <ele>122.4</ele>
        <time>2011-04-09T07:52:18Z</time>
      </trkpt>
      <trkpt lat="43.58713" lon="3.73653">
        <ele>122.4</ele>
        <time>2011-04-09T07:52:20Z</time>
      </trkpt>
      <trkpt lat="43.5872" lon="3.73658">
        <ele>122</ele>
        <time>2011-04-09T07:52:22Z</time>
      </trkpt>
      <trkpt lat="43.58729" lon="3.73661">
        <ele>121.8</ele>
        <time>2011-04-09T07:52:24Z</time>
      </trkpt>
      <trkpt lat="43.58737" lon="3.73661">
        <ele>122.1</ele>
        <time>2011-04-09T07:52:26Z</time>
      </trkpt>
      <trkpt lat="43.58743" lon="3.73656">
        <ele>122.3</ele>
        <time>2011-04-09T07:52:28Z</time>
      </trkpt>
      <trkpt lat="43.58748" lon="3.7365">
        <ele>122.5</ele>
        <time>2011-04-09T07:52:30Z</time>
      </trkpt>
      <trkpt lat="43.58754" lon="3.73646">
        <ele>123.4</ele>
        <time>2011-04-09T07:52:32Z</time>
      </trkpt>
      <trkpt lat="43.5876" lon="3.73641">
        <ele>123.6</ele>
        <time>2011-04-09T07:52:34Z</time>
      </trkpt>
      <trkpt lat="43.58765" lon="3.73638">
        <ele>123.5</ele>
        <time>2011-04-09T07:52:36Z</time>
      </trkpt>
      <trkpt lat="43.58771" lon="3.73637">
        <ele>124.1</ele>
        <time>2011-04-09T07:52:38Z</time>
      </trkpt>
      <trkpt lat="43.5878" lon="3.73636">
        <ele>124.9</ele>
        <time>2011-04-09T07:52:41Z</time>
      </trkpt>
      <trkpt lat="43.58786" lon="3.73634">
        <ele>125.5</ele>
        <time>2011-04-09T07:52:43Z</time>
      </trkpt>
      <trkpt lat="43.58791" lon="3.7363">
        <ele>125.6</ele>
        <time>2011-04-09T07:52:45Z</time>
      </trkpt>
      <trkpt lat="43.58796" lon="3.73625">
        <ele>126.2</ele>
        <time>2011-04-09T07:52:47Z</time>
      </trkpt>
      <trkpt lat="43.58805" lon="3.7362">
        <ele>127.1</ele>
        <time>2011-04-09T07:52:50Z</time>
      </trkpt>
      <trkpt lat="43.5881" lon="3.73616">
        <ele>127.4</ele>
        <time>2011-04-09T07:52:52Z</time>
      </trkpt>
      <trkpt lat="43.58816" lon="3.73607">
        <ele>128.8</ele>
        <time>2011-04-09T07:52:55Z</time>
      </trkpt>
      <trkpt lat="43.58818" lon="3.73605">
        <ele>128.8</ele>
        <time>2011-04-09T07:52:56Z</time>
      </trkpt>
      <trkpt lat="43.5883" lon="3.73596">
        <ele>129.7</ele>
        <time>2011-04-09T07:53:01Z</time>
      </trkpt>
      <trkpt lat="43.58836" lon="3.73589">
        <ele>131.4</ele>
        <time>2011-04-09T07:53:04Z</time>
      </trkpt>
      <trkpt lat="43.58841" lon="3.73582">
        <ele>132.8</ele>
        <time>2011-04-09T07:53:07Z</time>
      </trkpt>
      <trkpt lat="43.58848" lon="3.73575">
        <ele>133.5</ele>
        <time>2011-04-09T07:53:10Z</time>
      </trkpt>
      <trkpt lat="43.58854" lon="3.73569">
        <ele>133.5</ele>
        <time>2011-04-09T07:53:13Z</time>
      </trkpt>
      <trkpt lat="43.58861" lon="3.73565">
        <ele>133.9</ele>
        <time>2011-04-09T07:53:16Z</time>
      </trkpt>
      <trkpt lat="43.58869" lon="3.73561">
        <ele>134.7</ele>
        <time>2011-04-09T07:53:19Z</time>
      </trkpt>
      <trkpt lat="43.58876" lon="3.73554">
        <ele>135.3</ele>
        <time>2011-04-09T07:53:22Z</time>
      </trkpt>
      <trkpt lat="43.58884" lon="3.7355">
        <ele>135.8</ele>
        <time>2011-04-09T07:53:25Z</time>
      </trkpt>
      <trkpt lat="43.58893" lon="3.73551">
        <ele>137.1</ele>
        <time>2011-04-09T07:53:29Z</time>
      </trkpt>
      <trkpt lat="43.58897" lon="3.73544">
        <ele>137.3</ele>
        <time>2011-04-09T07:53:32Z</time>
      </trkpt>
      <trkpt lat="43.58902" lon="3.73534">
        <ele>136.9</ele>
        <time>2011-04-09T07:53:35Z</time>
      </trkpt>
      <trkpt lat="43.58906" lon="3.73527">
        <ele>136.8</ele>
        <time>2011-04-09T07:53:37Z</time>
      </trkpt>
      <trkpt lat="43.58911" lon="3.7352">
        <ele>136.7</ele>
        <time>2011-04-09T07:53:39Z</time>
      </trkpt>
      <trkpt lat="43.58916" lon="3.73513">
        <ele>137</ele>
        <time>2011-04-09T07:53:41Z</time>
      </trkpt>
      <trkpt lat="43.5892" lon="3.73506">
        <ele>137.4</ele>
        <time>2011-04-09T07:53:43Z</time>
      </trkpt>
      <trkpt lat="43.58924" lon="3.73499">
        <ele>137.3</ele>
        <time>2011-04-09T07:53:45Z</time>
      </trkpt>
      <trkpt lat="43.58928" lon="3.73493">
        <ele>137.2</ele>
        <time>2011-04-09T07:53:47Z</time>
      </trkpt>
      <trkpt lat="43.58932" lon="3.73486">
        <ele>136.8</ele>
        <time>2011-04-09T07:53:49Z</time>
      </trkpt>
      <trkpt lat="43.58936" lon="3.73478">
        <ele>136.5</ele>
        <time>2011-04-09T07:53:51Z</time>
      </trkpt>
      <trkpt lat="43.58941" lon="3.7347">
        <ele>136.1</ele>
        <time>2011-04-09T07:53:53Z</time>
      </trkpt>
      <trkpt lat="43.58946" lon="3.73462">
        <ele>135.7</ele>
        <time>2011-04-09T07:53:55Z</time>
      </trkpt>
      <trkpt lat="43.58952" lon="3.73456">
        <ele>135.4</ele>
        <time>2011-04-09T07:53:57Z</time>
      </trkpt>
      <trkpt lat="43.58955" lon="3.73453">
        <ele>135.2</ele>
        <time>2011-04-09T07:53:58Z</time>
      </trkpt>
      <trkpt lat="43.58964" lon="3.73445">
        <ele>135.4</ele>
        <time>2011-04-09T07:54:01Z</time>
      </trkpt>
      <trkpt lat="43.58971" lon="3.7344">
        <ele>135.6</ele>
        <time>2011-04-09T07:54:03Z</time>
      </trkpt>
      <trkpt lat="43.58977" lon="3.73437">
        <ele>135.6</ele>
        <time>2011-04-09T07:54:05Z</time>
      </trkpt>
      <trkpt lat="43.58983" lon="3.73435">
        <ele>135.3</ele>
        <time>2011-04-09T07:54:07Z</time>
      </trkpt>
      <trkpt lat="43.58991" lon="3.73436">
        <ele>135</ele>
        <time>2011-04-09T07:54:09Z</time>
      </trkpt>
      <trkpt lat="43.58999" lon="3.73438">
        <ele>133.8</ele>
        <time>2011-04-09T07:54:11Z</time>
      </trkpt>
      <trkpt lat="43.59008" lon="3.73438">
        <ele>133.6</ele>
        <time>2011-04-09T07:54:13Z</time>
      </trkpt>
      <trkpt lat="43.59015" lon="3.73438">
        <ele>133.8</ele>
        <time>2011-04-09T07:54:15Z</time>
      </trkpt>
      <trkpt lat="43.59019" lon="3.73437">
        <ele>133.3</ele>
        <time>2011-04-09T07:54:16Z</time>
      </trkpt>
      <trkpt lat="43.59024" lon="3.73437">
        <ele>132.9</ele>
        <time>2011-04-09T07:54:17Z</time>
      </trkpt>
      <trkpt lat="43.59029" lon="3.73436">
        <ele>132.7</ele>
        <time>2011-04-09T07:54:18Z</time>
      </trkpt>
      <trkpt lat="43.59034" lon="3.73434">
        <ele>133.1</ele>
        <time>2011-04-09T07:54:19Z</time>
      </trkpt>
      <trkpt lat="43.59038" lon="3.73432">
        <ele>133.5</ele>
        <time>2011-04-09T07:54:20Z</time>
      </trkpt>
      <trkpt lat="43.59043" lon="3.7343">
        <ele>133.7</ele>
        <time>2011-04-09T07:54:21Z</time>
      </trkpt>
      <trkpt lat="43.59047" lon="3.73428">
        <ele>133.9</ele>
        <time>2011-04-09T07:54:22Z</time>
      </trkpt>
      <trkpt lat="43.59056" lon="3.73425">
        <ele>134</ele>
        <time>2011-04-09T07:54:24Z</time>
      </trkpt>
      <trkpt lat="43.59064" lon="3.73421">
        <ele>134.1</ele>
        <time>2011-04-09T07:54:26Z</time>
      </trkpt>
      <trkpt lat="43.59072" lon="3.73416">
        <ele>134.3</ele>
        <time>2011-04-09T07:54:28Z</time>
      </trkpt>
      <trkpt lat="43.5908" lon="3.73411">
        <ele>133.7</ele>
        <time>2011-04-09T07:54:30Z</time>
      </trkpt>
      <trkpt lat="43.59088" lon="3.73406">
        <ele>133.6</ele>
        <time>2011-04-09T07:54:32Z</time>
      </trkpt>
      <trkpt lat="43.59096" lon="3.73402">
        <ele>133.7</ele>
        <time>2011-04-09T07:54:34Z</time>
      </trkpt>
      <trkpt lat="43.59104" lon="3.73399">
        <ele>133.8</ele>
        <time>2011-04-09T07:54:36Z</time>
      </trkpt>
      <trkpt lat="43.5911" lon="3.73396">
        <ele>133.8</ele>
        <time>2011-04-09T07:54:38Z</time>
      </trkpt>
      <trkpt lat="43.59117" lon="3.73392">
        <ele>134.6</ele>
        <time>2011-04-09T07:54:40Z</time>
      </trkpt>
      <trkpt lat="43.59123" lon="3.73387">
        <ele>134.9</ele>
        <time>2011-04-09T07:54:42Z</time>
      </trkpt>
      <trkpt lat="43.59128" lon="3.73383">
        <ele>135.1</ele>
        <time>2011-04-09T07:54:44Z</time>
      </trkpt>
      <trkpt lat="43.59137" lon="3.73378">
        <ele>135.7</ele>
        <time>2011-04-09T07:54:47Z</time>
      </trkpt>
      <trkpt lat="43.59144" lon="3.73373">
        <ele>136.8</ele>
        <time>2011-04-09T07:54:50Z</time>
      </trkpt>
      <trkpt lat="43.59151" lon="3.73367">
        <ele>136.9</ele>
        <time>2011-04-09T07:54:53Z</time>
      </trkpt>
      <trkpt lat="43.59158" lon="3.73362">
        <ele>137</ele>
        <time>2011-04-09T07:54:56Z</time>
      </trkpt>
      <trkpt lat="43.59166" lon="3.73357">
        <ele>137.5</ele>
        <time>2011-04-09T07:54:59Z</time>
      </trkpt>
      <trkpt lat="43.59169" lon="3.73355">
        <ele>137.6</ele>
        <time>2011-04-09T07:55:00Z</time>
      </trkpt>
      <trkpt lat="43.59181" lon="3.73345">
        <ele>138.5</ele>
        <time>2011-04-09T07:55:05Z</time>
      </trkpt>
      <trkpt lat="43.59188" lon="3.73339">
        <ele>139.3</ele>
        <time>2011-04-09T07:55:08Z</time>
      </trkpt>
      <trkpt lat="43.59194" lon="3.73332">
        <ele>140.2</ele>
        <time>2011-04-09T07:55:11Z</time>
      </trkpt>
      <trkpt lat="43.592" lon="3.73326">
        <ele>140.9</ele>
        <time>2011-04-09T07:55:14Z</time>
      </trkpt>
      <trkpt lat="43.59205" lon="3.73319">
        <ele>141.1</ele>
        <time>2011-04-09T07:55:17Z</time>
      </trkpt>
      <trkpt lat="43.59211" lon="3.73313">
        <ele>141.1</ele>
        <time>2011-04-09T07:55:20Z</time>
      </trkpt>
      <trkpt lat="43.59217" lon="3.73304">
        <ele>141.8</ele>
        <time>2011-04-09T07:55:24Z</time>
      </trkpt>
      <trkpt lat="43.59224" lon="3.73297">
        <ele>142.7</ele>
        <time>2011-04-09T07:55:29Z</time>
      </trkpt>
      <trkpt lat="43.59229" lon="3.73288">
        <ele>145.6</ele>
        <time>2011-04-09T07:55:34Z</time>
      </trkpt>
      <trkpt lat="43.59235" lon="3.7328">
        <ele>146.3</ele>
        <time>2011-04-09T07:55:38Z</time>
      </trkpt>
      <trkpt lat="43.59241" lon="3.73272">
        <ele>147.5</ele>
        <time>2011-04-09T07:55:42Z</time>
      </trkpt>
      <trkpt lat="43.59246" lon="3.73265">
        <ele>148.9</ele>
        <time>2011-04-09T07:55:46Z</time>
      </trkpt>
      <trkpt lat="43.59251" lon="3.73257">
        <ele>149.9</ele>
        <time>2011-04-09T07:55:50Z</time>
      </trkpt>
      <trkpt lat="43.59256" lon="3.73249">
        <ele>150.8</ele>
        <time>2011-04-09T07:55:54Z</time>
      </trkpt>
      <trkpt lat="43.59261" lon="3.73239">
        <ele>152.5</ele>
        <time>2011-04-09T07:55:59Z</time>
      </trkpt>
      <trkpt lat="43.59267" lon="3.7323">
        <ele>153.8</ele>
        <time>2011-04-09T07:56:04Z</time>
      </trkpt>
      <trkpt lat="43.59268" lon="3.73227">
        <ele>153.5</ele>
        <time>2011-04-09T07:56:05Z</time>
      </trkpt>
      <trkpt lat="43.59276" lon="3.7321">
        <ele>155.2</ele>
        <time>2011-04-09T07:56:12Z</time>
      </trkpt>
      <trkpt lat="43.5928" lon="3.732">
        <ele>155.7</ele>
        <time>2011-04-09T07:56:16Z</time>
      </trkpt>
      <trkpt lat="43.59284" lon="3.73192">
        <ele>155.7</ele>
        <time>2011-04-09T07:56:19Z</time>
      </trkpt>
      <trkpt lat="43.59288" lon="3.73183">
        <ele>156.1</ele>
        <time>2011-04-09T07:56:22Z</time>
      </trkpt>
      <trkpt lat="43.59292" lon="3.73174">
        <ele>156.4</ele>
        <time>2011-04-09T07:56:25Z</time>
      </trkpt>
      <trkpt lat="43.59296" lon="3.73163">
        <ele>155.9</ele>
        <time>2011-04-09T07:56:28Z</time>
      </trkpt>
      <trkpt lat="43.59299" lon="3.73153">
        <ele>156.4</ele>
        <time>2011-04-09T07:56:31Z</time>
      </trkpt>
      <trkpt lat="43.59302" lon="3.73145">
        <ele>156.7</ele>
        <time>2011-04-09T07:56:33Z</time>
      </trkpt>
      <trkpt lat="43.5931" lon="3.73141">
        <ele>157.2</ele>
        <time>2011-04-09T07:56:36Z</time>
      </trkpt>
      <trkpt lat="43.59318" lon="3.73139">
        <ele>156.1</ele>
        <time>2011-04-09T07:56:40Z</time>
      </trkpt>
      <trkpt lat="43.59326" lon="3.73137">
        <ele>156.4</ele>
        <time>2011-04-09T07:56:46Z</time>
      </trkpt>
      <trkpt lat="43.59334" lon="3.73132">
        <ele>156.4</ele>
        <time>2011-04-09T07:56:53Z</time>
      </trkpt>
      <trkpt lat="43.59328" lon="3.73138">
        <ele>156.1</ele>
        <time>2011-04-09T07:57:18Z</time>
      </trkpt>
      <trkpt lat="43.59324" lon="3.73138">
        <ele>156.3</ele>
        <time>2011-04-09T07:57:35Z</time>
      </trkpt>
      <trkpt lat="43.59327" lon="3.73137">
        <ele>156.4</ele>
        <time>2011-04-09T07:59:53Z</time>
      </trkpt>
      <trkpt lat="43.59327" lon="3.73137">
        <ele>156.4</ele>
        <time>2011-04-09T07:59:54Z</time>
      </trkpt>
      <trkpt lat="43.59337" lon="3.73143">
        <ele>155.8</ele>
        <time>2011-04-09T08:03:59Z</time>
      </trkpt>
      <trkpt lat="43.59348" lon="3.73142">
        <ele>154.9</ele>
        <time>2011-04-09T08:04:03Z</time>
      </trkpt>
      <trkpt lat="43.59355" lon="3.73139">
        <ele>154.9</ele>
        <time>2011-04-09T08:04:05Z</time>
      </trkpt>
      <trkpt lat="43.5936" lon="3.73138">
        <ele>155</ele>
        <time>2011-04-09T08:04:06Z</time>
      </trkpt>
      <trkpt lat="43.59364" lon="3.73136">
        <ele>154.8</ele>
        <time>2011-04-09T08:04:07Z</time>
      </trkpt>
      <trkpt lat="43.59369" lon="3.73134">
        <ele>154.8</ele>
        <time>2011-04-09T08:04:08Z</time>
      </trkpt>
      <trkpt lat="43.59374" lon="3.73133">
        <ele>154.7</ele>
        <time>2011-04-09T08:04:09Z</time>
      </trkpt>
      <trkpt lat="43.59379" lon="3.73131">
        <ele>154.2</ele>
        <time>2011-04-09T08:04:10Z</time>
      </trkpt>
      <trkpt lat="43.59384" lon="3.73129">
        <ele>153.9</ele>
        <time>2011-04-09T08:04:11Z</time>
      </trkpt>
      <trkpt lat="43.59389" lon="3.73127">
        <ele>153.6</ele>
        <time>2011-04-09T08:04:12Z</time>
      </trkpt>
      <trkpt lat="43.59397" lon="3.73123">
        <ele>153.6</ele>
        <time>2011-04-09T08:04:14Z</time>
      </trkpt>
      <trkpt lat="43.59405" lon="3.7312">
        <ele>153.4</ele>
        <time>2011-04-09T08:04:16Z</time>
      </trkpt>
      <trkpt lat="43.59412" lon="3.73117">
        <ele>153.1</ele>
        <time>2011-04-09T08:04:18Z</time>
      </trkpt>
      <trkpt lat="43.59418" lon="3.73114">
        <ele>153.1</ele>
        <time>2011-04-09T08:04:20Z</time>
      </trkpt>
      <trkpt lat="43.59424" lon="3.73111">
        <ele>153.3</ele>
        <time>2011-04-09T08:04:22Z</time>
      </trkpt>
      <trkpt lat="43.59431" lon="3.73107">
        <ele>153.8</ele>
        <time>2011-04-09T08:04:24Z</time>
      </trkpt>
      <trkpt lat="43.59438" lon="3.73103">
        <ele>154.2</ele>
        <time>2011-04-09T08:04:26Z</time>
      </trkpt>
      <trkpt lat="43.59446" lon="3.73099">
        <ele>154.5</ele>
        <time>2011-04-09T08:04:28Z</time>
      </trkpt>
      <trkpt lat="43.59453" lon="3.73094">
        <ele>154.2</ele>
        <time>2011-04-09T08:04:30Z</time>
      </trkpt>
      <trkpt lat="43.59462" lon="3.7309">
        <ele>154.2</ele>
        <time>2011-04-09T08:04:32Z</time>
      </trkpt>
      <trkpt lat="43.59466" lon="3.73087">
        <ele>154.3</ele>
        <time>2011-04-09T08:04:33Z</time>
      </trkpt>
      <trkpt lat="43.5947" lon="3.73085">
        <ele>154.4</ele>
        <time>2011-04-09T08:04:34Z</time>
      </trkpt>
      <trkpt lat="43.59475" lon="3.73082">
        <ele>154.5</ele>
        <time>2011-04-09T08:04:35Z</time>
      </trkpt>
      <trkpt lat="43.59479" lon="3.73079">
        <ele>154.2</ele>
        <time>2011-04-09T08:04:36Z</time>
      </trkpt>
      <trkpt lat="43.59484" lon="3.73076">
        <ele>154</ele>
        <time>2011-04-09T08:04:37Z</time>
      </trkpt>
      <trkpt lat="43.59489" lon="3.73072">
        <ele>153.9</ele>
        <time>2011-04-09T08:04:38Z</time>
      </trkpt>
      <trkpt lat="43.59494" lon="3.73069">
        <ele>153.6</ele>
        <time>2011-04-09T08:04:39Z</time>
      </trkpt>
      <trkpt lat="43.59499" lon="3.73065">
        <ele>153.3</ele>
        <time>2011-04-09T08:04:40Z</time>
      </trkpt>
      <trkpt lat="43.59504" lon="3.73062">
        <ele>153.1</ele>
        <time>2011-04-09T08:04:41Z</time>
      </trkpt>
      <trkpt lat="43.59508" lon="3.73059">
        <ele>152.8</ele>
        <time>2011-04-09T08:04:42Z</time>
      </trkpt>
      <trkpt lat="43.59513" lon="3.73056">
        <ele>152.6</ele>
        <time>2011-04-09T08:04:43Z</time>
      </trkpt>
      <trkpt lat="43.59518" lon="3.73053">
        <ele>152.5</ele>
        <time>2011-04-09T08:04:44Z</time>
      </trkpt>
      <trkpt lat="43.59523" lon="3.7305">
        <ele>152.3</ele>
        <time>2011-04-09T08:04:45Z</time>
      </trkpt>
      <trkpt lat="43.59528" lon="3.73047">
        <ele>152.2</ele>
        <time>2011-04-09T08:04:46Z</time>
      </trkpt>
      <trkpt lat="43.59532" lon="3.73045">
        <ele>152.1</ele>
        <time>2011-04-09T08:04:47Z</time>
      </trkpt>
      <trkpt lat="43.59541" lon="3.73044">
        <ele>151.8</ele>
        <time>2011-04-09T08:04:49Z</time>
      </trkpt>
      <trkpt lat="43.59548" lon="3.73045">
        <ele>151.6</ele>
        <time>2011-04-09T08:04:51Z</time>
      </trkpt>
      <trkpt lat="43.59554" lon="3.73047">
        <ele>152.4</ele>
        <time>2011-04-09T08:04:53Z</time>
      </trkpt>
      <trkpt lat="43.59559" lon="3.73051">
        <ele>152.7</ele>
        <time>2011-04-09T08:04:55Z</time>
      </trkpt>
      <trkpt lat="43.59563" lon="3.73058">
        <ele>152.8</ele>
        <time>2011-04-09T08:04:57Z</time>
      </trkpt>
      <trkpt lat="43.59563" lon="3.7307">
        <ele>154</ele>
        <time>2011-04-09T08:05:00Z</time>
      </trkpt>
      <trkpt lat="43.59561" lon="3.73072">
        <ele>154.3</ele>
        <time>2011-04-09T08:05:01Z</time>
      </trkpt>
      <trkpt lat="43.59554" lon="3.73088">
        <ele>155.6</ele>
        <time>2011-04-09T08:05:07Z</time>
      </trkpt>
      <trkpt lat="43.59553" lon="3.731">
        <ele>155.9</ele>
        <time>2011-04-09T08:05:11Z</time>
      </trkpt>
      <trkpt lat="43.59551" lon="3.73109">
        <ele>156.9</ele>
        <time>2011-04-09T08:05:15Z</time>
      </trkpt>
      <trkpt lat="43.59549" lon="3.73122">
        <ele>157.5</ele>
        <time>2011-04-09T08:05:20Z</time>
      </trkpt>
      <trkpt lat="43.59549" lon="3.73133">
        <ele>158.8</ele>
        <time>2011-04-09T08:05:25Z</time>
      </trkpt>
      <trkpt lat="43.59546" lon="3.73143">
        <ele>161.1</ele>
        <time>2011-04-09T08:05:30Z</time>
      </trkpt>
      <trkpt lat="43.59543" lon="3.73153">
        <ele>161.6</ele>
        <time>2011-04-09T08:05:35Z</time>
      </trkpt>
      <trkpt lat="43.5954" lon="3.73162">
        <ele>163</ele>
        <time>2011-04-09T08:05:40Z</time>
      </trkpt>
      <trkpt lat="43.59538" lon="3.73173">
        <ele>164.5</ele>
        <time>2011-04-09T08:05:45Z</time>
      </trkpt>
      <trkpt lat="43.59536" lon="3.73183">
        <ele>165</ele>
        <time>2011-04-09T08:05:50Z</time>
      </trkpt>
      <trkpt lat="43.59537" lon="3.73194">
        <ele>167.3</ele>
        <time>2011-04-09T08:05:55Z</time>
      </trkpt>
      <trkpt lat="43.59539" lon="3.73206">
        <ele>168.3</ele>
        <time>2011-04-09T08:06:00Z</time>
      </trkpt>
      <trkpt lat="43.5954" lon="3.73218">
        <ele>168.7</ele>
        <time>2011-04-09T08:06:05Z</time>
      </trkpt>
      <trkpt lat="43.5954" lon="3.7322">
        <ele>168.8</ele>
        <time>2011-04-09T08:06:06Z</time>
      </trkpt>
      <trkpt lat="43.59542" lon="3.73238">
        <ele>170</ele>
        <time>2011-04-09T08:06:13Z</time>
      </trkpt>
      <trkpt lat="43.59543" lon="3.73249">
        <ele>170.3</ele>
        <time>2011-04-09T08:06:17Z</time>
      </trkpt>
      <trkpt lat="43.59543" lon="3.7326">
        <ele>171.1</ele>
        <time>2011-04-09T08:06:21Z</time>
      </trkpt>
      <trkpt lat="43.59543" lon="3.7327">
        <ele>172</ele>
        <time>2011-04-09T08:06:25Z</time>
      </trkpt>
      <trkpt lat="43.59545" lon="3.73282">
        <ele>173.2</ele>
        <time>2011-04-09T08:06:30Z</time>
      </trkpt>
      <trkpt lat="43.59547" lon="3.73292">
        <ele>174.3</ele>
        <time>2011-04-09T08:06:34Z</time>
      </trkpt>
      <trkpt lat="43.5955" lon="3.73303">
        <ele>174.5</ele>
        <time>2011-04-09T08:06:38Z</time>
      </trkpt>
      <trkpt lat="43.5955" lon="3.73315">
        <ele>174.9</ele>
        <time>2011-04-09T08:06:42Z</time>
      </trkpt>
      <trkpt lat="43.5955" lon="3.73325">
        <ele>177</ele>
        <time>2011-04-09T08:06:46Z</time>
      </trkpt>
      <trkpt lat="43.59551" lon="3.73336">
        <ele>177.5</ele>
        <time>2011-04-09T08:06:50Z</time>
      </trkpt>
      <trkpt lat="43.59549" lon="3.73346">
        <ele>177.4</ele>
        <time>2011-04-09T08:06:54Z</time>
      </trkpt>
      <trkpt lat="43.59548" lon="3.73357">
        <ele>179.4</ele>
        <time>2011-04-09T08:06:58Z</time>
      </trkpt>
      <trkpt lat="43.59551" lon="3.73366">
        <ele>179.8</ele>
        <time>2011-04-09T08:07:02Z</time>
      </trkpt>
      <trkpt lat="43.59558" lon="3.73374">
        <ele>180.3</ele>
        <time>2011-04-09T08:07:07Z</time>
      </trkpt>
      <trkpt lat="43.59559" lon="3.73376">
        <ele>180.4</ele>
        <time>2011-04-09T08:07:08Z</time>
      </trkpt>
      <trkpt lat="43.59567" lon="3.73394">
        <ele>183.5</ele>
        <time>2011-04-09T08:07:19Z</time>
      </trkpt>
      <trkpt lat="43.59574" lon="3.73399">
        <ele>185.2</ele>
        <time>2011-04-09T08:07:25Z</time>
      </trkpt>
      <trkpt lat="43.59581" lon="3.73403">
        <ele>186.8</ele>
        <time>2011-04-09T08:07:30Z</time>
      </trkpt>
      <trkpt lat="43.59588" lon="3.73407">
        <ele>188.4</ele>
        <time>2011-04-09T08:07:33Z</time>
      </trkpt>
      <trkpt lat="43.59593" lon="3.73411">
        <ele>187.4</ele>
        <time>2011-04-09T08:07:35Z</time>
      </trkpt>
      <trkpt lat="43.59598" lon="3.73415">
        <ele>186.9</ele>
        <time>2011-04-09T08:07:37Z</time>
      </trkpt>
      <trkpt lat="43.59603" lon="3.73421">
        <ele>186.1</ele>
        <time>2011-04-09T08:07:39Z</time>
      </trkpt>
      <trkpt lat="43.59609" lon="3.73427">
        <ele>185.8</ele>
        <time>2011-04-09T08:07:41Z</time>
      </trkpt>
      <trkpt lat="43.59616" lon="3.73434">
        <ele>185.8</ele>
        <time>2011-04-09T08:07:43Z</time>
      </trkpt>
      <trkpt lat="43.59622" lon="3.73441">
        <ele>185.1</ele>
        <time>2011-04-09T08:07:45Z</time>
      </trkpt>
      <trkpt lat="43.59626" lon="3.73446">
        <ele>184.9</ele>
        <time>2011-04-09T08:07:46Z</time>
      </trkpt>
      <trkpt lat="43.5963" lon="3.7345">
        <ele>184.5</ele>
        <time>2011-04-09T08:07:47Z</time>
      </trkpt>
      <trkpt lat="43.59644" lon="3.73471">
        <ele>183</ele>
        <time>2011-04-09T08:07:50Z</time>
      </trkpt>
      <trkpt lat="43.59651" lon="3.73479">
        <ele>183</ele>
        <time>2011-04-09T08:07:52Z</time>
      </trkpt>
      <trkpt lat="43.59657" lon="3.73483">
        <ele>182.1</ele>
        <time>2011-04-09T08:07:53Z</time>
      </trkpt>
      <trkpt lat="43.59663" lon="3.73486">
        <ele>181.4</ele>
        <time>2011-04-09T08:07:54Z</time>
      </trkpt>
      <trkpt lat="43.59669" lon="3.73489">
        <ele>180.9</ele>
        <time>2011-04-09T08:07:55Z</time>
      </trkpt>
      <trkpt lat="43.59676" lon="3.73492">
        <ele>180.5</ele>
        <time>2011-04-09T08:07:56Z</time>
      </trkpt>
      <trkpt lat="43.59683" lon="3.73495">
        <ele>179.7</ele>
        <time>2011-04-09T08:07:57Z</time>
      </trkpt>
      <trkpt lat="43.5969" lon="3.73499">
        <ele>179.1</ele>
        <time>2011-04-09T08:07:58Z</time>
      </trkpt>
      <trkpt lat="43.59696" lon="3.73502">
        <ele>178.6</ele>
        <time>2011-04-09T08:07:59Z</time>
      </trkpt>
      <trkpt lat="43.59702" lon="3.73504">
        <ele>178.7</ele>
        <time>2011-04-09T08:08:00Z</time>
      </trkpt>
      <trkpt lat="43.59707" lon="3.73506">
        <ele>178.7</ele>
        <time>2011-04-09T08:08:01Z</time>
      </trkpt>
      <trkpt lat="43.59711" lon="3.73507">
        <ele>178.7</ele>
        <time>2011-04-09T08:08:02Z</time>
      </trkpt>
      <trkpt lat="43.59716" lon="3.73508">
        <ele>178.6</ele>
        <time>2011-04-09T08:08:03Z</time>
      </trkpt>
      <trkpt lat="43.59721" lon="3.73508">
        <ele>178.4</ele>
        <time>2011-04-09T08:08:04Z</time>
      </trkpt>
      <trkpt lat="43.59726" lon="3.73509">
        <ele>178.3</ele>
        <time>2011-04-09T08:08:05Z</time>
      </trkpt>
      <trkpt lat="43.59731" lon="3.73509">
        <ele>178.1</ele>
        <time>2011-04-09T08:08:06Z</time>
      </trkpt>
      <trkpt lat="43.59737" lon="3.7351">
        <ele>177.9</ele>
        <time>2011-04-09T08:08:07Z</time>
      </trkpt>
      <trkpt lat="43.59742" lon="3.73511">
        <ele>177.7</ele>
        <time>2011-04-09T08:08:08Z</time>
      </trkpt>
      <trkpt lat="43.59748" lon="3.73511">
        <ele>177.4</ele>
        <time>2011-04-09T08:08:09Z</time>
      </trkpt>
      <trkpt lat="43.59753" lon="3.73511">
        <ele>177.1</ele>
        <time>2011-04-09T08:08:10Z</time>
      </trkpt>
      <trkpt lat="43.5976" lon="3.73513">
        <ele>176.9</ele>
        <time>2011-04-09T08:08:11Z</time>
      </trkpt>
      <trkpt lat="43.59766" lon="3.73514">
        <ele>176.8</ele>
        <time>2011-04-09T08:08:12Z</time>
      </trkpt>
      <trkpt lat="43.59772" lon="3.73515">
        <ele>176</ele>
        <time>2011-04-09T08:08:13Z</time>
      </trkpt>
      <trkpt lat="43.59778" lon="3.73512">
        <ele>175.4</ele>
        <time>2011-04-09T08:08:14Z</time>
      </trkpt>
      <trkpt lat="43.59784" lon="3.73508">
        <ele>175</ele>
        <time>2011-04-09T08:08:15Z</time>
      </trkpt>
      <trkpt lat="43.59791" lon="3.73506">
        <ele>173.5</ele>
        <time>2011-04-09T08:08:16Z</time>
      </trkpt>
      <trkpt lat="43.59798" lon="3.73505">
        <ele>172.5</ele>
        <time>2011-04-09T08:08:17Z</time>
      </trkpt>
      <trkpt lat="43.59805" lon="3.73503">
        <ele>171.7</ele>
        <time>2011-04-09T08:08:18Z</time>
      </trkpt>
      <trkpt lat="43.5981" lon="3.735">
        <ele>170.4</ele>
        <time>2011-04-09T08:08:19Z</time>
      </trkpt>
      <trkpt lat="43.59816" lon="3.73491">
        <ele>168.8</ele>
        <time>2011-04-09T08:08:21Z</time>
      </trkpt>
      <trkpt lat="43.59817" lon="3.73479">
        <ele>166.1</ele>
        <time>2011-04-09T08:08:23Z</time>
      </trkpt>
      <trkpt lat="43.59817" lon="3.73472">
        <ele>165.2</ele>
        <time>2011-04-09T08:08:24Z</time>
      </trkpt>
      <trkpt lat="43.59814" lon="3.73464">
        <ele>163.8</ele>
        <time>2011-04-09T08:08:25Z</time>
      </trkpt>
      <trkpt lat="43.59811" lon="3.73457">
        <ele>162.8</ele>
        <time>2011-04-09T08:08:26Z</time>
      </trkpt>
      <trkpt lat="43.59809" lon="3.73449">
        <ele>162</ele>
        <time>2011-04-09T08:08:27Z</time>
      </trkpt>
      <trkpt lat="43.59809" lon="3.73441">
        <ele>161.4</ele>
        <time>2011-04-09T08:08:28Z</time>
      </trkpt>
      <trkpt lat="43.59809" lon="3.73433">
        <ele>161.1</ele>
        <time>2011-04-09T08:08:29Z</time>
      </trkpt>
      <trkpt lat="43.59809" lon="3.73423">
        <ele>161</ele>
        <time>2011-04-09T08:08:30Z</time>
      </trkpt>
      <trkpt lat="43.59809" lon="3.73414">
        <ele>160.8</ele>
        <time>2011-04-09T08:08:31Z</time>
      </trkpt>
      <trkpt lat="43.59809" lon="3.73404">
        <ele>159.6</ele>
        <time>2011-04-09T08:08:32Z</time>
      </trkpt>
      <trkpt lat="43.59809" lon="3.73394">
        <ele>158.6</ele>
        <time>2011-04-09T08:08:33Z</time>
      </trkpt>
      <trkpt lat="43.59808" lon="3.73383">
        <ele>157.9</ele>
        <time>2011-04-09T08:08:34Z</time>
      </trkpt>
      <trkpt lat="43.59805" lon="3.73374">
        <ele>156.9</ele>
        <time>2011-04-09T08:08:35Z</time>
      </trkpt>
      <trkpt lat="43.598" lon="3.73366">
        <ele>156.1</ele>
        <time>2011-04-09T08:08:36Z</time>
      </trkpt>
      <trkpt lat="43.59795" lon="3.73361">
        <ele>155.6</ele>
        <time>2011-04-09T08:08:37Z</time>
      </trkpt>
      <trkpt lat="43.59789" lon="3.73358">
        <ele>155.3</ele>
        <time>2011-04-09T08:08:38Z</time>
      </trkpt>
      <trkpt lat="43.59783" lon="3.73356">
        <ele>155.2</ele>
        <time>2011-04-09T08:08:39Z</time>
      </trkpt>
      <trkpt lat="43.59777" lon="3.73355">
        <ele>155</ele>
        <time>2011-04-09T08:08:40Z</time>
      </trkpt>
      <trkpt lat="43.59771" lon="3.73355">
        <ele>154.7</ele>
        <time>2011-04-09T08:08:41Z</time>
      </trkpt>
      <trkpt lat="43.59765" lon="3.73356">
        <ele>154.4</ele>
        <time>2011-04-09T08:08:42Z</time>
      </trkpt>
      <trkpt lat="43.59759" lon="3.73356">
        <ele>154.2</ele>
        <time>2011-04-09T08:08:43Z</time>
      </trkpt>
      <trkpt lat="43.59754" lon="3.73357">
        <ele>154.1</ele>
        <time>2011-04-09T08:08:44Z</time>
      </trkpt>
      <trkpt lat="43.59748" lon="3.73359">
        <ele>153.8</ele>
        <time>2011-04-09T08:08:45Z</time>
      </trkpt>
      <trkpt lat="43.59742" lon="3.7336">
        <ele>153.6</ele>
        <time>2011-04-09T08:08:46Z</time>
      </trkpt>
      <trkpt lat="43.59736" lon="3.73359">
        <ele>153.4</ele>
        <time>2011-04-09T08:08:47Z</time>
      </trkpt>
      <trkpt lat="43.59731" lon="3.73356">
        <ele>153.4</ele>
        <time>2011-04-09T08:08:48Z</time>
      </trkpt>
      <trkpt lat="43.59728" lon="3.7335">
        <ele>153.4</ele>
        <time>2011-04-09T08:08:49Z</time>
      </trkpt>
      <trkpt lat="43.59727" lon="3.73343">
        <ele>153.4</ele>
        <time>2011-04-09T08:08:50Z</time>
      </trkpt>
      <trkpt lat="43.59728" lon="3.73336">
        <ele>153.3</ele>
        <time>2011-04-09T08:08:51Z</time>
      </trkpt>
      <trkpt lat="43.59729" lon="3.73329">
        <ele>153.3</ele>
        <time>2011-04-09T08:08:52Z</time>
      </trkpt>
      <trkpt lat="43.59731" lon="3.73322">
        <ele>153.3</ele>
        <time>2011-04-09T08:08:53Z</time>
      </trkpt>
      <trkpt lat="43.59733" lon="3.73315">
        <ele>153.1</ele>
        <time>2011-04-09T08:08:54Z</time>
      </trkpt>
      <trkpt lat="43.59736" lon="3.73308">
        <ele>153</ele>
        <time>2011-04-09T08:08:55Z</time>
      </trkpt>
      <trkpt lat="43.59738" lon="3.733">
        <ele>153</ele>
        <time>2011-04-09T08:08:56Z</time>
      </trkpt>
      <trkpt lat="43.5974" lon="3.73292">
        <ele>152.4</ele>
        <time>2011-04-09T08:08:57Z</time>
      </trkpt>
      <trkpt lat="43.59742" lon="3.73283">
        <ele>152</ele>
        <time>2011-04-09T08:08:58Z</time>
      </trkpt>
      <trkpt lat="43.59744" lon="3.73275">
        <ele>151.7</ele>
        <time>2011-04-09T08:08:59Z</time>
      </trkpt>
      <trkpt lat="43.59745" lon="3.73265">
        <ele>150.9</ele>
        <time>2011-04-09T08:09:00Z</time>
      </trkpt>
      <trkpt lat="43.59746" lon="3.73256">
        <ele>150.3</ele>
        <time>2011-04-09T08:09:01Z</time>
      </trkpt>
      <trkpt lat="43.59744" lon="3.73247">
        <ele>149.8</ele>
        <time>2011-04-09T08:09:02Z</time>
      </trkpt>
      <trkpt lat="43.59741" lon="3.73239">
        <ele>149.5</ele>
        <time>2011-04-09T08:09:03Z</time>
      </trkpt>
      <trkpt lat="43.59737" lon="3.73233">
        <ele>149.1</ele>
        <time>2011-04-09T08:09:04Z</time>
      </trkpt>
      <trkpt lat="43.59732" lon="3.73228">
        <ele>148.9</ele>
        <time>2011-04-09T08:09:05Z</time>
      </trkpt>
      <trkpt lat="43.59727" lon="3.73224">
        <ele>148.7</ele>
        <time>2011-04-09T08:09:06Z</time>
      </trkpt>
      <trkpt lat="43.59721" lon="3.7322">
        <ele>148.7</ele>
        <time>2011-04-09T08:09:07Z</time>
      </trkpt>
      <trkpt lat="43.59716" lon="3.73216">
        <ele>148.7</ele>
        <time>2011-04-09T08:09:08Z</time>
      </trkpt>
      <trkpt lat="43.59711" lon="3.73213">
        <ele>148.6</ele>
        <time>2011-04-09T08:09:09Z</time>
      </trkpt>
      <trkpt lat="43.59706" lon="3.73208">
        <ele>148.5</ele>
        <time>2011-04-09T08:09:10Z</time>
      </trkpt>
      <trkpt lat="43.59701" lon="3.73202">
        <ele>148.3</ele>
        <time>2011-04-09T08:09:11Z</time>
      </trkpt>
      <trkpt lat="43.59698" lon="3.73195">
        <ele>148.2</ele>
        <time>2011-04-09T08:09:12Z</time>
      </trkpt>
      <trkpt lat="43.59695" lon="3.73188">
        <ele>148.3</ele>
        <time>2011-04-09T08:09:13Z</time>
      </trkpt>
      <trkpt lat="43.59695" lon="3.7318">
        <ele>148.3</ele>
        <time>2011-04-09T08:09:14Z</time>
      </trkpt>
      <trkpt lat="43.59696" lon="3.73173">
        <ele>148.4</ele>
        <time>2011-04-09T08:09:15Z</time>
      </trkpt>
      <trkpt lat="43.59696" lon="3.73165">
        <ele>148.2</ele>
        <time>2011-04-09T08:09:16Z</time>
      </trkpt>
      <trkpt lat="43.59697" lon="3.73158">
        <ele>148.1</ele>
        <time>2011-04-09T08:09:17Z</time>
      </trkpt>
      <trkpt lat="43.59696" lon="3.7315">
        <ele>148</ele>
        <time>2011-04-09T08:09:18Z</time>
      </trkpt>
      <trkpt lat="43.59695" lon="3.73143">
        <ele>148</ele>
        <time>2011-04-09T08:09:19Z</time>
      </trkpt>
      <trkpt lat="43.59694" lon="3.73135">
        <ele>147.9</ele>
        <time>2011-04-09T08:09:20Z</time>
      </trkpt>
      <trkpt lat="43.59692" lon="3.73128">
        <ele>147.9</ele>
        <time>2011-04-09T08:09:21Z</time>
      </trkpt>
      <trkpt lat="43.59691" lon="3.73121">
        <ele>147.9</ele>
        <time>2011-04-09T08:09:22Z</time>
      </trkpt>
      <trkpt lat="43.5969" lon="3.73114">
        <ele>147.8</ele>
        <time>2011-04-09T08:09:23Z</time>
      </trkpt>
      <trkpt lat="43.59693" lon="3.73105">
        <ele>147.6</ele>
        <time>2011-04-09T08:09:25Z</time>
      </trkpt>
      <trkpt lat="43.59698" lon="3.73096">
        <ele>147.2</ele>
        <time>2011-04-09T08:09:27Z</time>
      </trkpt>
      <trkpt lat="43.59705" lon="3.73092">
        <ele>146.8</ele>
        <time>2011-04-09T08:09:29Z</time>
      </trkpt>
      <trkpt lat="43.59712" lon="3.7309">
        <ele>146.3</ele>
        <time>2011-04-09T08:09:31Z</time>
      </trkpt>
      <trkpt lat="43.59719" lon="3.73088">
        <ele>145.5</ele>
        <time>2011-04-09T08:09:33Z</time>
      </trkpt>
      <trkpt lat="43.59728" lon="3.73087">
        <ele>145</ele>
        <time>2011-04-09T08:09:35Z</time>
      </trkpt>
      <trkpt lat="43.59733" lon="3.73086">
        <ele>145.1</ele>
        <time>2011-04-09T08:09:36Z</time>
      </trkpt>
      <trkpt lat="43.59737" lon="3.73084">
        <ele>145.1</ele>
        <time>2011-04-09T08:09:37Z</time>
      </trkpt>
      <trkpt lat="43.59741" lon="3.73081">
        <ele>145.2</ele>
        <time>2011-04-09T08:09:38Z</time>
      </trkpt>
      <trkpt lat="43.59745" lon="3.73078">
        <ele>145.2</ele>
        <time>2011-04-09T08:09:39Z</time>
      </trkpt>
      <trkpt lat="43.5975" lon="3.73075">
        <ele>145.2</ele>
        <time>2011-04-09T08:09:40Z</time>
      </trkpt>
      <trkpt lat="43.59757" lon="3.73069">
        <ele>145</ele>
        <time>2011-04-09T08:09:42Z</time>
      </trkpt>
      <trkpt lat="43.59764" lon="3.73065">
        <ele>144.8</ele>
        <time>2011-04-09T08:09:44Z</time>
      </trkpt>
      <trkpt lat="43.59772" lon="3.73066">
        <ele>143.9</ele>
        <time>2011-04-09T08:10:00Z</time>
      </trkpt>
      <trkpt lat="43.5978" lon="3.73064">
        <ele>143.1</ele>
        <time>2011-04-09T08:10:04Z</time>
      </trkpt>
      <trkpt lat="43.59787" lon="3.73061">
        <ele>142.8</ele>
        <time>2011-04-09T08:10:07Z</time>
      </trkpt>
      <trkpt lat="43.59795" lon="3.7306">
        <ele>143.3</ele>
        <time>2011-04-09T08:10:10Z</time>
      </trkpt>
      <trkpt lat="43.59798" lon="3.73061">
        <ele>142.7</ele>
        <time>2011-04-09T08:10:11Z</time>
      </trkpt>
      <trkpt lat="43.59811" lon="3.73057">
        <ele>140.4</ele>
        <time>2011-04-09T08:10:17Z</time>
      </trkpt>
      <trkpt lat="43.59817" lon="3.73051">
        <ele>140.1</ele>
        <time>2011-04-09T08:10:20Z</time>
      </trkpt>
      <trkpt lat="43.5982" lon="3.73039">
        <ele>139.8</ele>
        <time>2011-04-09T08:10:23Z</time>
      </trkpt>
      <trkpt lat="43.59826" lon="3.73035">
        <ele>139.1</ele>
        <time>2011-04-09T08:10:26Z</time>
      </trkpt>
      <trkpt lat="43.59831" lon="3.73027">
        <ele>139.5</ele>
        <time>2011-04-09T08:10:29Z</time>
      </trkpt>
      <trkpt lat="43.59834" lon="3.73017">
        <ele>138.7</ele>
        <time>2011-04-09T08:10:32Z</time>
      </trkpt>
      <trkpt lat="43.59837" lon="3.73007">
        <ele>138.1</ele>
        <time>2011-04-09T08:10:35Z</time>
      </trkpt>
      <trkpt lat="43.59842" lon="3.72997">
        <ele>138.9</ele>
        <time>2011-04-09T08:10:38Z</time>
      </trkpt>
      <trkpt lat="43.59845" lon="3.7299">
        <ele>138.9</ele>
        <time>2011-04-09T08:10:40Z</time>
      </trkpt>
      <trkpt lat="43.5985" lon="3.72983">
        <ele>138.9</ele>
        <time>2011-04-09T08:10:42Z</time>
      </trkpt>
      <trkpt lat="43.59855" lon="3.72977">
        <ele>139</ele>
        <time>2011-04-09T08:10:44Z</time>
      </trkpt>
      <trkpt lat="43.5986" lon="3.72971">
        <ele>139</ele>
        <time>2011-04-09T08:10:46Z</time>
      </trkpt>
      <trkpt lat="43.59865" lon="3.72966">
        <ele>139</ele>
        <time>2011-04-09T08:10:48Z</time>
      </trkpt>
      <trkpt lat="43.59869" lon="3.72959">
        <ele>138.4</ele>
        <time>2011-04-09T08:10:50Z</time>
      </trkpt>
      <trkpt lat="43.59874" lon="3.72949">
        <ele>138.2</ele>
        <time>2011-04-09T08:10:53Z</time>
      </trkpt>
      <trkpt lat="43.59879" lon="3.72939">
        <ele>137.8</ele>
        <time>2011-04-09T08:10:56Z</time>
      </trkpt>
      <trkpt lat="43.59884" lon="3.72933">
        <ele>137.6</ele>
        <time>2011-04-09T08:10:58Z</time>
      </trkpt>
      <trkpt lat="43.5989" lon="3.72925">
        <ele>137.9</ele>
        <time>2011-04-09T08:11:01Z</time>
      </trkpt>
      <trkpt lat="43.59893" lon="3.72915">
        <ele>138.3</ele>
        <time>2011-04-09T08:11:04Z</time>
      </trkpt>
      <trkpt lat="43.59897" lon="3.72908">
        <ele>138.7</ele>
        <time>2011-04-09T08:11:06Z</time>
      </trkpt>
      <trkpt lat="43.59901" lon="3.72901">
        <ele>138.8</ele>
        <time>2011-04-09T08:11:08Z</time>
      </trkpt>
      <trkpt lat="43.59908" lon="3.72894">
        <ele>138.4</ele>
        <time>2011-04-09T08:11:11Z</time>
      </trkpt>
      <trkpt lat="43.5991" lon="3.72891">
        <ele>138.2</ele>
        <time>2011-04-09T08:11:12Z</time>
      </trkpt>
      <trkpt lat="43.59916" lon="3.72878">
        <ele>138</ele>
        <time>2011-04-09T08:11:15Z</time>
      </trkpt>
      <trkpt lat="43.59918" lon="3.7287">
        <ele>137.9</ele>
        <time>2011-04-09T08:11:17Z</time>
      </trkpt>
      <trkpt lat="43.59919" lon="3.72862">
        <ele>138.2</ele>
        <time>2011-04-09T08:11:19Z</time>
      </trkpt>
      <trkpt lat="43.59922" lon="3.72851">
        <ele>137.7</ele>
        <time>2011-04-09T08:11:22Z</time>
      </trkpt>
      <trkpt lat="43.59926" lon="3.7284">
        <ele>137.5</ele>
        <time>2011-04-09T08:11:25Z</time>
      </trkpt>
      <trkpt lat="43.5993" lon="3.72833">
        <ele>137.6</ele>
        <time>2011-04-09T08:11:27Z</time>
      </trkpt>
      <trkpt lat="43.59934" lon="3.72824">
        <ele>137.8</ele>
        <time>2011-04-09T08:11:30Z</time>
      </trkpt>
      <trkpt lat="43.59939" lon="3.72815">
        <ele>136.8</ele>
        <time>2011-04-09T08:11:33Z</time>
      </trkpt>
      <trkpt lat="43.59945" lon="3.72807">
        <ele>136.1</ele>
        <time>2011-04-09T08:11:36Z</time>
      </trkpt>
      <trkpt lat="43.59949" lon="3.728">
        <ele>136.6</ele>
        <time>2011-04-09T08:11:38Z</time>
      </trkpt>
      <trkpt lat="43.59953" lon="3.72794">
        <ele>136.9</ele>
        <time>2011-04-09T08:11:40Z</time>
      </trkpt>
      <trkpt lat="43.59958" lon="3.72785">
        <ele>137.3</ele>
        <time>2011-04-09T08:11:43Z</time>
      </trkpt>
      <trkpt lat="43.59964" lon="3.72779">
        <ele>137.7</ele>
        <time>2011-04-09T08:11:46Z</time>
      </trkpt>
      <trkpt lat="43.59971" lon="3.72774">
        <ele>138.9</ele>
        <time>2011-04-09T08:11:49Z</time>
      </trkpt>
      <trkpt lat="43.59978" lon="3.72771">
        <ele>138</ele>
        <time>2011-04-09T08:11:52Z</time>
      </trkpt>
      <trkpt lat="43.59983" lon="3.72765">
        <ele>138.3</ele>
        <time>2011-04-09T08:11:55Z</time>
      </trkpt>
      <trkpt lat="43.59987" lon="3.72757">
        <ele>139.7</ele>
        <time>2011-04-09T08:11:58Z</time>
      </trkpt>
      <trkpt lat="43.59991" lon="3.72747">
        <ele>140.5</ele>
        <time>2011-04-09T08:12:02Z</time>
      </trkpt>
      <trkpt lat="43.59995" lon="3.72737">
        <ele>140.7</ele>
        <time>2011-04-09T08:12:06Z</time>
      </trkpt>
      <trkpt lat="43.59997" lon="3.72725">
        <ele>141.2</ele>
        <time>2011-04-09T08:12:10Z</time>
      </trkpt>
      <trkpt lat="43.59995" lon="3.72714">
        <ele>141.7</ele>
        <time>2011-04-09T08:12:14Z</time>
      </trkpt>
      <trkpt lat="43.59994" lon="3.72711">
        <ele>141.9</ele>
        <time>2011-04-09T08:12:15Z</time>
      </trkpt>
      <trkpt lat="43.59984" lon="3.727">
        <ele>142.1</ele>
        <time>2011-04-09T08:12:21Z</time>
      </trkpt>
      <trkpt lat="43.59977" lon="3.72693">
        <ele>143.5</ele>
        <time>2011-04-09T08:12:24Z</time>
      </trkpt>
      <trkpt lat="43.5997" lon="3.72685">
        <ele>144.3</ele>
        <time>2011-04-09T08:12:27Z</time>
      </trkpt>
      <trkpt lat="43.59964" lon="3.72679">
        <ele>144.1</ele>
        <time>2011-04-09T08:12:30Z</time>
      </trkpt>
      <trkpt lat="43.59957" lon="3.72673">
        <ele>145</ele>
        <time>2011-04-09T08:12:33Z</time>
      </trkpt>
      <trkpt lat="43.59951" lon="3.72669">
        <ele>145.5</ele>
        <time>2011-04-09T08:12:35Z</time>
      </trkpt>
      <trkpt lat="43.59946" lon="3.72663">
        <ele>145.8</ele>
        <time>2011-04-09T08:12:37Z</time>
      </trkpt>
      <trkpt lat="43.5994" lon="3.72657">
        <ele>145.4</ele>
        <time>2011-04-09T08:12:39Z</time>
      </trkpt>
      <trkpt lat="43.59934" lon="3.72649">
        <ele>145</ele>
        <time>2011-04-09T08:12:41Z</time>
      </trkpt>
      <trkpt lat="43.59928" lon="3.7264">
        <ele>144.6</ele>
        <time>2011-04-09T08:12:43Z</time>
      </trkpt>
      <trkpt lat="43.59922" lon="3.72632">
        <ele>144.8</ele>
        <time>2011-04-09T08:12:45Z</time>
      </trkpt>
      <trkpt lat="43.59916" lon="3.72624">
        <ele>144.9</ele>
        <time>2011-04-09T08:12:47Z</time>
      </trkpt>
      <trkpt lat="43.5991" lon="3.72617">
        <ele>144.9</ele>
        <time>2011-04-09T08:12:49Z</time>
      </trkpt>
      <trkpt lat="43.59904" lon="3.72609">
        <ele>144.4</ele>
        <time>2011-04-09T08:12:51Z</time>
      </trkpt>
      <trkpt lat="43.59897" lon="3.72602">
        <ele>144.1</ele>
        <time>2011-04-09T08:12:53Z</time>
      </trkpt>
      <trkpt lat="43.59893" lon="3.72599">
        <ele>144.6</ele>
        <time>2011-04-09T08:12:54Z</time>
      </trkpt>
      <trkpt lat="43.59889" lon="3.72595">
        <ele>144.9</ele>
        <time>2011-04-09T08:12:55Z</time>
      </trkpt>
      <trkpt lat="43.59885" lon="3.72592">
        <ele>145.2</ele>
        <time>2011-04-09T08:12:56Z</time>
      </trkpt>
      <trkpt lat="43.5988" lon="3.7259">
        <ele>144.8</ele>
        <time>2011-04-09T08:12:57Z</time>
      </trkpt>
      <trkpt lat="43.59876" lon="3.72587">
        <ele>144.5</ele>
        <time>2011-04-09T08:12:58Z</time>
      </trkpt>
      <trkpt lat="43.59872" lon="3.72583">
        <ele>144.3</ele>
        <time>2011-04-09T08:12:59Z</time>
      </trkpt>
      <trkpt lat="43.59868" lon="3.7258">
        <ele>144.4</ele>
        <time>2011-04-09T08:13:00Z</time>
      </trkpt>
      <trkpt lat="43.59864" lon="3.72576">
        <ele>144.5</ele>
        <time>2011-04-09T08:13:01Z</time>
      </trkpt>
      <trkpt lat="43.59857" lon="3.72568">
        <ele>144.1</ele>
        <time>2011-04-09T08:13:03Z</time>
      </trkpt>
      <trkpt lat="43.59853" lon="3.7256">
        <ele>143.6</ele>
        <time>2011-04-09T08:13:05Z</time>
      </trkpt>
      <trkpt lat="43.5985" lon="3.72552">
        <ele>144.1</ele>
        <time>2011-04-09T08:13:07Z</time>
      </trkpt>
      <trkpt lat="43.59847" lon="3.72546">
        <ele>144.4</ele>
        <time>2011-04-09T08:13:09Z</time>
      </trkpt>
      <trkpt lat="43.59842" lon="3.72535">
        <ele>145</ele>
        <time>2011-04-09T08:13:12Z</time>
      </trkpt>
      <trkpt lat="43.59839" lon="3.72528">
        <ele>145.5</ele>
        <time>2011-04-09T08:13:14Z</time>
      </trkpt>
      <trkpt lat="43.59834" lon="3.72522">
        <ele>146</ele>
        <time>2011-04-09T08:13:16Z</time>
      </trkpt>
      <trkpt lat="43.59832" lon="3.72519">
        <ele>146.3</ele>
        <time>2011-04-09T08:13:17Z</time>
      </trkpt>
      <trkpt lat="43.59824" lon="3.72507">
        <ele>146.9</ele>
        <time>2011-04-09T08:13:21Z</time>
      </trkpt>
      <trkpt lat="43.59819" lon="3.72497">
        <ele>147.8</ele>
        <time>2011-04-09T08:13:24Z</time>
      </trkpt>
      <trkpt lat="43.59814" lon="3.72488">
        <ele>148.8</ele>
        <time>2011-04-09T08:13:27Z</time>
      </trkpt>
      <trkpt lat="43.59808" lon="3.72481">
        <ele>149.4</ele>
        <time>2011-04-09T08:13:30Z</time>
      </trkpt>
      <trkpt lat="43.59802" lon="3.72474">
        <ele>149.5</ele>
        <time>2011-04-09T08:13:33Z</time>
      </trkpt>
      <trkpt lat="43.59796" lon="3.72467">
        <ele>150.2</ele>
        <time>2011-04-09T08:13:36Z</time>
      </trkpt>
      <trkpt lat="43.5979" lon="3.7246">
        <ele>150.5</ele>
        <time>2011-04-09T08:13:39Z</time>
      </trkpt>
      <trkpt lat="43.59784" lon="3.72453">
        <ele>151</ele>
        <time>2011-04-09T08:13:42Z</time>
      </trkpt>
      <trkpt lat="43.59778" lon="3.72447">
        <ele>151.7</ele>
        <time>2011-04-09T08:13:45Z</time>
      </trkpt>
      <trkpt lat="43.59772" lon="3.7244">
        <ele>152.7</ele>
        <time>2011-04-09T08:13:48Z</time>
      </trkpt>
      <trkpt lat="43.59767" lon="3.72434">
        <ele>153.8</ele>
        <time>2011-04-09T08:13:51Z</time>
      </trkpt>
      <trkpt lat="43.5976" lon="3.72428">
        <ele>154.5</ele>
        <time>2011-04-09T08:13:54Z</time>
      </trkpt>
      <trkpt lat="43.59755" lon="3.7242">
        <ele>155</ele>
        <time>2011-04-09T08:13:57Z</time>
      </trkpt>
      <trkpt lat="43.59751" lon="3.72411">
        <ele>155.7</ele>
        <time>2011-04-09T08:14:00Z</time>
      </trkpt>
      <trkpt lat="43.59748" lon="3.72403">
        <ele>156.4</ele>
        <time>2011-04-09T08:14:03Z</time>
      </trkpt>
      <trkpt lat="43.59745" lon="3.72393">
        <ele>156.5</ele>
        <time>2011-04-09T08:14:06Z</time>
      </trkpt>
      <trkpt lat="43.59743" lon="3.72384">
        <ele>156.7</ele>
        <time>2011-04-09T08:14:09Z</time>
      </trkpt>
      <trkpt lat="43.5974" lon="3.72374">
        <ele>157.3</ele>
        <time>2011-04-09T08:14:12Z</time>
      </trkpt>
      <trkpt lat="43.59738" lon="3.72364">
        <ele>156.8</ele>
        <time>2011-04-09T08:14:15Z</time>
      </trkpt>
      <trkpt lat="43.59736" lon="3.72353">
        <ele>157.4</ele>
        <time>2011-04-09T08:14:18Z</time>
      </trkpt>
      <trkpt lat="43.59735" lon="3.72349">
        <ele>157.7</ele>
        <time>2011-04-09T08:14:19Z</time>
      </trkpt>
      <trkpt lat="43.59734" lon="3.72332">
        <ele>158.2</ele>
        <time>2011-04-09T08:14:23Z</time>
      </trkpt>
      <trkpt lat="43.59733" lon="3.72324">
        <ele>158.9</ele>
        <time>2011-04-09T08:14:25Z</time>
      </trkpt>
      <trkpt lat="43.59732" lon="3.72315">
        <ele>159.4</ele>
        <time>2011-04-09T08:14:27Z</time>
      </trkpt>
      <trkpt lat="43.59731" lon="3.72307">
        <ele>159.5</ele>
        <time>2011-04-09T08:14:29Z</time>
      </trkpt>
      <trkpt lat="43.5973" lon="3.72295">
        <ele>159.7</ele>
        <time>2011-04-09T08:14:32Z</time>
      </trkpt>
      <trkpt lat="43.59729" lon="3.72287">
        <ele>160.2</ele>
        <time>2011-04-09T08:14:34Z</time>
      </trkpt>
      <trkpt lat="43.59728" lon="3.72278">
        <ele>160.5</ele>
        <time>2011-04-09T08:14:36Z</time>
      </trkpt>
      <trkpt lat="43.59727" lon="3.7227">
        <ele>160.6</ele>
        <time>2011-04-09T08:14:38Z</time>
      </trkpt>
      <trkpt lat="43.59726" lon="3.72262">
        <ele>160.8</ele>
        <time>2011-04-09T08:14:40Z</time>
      </trkpt>
      <trkpt lat="43.59726" lon="3.72253">
        <ele>161</ele>
        <time>2011-04-09T08:14:42Z</time>
      </trkpt>
      <trkpt lat="43.59725" lon="3.72245">
        <ele>161.3</ele>
        <time>2011-04-09T08:14:44Z</time>
      </trkpt>
      <trkpt lat="43.59725" lon="3.72237">
        <ele>161.3</ele>
        <time>2011-04-09T08:14:46Z</time>
      </trkpt>
      <trkpt lat="43.59725" lon="3.72228">
        <ele>161.3</ele>
        <time>2011-04-09T08:14:48Z</time>
      </trkpt>
      <trkpt lat="43.59725" lon="3.72218">
        <ele>161.4</ele>
        <time>2011-04-09T08:14:50Z</time>
      </trkpt>
      <trkpt lat="43.59724" lon="3.72209">
        <ele>161.6</ele>
        <time>2011-04-09T08:14:52Z</time>
      </trkpt>
      <trkpt lat="43.59725" lon="3.72201">
        <ele>161.8</ele>
        <time>2011-04-09T08:14:54Z</time>
      </trkpt>
      <trkpt lat="43.59724" lon="3.72192">
        <ele>161.2</ele>
        <time>2011-04-09T08:14:56Z</time>
      </trkpt>
      <trkpt lat="43.59723" lon="3.7218">
        <ele>161.8</ele>
        <time>2011-04-09T08:14:59Z</time>
      </trkpt>
      <trkpt lat="43.59722" lon="3.72169">
        <ele>162.3</ele>
        <time>2011-04-09T08:15:02Z</time>
      </trkpt>
      <trkpt lat="43.59721" lon="3.72159">
        <ele>162.1</ele>
        <time>2011-04-09T08:15:05Z</time>
      </trkpt>
      <trkpt lat="43.59719" lon="3.72148">
        <ele>162.6</ele>
        <time>2011-04-09T08:15:08Z</time>
      </trkpt>
      <trkpt lat="43.59716" lon="3.72138">
        <ele>163.5</ele>
        <time>2011-04-09T08:15:11Z</time>
      </trkpt>
      <trkpt lat="43.59716" lon="3.72126">
        <ele>164.7</ele>
        <time>2011-04-09T08:15:15Z</time>
      </trkpt>
      <trkpt lat="43.59718" lon="3.72117">
        <ele>166.3</ele>
        <time>2011-04-09T08:15:18Z</time>
      </trkpt>
      <trkpt lat="43.59721" lon="3.72108">
        <ele>167.3</ele>
        <time>2011-04-09T08:15:21Z</time>
      </trkpt>
      <trkpt lat="43.59722" lon="3.72106">
        <ele>167.5</ele>
        <time>2011-04-09T08:15:22Z</time>
      </trkpt>
      <trkpt lat="43.59726" lon="3.72088">
        <ele>168.8</ele>
        <time>2011-04-09T08:15:28Z</time>
      </trkpt>
      <trkpt lat="43.59726" lon="3.72078">
        <ele>169.6</ele>
        <time>2011-04-09T08:15:31Z</time>
      </trkpt>
      <trkpt lat="43.59723" lon="3.72069">
        <ele>171.1</ele>
        <time>2011-04-09T08:15:34Z</time>
      </trkpt>
      <trkpt lat="43.5972" lon="3.72058">
        <ele>172.1</ele>
        <time>2011-04-09T08:15:38Z</time>
      </trkpt>
      <trkpt lat="43.59718" lon="3.72046">
        <ele>172.2</ele>
        <time>2011-04-09T08:15:42Z</time>
      </trkpt>
      <trkpt lat="43.59718" lon="3.72034">
        <ele>172.6</ele>
        <time>2011-04-09T08:15:46Z</time>
      </trkpt>
      <trkpt lat="43.59718" lon="3.72022">
        <ele>173.2</ele>
        <time>2011-04-09T08:15:50Z</time>
      </trkpt>
      <trkpt lat="43.59719" lon="3.7201">
        <ele>173.9</ele>
        <time>2011-04-09T08:15:54Z</time>
      </trkpt>
      <trkpt lat="43.5972" lon="3.71999">
        <ele>174.4</ele>
        <time>2011-04-09T08:15:58Z</time>
      </trkpt>
      <trkpt lat="43.59721" lon="3.71989">
        <ele>175.5</ele>
        <time>2011-04-09T08:16:02Z</time>
      </trkpt>
      <trkpt lat="43.59723" lon="3.71979">
        <ele>176.3</ele>
        <time>2011-04-09T08:16:06Z</time>
      </trkpt>
      <trkpt lat="43.59726" lon="3.71967">
        <ele>177.9</ele>
        <time>2011-04-09T08:16:11Z</time>
      </trkpt>
      <trkpt lat="43.59728" lon="3.71958">
        <ele>179.1</ele>
        <time>2011-04-09T08:16:15Z</time>
      </trkpt>
      <trkpt lat="43.59728" lon="3.71946">
        <ele>180.7</ele>
        <time>2011-04-09T08:16:20Z</time>
      </trkpt>
      <trkpt lat="43.59726" lon="3.71934">
        <ele>181.3</ele>
        <time>2011-04-09T08:16:25Z</time>
      </trkpt>
      <trkpt lat="43.59726" lon="3.71932">
        <ele>181.5</ele>
        <time>2011-04-09T08:16:26Z</time>
      </trkpt>
      <trkpt lat="43.59727" lon="3.71912">
        <ele>184.1</ele>
        <time>2011-04-09T08:16:34Z</time>
      </trkpt>
      <trkpt lat="43.59729" lon="3.71902">
        <ele>184</ele>
        <time>2011-04-09T08:16:38Z</time>
      </trkpt>
      <trkpt lat="43.59731" lon="3.71892">
        <ele>185.2</ele>
        <time>2011-04-09T08:16:42Z</time>
      </trkpt>
      <trkpt lat="43.59734" lon="3.71881">
        <ele>185.3</ele>
        <time>2011-04-09T08:16:46Z</time>
      </trkpt>
      <trkpt lat="43.59737" lon="3.71869">
        <ele>186.2</ele>
        <time>2011-04-09T08:16:50Z</time>
      </trkpt>
      <trkpt lat="43.59741" lon="3.71858">
        <ele>186.2</ele>
        <time>2011-04-09T08:16:54Z</time>
      </trkpt>
      <trkpt lat="43.59744" lon="3.7185">
        <ele>186.7</ele>
        <time>2011-04-09T08:16:57Z</time>
      </trkpt>
      <trkpt lat="43.59748" lon="3.71841">
        <ele>187.1</ele>
        <time>2011-04-09T08:17:00Z</time>
      </trkpt>
      <trkpt lat="43.59753" lon="3.71832">
        <ele>187.7</ele>
        <time>2011-04-09T08:17:03Z</time>
      </trkpt>
      <trkpt lat="43.59757" lon="3.71823">
        <ele>188.4</ele>
        <time>2011-04-09T08:17:06Z</time>
      </trkpt>
      <trkpt lat="43.59761" lon="3.71813">
        <ele>188.5</ele>
        <time>2011-04-09T08:17:09Z</time>
      </trkpt>
      <trkpt lat="43.59765" lon="3.71804">
        <ele>188.4</ele>
        <time>2011-04-09T08:17:12Z</time>
      </trkpt>
      <trkpt lat="43.59769" lon="3.71796">
        <ele>189.1</ele>
        <time>2011-04-09T08:17:15Z</time>
      </trkpt>
      <trkpt lat="43.59772" lon="3.71787">
        <ele>190.2</ele>
        <time>2011-04-09T08:17:18Z</time>
      </trkpt>
      <trkpt lat="43.59776" lon="3.71779">
        <ele>191</ele>
        <time>2011-04-09T08:17:21Z</time>
      </trkpt>
      <trkpt lat="43.59781" lon="3.71771">
        <ele>191.5</ele>
        <time>2011-04-09T08:17:25Z</time>
      </trkpt>
      <trkpt lat="43.59786" lon="3.71764">
        <ele>192.7</ele>
        <time>2011-04-09T08:17:28Z</time>
      </trkpt>
      <trkpt lat="43.59788" lon="3.71762">
        <ele>192.9</ele>
        <time>2011-04-09T08:17:29Z</time>
      </trkpt>
      <trkpt lat="43.59798" lon="3.71754">
        <ele>193.4</ele>
        <time>2011-04-09T08:17:34Z</time>
      </trkpt>
      <trkpt lat="43.59806" lon="3.71752">
        <ele>193.4</ele>
        <time>2011-04-09T08:17:37Z</time>
      </trkpt>
      <trkpt lat="43.59813" lon="3.7175">
        <ele>194</ele>
        <time>2011-04-09T08:17:40Z</time>
      </trkpt>
      <trkpt lat="43.59822" lon="3.7175">
        <ele>193.7</ele>
        <time>2011-04-09T08:17:44Z</time>
      </trkpt>
      <trkpt lat="43.59829" lon="3.71752">
        <ele>193.8</ele>
        <time>2011-04-09T08:17:48Z</time>
      </trkpt>
      <trkpt lat="43.59838" lon="3.71753">
        <ele>193.4</ele>
        <time>2011-04-09T08:17:52Z</time>
      </trkpt>
      <trkpt lat="43.59847" lon="3.71751">
        <ele>194</ele>
        <time>2011-04-09T08:17:56Z</time>
      </trkpt>
      <trkpt lat="43.59855" lon="3.71747">
        <ele>195.3</ele>
        <time>2011-04-09T08:18:02Z</time>
      </trkpt>
      <trkpt lat="43.59862" lon="3.71745">
        <ele>197.4</ele>
        <time>2011-04-09T08:18:07Z</time>
      </trkpt>
      <trkpt lat="43.5987" lon="3.71742">
        <ele>197.9</ele>
        <time>2011-04-09T08:18:12Z</time>
      </trkpt>
      <trkpt lat="43.59878" lon="3.71742">
        <ele>199.3</ele>
        <time>2011-04-09T08:18:18Z</time>
      </trkpt>
      <trkpt lat="43.59886" lon="3.71743">
        <ele>201.1</ele>
        <time>2011-04-09T08:18:24Z</time>
      </trkpt>
      <trkpt lat="43.59894" lon="3.71746">
        <ele>202.9</ele>
        <time>2011-04-09T08:18:30Z</time>
      </trkpt>
      <trkpt lat="43.59895" lon="3.71747">
        <ele>203.1</ele>
        <time>2011-04-09T08:18:31Z</time>
      </trkpt>
      <trkpt lat="43.5991" lon="3.71747">
        <ele>205.5</ele>
        <time>2011-04-09T08:18:42Z</time>
      </trkpt>
      <trkpt lat="43.59916" lon="3.7174">
        <ele>206.7</ele>
        <time>2011-04-09T08:18:48Z</time>
      </trkpt>
      <trkpt lat="43.59923" lon="3.71735">
        <ele>207.6</ele>
        <time>2011-04-09T08:18:53Z</time>
      </trkpt>
      <trkpt lat="43.59931" lon="3.71735">
        <ele>209.1</ele>
        <time>2011-04-09T08:18:58Z</time>
      </trkpt>
      <trkpt lat="43.59937" lon="3.7174">
        <ele>209.4</ele>
        <time>2011-04-09T08:19:03Z</time>
      </trkpt>
      <trkpt lat="43.59944" lon="3.71749">
        <ele>210.4</ele>
        <time>2011-04-09T08:19:08Z</time>
      </trkpt>
      <trkpt lat="43.59949" lon="3.71756">
        <ele>211.4</ele>
        <time>2011-04-09T08:19:14Z</time>
      </trkpt>
      <trkpt lat="43.59955" lon="3.71765">
        <ele>211.5</ele>
        <time>2011-04-09T08:19:19Z</time>
      </trkpt>
      <trkpt lat="43.59961" lon="3.71772">
        <ele>212.8</ele>
        <time>2011-04-09T08:19:23Z</time>
      </trkpt>
      <trkpt lat="43.59967" lon="3.71779">
        <ele>213</ele>
        <time>2011-04-09T08:19:27Z</time>
      </trkpt>
      <trkpt lat="43.59975" lon="3.71786">
        <ele>213.2</ele>
        <time>2011-04-09T08:19:31Z</time>
      </trkpt>
      <trkpt lat="43.59977" lon="3.71788">
        <ele>213.2</ele>
        <time>2011-04-09T08:19:32Z</time>
      </trkpt>
      <trkpt lat="43.59989" lon="3.718">
        <ele>213.5</ele>
        <time>2011-04-09T08:19:39Z</time>
      </trkpt>
      <trkpt lat="43.59996" lon="3.71807">
        <ele>213.9</ele>
        <time>2011-04-09T08:19:43Z</time>
      </trkpt>
      <trkpt lat="43.60002" lon="3.71814">
        <ele>215.1</ele>
        <time>2011-04-09T08:19:47Z</time>
      </trkpt>
      <trkpt lat="43.60009" lon="3.71821">
        <ele>215.7</ele>
        <time>2011-04-09T08:19:51Z</time>
      </trkpt>
      <trkpt lat="43.60016" lon="3.71827">
        <ele>216.8</ele>
        <time>2011-04-09T08:19:55Z</time>
      </trkpt>
      <trkpt lat="43.60023" lon="3.71832">
        <ele>217.9</ele>
        <time>2011-04-09T08:19:59Z</time>
      </trkpt>
      <trkpt lat="43.6003" lon="3.71836">
        <ele>218.7</ele>
        <time>2011-04-09T08:20:02Z</time>
      </trkpt>
      <trkpt lat="43.60036" lon="3.71839">
        <ele>218.8</ele>
        <time>2011-04-09T08:20:05Z</time>
      </trkpt>
      <trkpt lat="43.60043" lon="3.71842">
        <ele>219</ele>
        <time>2011-04-09T08:20:08Z</time>
      </trkpt>
      <trkpt lat="43.6005" lon="3.71844">
        <ele>219.7</ele>
        <time>2011-04-09T08:20:11Z</time>
      </trkpt>
      <trkpt lat="43.60058" lon="3.71847">
        <ele>220.1</ele>
        <time>2011-04-09T08:20:14Z</time>
      </trkpt>
      <trkpt lat="43.60065" lon="3.7185">
        <ele>220.6</ele>
        <time>2011-04-09T08:20:17Z</time>
      </trkpt>
      <trkpt lat="43.60073" lon="3.71854">
        <ele>221.4</ele>
        <time>2011-04-09T08:20:21Z</time>
      </trkpt>
      <trkpt lat="43.60081" lon="3.7186">
        <ele>221.8</ele>
        <time>2011-04-09T08:20:25Z</time>
      </trkpt>
      <trkpt lat="43.60088" lon="3.71865">
        <ele>222.8</ele>
        <time>2011-04-09T08:20:29Z</time>
      </trkpt>
      <trkpt lat="43.60095" lon="3.71871">
        <ele>224.7</ele>
        <time>2011-04-09T08:20:33Z</time>
      </trkpt>
      <trkpt lat="43.60097" lon="3.71873">
        <ele>224.9</ele>
        <time>2011-04-09T08:20:34Z</time>
      </trkpt>
      <trkpt lat="43.60106" lon="3.71882">
        <ele>225.8</ele>
        <time>2011-04-09T08:20:39Z</time>
      </trkpt>
      <trkpt lat="43.60111" lon="3.71889">
        <ele>225.8</ele>
        <time>2011-04-09T08:20:42Z</time>
      </trkpt>
      <trkpt lat="43.60116" lon="3.71897">
        <ele>225.6</ele>
        <time>2011-04-09T08:20:45Z</time>
      </trkpt>
      <trkpt lat="43.6012" lon="3.71907">
        <ele>225.8</ele>
        <time>2011-04-09T08:20:48Z</time>
      </trkpt>
      <trkpt lat="43.60124" lon="3.71917">
        <ele>226.9</ele>
        <time>2011-04-09T08:20:51Z</time>
      </trkpt>
      <trkpt lat="43.60128" lon="3.71928">
        <ele>227.6</ele>
        <time>2011-04-09T08:20:54Z</time>
      </trkpt>
      <trkpt lat="43.60132" lon="3.71938">
        <ele>227.7</ele>
        <time>2011-04-09T08:20:57Z</time>
      </trkpt>
      <trkpt lat="43.60135" lon="3.71946">
        <ele>227.6</ele>
        <time>2011-04-09T08:20:59Z</time>
      </trkpt>
      <trkpt lat="43.60138" lon="3.71953">
        <ele>227.5</ele>
        <time>2011-04-09T08:21:01Z</time>
      </trkpt>
      <trkpt lat="43.60141" lon="3.71961">
        <ele>227.4</ele>
        <time>2011-04-09T08:21:03Z</time>
      </trkpt>
      <trkpt lat="43.60145" lon="3.71969">
        <ele>227.8</ele>
        <time>2011-04-09T08:21:05Z</time>
      </trkpt>
      <trkpt lat="43.60148" lon="3.71977">
        <ele>228.2</ele>
        <time>2011-04-09T08:21:07Z</time>
      </trkpt>
      <trkpt lat="43.6015" lon="3.71986">
        <ele>228</ele>
        <time>2011-04-09T08:21:09Z</time>
      </trkpt>
      <trkpt lat="43.60152" lon="3.71994">
        <ele>227.9</ele>
        <time>2011-04-09T08:21:11Z</time>
      </trkpt>
      <trkpt lat="43.60154" lon="3.72002">
        <ele>228.6</ele>
        <time>2011-04-09T08:21:13Z</time>
      </trkpt>
      <trkpt lat="43.60157" lon="3.72011">
        <ele>229</ele>
        <time>2011-04-09T08:21:15Z</time>
      </trkpt>
      <trkpt lat="43.60162" lon="3.72019">
        <ele>229.1</ele>
        <time>2011-04-09T08:21:17Z</time>
      </trkpt>
      <trkpt lat="43.60167" lon="3.72025">
        <ele>229.6</ele>
        <time>2011-04-09T08:21:19Z</time>
      </trkpt>
      <trkpt lat="43.60173" lon="3.72029">
        <ele>229.9</ele>
        <time>2011-04-09T08:21:21Z</time>
      </trkpt>
      <trkpt lat="43.60181" lon="3.72032">
        <ele>230.1</ele>
        <time>2011-04-09T08:21:24Z</time>
      </trkpt>
      <trkpt lat="43.60189" lon="3.72032">
        <ele>230.2</ele>
        <time>2011-04-09T08:21:27Z</time>
      </trkpt>
      <trkpt lat="43.60197" lon="3.7203">
        <ele>230.3</ele>
        <time>2011-04-09T08:21:30Z</time>
      </trkpt>
      <trkpt lat="43.60203" lon="3.72025">
        <ele>230.9</ele>
        <time>2011-04-09T08:21:33Z</time>
      </trkpt>
      <trkpt lat="43.60209" lon="3.72018">
        <ele>232</ele>
        <time>2011-04-09T08:21:36Z</time>
      </trkpt>
      <trkpt lat="43.60211" lon="3.72016">
        <ele>232.5</ele>
        <time>2011-04-09T08:21:37Z</time>
      </trkpt>
      <trkpt lat="43.60221" lon="3.72005">
        <ele>233.3</ele>
        <time>2011-04-09T08:21:42Z</time>
      </trkpt>
      <trkpt lat="43.60229" lon="3.72">
        <ele>232.5</ele>
        <time>2011-04-09T08:21:45Z</time>
      </trkpt>
      <trkpt lat="43.60237" lon="3.72">
        <ele>233.1</ele>
        <time>2011-04-09T08:21:48Z</time>
      </trkpt>
      <trkpt lat="43.60243" lon="3.72006">
        <ele>234.4</ele>
        <time>2011-04-09T08:21:51Z</time>
      </trkpt>
      <trkpt lat="43.60248" lon="3.72014">
        <ele>235</ele>
        <time>2011-04-09T08:21:54Z</time>
      </trkpt>
      <trkpt lat="43.60252" lon="3.72022">
        <ele>236</ele>
        <time>2011-04-09T08:21:57Z</time>
      </trkpt>
      <trkpt lat="43.60257" lon="3.7203">
        <ele>236.8</ele>
        <time>2011-04-09T08:22:00Z</time>
      </trkpt>
      <trkpt lat="43.60261" lon="3.72039">
        <ele>237.1</ele>
        <time>2011-04-09T08:22:04Z</time>
      </trkpt>
      <trkpt lat="43.60267" lon="3.72048">
        <ele>236.9</ele>
        <time>2011-04-09T08:24:37Z</time>
      </trkpt>
      <trkpt lat="43.60267" lon="3.72049">
        <ele>237</ele>
        <time>2011-04-09T08:24:38Z</time>
      </trkpt>
      <trkpt lat="43.60282" lon="3.72054">
        <ele>235.1</ele>
        <time>2011-04-09T08:24:47Z</time>
      </trkpt>
      <trkpt lat="43.60289" lon="3.72053">
        <ele>234.4</ele>
        <time>2011-04-09T08:24:49Z</time>
      </trkpt>
      <trkpt lat="43.60296" lon="3.72051">
        <ele>233.8</ele>
        <time>2011-04-09T08:24:51Z</time>
      </trkpt>
      <trkpt lat="43.60302" lon="3.7205">
        <ele>233.6</ele>
        <time>2011-04-09T08:24:53Z</time>
      </trkpt>
      <trkpt lat="43.60309" lon="3.72048">
        <ele>232.9</ele>
        <time>2011-04-09T08:24:55Z</time>
      </trkpt>
      <trkpt lat="43.60315" lon="3.72047">
        <ele>231.9</ele>
        <time>2011-04-09T08:24:57Z</time>
      </trkpt>
      <trkpt lat="43.60323" lon="3.72043">
        <ele>230.3</ele>
        <time>2011-04-09T08:25:00Z</time>
      </trkpt>
      <trkpt lat="43.60331" lon="3.7204">
        <ele>229</ele>
        <time>2011-04-09T08:25:03Z</time>
      </trkpt>
      <trkpt lat="43.60338" lon="3.72039">
        <ele>227.9</ele>
        <time>2011-04-09T08:25:06Z</time>
      </trkpt>
      <trkpt lat="43.60344" lon="3.72037">
        <ele>226.2</ele>
        <time>2011-04-09T08:25:09Z</time>
      </trkpt>
      <trkpt lat="43.60353" lon="3.72034">
        <ele>222.6</ele>
        <time>2011-04-09T08:25:14Z</time>
      </trkpt>
      <trkpt lat="43.60361" lon="3.72033">
        <ele>220.4</ele>
        <time>2011-04-09T08:25:18Z</time>
      </trkpt>
      <trkpt lat="43.60369" lon="3.72031">
        <ele>217.9</ele>
        <time>2011-04-09T08:25:22Z</time>
      </trkpt>
      <trkpt lat="43.60377" lon="3.72029">
        <ele>214.5</ele>
        <time>2011-04-09T08:25:28Z</time>
      </trkpt>
      <trkpt lat="43.60385" lon="3.72026">
        <ele>209.5</ele>
        <time>2011-04-09T08:25:34Z</time>
      </trkpt>
      <trkpt lat="43.60393" lon="3.72025">
        <ele>204.7</ele>
        <time>2011-04-09T08:25:46Z</time>
      </trkpt>
      <trkpt lat="43.60395" lon="3.72025">
        <ele>204.7</ele>
        <time>2011-04-09T08:25:47Z</time>
      </trkpt>
      <trkpt lat="43.6041" lon="3.72019">
        <ele>199.2</ele>
        <time>2011-04-09T08:26:12Z</time>
      </trkpt>
      <trkpt lat="43.60418" lon="3.72018">
        <ele>196.9</ele>
        <time>2011-04-09T08:26:16Z</time>
      </trkpt>
      <trkpt lat="43.60424" lon="3.72016">
        <ele>194.1</ele>
        <time>2011-04-09T08:26:18Z</time>
      </trkpt>
      <trkpt lat="43.60431" lon="3.72014">
        <ele>191.3</ele>
        <time>2011-04-09T08:26:20Z</time>
      </trkpt>
      <trkpt lat="43.6044" lon="3.72011">
        <ele>187.1</ele>
        <time>2011-04-09T08:26:23Z</time>
      </trkpt>
      <trkpt lat="43.60447" lon="3.72009">
        <ele>184.1</ele>
        <time>2011-04-09T08:26:25Z</time>
      </trkpt>
      <trkpt lat="43.60453" lon="3.72007">
        <ele>181.9</ele>
        <time>2011-04-09T08:26:27Z</time>
      </trkpt>
      <trkpt lat="43.60458" lon="3.72006">
        <ele>180.9</ele>
        <time>2011-04-09T08:26:28Z</time>
      </trkpt>
      <trkpt lat="43.60463" lon="3.72004">
        <ele>180.3</ele>
        <time>2011-04-09T08:26:29Z</time>
      </trkpt>
      <trkpt lat="43.6047" lon="3.72003">
        <ele>179.7</ele>
        <time>2011-04-09T08:26:30Z</time>
      </trkpt>
      <trkpt lat="43.60477" lon="3.72001">
        <ele>178</ele>
        <time>2011-04-09T08:26:31Z</time>
      </trkpt>
      <trkpt lat="43.60484" lon="3.72">
        <ele>176.7</ele>
        <time>2011-04-09T08:26:32Z</time>
      </trkpt>
      <trkpt lat="43.60491" lon="3.71999">
        <ele>175.7</ele>
        <time>2011-04-09T08:26:33Z</time>
      </trkpt>
      <trkpt lat="43.60497" lon="3.71998">
        <ele>174.5</ele>
        <time>2011-04-09T08:26:34Z</time>
      </trkpt>
      <trkpt lat="43.60503" lon="3.71996">
        <ele>173.7</ele>
        <time>2011-04-09T08:26:35Z</time>
      </trkpt>
      <trkpt lat="43.60512" lon="3.71994">
        <ele>172.6</ele>
        <time>2011-04-09T08:26:37Z</time>
      </trkpt>
      <trkpt lat="43.6052" lon="3.71998">
        <ele>172</ele>
        <time>2011-04-09T08:26:41Z</time>
      </trkpt>
      <trkpt lat="43.60529" lon="3.71999">
        <ele>171.7</ele>
        <time>2011-04-09T08:26:52Z</time>
      </trkpt>
      <trkpt lat="43.6053" lon="3.71998">
        <ele>171.7</ele>
        <time>2011-04-09T08:26:53Z</time>
      </trkpt>
      <trkpt lat="43.60545" lon="3.72005">
        <ele>171</ele>
        <time>2011-04-09T08:28:07Z</time>
      </trkpt>
      <trkpt lat="43.60545" lon="3.72006">
        <ele>171.1</ele>
        <time>2011-04-09T08:28:08Z</time>
      </trkpt>
      <trkpt lat="43.60556" lon="3.72019">
        <ele>171.2</ele>
        <time>2011-04-09T08:28:15Z</time>
      </trkpt>
      <trkpt lat="43.60562" lon="3.72027">
        <ele>170.6</ele>
        <time>2011-04-09T08:28:19Z</time>
      </trkpt>
      <trkpt lat="43.60566" lon="3.72034">
        <ele>170.7</ele>
        <time>2011-04-09T08:28:22Z</time>
      </trkpt>
      <trkpt lat="43.60572" lon="3.7204">
        <ele>170.4</ele>
        <time>2011-04-09T08:28:25Z</time>
      </trkpt>
      <trkpt lat="43.60577" lon="3.72049">
        <ele>172</ele>
        <time>2011-04-09T08:28:43Z</time>
      </trkpt>
      <trkpt lat="43.60582" lon="3.72057">
        <ele>172.1</ele>
        <time>2011-04-09T08:28:47Z</time>
      </trkpt>
      <trkpt lat="43.60588" lon="3.72064">
        <ele>172.8</ele>
        <time>2011-04-09T08:28:50Z</time>
      </trkpt>
      <trkpt lat="43.60592" lon="3.72071">
        <ele>172.6</ele>
        <time>2011-04-09T08:28:52Z</time>
      </trkpt>
      <trkpt lat="43.60596" lon="3.72077">
        <ele>172.7</ele>
        <time>2011-04-09T08:28:54Z</time>
      </trkpt>
      <trkpt lat="43.60601" lon="3.72085">
        <ele>173</ele>
        <time>2011-04-09T08:28:56Z</time>
      </trkpt>
      <trkpt lat="43.60604" lon="3.7209">
        <ele>173.2</ele>
        <time>2011-04-09T08:28:57Z</time>
      </trkpt>
      <trkpt lat="43.60608" lon="3.72094">
        <ele>172.7</ele>
        <time>2011-04-09T08:28:58Z</time>
      </trkpt>
      <trkpt lat="43.60612" lon="3.72098">
        <ele>172.3</ele>
        <time>2011-04-09T08:28:59Z</time>
      </trkpt>
      <trkpt lat="43.60616" lon="3.72102">
        <ele>172</ele>
        <time>2011-04-09T08:29:00Z</time>
      </trkpt>
      <trkpt lat="43.60621" lon="3.72104">
        <ele>171.8</ele>
        <time>2011-04-09T08:29:01Z</time>
      </trkpt>
      <trkpt lat="43.60626" lon="3.72106">
        <ele>171.6</ele>
        <time>2011-04-09T08:29:02Z</time>
      </trkpt>
      <trkpt lat="43.60631" lon="3.72109">
        <ele>171.4</ele>
        <time>2011-04-09T08:29:03Z</time>
      </trkpt>
      <trkpt lat="43.60636" lon="3.72113">
        <ele>171</ele>
        <time>2011-04-09T08:29:04Z</time>
      </trkpt>
      <trkpt lat="43.6064" lon="3.72118">
        <ele>170.6</ele>
        <time>2011-04-09T08:29:05Z</time>
      </trkpt>
      <trkpt lat="43.60644" lon="3.72122">
        <ele>170.4</ele>
        <time>2011-04-09T08:29:06Z</time>
      </trkpt>
      <trkpt lat="43.60647" lon="3.72127">
        <ele>170.1</ele>
        <time>2011-04-09T08:29:07Z</time>
      </trkpt>
      <trkpt lat="43.60652" lon="3.72137">
        <ele>169.8</ele>
        <time>2011-04-09T08:29:09Z</time>
      </trkpt>
      <trkpt lat="43.60654" lon="3.72142">
        <ele>170.1</ele>
        <time>2011-04-09T08:29:10Z</time>
      </trkpt>
      <trkpt lat="43.60659" lon="3.72157">
        <ele>170.5</ele>
        <time>2011-04-09T08:29:13Z</time>
      </trkpt>
      <trkpt lat="43.60664" lon="3.72166">
        <ele>171</ele>
        <time>2011-04-09T08:29:15Z</time>
      </trkpt>
      <trkpt lat="43.60667" lon="3.72173">
        <ele>171.5</ele>
        <time>2011-04-09T08:29:17Z</time>
      </trkpt>
      <trkpt lat="43.60672" lon="3.72183">
        <ele>172.2</ele>
        <time>2011-04-09T08:29:21Z</time>
      </trkpt>
      <trkpt lat="43.60677" lon="3.72192">
        <ele>173.5</ele>
        <time>2011-04-09T08:29:26Z</time>
      </trkpt>
      <trkpt lat="43.6068" lon="3.72202">
        <ele>174.4</ele>
        <time>2011-04-09T08:29:30Z</time>
      </trkpt>
      <trkpt lat="43.60681" lon="3.72214">
        <ele>175</ele>
        <time>2011-04-09T08:29:34Z</time>
      </trkpt>
      <trkpt lat="43.60681" lon="3.72226">
        <ele>175.7</ele>
        <time>2011-04-09T08:29:38Z</time>
      </trkpt>
      <trkpt lat="43.6068" lon="3.72237">
        <ele>175.4</ele>
        <time>2011-04-09T08:29:42Z</time>
      </trkpt>
      <trkpt lat="43.60679" lon="3.72247">
        <ele>175.9</ele>
        <time>2011-04-09T08:29:45Z</time>
      </trkpt>
      <trkpt lat="43.60678" lon="3.72258">
        <ele>176</ele>
        <time>2011-04-09T08:29:49Z</time>
      </trkpt>
      <trkpt lat="43.6068" lon="3.72267">
        <ele>178.1</ele>
        <time>2011-04-09T08:29:54Z</time>
      </trkpt>
      <trkpt lat="43.60684" lon="3.72278">
        <ele>179</ele>
        <time>2011-04-09T08:29:59Z</time>
      </trkpt>
      <trkpt lat="43.60691" lon="3.72285">
        <ele>180.5</ele>
        <time>2011-04-09T08:30:05Z</time>
      </trkpt>
      <trkpt lat="43.60698" lon="3.72276">
        <ele>181.8</ele>
        <time>2011-04-09T08:30:11Z</time>
      </trkpt>
      <trkpt lat="43.60698" lon="3.72275">
        <ele>182</ele>
        <time>2011-04-09T08:30:12Z</time>
      </trkpt>
      <trkpt lat="43.60708" lon="3.72259">
        <ele>183.3</ele>
        <time>2011-04-09T08:30:21Z</time>
      </trkpt>
      <trkpt lat="43.60713" lon="3.72251">
        <ele>184.6</ele>
        <time>2011-04-09T08:30:27Z</time>
      </trkpt>
      <trkpt lat="43.60715" lon="3.72239">
        <ele>185.8</ele>
        <time>2011-04-09T08:30:33Z</time>
      </trkpt>
      <trkpt lat="43.60717" lon="3.72229">
        <ele>185.7</ele>
        <time>2011-04-09T08:30:38Z</time>
      </trkpt>
      <trkpt lat="43.60718" lon="3.72219">
        <ele>185.1</ele>
        <time>2011-04-09T08:30:42Z</time>
      </trkpt>
      <trkpt lat="43.60719" lon="3.72209">
        <ele>185.4</ele>
        <time>2011-04-09T08:30:46Z</time>
      </trkpt>
      <trkpt lat="43.60719" lon="3.72198">
        <ele>186.1</ele>
        <time>2011-04-09T08:30:50Z</time>
      </trkpt>
      <trkpt lat="43.6072" lon="3.72187">
        <ele>186.8</ele>
        <time>2011-04-09T08:30:54Z</time>
      </trkpt>
      <trkpt lat="43.60719" lon="3.72176">
        <ele>187.2</ele>
        <time>2011-04-09T08:30:58Z</time>
      </trkpt>
      <trkpt lat="43.60717" lon="3.72165">
        <ele>187.8</ele>
        <time>2011-04-09T08:31:02Z</time>
      </trkpt>
      <trkpt lat="43.60715" lon="3.72153">
        <ele>188.4</ele>
        <time>2011-04-09T08:31:06Z</time>
      </trkpt>
      <trkpt lat="43.60714" lon="3.72143">
        <ele>190</ele>
        <time>2011-04-09T08:31:10Z</time>
      </trkpt>
      <trkpt lat="43.60714" lon="3.72133">
        <ele>191</ele>
        <time>2011-04-09T08:31:14Z</time>
      </trkpt>
      <trkpt lat="43.60714" lon="3.7213">
        <ele>191.4</ele>
        <time>2011-04-09T08:31:15Z</time>
      </trkpt>
      <trkpt lat="43.60714" lon="3.7211">
        <ele>192.7</ele>
        <time>2011-04-09T08:31:22Z</time>
      </trkpt>
      <trkpt lat="43.60716" lon="3.72099">
        <ele>192.9</ele>
        <time>2011-04-09T08:31:26Z</time>
      </trkpt>
      <trkpt lat="43.60716" lon="3.7209">
        <ele>193.3</ele>
        <time>2011-04-09T08:31:29Z</time>
      </trkpt>
      <trkpt lat="43.60717" lon="3.7208">
        <ele>194</ele>
        <time>2011-04-09T08:31:32Z</time>
      </trkpt>
      <trkpt lat="43.60717" lon="3.7207">
        <ele>194.3</ele>
        <time>2011-04-09T08:31:35Z</time>
      </trkpt>
      <trkpt lat="43.60718" lon="3.72058">
        <ele>195.1</ele>
        <time>2011-04-09T08:31:39Z</time>
      </trkpt>
      <trkpt lat="43.60718" lon="3.72047">
        <ele>195.7</ele>
        <time>2011-04-09T08:31:43Z</time>
      </trkpt>
      <trkpt lat="43.60717" lon="3.72035">
        <ele>196</ele>
        <time>2011-04-09T08:31:47Z</time>
      </trkpt>
      <trkpt lat="43.60715" lon="3.72023">
        <ele>197.2</ele>
        <time>2011-04-09T08:31:52Z</time>
      </trkpt>
      <trkpt lat="43.60711" lon="3.72012">
        <ele>198.9</ele>
        <time>2011-04-09T08:31:57Z</time>
      </trkpt>
      <trkpt lat="43.60706" lon="3.72003">
        <ele>199.7</ele>
        <time>2011-04-09T08:32:02Z</time>
      </trkpt>
      <trkpt lat="43.60699" lon="3.71994">
        <ele>200.9</ele>
        <time>2011-04-09T08:32:07Z</time>
      </trkpt>
      <trkpt lat="43.60693" lon="3.71986">
        <ele>202.1</ele>
        <time>2011-04-09T08:32:12Z</time>
      </trkpt>
      <trkpt lat="43.60689" lon="3.71978">
        <ele>202.4</ele>
        <time>2011-04-09T08:32:16Z</time>
      </trkpt>
      <trkpt lat="43.60687" lon="3.71976">
        <ele>202.7</ele>
        <time>2011-04-09T08:32:17Z</time>
      </trkpt>
      <trkpt lat="43.6068" lon="3.71959">
        <ele>204.1</ele>
        <time>2011-04-09T08:32:25Z</time>
      </trkpt>
      <trkpt lat="43.60679" lon="3.71949">
        <ele>205</ele>
        <time>2011-04-09T08:32:29Z</time>
      </trkpt>
      <trkpt lat="43.60677" lon="3.71938">
        <ele>206.9</ele>
        <time>2011-04-09T08:32:33Z</time>
      </trkpt>
      <trkpt lat="43.60676" lon="3.71927">
        <ele>207.7</ele>
        <time>2011-04-09T08:32:37Z</time>
      </trkpt>
      <trkpt lat="43.60674" lon="3.71917">
        <ele>208.4</ele>
        <time>2011-04-09T08:32:41Z</time>
      </trkpt>
      <trkpt lat="43.60671" lon="3.71905">
        <ele>209.4</ele>
        <time>2011-04-09T08:32:45Z</time>
      </trkpt>
      <trkpt lat="43.60669" lon="3.71896">
        <ele>209.9</ele>
        <time>2011-04-09T08:32:48Z</time>
      </trkpt>
      <trkpt lat="43.60667" lon="3.71886">
        <ele>209.9</ele>
        <time>2011-04-09T08:32:51Z</time>
      </trkpt>
      <trkpt lat="43.60666" lon="3.71874">
        <ele>209.6</ele>
        <time>2011-04-09T08:32:54Z</time>
      </trkpt>
      <trkpt lat="43.60661" lon="3.71865">
        <ele>209.4</ele>
        <time>2011-04-09T08:32:57Z</time>
      </trkpt>
      <trkpt lat="43.60654" lon="3.7186">
        <ele>209.5</ele>
        <time>2011-04-09T08:33:00Z</time>
      </trkpt>
      <trkpt lat="43.60647" lon="3.71853">
        <ele>209.9</ele>
        <time>2011-04-09T08:33:03Z</time>
      </trkpt>
      <trkpt lat="43.60641" lon="3.71848">
        <ele>210.1</ele>
        <time>2011-04-09T08:33:05Z</time>
      </trkpt>
      <trkpt lat="43.60636" lon="3.71841">
        <ele>209.4</ele>
        <time>2011-04-09T08:33:07Z</time>
      </trkpt>
      <trkpt lat="43.60629" lon="3.71834">
        <ele>208.4</ele>
        <time>2011-04-09T08:33:10Z</time>
      </trkpt>
      <trkpt lat="43.60622" lon="3.71829">
        <ele>208.3</ele>
        <time>2011-04-09T08:33:13Z</time>
      </trkpt>
      <trkpt lat="43.60614" lon="3.71825">
        <ele>208.4</ele>
        <time>2011-04-09T08:33:16Z</time>
      </trkpt>
      <trkpt lat="43.60607" lon="3.71823">
        <ele>208.2</ele>
        <time>2011-04-09T08:33:19Z</time>
      </trkpt>
      <trkpt lat="43.60604" lon="3.71822">
        <ele>208.1</ele>
        <time>2011-04-09T08:33:20Z</time>
      </trkpt>
      <trkpt lat="43.60591" lon="3.71819">
        <ele>208</ele>
        <time>2011-04-09T08:33:25Z</time>
      </trkpt>
      <trkpt lat="43.60582" lon="3.71817">
        <ele>208.8</ele>
        <time>2011-04-09T08:33:28Z</time>
      </trkpt>
      <trkpt lat="43.60575" lon="3.71814">
        <ele>210</ele>
        <time>2011-04-09T08:33:31Z</time>
      </trkpt>
      <trkpt lat="43.60567" lon="3.71811">
        <ele>209.3</ele>
        <time>2011-04-09T08:33:34Z</time>
      </trkpt>
      <trkpt lat="43.6056" lon="3.71807">
        <ele>210.3</ele>
        <time>2011-04-09T08:33:37Z</time>
      </trkpt>
      <trkpt lat="43.60553" lon="3.71803">
        <ele>210.8</ele>
        <time>2011-04-09T08:33:40Z</time>
      </trkpt>
      <trkpt lat="43.60547" lon="3.71798">
        <ele>211.5</ele>
        <time>2011-04-09T08:33:43Z</time>
      </trkpt>
      <trkpt lat="43.60541" lon="3.71794">
        <ele>212.4</ele>
        <time>2011-04-09T08:33:46Z</time>
      </trkpt>
      <trkpt lat="43.60533" lon="3.7179">
        <ele>212.9</ele>
        <time>2011-04-09T08:33:50Z</time>
      </trkpt>
      <trkpt lat="43.60525" lon="3.71786">
        <ele>214.1</ele>
        <time>2011-04-09T08:33:54Z</time>
      </trkpt>
      <trkpt lat="43.60517" lon="3.71782">
        <ele>214.6</ele>
        <time>2011-04-09T08:33:58Z</time>
      </trkpt>
      <trkpt lat="43.60509" lon="3.71779">
        <ele>215.5</ele>
        <time>2011-04-09T08:34:02Z</time>
      </trkpt>
      <trkpt lat="43.60501" lon="3.71777">
        <ele>216.7</ele>
        <time>2011-04-09T08:34:06Z</time>
      </trkpt>
      <trkpt lat="43.60494" lon="3.71775">
        <ele>217.4</ele>
        <time>2011-04-09T08:34:09Z</time>
      </trkpt>
      <trkpt lat="43.60494" lon="3.71762">
        <ele>218.5</ele>
        <time>2011-04-09T08:34:16Z</time>
      </trkpt>
      <trkpt lat="43.60497" lon="3.71753">
        <ele>219.9</ele>
        <time>2011-04-09T08:34:20Z</time>
      </trkpt>
      <trkpt lat="43.60497" lon="3.7175">
        <ele>220.2</ele>
        <time>2011-04-09T08:34:21Z</time>
      </trkpt>
      <trkpt lat="43.605" lon="3.71731">
        <ele>222.7</ele>
        <time>2011-04-09T08:34:29Z</time>
      </trkpt>
      <trkpt lat="43.60503" lon="3.7172">
        <ele>222.6</ele>
        <time>2011-04-09T08:34:33Z</time>
      </trkpt>
      <trkpt lat="43.60504" lon="3.71708">
        <ele>222.9</ele>
        <time>2011-04-09T08:34:37Z</time>
      </trkpt>
      <trkpt lat="43.60506" lon="3.71696">
        <ele>223.4</ele>
        <time>2011-04-09T08:34:41Z</time>
      </trkpt>
      <trkpt lat="43.60508" lon="3.71685">
        <ele>223.2</ele>
        <time>2011-04-09T08:34:45Z</time>
      </trkpt>
      <trkpt lat="43.6051" lon="3.71676">
        <ele>224.2</ele>
        <time>2011-04-09T08:34:48Z</time>
      </trkpt>
      <trkpt lat="43.60512" lon="3.71666">
        <ele>224.4</ele>
        <time>2011-04-09T08:34:51Z</time>
      </trkpt>
      <trkpt lat="43.60513" lon="3.71656">
        <ele>224.5</ele>
        <time>2011-04-09T08:34:54Z</time>
      </trkpt>
      <trkpt lat="43.60515" lon="3.71646">
        <ele>224.5</ele>
        <time>2011-04-09T08:34:57Z</time>
      </trkpt>
      <trkpt lat="43.60515" lon="3.71635">
        <ele>224.7</ele>
        <time>2011-04-09T08:35:00Z</time>
      </trkpt>
      <trkpt lat="43.60511" lon="3.71625">
        <ele>225.4</ele>
        <time>2011-04-09T08:35:03Z</time>
      </trkpt>
      <trkpt lat="43.60507" lon="3.71616">
        <ele>225.7</ele>
        <time>2011-04-09T08:35:06Z</time>
      </trkpt>
      <trkpt lat="43.60506" lon="3.71606">
        <ele>226.2</ele>
        <time>2011-04-09T08:35:09Z</time>
      </trkpt>
      <trkpt lat="43.60506" lon="3.71596">
        <ele>226.7</ele>
        <time>2011-04-09T08:35:12Z</time>
      </trkpt>
      <trkpt lat="43.60505" lon="3.71587">
        <ele>226.9</ele>
        <time>2011-04-09T08:35:15Z</time>
      </trkpt>
      <trkpt lat="43.60501" lon="3.71575">
        <ele>226.7</ele>
        <time>2011-04-09T08:36:40Z</time>
      </trkpt>
      <trkpt lat="43.60501" lon="3.71573">
        <ele>226.7</ele>
        <time>2011-04-09T08:36:41Z</time>
      </trkpt>
      <trkpt lat="43.60487" lon="3.71566">
        <ele>227.3</ele>
        <time>2011-04-09T08:36:47Z</time>
      </trkpt>
      <trkpt lat="43.60479" lon="3.71564">
        <ele>227.2</ele>
        <time>2011-04-09T08:36:50Z</time>
      </trkpt>
      <trkpt lat="43.6047" lon="3.71563">
        <ele>226.8</ele>
        <time>2011-04-09T08:36:53Z</time>
      </trkpt>
      <trkpt lat="43.60462" lon="3.71563">
        <ele>227.2</ele>
        <time>2011-04-09T08:36:56Z</time>
      </trkpt>
      <trkpt lat="43.60454" lon="3.71563">
        <ele>228.3</ele>
        <time>2011-04-09T08:36:59Z</time>
      </trkpt>
      <trkpt lat="43.60445" lon="3.71563">
        <ele>228</ele>
        <time>2011-04-09T08:37:02Z</time>
      </trkpt>
      <trkpt lat="43.60439" lon="3.71563">
        <ele>228.9</ele>
        <time>2011-04-09T08:37:04Z</time>
      </trkpt>
      <trkpt lat="43.60432" lon="3.71563">
        <ele>229.7</ele>
        <time>2011-04-09T08:37:06Z</time>
      </trkpt>
      <trkpt lat="43.60424" lon="3.71564">
        <ele>230.5</ele>
        <time>2011-04-09T08:37:08Z</time>
      </trkpt>
      <trkpt lat="43.60415" lon="3.71565">
        <ele>230.1</ele>
        <time>2011-04-09T08:37:10Z</time>
      </trkpt>
      <trkpt lat="43.60411" lon="3.71566">
        <ele>229.9</ele>
        <time>2011-04-09T08:37:11Z</time>
      </trkpt>
      <trkpt lat="43.60406" lon="3.71566">
        <ele>228.7</ele>
        <time>2011-04-09T08:37:12Z</time>
      </trkpt>
      <trkpt lat="43.60401" lon="3.71567">
        <ele>227.7</ele>
        <time>2011-04-09T08:37:13Z</time>
      </trkpt>
      <trkpt lat="43.60396" lon="3.71567">
        <ele>226.9</ele>
        <time>2011-04-09T08:37:14Z</time>
      </trkpt>
      <trkpt lat="43.60391" lon="3.71567">
        <ele>226.4</ele>
        <time>2011-04-09T08:37:15Z</time>
      </trkpt>
      <trkpt lat="43.60382" lon="3.71568">
        <ele>225.6</ele>
        <time>2011-04-09T08:37:17Z</time>
      </trkpt>
      <trkpt lat="43.60378" lon="3.71569">
        <ele>225.4</ele>
        <time>2011-04-09T08:37:18Z</time>
      </trkpt>
      <trkpt lat="43.60373" lon="3.7157">
        <ele>224.5</ele>
        <time>2011-04-09T08:37:19Z</time>
      </trkpt>
      <trkpt lat="43.60368" lon="3.71572">
        <ele>223.8</ele>
        <time>2011-04-09T08:37:20Z</time>
      </trkpt>
      <trkpt lat="43.60361" lon="3.71575">
        <ele>223.3</ele>
        <time>2011-04-09T08:37:21Z</time>
      </trkpt>
      <trkpt lat="43.60353" lon="3.71578">
        <ele>222.1</ele>
        <time>2011-04-09T08:37:22Z</time>
      </trkpt>
      <trkpt lat="43.60344" lon="3.71582">
        <ele>221.1</ele>
        <time>2011-04-09T08:37:23Z</time>
      </trkpt>
      <trkpt lat="43.60335" lon="3.71585">
        <ele>220.4</ele>
        <time>2011-04-09T08:37:24Z</time>
      </trkpt>
      <trkpt lat="43.60326" lon="3.7159">
        <ele>218.4</ele>
        <time>2011-04-09T08:37:25Z</time>
      </trkpt>
      <trkpt lat="43.60316" lon="3.71594">
        <ele>216.9</ele>
        <time>2011-04-09T08:37:26Z</time>
      </trkpt>
      <trkpt lat="43.60306" lon="3.71599">
        <ele>215.8</ele>
        <time>2011-04-09T08:37:27Z</time>
      </trkpt>
      <trkpt lat="43.60296" lon="3.71603">
        <ele>214.4</ele>
        <time>2011-04-09T08:37:28Z</time>
      </trkpt>
      <trkpt lat="43.60287" lon="3.71607">
        <ele>213.4</ele>
        <time>2011-04-09T08:37:29Z</time>
      </trkpt>
      <trkpt lat="43.60279" lon="3.71611">
        <ele>212.7</ele>
        <time>2011-04-09T08:37:30Z</time>
      </trkpt>
      <trkpt lat="43.60272" lon="3.71614">
        <ele>212.3</ele>
        <time>2011-04-09T08:37:31Z</time>
      </trkpt>
      <trkpt lat="43.60266" lon="3.71615">
        <ele>212</ele>
        <time>2011-04-09T08:37:32Z</time>
      </trkpt>
      <trkpt lat="43.60259" lon="3.71614">
        <ele>211.8</ele>
        <time>2011-04-09T08:37:33Z</time>
      </trkpt>
      <trkpt lat="43.60253" lon="3.71613">
        <ele>211.7</ele>
        <time>2011-04-09T08:37:34Z</time>
      </trkpt>
      <trkpt lat="43.60247" lon="3.71611">
        <ele>211.1</ele>
        <time>2011-04-09T08:37:35Z</time>
      </trkpt>
      <trkpt lat="43.60241" lon="3.7161">
        <ele>210.6</ele>
        <time>2011-04-09T08:37:36Z</time>
      </trkpt>
      <trkpt lat="43.60235" lon="3.71608">
        <ele>210.3</ele>
        <time>2011-04-09T08:37:37Z</time>
      </trkpt>
      <trkpt lat="43.60227" lon="3.71606">
        <ele>209.2</ele>
        <time>2011-04-09T08:37:39Z</time>
      </trkpt>
      <trkpt lat="43.60218" lon="3.71605">
        <ele>208</ele>
        <time>2011-04-09T08:37:41Z</time>
      </trkpt>
      <trkpt lat="43.60214" lon="3.71605">
        <ele>207.3</ele>
        <time>2011-04-09T08:37:42Z</time>
      </trkpt>
      <trkpt lat="43.60201" lon="3.71605">
        <ele>204.8</ele>
        <time>2011-04-09T08:37:45Z</time>
      </trkpt>
      <trkpt lat="43.60193" lon="3.71605">
        <ele>203.3</ele>
        <time>2011-04-09T08:37:47Z</time>
      </trkpt>
      <trkpt lat="43.60186" lon="3.71606">
        <ele>202.2</ele>
        <time>2011-04-09T08:37:49Z</time>
      </trkpt>
      <trkpt lat="43.60182" lon="3.71606">
        <ele>201.9</ele>
        <time>2011-04-09T08:37:50Z</time>
      </trkpt>
      <trkpt lat="43.60177" lon="3.71606">
        <ele>200.9</ele>
        <time>2011-04-09T08:37:51Z</time>
      </trkpt>
      <trkpt lat="43.60171" lon="3.71607">
        <ele>200.2</ele>
        <time>2011-04-09T08:37:52Z</time>
      </trkpt>
      <trkpt lat="43.60165" lon="3.71607">
        <ele>199.6</ele>
        <time>2011-04-09T08:37:53Z</time>
      </trkpt>
      <trkpt lat="43.60158" lon="3.71607">
        <ele>197.6</ele>
        <time>2011-04-09T08:37:54Z</time>
      </trkpt>
      <trkpt lat="43.60152" lon="3.71607">
        <ele>196</ele>
        <time>2011-04-09T08:37:55Z</time>
      </trkpt>
      <trkpt lat="43.60145" lon="3.71607">
        <ele>194.8</ele>
        <time>2011-04-09T08:37:56Z</time>
      </trkpt>
      <trkpt lat="43.60137" lon="3.71607">
        <ele>192.8</ele>
        <time>2011-04-09T08:37:57Z</time>
      </trkpt>
      <trkpt lat="43.60129" lon="3.71608">
        <ele>191.2</ele>
        <time>2011-04-09T08:37:58Z</time>
      </trkpt>
      <trkpt lat="43.60121" lon="3.71608">
        <ele>190.1</ele>
        <time>2011-04-09T08:37:59Z</time>
      </trkpt>
      <trkpt lat="43.60112" lon="3.71609">
        <ele>187.2</ele>
        <time>2011-04-09T08:38:00Z</time>
      </trkpt>
      <trkpt lat="43.60103" lon="3.71609">
        <ele>185.1</ele>
        <time>2011-04-09T08:38:01Z</time>
      </trkpt>
      <trkpt lat="43.60095" lon="3.71609">
        <ele>183.5</ele>
        <time>2011-04-09T08:38:02Z</time>
      </trkpt>
      <trkpt lat="43.60088" lon="3.71609">
        <ele>181.9</ele>
        <time>2011-04-09T08:38:03Z</time>
      </trkpt>
      <trkpt lat="43.6008" lon="3.7161">
        <ele>179.7</ele>
        <time>2011-04-09T08:38:05Z</time>
      </trkpt>
      <trkpt lat="43.60072" lon="3.71611">
        <ele>181.4</ele>
        <time>2011-04-09T08:38:14Z</time>
      </trkpt>
      <trkpt lat="43.60063" lon="3.71611">
        <ele>183.5</ele>
        <time>2011-04-09T08:38:27Z</time>
      </trkpt>
      <trkpt lat="43.60054" lon="3.71611">
        <ele>186.3</ele>
        <time>2011-04-09T08:38:42Z</time>
      </trkpt>
      <trkpt lat="43.60054" lon="3.71611">
        <ele>186.4</ele>
        <time>2011-04-09T08:38:43Z</time>
      </trkpt>
      <trkpt lat="43.60038" lon="3.71612">
        <ele>189.9</ele>
        <time>2011-04-09T08:39:15Z</time>
      </trkpt>
      <trkpt lat="43.60029" lon="3.71614">
        <ele>193.3</ele>
        <time>2011-04-09T08:39:28Z</time>
      </trkpt>
      <trkpt lat="43.60021" lon="3.71618">
        <ele>194.1</ele>
        <time>2011-04-09T08:39:40Z</time>
      </trkpt>
      <trkpt lat="43.60014" lon="3.71623">
        <ele>194.4</ele>
        <time>2011-04-09T08:39:46Z</time>
      </trkpt>
      <trkpt lat="43.60012" lon="3.71624">
        <ele>194.5</ele>
        <time>2011-04-09T08:39:47Z</time>
      </trkpt>
      <trkpt lat="43.59999" lon="3.71636">
        <ele>197.6</ele>
        <time>2011-04-09T08:40:05Z</time>
      </trkpt>
      <trkpt lat="43.59992" lon="3.71643">
        <ele>198</ele>
        <time>2011-04-09T08:40:14Z</time>
      </trkpt>
      <trkpt lat="43.59986" lon="3.71651">
        <ele>201.4</ele>
        <time>2011-04-09T08:40:31Z</time>
      </trkpt>
      <trkpt lat="43.59979" lon="3.71657">
        <ele>201.8</ele>
        <time>2011-04-09T08:40:37Z</time>
      </trkpt>
      <trkpt lat="43.59973" lon="3.71662">
        <ele>202.1</ele>
        <time>2011-04-09T08:40:41Z</time>
      </trkpt>
      <trkpt lat="43.59966" lon="3.71668">
        <ele>202.4</ele>
        <time>2011-04-09T08:40:45Z</time>
      </trkpt>
      <trkpt lat="43.59959" lon="3.71675">
        <ele>203.4</ele>
        <time>2011-04-09T08:40:49Z</time>
      </trkpt>
      <trkpt lat="43.59957" lon="3.71676">
        <ele>203.6</ele>
        <time>2011-04-09T08:40:50Z</time>
      </trkpt>
      <trkpt lat="43.59944" lon="3.71684">
        <ele>205.6</ele>
        <time>2011-04-09T08:40:57Z</time>
      </trkpt>
      <trkpt lat="43.59937" lon="3.71681">
        <ele>206.8</ele>
        <time>2011-04-09T08:41:01Z</time>
      </trkpt>
      <trkpt lat="43.59929" lon="3.71674">
        <ele>206.9</ele>
        <time>2011-04-09T08:41:04Z</time>
      </trkpt>
      <trkpt lat="43.59922" lon="3.7167">
        <ele>206.2</ele>
        <time>2011-04-09T08:41:07Z</time>
      </trkpt>
      <trkpt lat="43.59913" lon="3.71669">
        <ele>204.7</ele>
        <time>2011-04-09T08:42:15Z</time>
      </trkpt>
      <trkpt lat="43.59913" lon="3.71669">
        <ele>203.9</ele>
        <time>2011-04-09T08:42:16Z</time>
      </trkpt>
      <trkpt lat="43.59899" lon="3.71669">
        <ele>204.5</ele>
        <time>2011-04-09T08:42:24Z</time>
      </trkpt>
      <trkpt lat="43.59893" lon="3.71669">
        <ele>203.9</ele>
        <time>2011-04-09T08:42:26Z</time>
      </trkpt>
      <trkpt lat="43.59886" lon="3.7167">
        <ele>202.8</ele>
        <time>2011-04-09T08:42:28Z</time>
      </trkpt>
      <trkpt lat="43.59879" lon="3.71671">
        <ele>201.7</ele>
        <time>2011-04-09T08:42:30Z</time>
      </trkpt>
      <trkpt lat="43.59872" lon="3.71671">
        <ele>200.2</ele>
        <time>2011-04-09T08:42:32Z</time>
      </trkpt>
      <trkpt lat="43.59866" lon="3.71673">
        <ele>198.1</ele>
        <time>2011-04-09T08:42:35Z</time>
      </trkpt>
      <trkpt lat="43.59858" lon="3.71676">
        <ele>197.1</ele>
        <time>2011-04-09T08:42:38Z</time>
      </trkpt>
      <trkpt lat="43.59855" lon="3.71667">
        <ele>195.9</ele>
        <time>2011-04-09T08:42:43Z</time>
      </trkpt>
      <trkpt lat="43.59858" lon="3.71656">
        <ele>194.2</ele>
        <time>2011-04-09T08:42:47Z</time>
      </trkpt>
      <trkpt lat="43.59861" lon="3.71647">
        <ele>193.3</ele>
        <time>2011-04-09T08:42:50Z</time>
      </trkpt>
      <trkpt lat="43.59863" lon="3.71638">
        <ele>192.7</ele>
        <time>2011-04-09T08:42:52Z</time>
      </trkpt>
      <trkpt lat="43.59866" lon="3.7163">
        <ele>191.9</ele>
        <time>2011-04-09T08:42:54Z</time>
      </trkpt>
      <trkpt lat="43.59869" lon="3.7162">
        <ele>191.1</ele>
        <time>2011-04-09T08:42:56Z</time>
      </trkpt>
      <trkpt lat="43.59872" lon="3.71613">
        <ele>190.2</ele>
        <time>2011-04-09T08:42:58Z</time>
      </trkpt>
      <trkpt lat="43.59874" lon="3.71605">
        <ele>189.6</ele>
        <time>2011-04-09T08:43:00Z</time>
      </trkpt>
      <trkpt lat="43.59877" lon="3.71597">
        <ele>189.1</ele>
        <time>2011-04-09T08:43:02Z</time>
      </trkpt>
      <trkpt lat="43.59882" lon="3.7159">
        <ele>188.2</ele>
        <time>2011-04-09T08:43:04Z</time>
      </trkpt>
      <trkpt lat="43.59887" lon="3.71584">
        <ele>187.7</ele>
        <time>2011-04-09T08:43:06Z</time>
      </trkpt>
      <trkpt lat="43.59893" lon="3.71577">
        <ele>186.6</ele>
        <time>2011-04-09T08:43:08Z</time>
      </trkpt>
      <trkpt lat="43.59899" lon="3.71573">
        <ele>185.8</ele>
        <time>2011-04-09T08:43:10Z</time>
      </trkpt>
      <trkpt lat="43.59906" lon="3.71569">
        <ele>185.1</ele>
        <time>2011-04-09T08:43:12Z</time>
      </trkpt>
      <trkpt lat="43.59913" lon="3.71568">
        <ele>184.5</ele>
        <time>2011-04-09T08:43:14Z</time>
      </trkpt>
      <trkpt lat="43.5992" lon="3.71564">
        <ele>183.7</ele>
        <time>2011-04-09T08:43:16Z</time>
      </trkpt>
      <trkpt lat="43.59922" lon="3.71561">
        <ele>183.2</ele>
        <time>2011-04-09T08:43:17Z</time>
      </trkpt>
      <trkpt lat="43.59924" lon="3.71543">
        <ele>182.2</ele>
        <time>2011-04-09T08:43:23Z</time>
      </trkpt>
      <trkpt lat="43.59928" lon="3.71532">
        <ele>182.4</ele>
        <time>2011-04-09T08:43:28Z</time>
      </trkpt>
      <trkpt lat="43.59927" lon="3.71522">
        <ele>181.9</ele>
        <time>2011-04-09T08:43:31Z</time>
      </trkpt>
      <trkpt lat="43.59925" lon="3.71513">
        <ele>180.6</ele>
        <time>2011-04-09T08:43:34Z</time>
      </trkpt>
      <trkpt lat="43.59921" lon="3.71503">
        <ele>178.2</ele>
        <time>2011-04-09T08:43:38Z</time>
      </trkpt>
      <trkpt lat="43.59919" lon="3.71494">
        <ele>177.8</ele>
        <time>2011-04-09T08:43:41Z</time>
      </trkpt>
      <trkpt lat="43.59916" lon="3.71484">
        <ele>176.2</ele>
        <time>2011-04-09T08:43:44Z</time>
      </trkpt>
      <trkpt lat="43.59913" lon="3.71474">
        <ele>174.4</ele>
        <time>2011-04-09T08:43:47Z</time>
      </trkpt>
      <trkpt lat="43.59911" lon="3.71463">
        <ele>172.4</ele>
        <time>2011-04-09T08:43:50Z</time>
      </trkpt>
      <trkpt lat="43.59908" lon="3.71455">
        <ele>170.6</ele>
        <time>2011-04-09T08:43:52Z</time>
      </trkpt>
      <trkpt lat="43.59906" lon="3.71447">
        <ele>169.6</ele>
        <time>2011-04-09T08:43:54Z</time>
      </trkpt>
      <trkpt lat="43.59903" lon="3.7144">
        <ele>167.2</ele>
        <time>2011-04-09T08:43:56Z</time>
      </trkpt>
      <trkpt lat="43.59901" lon="3.7143">
        <ele>165.8</ele>
        <time>2011-04-09T08:43:58Z</time>
      </trkpt>
      <trkpt lat="43.59899" lon="3.71423">
        <ele>165.3</ele>
        <time>2011-04-09T08:43:59Z</time>
      </trkpt>
      <trkpt lat="43.59898" lon="3.71417">
        <ele>164.9</ele>
        <time>2011-04-09T08:44:00Z</time>
      </trkpt>
      <trkpt lat="43.59896" lon="3.71411">
        <ele>163.5</ele>
        <time>2011-04-09T08:44:01Z</time>
      </trkpt>
      <trkpt lat="43.59894" lon="3.71404">
        <ele>162.5</ele>
        <time>2011-04-09T08:44:02Z</time>
      </trkpt>
      <trkpt lat="43.59893" lon="3.71396">
        <ele>161.8</ele>
        <time>2011-04-09T08:44:03Z</time>
      </trkpt>
      <trkpt lat="43.59891" lon="3.71389">
        <ele>160.7</ele>
        <time>2011-04-09T08:44:04Z</time>
      </trkpt>
      <trkpt lat="43.59889" lon="3.71382">
        <ele>159.8</ele>
        <time>2011-04-09T08:44:05Z</time>
      </trkpt>
      <trkpt lat="43.59888" lon="3.71375">
        <ele>159.2</ele>
        <time>2011-04-09T08:44:06Z</time>
      </trkpt>
      <trkpt lat="43.59887" lon="3.71366">
        <ele>157.8</ele>
        <time>2011-04-09T08:44:07Z</time>
      </trkpt>
      <trkpt lat="43.59886" lon="3.71358">
        <ele>156.7</ele>
        <time>2011-04-09T08:44:08Z</time>
      </trkpt>
      <trkpt lat="43.59885" lon="3.71351">
        <ele>155.9</ele>
        <time>2011-04-09T08:44:09Z</time>
      </trkpt>
      <trkpt lat="43.59884" lon="3.71344">
        <ele>155.3</ele>
        <time>2011-04-09T08:44:10Z</time>
      </trkpt>
      <trkpt lat="43.59882" lon="3.71332">
        <ele>154.5</ele>
        <time>2011-04-09T08:44:12Z</time>
      </trkpt>
      <trkpt lat="43.59881" lon="3.71326">
        <ele>154.3</ele>
        <time>2011-04-09T08:44:13Z</time>
      </trkpt>
      <trkpt lat="43.5988" lon="3.7132">
        <ele>153.6</ele>
        <time>2011-04-09T08:44:14Z</time>
      </trkpt>
      <trkpt lat="43.59879" lon="3.71312">
        <ele>153.1</ele>
        <time>2011-04-09T08:44:15Z</time>
      </trkpt>
      <trkpt lat="43.59878" lon="3.713">
        <ele>151.8</ele>
        <time>2011-04-09T08:44:17Z</time>
      </trkpt>
      <trkpt lat="43.59879" lon="3.71294">
        <ele>151.2</ele>
        <time>2011-04-09T08:44:18Z</time>
      </trkpt>
      <trkpt lat="43.59878" lon="3.71287">
        <ele>150.7</ele>
        <time>2011-04-09T08:44:19Z</time>
      </trkpt>
      <trkpt lat="43.59876" lon="3.71281">
        <ele>149.7</ele>
        <time>2011-04-09T08:44:20Z</time>
      </trkpt>
      <trkpt lat="43.59875" lon="3.71274">
        <ele>148.9</ele>
        <time>2011-04-09T08:44:21Z</time>
      </trkpt>
      <trkpt lat="43.59875" lon="3.71267">
        <ele>148.3</ele>
        <time>2011-04-09T08:44:22Z</time>
      </trkpt>
      <trkpt lat="43.59878" lon="3.71256">
        <ele>147.4</ele>
        <time>2011-04-09T08:44:24Z</time>
      </trkpt>
      <trkpt lat="43.5988" lon="3.71247">
        <ele>146.8</ele>
        <time>2011-04-09T08:44:26Z</time>
      </trkpt>
      <trkpt lat="43.59882" lon="3.71237">
        <ele>146.5</ele>
        <time>2011-04-09T08:44:28Z</time>
      </trkpt>
      <trkpt lat="43.59885" lon="3.71227">
        <ele>146.3</ele>
        <time>2011-04-09T08:44:30Z</time>
      </trkpt>
      <trkpt lat="43.59887" lon="3.71216">
        <ele>146.2</ele>
        <time>2011-04-09T08:44:32Z</time>
      </trkpt>
      <trkpt lat="43.59888" lon="3.7121">
        <ele>146.1</ele>
        <time>2011-04-09T08:44:33Z</time>
      </trkpt>
      <trkpt lat="43.59889" lon="3.71204">
        <ele>146</ele>
        <time>2011-04-09T08:44:34Z</time>
      </trkpt>
      <trkpt lat="43.5989" lon="3.71197">
        <ele>146</ele>
        <time>2011-04-09T08:44:35Z</time>
      </trkpt>
      <trkpt lat="43.59891" lon="3.7119">
        <ele>145.7</ele>
        <time>2011-04-09T08:44:36Z</time>
      </trkpt>
      <trkpt lat="43.59893" lon="3.71183">
        <ele>145.4</ele>
        <time>2011-04-09T08:44:37Z</time>
      </trkpt>
      <trkpt lat="43.59894" lon="3.71176">
        <ele>145.3</ele>
        <time>2011-04-09T08:44:38Z</time>
      </trkpt>
      <trkpt lat="43.59896" lon="3.7117">
        <ele>144.8</ele>
        <time>2011-04-09T08:44:39Z</time>
      </trkpt>
      <trkpt lat="43.59899" lon="3.71164">
        <ele>144.4</ele>
        <time>2011-04-09T08:44:40Z</time>
      </trkpt>
      <trkpt lat="43.59901" lon="3.71158">
        <ele>144.2</ele>
        <time>2011-04-09T08:44:41Z</time>
      </trkpt>
      <trkpt lat="43.59903" lon="3.71151">
        <ele>143.8</ele>
        <time>2011-04-09T08:44:42Z</time>
      </trkpt>
      <trkpt lat="43.59905" lon="3.71144">
        <ele>143.6</ele>
        <time>2011-04-09T08:44:43Z</time>
      </trkpt>
      <trkpt lat="43.59907" lon="3.71137">
        <ele>143.4</ele>
        <time>2011-04-09T08:44:44Z</time>
      </trkpt>
      <trkpt lat="43.59908" lon="3.71129">
        <ele>143.3</ele>
        <time>2011-04-09T08:44:45Z</time>
      </trkpt>
      <trkpt lat="43.5991" lon="3.71122">
        <ele>142.2</ele>
        <time>2011-04-09T08:44:46Z</time>
      </trkpt>
      <trkpt lat="43.59912" lon="3.71114">
        <ele>141.4</ele>
        <time>2011-04-09T08:44:47Z</time>
      </trkpt>
      <trkpt lat="43.59913" lon="3.71107">
        <ele>140.8</ele>
        <time>2011-04-09T08:44:48Z</time>
      </trkpt>
      <trkpt lat="43.59915" lon="3.71097">
        <ele>139.5</ele>
        <time>2011-04-09T08:44:50Z</time>
      </trkpt>
      <trkpt lat="43.59916" lon="3.71087">
        <ele>138.7</ele>
        <time>2011-04-09T08:44:52Z</time>
      </trkpt>
      <trkpt lat="43.59918" lon="3.71082">
        <ele>138.4</ele>
        <time>2011-04-09T08:44:53Z</time>
      </trkpt>
      <trkpt lat="43.5992" lon="3.71076">
        <ele>138.1</ele>
        <time>2011-04-09T08:44:54Z</time>
      </trkpt>
      <trkpt lat="43.59923" lon="3.71071">
        <ele>137.5</ele>
        <time>2011-04-09T08:44:55Z</time>
      </trkpt>
      <trkpt lat="43.59926" lon="3.71065">
        <ele>137.1</ele>
        <time>2011-04-09T08:44:56Z</time>
      </trkpt>
      <trkpt lat="43.59929" lon="3.71058">
        <ele>136.8</ele>
        <time>2011-04-09T08:44:57Z</time>
      </trkpt>
      <trkpt lat="43.59932" lon="3.71051">
        <ele>135.9</ele>
        <time>2011-04-09T08:44:58Z</time>
      </trkpt>
      <trkpt lat="43.59935" lon="3.71044">
        <ele>135.3</ele>
        <time>2011-04-09T08:44:59Z</time>
      </trkpt>
      <trkpt lat="43.59936" lon="3.71036">
        <ele>134.8</ele>
        <time>2011-04-09T08:45:00Z</time>
      </trkpt>
      <trkpt lat="43.59939" lon="3.71031">
        <ele>134.4</ele>
        <time>2011-04-09T08:45:01Z</time>
      </trkpt>
      <trkpt lat="43.59941" lon="3.71019">
        <ele>133.5</ele>
        <time>2011-04-09T08:45:03Z</time>
      </trkpt>
      <trkpt lat="43.59945" lon="3.7101">
        <ele>133.1</ele>
        <time>2011-04-09T08:45:05Z</time>
      </trkpt>
      <trkpt lat="43.59947" lon="3.71001">
        <ele>132.9</ele>
        <time>2011-04-09T08:45:07Z</time>
      </trkpt>
      <trkpt lat="43.59949" lon="3.7099">
        <ele>132.8</ele>
        <time>2011-04-09T08:45:09Z</time>
      </trkpt>
      <trkpt lat="43.59949" lon="3.70981">
        <ele>133.2</ele>
        <time>2011-04-09T08:45:11Z</time>
      </trkpt>
      <trkpt lat="43.59952" lon="3.70969">
        <ele>134</ele>
        <time>2011-04-09T08:45:14Z</time>
      </trkpt>
      <trkpt lat="43.59957" lon="3.70959">
        <ele>134.5</ele>
        <time>2011-04-09T08:45:17Z</time>
      </trkpt>
      <trkpt lat="43.59959" lon="3.70951">
        <ele>134.9</ele>
        <time>2011-04-09T08:45:19Z</time>
      </trkpt>
      <trkpt lat="43.5996" lon="3.70947">
        <ele>135</ele>
        <time>2011-04-09T08:45:20Z</time>
      </trkpt>
      <trkpt lat="43.59963" lon="3.70932">
        <ele>135.9</ele>
        <time>2011-04-09T08:45:24Z</time>
      </trkpt>
      <trkpt lat="43.59965" lon="3.70923">
        <ele>136.9</ele>
        <time>2011-04-09T08:45:27Z</time>
      </trkpt>
      <trkpt lat="43.59969" lon="3.70914">
        <ele>137.3</ele>
        <time>2011-04-09T08:45:30Z</time>
      </trkpt>
      <trkpt lat="43.59972" lon="3.70905">
        <ele>137.1</ele>
        <time>2011-04-09T08:45:33Z</time>
      </trkpt>
      <trkpt lat="43.59974" lon="3.70895">
        <ele>137.2</ele>
        <time>2011-04-09T08:45:37Z</time>
      </trkpt>
      <trkpt lat="43.59976" lon="3.70884">
        <ele>137.7</ele>
        <time>2011-04-09T08:45:42Z</time>
      </trkpt>
      <trkpt lat="43.59978" lon="3.70872">
        <ele>138.8</ele>
        <time>2011-04-09T08:45:48Z</time>
      </trkpt>
      <trkpt lat="43.59981" lon="3.70862">
        <ele>139.5</ele>
        <time>2011-04-09T08:45:53Z</time>
      </trkpt>
      <trkpt lat="43.59981" lon="3.7085">
        <ele>138.9</ele>
        <time>2011-04-09T08:45:58Z</time>
      </trkpt>
      <trkpt lat="43.59982" lon="3.70839">
        <ele>139.9</ele>
        <time>2011-04-09T08:46:03Z</time>
      </trkpt>
      <trkpt lat="43.59985" lon="3.7083">
        <ele>140.3</ele>
        <time>2011-04-09T08:46:07Z</time>
      </trkpt>
      <trkpt lat="43.59991" lon="3.70823">
        <ele>140.5</ele>
        <time>2011-04-09T08:46:11Z</time>
      </trkpt>
      <trkpt lat="43.59997" lon="3.70816">
        <ele>140.7</ele>
        <time>2011-04-09T08:46:15Z</time>
      </trkpt>
      <trkpt lat="43.60003" lon="3.70809">
        <ele>141.5</ele>
        <time>2011-04-09T08:46:20Z</time>
      </trkpt>
      <trkpt lat="43.60005" lon="3.70807">
        <ele>141.4</ele>
        <time>2011-04-09T08:46:21Z</time>
      </trkpt>
      <trkpt lat="43.60014" lon="3.70791">
        <ele>141.8</ele>
        <time>2011-04-09T08:46:30Z</time>
      </trkpt>
      <trkpt lat="43.60018" lon="3.70781">
        <ele>142.1</ele>
        <time>2011-04-09T08:46:35Z</time>
      </trkpt>
      <trkpt lat="43.60022" lon="3.70771">
        <ele>143</ele>
        <time>2011-04-09T08:46:40Z</time>
      </trkpt>
      <trkpt lat="43.60026" lon="3.70761">
        <ele>143.4</ele>
        <time>2011-04-09T08:46:46Z</time>
      </trkpt>
      <trkpt lat="43.60029" lon="3.70751">
        <ele>143.5</ele>
        <time>2011-04-09T08:46:51Z</time>
      </trkpt>
      <trkpt lat="43.60031" lon="3.70741">
        <ele>144.5</ele>
        <time>2011-04-09T08:46:56Z</time>
      </trkpt>
      <trkpt lat="43.60032" lon="3.7073">
        <ele>144</ele>
        <time>2011-04-09T08:47:01Z</time>
      </trkpt>
      <trkpt lat="43.60035" lon="3.70718">
        <ele>145.2</ele>
        <time>2011-04-09T08:47:07Z</time>
      </trkpt>
      <trkpt lat="43.60038" lon="3.70707">
        <ele>146.4</ele>
        <time>2011-04-09T08:47:13Z</time>
      </trkpt>
      <trkpt lat="43.6004" lon="3.70697">
        <ele>147.7</ele>
        <time>2011-04-09T08:47:18Z</time>
      </trkpt>
      <trkpt lat="43.60043" lon="3.70687">
        <ele>147.5</ele>
        <time>2011-04-09T08:47:22Z</time>
      </trkpt>
      <trkpt lat="43.60043" lon="3.70685">
        <ele>147.6</ele>
        <time>2011-04-09T08:47:23Z</time>
      </trkpt>
      <trkpt lat="43.60048" lon="3.70667">
        <ele>147.5</ele>
        <time>2011-04-09T08:47:30Z</time>
      </trkpt>
      <trkpt lat="43.60051" lon="3.70658">
        <ele>148.4</ele>
        <time>2011-04-09T08:47:34Z</time>
      </trkpt>
      <trkpt lat="43.60054" lon="3.70647">
        <ele>149.2</ele>
        <time>2011-04-09T08:47:39Z</time>
      </trkpt>
      <trkpt lat="43.60058" lon="3.70638">
        <ele>149.9</ele>
        <time>2011-04-09T08:47:44Z</time>
      </trkpt>
      <trkpt lat="43.6006" lon="3.70628">
        <ele>149.7</ele>
        <time>2011-04-09T08:47:49Z</time>
      </trkpt>
      <trkpt lat="43.60063" lon="3.70616">
        <ele>150.2</ele>
        <time>2011-04-09T08:47:54Z</time>
      </trkpt>
      <trkpt lat="43.60064" lon="3.70606">
        <ele>150.7</ele>
        <time>2011-04-09T08:47:59Z</time>
      </trkpt>
      <trkpt lat="43.60065" lon="3.70594">
        <ele>152.8</ele>
        <time>2011-04-09T08:48:05Z</time>
      </trkpt>
      <trkpt lat="43.60066" lon="3.70583">
        <ele>152.7</ele>
        <time>2011-04-09T08:48:10Z</time>
      </trkpt>
      <trkpt lat="43.60067" lon="3.70571">
        <ele>153.1</ele>
        <time>2011-04-09T08:48:16Z</time>
      </trkpt>
      <trkpt lat="43.60067" lon="3.70559">
        <ele>151.5</ele>
        <time>2011-04-09T08:48:22Z</time>
      </trkpt>
      <trkpt lat="43.60069" lon="3.70548">
        <ele>153.8</ele>
        <time>2011-04-09T08:48:27Z</time>
      </trkpt>
      <trkpt lat="43.60069" lon="3.70546">
        <ele>154.2</ele>
        <time>2011-04-09T08:48:28Z</time>
      </trkpt>
      <trkpt lat="43.60071" lon="3.70525">
        <ele>155.9</ele>
        <time>2011-04-09T08:48:37Z</time>
      </trkpt>
      <trkpt lat="43.60073" lon="3.70514">
        <ele>156.8</ele>
        <time>2011-04-09T08:48:42Z</time>
      </trkpt>
      <trkpt lat="43.60074" lon="3.70503">
        <ele>157.3</ele>
        <time>2011-04-09T08:48:46Z</time>
      </trkpt>
      <trkpt lat="43.60076" lon="3.70493">
        <ele>158.3</ele>
        <time>2011-04-09T08:48:50Z</time>
      </trkpt>
      <trkpt lat="43.60078" lon="3.70483">
        <ele>159</ele>
        <time>2011-04-09T08:48:54Z</time>
      </trkpt>
      <trkpt lat="43.60081" lon="3.70472">
        <ele>159.7</ele>
        <time>2011-04-09T08:48:59Z</time>
      </trkpt>
      <trkpt lat="43.60084" lon="3.70463">
        <ele>160.9</ele>
        <time>2011-04-09T08:49:03Z</time>
      </trkpt>
      <trkpt lat="43.6009" lon="3.70453">
        <ele>161.9</ele>
        <time>2011-04-09T08:49:08Z</time>
      </trkpt>
      <trkpt lat="43.60095" lon="3.70447">
        <ele>162.6</ele>
        <time>2011-04-09T08:49:12Z</time>
      </trkpt>
      <trkpt lat="43.60101" lon="3.70441">
        <ele>162.1</ele>
        <time>2011-04-09T08:49:16Z</time>
      </trkpt>
      <trkpt lat="43.60107" lon="3.70434">
        <ele>162.4</ele>
        <time>2011-04-09T08:49:21Z</time>
      </trkpt>
      <trkpt lat="43.60114" lon="3.7043">
        <ele>163.1</ele>
        <time>2011-04-09T08:49:26Z</time>
      </trkpt>
      <trkpt lat="43.60122" lon="3.70427">
        <ele>164.5</ele>
        <time>2011-04-09T08:49:31Z</time>
      </trkpt>
      <trkpt lat="43.60124" lon="3.70427">
        <ele>164.5</ele>
        <time>2011-04-09T08:49:32Z</time>
      </trkpt>
      <trkpt lat="43.60137" lon="3.70428">
        <ele>163.7</ele>
        <time>2011-04-09T08:49:39Z</time>
      </trkpt>
      <trkpt lat="43.60145" lon="3.7043">
        <ele>164.4</ele>
        <time>2011-04-09T08:49:43Z</time>
      </trkpt>
      <trkpt lat="43.60152" lon="3.70433">
        <ele>165.5</ele>
        <time>2011-04-09T08:49:47Z</time>
      </trkpt>
      <trkpt lat="43.6016" lon="3.70436">
        <ele>165.2</ele>
        <time>2011-04-09T08:49:51Z</time>
      </trkpt>
      <trkpt lat="43.60168" lon="3.7044">
        <ele>165.7</ele>
        <time>2011-04-09T08:49:55Z</time>
      </trkpt>
      <trkpt lat="43.60176" lon="3.70441">
        <ele>166.9</ele>
        <time>2011-04-09T08:49:59Z</time>
      </trkpt>
      <trkpt lat="43.60184" lon="3.70441">
        <ele>167.6</ele>
        <time>2011-04-09T08:50:03Z</time>
      </trkpt>
      <trkpt lat="43.60192" lon="3.70441">
        <ele>168.1</ele>
        <time>2011-04-09T08:50:07Z</time>
      </trkpt>
      <trkpt lat="43.602" lon="3.70441">
        <ele>169.2</ele>
        <time>2011-04-09T08:50:11Z</time>
      </trkpt>
      <trkpt lat="43.60209" lon="3.7044">
        <ele>169.8</ele>
        <time>2011-04-09T08:50:16Z</time>
      </trkpt>
      <trkpt lat="43.60216" lon="3.70437">
        <ele>171.2</ele>
        <time>2011-04-09T08:50:20Z</time>
      </trkpt>
      <trkpt lat="43.60225" lon="3.70436">
        <ele>171.9</ele>
        <time>2011-04-09T08:50:25Z</time>
      </trkpt>
      <trkpt lat="43.60232" lon="3.70437">
        <ele>172.5</ele>
        <time>2011-04-09T08:50:29Z</time>
      </trkpt>
      <trkpt lat="43.60241" lon="3.70437">
        <ele>173.5</ele>
        <time>2011-04-09T08:50:34Z</time>
      </trkpt>
      <trkpt lat="43.60243" lon="3.70437">
        <ele>173.7</ele>
        <time>2011-04-09T08:50:35Z</time>
      </trkpt>
      <trkpt lat="43.60256" lon="3.7044">
        <ele>176.3</ele>
        <time>2011-04-09T08:50:43Z</time>
      </trkpt>
      <trkpt lat="43.60263" lon="3.70443">
        <ele>177.7</ele>
        <time>2011-04-09T08:50:47Z</time>
      </trkpt>
      <trkpt lat="43.60269" lon="3.70451">
        <ele>178.2</ele>
        <time>2011-04-09T08:50:52Z</time>
      </trkpt>
      <trkpt lat="43.60271" lon="3.70462">
        <ele>179.4</ele>
        <time>2011-04-09T08:50:57Z</time>
      </trkpt>
      <trkpt lat="43.60279" lon="3.70467">
        <ele>180.7</ele>
        <time>2011-04-09T08:51:02Z</time>
      </trkpt>
      <trkpt lat="43.60287" lon="3.70463">
        <ele>182</ele>
        <time>2011-04-09T08:51:07Z</time>
      </trkpt>
      <trkpt lat="43.60295" lon="3.70463">
        <ele>182.7</ele>
        <time>2011-04-09T08:51:11Z</time>
      </trkpt>
      <trkpt lat="43.60303" lon="3.70465">
        <ele>183.1</ele>
        <time>2011-04-09T08:51:16Z</time>
      </trkpt>
      <trkpt lat="43.60312" lon="3.70466">
        <ele>184.4</ele>
        <time>2011-04-09T08:51:21Z</time>
      </trkpt>
      <trkpt lat="43.60319" lon="3.70462">
        <ele>184.8</ele>
        <time>2011-04-09T08:51:25Z</time>
      </trkpt>
      <trkpt lat="43.60324" lon="3.70453">
        <ele>186.7</ele>
        <time>2011-04-09T08:51:29Z</time>
      </trkpt>
      <trkpt lat="43.60327" lon="3.70444">
        <ele>187.1</ele>
        <time>2011-04-09T08:51:32Z</time>
      </trkpt>
      <trkpt lat="43.60332" lon="3.70435">
        <ele>187</ele>
        <time>2011-04-09T08:51:36Z</time>
      </trkpt>
      <trkpt lat="43.60334" lon="3.70432">
        <ele>187</ele>
        <time>2011-04-09T08:51:37Z</time>
      </trkpt>
      <trkpt lat="43.60344" lon="3.7042">
        <ele>187.4</ele>
        <time>2011-04-09T08:51:43Z</time>
      </trkpt>
      <trkpt lat="43.60351" lon="3.70412">
        <ele>188.5</ele>
        <time>2011-04-09T08:51:47Z</time>
      </trkpt>
      <trkpt lat="43.60353" lon="3.70401">
        <ele>189.6</ele>
        <time>2011-04-09T08:51:52Z</time>
      </trkpt>
      <trkpt lat="43.60348" lon="3.70393">
        <ele>191.2</ele>
        <time>2011-04-09T08:51:57Z</time>
      </trkpt>
      <trkpt lat="43.60341" lon="3.70387">
        <ele>189.9</ele>
        <time>2011-04-09T08:52:02Z</time>
      </trkpt>
      <trkpt lat="43.60334" lon="3.70382">
        <ele>190.2</ele>
        <time>2011-04-09T08:52:09Z</time>
      </trkpt>
      <trkpt lat="43.60327" lon="3.70376">
        <ele>190.8</ele>
        <time>2011-04-09T08:52:15Z</time>
      </trkpt>
      <trkpt lat="43.6032" lon="3.70369">
        <ele>191.9</ele>
        <time>2011-04-09T08:52:22Z</time>
      </trkpt>
      <trkpt lat="43.60315" lon="3.7036">
        <ele>192.2</ele>
        <time>2011-04-09T08:59:36Z</time>
      </trkpt>
      <trkpt lat="43.60314" lon="3.70358">
        <ele>192.1</ele>
        <time>2011-04-09T08:59:37Z</time>
      </trkpt>
      <trkpt lat="43.603" lon="3.70352">
        <ele>194</ele>
        <time>2011-04-09T08:59:50Z</time>
      </trkpt>
      <trkpt lat="43.60291" lon="3.70351">
        <ele>194.8</ele>
        <time>2011-04-09T08:59:55Z</time>
      </trkpt>
      <trkpt lat="43.60284" lon="3.70348">
        <ele>195.5</ele>
        <time>2011-04-09T08:59:59Z</time>
      </trkpt>
      <trkpt lat="43.60276" lon="3.70346">
        <ele>196.6</ele>
        <time>2011-04-09T09:00:04Z</time>
      </trkpt>
      <trkpt lat="43.60268" lon="3.70343">
        <ele>198.2</ele>
        <time>2011-04-09T09:00:09Z</time>
      </trkpt>
      <trkpt lat="43.60261" lon="3.7034">
        <ele>199.2</ele>
        <time>2011-04-09T09:00:14Z</time>
      </trkpt>
      <trkpt lat="43.60254" lon="3.70337">
        <ele>199.9</ele>
        <time>2011-04-09T09:00:19Z</time>
      </trkpt>
      <trkpt lat="43.60247" lon="3.70332">
        <ele>200.3</ele>
        <time>2011-04-09T09:00:24Z</time>
      </trkpt>
      <trkpt lat="43.6024" lon="3.70326">
        <ele>202.1</ele>
        <time>2011-04-09T09:00:29Z</time>
      </trkpt>
      <trkpt lat="43.60233" lon="3.7032">
        <ele>202.8</ele>
        <time>2011-04-09T09:00:34Z</time>
      </trkpt>
      <trkpt lat="43.60226" lon="3.70313">
        <ele>204</ele>
        <time>2011-04-09T09:00:39Z</time>
      </trkpt>
      <trkpt lat="43.60224" lon="3.70312">
        <ele>204.2</ele>
        <time>2011-04-09T09:00:40Z</time>
      </trkpt>
      <trkpt lat="43.60212" lon="3.70303">
        <ele>204.8</ele>
        <time>2011-04-09T09:00:45Z</time>
      </trkpt>
      <trkpt lat="43.60205" lon="3.70296">
        <ele>204.4</ele>
        <time>2011-04-09T09:00:48Z</time>
      </trkpt>
      <trkpt lat="43.60199" lon="3.70288">
        <ele>204.8</ele>
        <time>2011-04-09T09:00:51Z</time>
      </trkpt>
      <trkpt lat="43.60195" lon="3.70281">
        <ele>204.8</ele>
        <time>2011-04-09T09:00:53Z</time>
      </trkpt>
      <trkpt lat="43.6019" lon="3.70272">
        <ele>204.6</ele>
        <time>2011-04-09T09:00:56Z</time>
      </trkpt>
      <trkpt lat="43.60186" lon="3.70266">
        <ele>204.7</ele>
        <time>2011-04-09T09:00:58Z</time>
      </trkpt>
      <trkpt lat="43.60181" lon="3.7026">
        <ele>204.6</ele>
        <time>2011-04-09T09:01:00Z</time>
      </trkpt>
      <trkpt lat="43.60175" lon="3.70252">
        <ele>204.4</ele>
        <time>2011-04-09T09:01:02Z</time>
      </trkpt>
      <trkpt lat="43.6017" lon="3.70243">
        <ele>204.2</ele>
        <time>2011-04-09T09:01:04Z</time>
      </trkpt>
      <trkpt lat="43.60168" lon="3.70238">
        <ele>204.1</ele>
        <time>2011-04-09T09:01:05Z</time>
      </trkpt>
      <trkpt lat="43.60162" lon="3.70228">
        <ele>204.2</ele>
        <time>2011-04-09T09:01:07Z</time>
      </trkpt>
      <trkpt lat="43.60161" lon="3.7022">
        <ele>203.8</ele>
        <time>2011-04-09T09:01:09Z</time>
      </trkpt>
      <trkpt lat="43.60156" lon="3.7021">
        <ele>203.5</ele>
        <time>2011-04-09T09:01:12Z</time>
      </trkpt>
      <trkpt lat="43.60151" lon="3.70202">
        <ele>203.6</ele>
        <time>2011-04-09T09:01:15Z</time>
      </trkpt>
      <trkpt lat="43.60148" lon="3.70194">
        <ele>203.4</ele>
        <time>2011-04-09T09:01:17Z</time>
      </trkpt>
      <trkpt lat="43.60145" lon="3.70185">
        <ele>203.4</ele>
        <time>2011-04-09T09:01:19Z</time>
      </trkpt>
      <trkpt lat="43.60141" lon="3.70177">
        <ele>203.4</ele>
        <time>2011-04-09T09:01:21Z</time>
      </trkpt>
      <trkpt lat="43.60138" lon="3.70168">
        <ele>202.8</ele>
        <time>2011-04-09T09:01:23Z</time>
      </trkpt>
      <trkpt lat="43.60134" lon="3.70158">
        <ele>202</ele>
        <time>2011-04-09T09:01:25Z</time>
      </trkpt>
      <trkpt lat="43.60131" lon="3.70149">
        <ele>201.3</ele>
        <time>2011-04-09T09:01:27Z</time>
      </trkpt>
      <trkpt lat="43.60127" lon="3.70138">
        <ele>200.6</ele>
        <time>2011-04-09T09:01:44Z</time>
      </trkpt>
      <trkpt lat="43.60127" lon="3.70137">
        <ele>200.9</ele>
        <time>2011-04-09T09:01:45Z</time>
      </trkpt>
      <trkpt lat="43.60132" lon="3.70118">
        <ele>198.9</ele>
        <time>2011-04-09T09:01:54Z</time>
      </trkpt>
      <trkpt lat="43.6014" lon="3.7012">
        <ele>196.6</ele>
        <time>2011-04-09T09:01:58Z</time>
      </trkpt>
      <trkpt lat="43.60148" lon="3.70123">
        <ele>193.1</ele>
        <time>2011-04-09T09:02:01Z</time>
      </trkpt>
      <trkpt lat="43.60154" lon="3.70116">
        <ele>190.4</ele>
        <time>2011-04-09T09:02:04Z</time>
      </trkpt>
      <trkpt lat="43.60158" lon="3.70106">
        <ele>188.7</ele>
        <time>2011-04-09T09:02:06Z</time>
      </trkpt>
      <trkpt lat="43.60163" lon="3.70097">
        <ele>187.2</ele>
        <time>2011-04-09T09:02:08Z</time>
      </trkpt>
      <trkpt lat="43.60166" lon="3.70091">
        <ele>184.5</ele>
        <time>2011-04-09T09:02:10Z</time>
      </trkpt>
      <trkpt lat="43.60168" lon="3.70086">
        <ele>183.7</ele>
        <time>2011-04-09T09:02:11Z</time>
      </trkpt>
      <trkpt lat="43.60171" lon="3.7008">
        <ele>183</ele>
        <time>2011-04-09T09:02:12Z</time>
      </trkpt>
      <trkpt lat="43.60174" lon="3.70073">
        <ele>181.7</ele>
        <time>2011-04-09T09:02:13Z</time>
      </trkpt>
      <trkpt lat="43.60178" lon="3.70067">
        <ele>180.8</ele>
        <time>2011-04-09T09:02:14Z</time>
      </trkpt>
      <trkpt lat="43.60183" lon="3.7006">
        <ele>180</ele>
        <time>2011-04-09T09:02:15Z</time>
      </trkpt>
      <trkpt lat="43.60188" lon="3.70054">
        <ele>179</ele>
        <time>2011-04-09T09:02:16Z</time>
      </trkpt>
      <trkpt lat="43.60193" lon="3.70048">
        <ele>178.2</ele>
        <time>2011-04-09T09:02:17Z</time>
      </trkpt>
      <trkpt lat="43.60197" lon="3.7004">
        <ele>177.6</ele>
        <time>2011-04-09T09:02:18Z</time>
      </trkpt>
      <trkpt lat="43.60202" lon="3.70033">
        <ele>176.5</ele>
        <time>2011-04-09T09:02:19Z</time>
      </trkpt>
      <trkpt lat="43.60206" lon="3.70029">
        <ele>175.7</ele>
        <time>2011-04-09T09:02:20Z</time>
      </trkpt>
      <trkpt lat="43.60208" lon="3.70024">
        <ele>175.1</ele>
        <time>2011-04-09T09:02:21Z</time>
      </trkpt>
      <trkpt lat="43.6021" lon="3.70016">
        <ele>174.1</ele>
        <time>2011-04-09T09:02:22Z</time>
      </trkpt>
      <trkpt lat="43.60214" lon="3.70006">
        <ele>172.9</ele>
        <time>2011-04-09T09:02:24Z</time>
      </trkpt>
      <trkpt lat="43.60219" lon="3.7">
        <ele>171.7</ele>
        <time>2011-04-09T09:02:26Z</time>
      </trkpt>
      <trkpt lat="43.60217" lon="3.6999">
        <ele>170.3</ele>
        <time>2011-04-09T09:02:29Z</time>
      </trkpt>
      <trkpt lat="43.60216" lon="3.69979">
        <ele>169.3</ele>
        <time>2011-04-09T09:02:32Z</time>
      </trkpt>
      <trkpt lat="43.60221" lon="3.69971">
        <ele>169.4</ele>
        <time>2011-04-09T09:02:34Z</time>
      </trkpt>
      <trkpt lat="43.60224" lon="3.69965">
        <ele>168.9</ele>
        <time>2011-04-09T09:02:35Z</time>
      </trkpt>
      <trkpt lat="43.60227" lon="3.69954">
        <ele>168.2</ele>
        <time>2011-04-09T09:02:37Z</time>
      </trkpt>
      <trkpt lat="43.60227" lon="3.69948">
        <ele>167.5</ele>
        <time>2011-04-09T09:02:38Z</time>
      </trkpt>
      <trkpt lat="43.60225" lon="3.69942">
        <ele>167</ele>
        <time>2011-04-09T09:02:39Z</time>
      </trkpt>
      <trkpt lat="43.60222" lon="3.69936">
        <ele>166.7</ele>
        <time>2011-04-09T09:02:40Z</time>
      </trkpt>
      <trkpt lat="43.60219" lon="3.6993">
        <ele>166.4</ele>
        <time>2011-04-09T09:02:41Z</time>
      </trkpt>
      <trkpt lat="43.60216" lon="3.69925">
        <ele>166.3</ele>
        <time>2011-04-09T09:02:42Z</time>
      </trkpt>
      <trkpt lat="43.60215" lon="3.69919">
        <ele>166.1</ele>
        <time>2011-04-09T09:02:43Z</time>
      </trkpt>
      <trkpt lat="43.60214" lon="3.69912">
        <ele>166</ele>
        <time>2011-04-09T09:02:44Z</time>
      </trkpt>
      <trkpt lat="43.60213" lon="3.699">
        <ele>165.5</ele>
        <time>2011-04-09T09:02:46Z</time>
      </trkpt>
      <trkpt lat="43.60211" lon="3.69896">
        <ele>165.4</ele>
        <time>2011-04-09T09:02:47Z</time>
      </trkpt>
      <trkpt lat="43.60202" lon="3.69882">
        <ele>164.2</ele>
        <time>2011-04-09T09:02:50Z</time>
      </trkpt>
      <trkpt lat="43.60196" lon="3.69877">
        <ele>163.7</ele>
        <time>2011-04-09T09:02:52Z</time>
      </trkpt>
      <trkpt lat="43.60189" lon="3.69874">
        <ele>163.4</ele>
        <time>2011-04-09T09:02:55Z</time>
      </trkpt>
      <trkpt lat="43.60184" lon="3.69867">
        <ele>163.2</ele>
        <time>2011-04-09T09:02:57Z</time>
      </trkpt>
      <trkpt lat="43.6018" lon="3.69861">
        <ele>163</ele>
        <time>2011-04-09T09:02:59Z</time>
      </trkpt>
      <trkpt lat="43.60176" lon="3.69852">
        <ele>162.5</ele>
        <time>2011-04-09T09:03:01Z</time>
      </trkpt>
      <trkpt lat="43.60176" lon="3.69843">
        <ele>162</ele>
        <time>2011-04-09T09:03:03Z</time>
      </trkpt>
      <trkpt lat="43.60183" lon="3.69836">
        <ele>161.6</ele>
        <time>2011-04-09T09:03:08Z</time>
      </trkpt>
      <trkpt lat="43.6019" lon="3.6984">
        <ele>162.4</ele>
        <time>2011-04-09T09:03:13Z</time>
      </trkpt>
      <trkpt lat="43.60199" lon="3.6984">
        <ele>163.4</ele>
        <time>2011-04-09T09:03:18Z</time>
      </trkpt>
      <trkpt lat="43.60207" lon="3.69844">
        <ele>165.5</ele>
        <time>2011-04-09T09:03:23Z</time>
      </trkpt>
      <trkpt lat="43.60215" lon="3.69848">
        <ele>167</ele>
        <time>2011-04-09T09:03:29Z</time>
      </trkpt>
      <trkpt lat="43.60221" lon="3.69856">
        <ele>167.8</ele>
        <time>2011-04-09T09:03:34Z</time>
      </trkpt>
      <trkpt lat="43.60229" lon="3.69858">
        <ele>168.9</ele>
        <time>2011-04-09T09:03:40Z</time>
      </trkpt>
      <trkpt lat="43.60237" lon="3.69858">
        <ele>170</ele>
        <time>2011-04-09T09:03:46Z</time>
      </trkpt>
      <trkpt lat="43.60245" lon="3.69861">
        <ele>171.5</ele>
        <time>2011-04-09T09:03:52Z</time>
      </trkpt>
      <trkpt lat="43.60247" lon="3.69861">
        <ele>171.6</ele>
        <time>2011-04-09T09:03:53Z</time>
      </trkpt>
      <trkpt lat="43.60261" lon="3.69865">
        <ele>175.3</ele>
        <time>2011-04-09T09:04:03Z</time>
      </trkpt>
      <trkpt lat="43.60267" lon="3.69869">
        <ele>176</ele>
        <time>2011-04-09T09:04:08Z</time>
      </trkpt>
      <trkpt lat="43.60275" lon="3.69874">
        <ele>178.1</ele>
        <time>2011-04-09T09:04:14Z</time>
      </trkpt>
      <trkpt lat="43.60283" lon="3.69878">
        <ele>179.5</ele>
        <time>2011-04-09T09:04:20Z</time>
      </trkpt>
      <trkpt lat="43.6029" lon="3.69878">
        <ele>180.3</ele>
        <time>2011-04-09T09:04:25Z</time>
      </trkpt>
      <trkpt lat="43.60298" lon="3.69873">
        <ele>181.9</ele>
        <time>2011-04-09T09:04:31Z</time>
      </trkpt>
      <trkpt lat="43.60304" lon="3.69864">
        <ele>182.7</ele>
        <time>2011-04-09T09:04:37Z</time>
      </trkpt>
      <trkpt lat="43.6031" lon="3.69858">
        <ele>183.6</ele>
        <time>2011-04-09T09:04:42Z</time>
      </trkpt>
      <trkpt lat="43.60316" lon="3.69851">
        <ele>184.2</ele>
        <time>2011-04-09T09:04:47Z</time>
      </trkpt>
      <trkpt lat="43.60323" lon="3.69843">
        <ele>185.8</ele>
        <time>2011-04-09T09:04:54Z</time>
      </trkpt>
      <trkpt lat="43.60323" lon="3.69842">
        <ele>185.9</ele>
        <time>2011-04-09T09:04:55Z</time>
      </trkpt>
      <trkpt lat="43.6033" lon="3.69822">
        <ele>185.8</ele>
        <time>2011-04-09T09:05:10Z</time>
      </trkpt>
      <trkpt lat="43.60337" lon="3.69816">
        <ele>184.9</ele>
        <time>2011-04-09T09:05:15Z</time>
      </trkpt>
      <trkpt lat="43.60343" lon="3.69815">
        <ele>184.8</ele>
        <time>2011-04-09T09:05:17Z</time>
      </trkpt>
      <trkpt lat="43.6035" lon="3.69813">
        <ele>184.1</ele>
        <time>2011-04-09T09:05:19Z</time>
      </trkpt>
      <trkpt lat="43.60357" lon="3.69809">
        <ele>183.7</ele>
        <time>2011-04-09T09:05:21Z</time>
      </trkpt>
      <trkpt lat="43.60362" lon="3.69803">
        <ele>183.4</ele>
        <time>2011-04-09T09:05:23Z</time>
      </trkpt>
      <trkpt lat="43.60366" lon="3.69796">
        <ele>182.6</ele>
        <time>2011-04-09T09:05:25Z</time>
      </trkpt>
      <trkpt lat="43.60373" lon="3.6979">
        <ele>180.5</ele>
        <time>2011-04-09T09:05:28Z</time>
      </trkpt>
      <trkpt lat="43.60381" lon="3.69785">
        <ele>178.6</ele>
        <time>2011-04-09T09:05:31Z</time>
      </trkpt>
      <trkpt lat="43.60389" lon="3.69783">
        <ele>176.3</ele>
        <time>2011-04-09T09:05:34Z</time>
      </trkpt>
      <trkpt lat="43.60396" lon="3.69782">
        <ele>174.9</ele>
        <time>2011-04-09T09:05:36Z</time>
      </trkpt>
      <trkpt lat="43.60403" lon="3.6978">
        <ele>172.9</ele>
        <time>2011-04-09T09:05:38Z</time>
      </trkpt>
      <trkpt lat="43.6041" lon="3.69776">
        <ele>170.7</ele>
        <time>2011-04-09T09:05:40Z</time>
      </trkpt>
      <trkpt lat="43.60417" lon="3.69771">
        <ele>168.6</ele>
        <time>2011-04-09T09:05:42Z</time>
      </trkpt>
      <trkpt lat="43.60423" lon="3.69769">
        <ele>167.4</ele>
        <time>2011-04-09T09:05:43Z</time>
      </trkpt>
      <trkpt lat="43.6043" lon="3.69766">
        <ele>166.4</ele>
        <time>2011-04-09T09:05:44Z</time>
      </trkpt>
      <trkpt lat="43.60436" lon="3.69763">
        <ele>165.7</ele>
        <time>2011-04-09T09:05:45Z</time>
      </trkpt>
      <trkpt lat="43.60442" lon="3.6976">
        <ele>165.1</ele>
        <time>2011-04-09T09:05:46Z</time>
      </trkpt>
      <trkpt lat="43.60448" lon="3.69757">
        <ele>164.1</ele>
        <time>2011-04-09T09:05:47Z</time>
      </trkpt>
      <trkpt lat="43.60453" lon="3.69754">
        <ele>163.4</ele>
        <time>2011-04-09T09:05:48Z</time>
      </trkpt>
      <trkpt lat="43.60458" lon="3.69752">
        <ele>162.8</ele>
        <time>2011-04-09T09:05:49Z</time>
      </trkpt>
      <trkpt lat="43.60466" lon="3.69747">
        <ele>163.6</ele>
        <time>2011-04-09T09:05:51Z</time>
      </trkpt>
      <trkpt lat="43.60474" lon="3.69744">
        <ele>163.7</ele>
        <time>2011-04-09T09:05:53Z</time>
      </trkpt>
      <trkpt lat="43.60482" lon="3.69741">
        <ele>163.6</ele>
        <time>2011-04-09T09:05:55Z</time>
      </trkpt>
      <trkpt lat="43.60486" lon="3.69739">
        <ele>163.3</ele>
        <time>2011-04-09T09:05:56Z</time>
      </trkpt>
      <trkpt lat="43.6049" lon="3.69725">
        <ele>162.5</ele>
        <time>2011-04-09T09:05:59Z</time>
      </trkpt>
      <trkpt lat="43.60491" lon="3.69714">
        <ele>161.8</ele>
        <time>2011-04-09T09:06:01Z</time>
      </trkpt>
      <trkpt lat="43.60493" lon="3.69705">
        <ele>162</ele>
        <time>2011-04-09T09:06:03Z</time>
      </trkpt>
      <trkpt lat="43.60495" lon="3.69696">
        <ele>162</ele>
        <time>2011-04-09T09:06:05Z</time>
      </trkpt>
      <trkpt lat="43.60499" lon="3.69686">
        <ele>159.5</ele>
        <time>2011-04-09T09:06:08Z</time>
      </trkpt>
      <trkpt lat="43.60503" lon="3.6968">
        <ele>157.7</ele>
        <time>2011-04-09T09:06:10Z</time>
      </trkpt>
      <trkpt lat="43.60508" lon="3.69674">
        <ele>156.2</ele>
        <time>2011-04-09T09:06:12Z</time>
      </trkpt>
      <trkpt lat="43.60515" lon="3.69667">
        <ele>153.9</ele>
        <time>2011-04-09T09:06:15Z</time>
      </trkpt>
      <trkpt lat="43.6052" lon="3.69659">
        <ele>151.5</ele>
        <time>2011-04-09T09:06:18Z</time>
      </trkpt>
      <trkpt lat="43.60525" lon="3.6965">
        <ele>149.8</ele>
        <time>2011-04-09T09:06:21Z</time>
      </trkpt>
      <trkpt lat="43.60531" lon="3.69642">
        <ele>146.2</ele>
        <time>2011-04-09T09:06:24Z</time>
      </trkpt>
      <trkpt lat="43.60538" lon="3.69636">
        <ele>142.9</ele>
        <time>2011-04-09T09:06:27Z</time>
      </trkpt>
      <trkpt lat="43.60543" lon="3.69628">
        <ele>140.2</ele>
        <time>2011-04-09T09:06:30Z</time>
      </trkpt>
      <trkpt lat="43.60549" lon="3.69624">
        <ele>138.9</ele>
        <time>2011-04-09T09:06:33Z</time>
      </trkpt>
      <trkpt lat="43.60554" lon="3.69614">
        <ele>136.9</ele>
        <time>2011-04-09T09:06:37Z</time>
      </trkpt>
      <trkpt lat="43.60557" lon="3.69604">
        <ele>133.7</ele>
        <time>2011-04-09T09:06:41Z</time>
      </trkpt>
      <trkpt lat="43.60561" lon="3.69594">
        <ele>131.8</ele>
        <time>2011-04-09T09:06:44Z</time>
      </trkpt>
      <trkpt lat="43.60568" lon="3.69589">
        <ele>129.4</ele>
        <time>2011-04-09T09:06:48Z</time>
      </trkpt>
      <trkpt lat="43.60575" lon="3.69591">
        <ele>126</ele>
        <time>2011-04-09T09:06:56Z</time>
      </trkpt>
      <trkpt lat="43.60577" lon="3.69592">
        <ele>125.4</ele>
        <time>2011-04-09T09:06:57Z</time>
      </trkpt>
      <trkpt lat="43.6059" lon="3.69581">
        <ele>126.4</ele>
        <time>2011-04-09T09:07:35Z</time>
      </trkpt>
      <trkpt lat="43.60597" lon="3.69572">
        <ele>128.9</ele>
        <time>2011-04-09T09:09:26Z</time>
      </trkpt>
      <trkpt lat="43.60597" lon="3.69572">
        <ele>129.3</ele>
        <time>2011-04-09T09:09:27Z</time>
      </trkpt>
      <trkpt lat="43.60614" lon="3.6957">
        <ele>138.1</ele>
        <time>2011-04-09T09:10:06Z</time>
      </trkpt>
      <trkpt lat="43.60623" lon="3.69567">
        <ele>141.5</ele>
        <time>2011-04-09T09:10:42Z</time>
      </trkpt>
      <trkpt lat="43.60623" lon="3.69567">
        <ele>141.7</ele>
        <time>2011-04-09T09:10:43Z</time>
      </trkpt>
      <trkpt lat="43.60638" lon="3.69577">
        <ele>140.2</ele>
        <time>2011-04-09T09:11:02Z</time>
      </trkpt>
      <trkpt lat="43.60644" lon="3.69581">
        <ele>140.7</ele>
        <time>2011-04-09T09:11:04Z</time>
      </trkpt>
      <trkpt lat="43.6065" lon="3.69587">
        <ele>140.7</ele>
        <time>2011-04-09T09:11:06Z</time>
      </trkpt>
      <trkpt lat="43.60655" lon="3.69592">
        <ele>140.4</ele>
        <time>2011-04-09T09:11:08Z</time>
      </trkpt>
      <trkpt lat="43.60661" lon="3.69599">
        <ele>139.8</ele>
        <time>2011-04-09T09:11:10Z</time>
      </trkpt>
      <trkpt lat="43.60667" lon="3.69606">
        <ele>139.4</ele>
        <time>2011-04-09T09:11:12Z</time>
      </trkpt>
      <trkpt lat="43.60672" lon="3.69612">
        <ele>139.2</ele>
        <time>2011-04-09T09:11:14Z</time>
      </trkpt>
      <trkpt lat="43.60678" lon="3.69618">
        <ele>138.3</ele>
        <time>2011-04-09T09:11:16Z</time>
      </trkpt>
      <trkpt lat="43.60683" lon="3.69624">
        <ele>137.9</ele>
        <time>2011-04-09T09:11:18Z</time>
      </trkpt>
      <trkpt lat="43.60686" lon="3.69628">
        <ele>137.9</ele>
        <time>2011-04-09T09:11:19Z</time>
      </trkpt>
      <trkpt lat="43.60689" lon="3.69634">
        <ele>137.8</ele>
        <time>2011-04-09T09:11:20Z</time>
      </trkpt>
      <trkpt lat="43.60691" lon="3.69641">
        <ele>137.8</ele>
        <time>2011-04-09T09:11:21Z</time>
      </trkpt>
      <trkpt lat="43.60692" lon="3.69647">
        <ele>136.9</ele>
        <time>2011-04-09T09:11:22Z</time>
      </trkpt>
      <trkpt lat="43.60694" lon="3.69659">
        <ele>135.8</ele>
        <time>2011-04-09T09:11:24Z</time>
      </trkpt>
      <trkpt lat="43.60695" lon="3.6967">
        <ele>136.1</ele>
        <time>2011-04-09T09:11:26Z</time>
      </trkpt>
      <trkpt lat="43.60699" lon="3.6968">
        <ele>136.5</ele>
        <time>2011-04-09T09:11:29Z</time>
      </trkpt>
      <trkpt lat="43.60702" lon="3.69688">
        <ele>136.6</ele>
        <time>2011-04-09T09:11:31Z</time>
      </trkpt>
      <trkpt lat="43.60706" lon="3.69695">
        <ele>136.8</ele>
        <time>2011-04-09T09:11:33Z</time>
      </trkpt>
      <trkpt lat="43.6071" lon="3.69701">
        <ele>137.7</ele>
        <time>2011-04-09T09:11:35Z</time>
      </trkpt>
      <trkpt lat="43.60717" lon="3.69707">
        <ele>138.3</ele>
        <time>2011-04-09T09:11:38Z</time>
      </trkpt>
      <trkpt lat="43.60725" lon="3.69711">
        <ele>139</ele>
        <time>2011-04-09T09:11:41Z</time>
      </trkpt>
      <trkpt lat="43.60734" lon="3.69713">
        <ele>140.3</ele>
        <time>2011-04-09T09:11:45Z</time>
      </trkpt>
      <trkpt lat="43.60736" lon="3.69713">
        <ele>140.4</ele>
        <time>2011-04-09T09:11:46Z</time>
      </trkpt>
      <trkpt lat="43.60751" lon="3.69714">
        <ele>142.4</ele>
        <time>2011-04-09T09:11:55Z</time>
      </trkpt>
      <trkpt lat="43.60758" lon="3.6971">
        <ele>142.6</ele>
        <time>2011-04-09T09:12:00Z</time>
      </trkpt>
      <trkpt lat="43.60767" lon="3.69708">
        <ele>144.7</ele>
        <time>2011-04-09T09:12:07Z</time>
      </trkpt>
      <trkpt lat="43.60775" lon="3.69706">
        <ele>145.7</ele>
        <time>2011-04-09T09:12:13Z</time>
      </trkpt>
      <trkpt lat="43.60783" lon="3.69705">
        <ele>147.1</ele>
        <time>2011-04-09T09:12:18Z</time>
      </trkpt>
      <trkpt lat="43.6079" lon="3.69704">
        <ele>147.5</ele>
        <time>2011-04-09T09:12:24Z</time>
      </trkpt>
      <trkpt lat="43.60798" lon="3.69702">
        <ele>149.7</ele>
        <time>2011-04-09T09:12:30Z</time>
      </trkpt>
      <trkpt lat="43.60807" lon="3.697">
        <ele>150.3</ele>
        <time>2011-04-09T09:12:35Z</time>
      </trkpt>
      <trkpt lat="43.60815" lon="3.69695">
        <ele>152</ele>
        <time>2011-04-09T09:12:41Z</time>
      </trkpt>
      <trkpt lat="43.60822" lon="3.6969">
        <ele>154.1</ele>
        <time>2011-04-09T09:12:51Z</time>
      </trkpt>
      <trkpt lat="43.60823" lon="3.6969">
        <ele>154.3</ele>
        <time>2011-04-09T09:12:52Z</time>
      </trkpt>
      <trkpt lat="43.60837" lon="3.69691">
        <ele>154.8</ele>
        <time>2011-04-09T09:13:00Z</time>
      </trkpt>
      <trkpt lat="43.60845" lon="3.6969">
        <ele>156.2</ele>
        <time>2011-04-09T09:13:05Z</time>
      </trkpt>
      <trkpt lat="43.60853" lon="3.69692">
        <ele>157.5</ele>
        <time>2011-04-09T09:13:11Z</time>
      </trkpt>
      <trkpt lat="43.60861" lon="3.6969">
        <ele>159</ele>
        <time>2011-04-09T09:13:19Z</time>
      </trkpt>
      <trkpt lat="43.6087" lon="3.69689">
        <ele>160.9</ele>
        <time>2011-04-09T09:13:25Z</time>
      </trkpt>
      <trkpt lat="43.60878" lon="3.69689">
        <ele>162.6</ele>
        <time>2011-04-09T09:13:32Z</time>
      </trkpt>
      <trkpt lat="43.60886" lon="3.69688">
        <ele>163.3</ele>
        <time>2011-04-09T09:13:38Z</time>
      </trkpt>
      <trkpt lat="43.60893" lon="3.69685">
        <ele>163.7</ele>
        <time>2011-04-09T09:13:44Z</time>
      </trkpt>
      <trkpt lat="43.60901" lon="3.69683">
        <ele>164.6</ele>
        <time>2011-04-09T09:13:49Z</time>
      </trkpt>
      <trkpt lat="43.6091" lon="3.69683">
        <ele>165.7</ele>
        <time>2011-04-09T09:13:55Z</time>
      </trkpt>
      <trkpt lat="43.60911" lon="3.69683">
        <ele>166.2</ele>
        <time>2011-04-09T09:13:56Z</time>
      </trkpt>
      <trkpt lat="43.60925" lon="3.69683">
        <ele>166.2</ele>
        <time>2011-04-09T09:14:05Z</time>
      </trkpt>
      <trkpt lat="43.60933" lon="3.69681">
        <ele>166.1</ele>
        <time>2011-04-09T09:14:09Z</time>
      </trkpt>
      <trkpt lat="43.6094" lon="3.69681">
        <ele>166.6</ele>
        <time>2011-04-09T09:14:12Z</time>
      </trkpt>
      <trkpt lat="43.60948" lon="3.69683">
        <ele>166.4</ele>
        <time>2011-04-09T09:14:15Z</time>
      </trkpt>
      <trkpt lat="43.60955" lon="3.69685">
        <ele>166.3</ele>
        <time>2011-04-09T09:14:18Z</time>
      </trkpt>
      <trkpt lat="43.60962" lon="3.69689">
        <ele>166.3</ele>
        <time>2011-04-09T09:14:21Z</time>
      </trkpt>
      <trkpt lat="43.60968" lon="3.69696">
        <ele>166</ele>
        <time>2011-04-09T09:14:24Z</time>
      </trkpt>
      <trkpt lat="43.60975" lon="3.69701">
        <ele>165.5</ele>
        <time>2011-04-09T09:14:28Z</time>
      </trkpt>
      <trkpt lat="43.60981" lon="3.69703">
        <ele>165.9</ele>
        <time>2011-04-09T09:14:31Z</time>
      </trkpt>
      <trkpt lat="43.60987" lon="3.69701">
        <ele>165.8</ele>
        <time>2011-04-09T09:14:33Z</time>
      </trkpt>
      <trkpt lat="43.60994" lon="3.69698">
        <ele>165.4</ele>
        <time>2011-04-09T09:14:35Z</time>
      </trkpt>
      <trkpt lat="43.60998" lon="3.69696">
        <ele>165</ele>
        <time>2011-04-09T09:14:36Z</time>
      </trkpt>
      <trkpt lat="43.61003" lon="3.69692">
        <ele>164.7</ele>
        <time>2011-04-09T09:14:37Z</time>
      </trkpt>
      <trkpt lat="43.61007" lon="3.69688">
        <ele>164.5</ele>
        <time>2011-04-09T09:14:38Z</time>
      </trkpt>
      <trkpt lat="43.61011" lon="3.69681">
        <ele>164.3</ele>
        <time>2011-04-09T09:14:39Z</time>
      </trkpt>
      <trkpt lat="43.61013" lon="3.69675">
        <ele>163.8</ele>
        <time>2011-04-09T09:14:40Z</time>
      </trkpt>
      <trkpt lat="43.61016" lon="3.69669">
        <ele>163.4</ele>
        <time>2011-04-09T09:14:41Z</time>
      </trkpt>
      <trkpt lat="43.61022" lon="3.69661">
        <ele>162.4</ele>
        <time>2011-04-09T09:14:43Z</time>
      </trkpt>
      <trkpt lat="43.61026" lon="3.69651">
        <ele>161.4</ele>
        <time>2011-04-09T09:14:45Z</time>
      </trkpt>
      <trkpt lat="43.61028" lon="3.69644">
        <ele>160.8</ele>
        <time>2011-04-09T09:14:46Z</time>
      </trkpt>
      <trkpt lat="43.6103" lon="3.69638">
        <ele>160.4</ele>
        <time>2011-04-09T09:14:47Z</time>
      </trkpt>
      <trkpt lat="43.61034" lon="3.69631">
        <ele>160</ele>
        <time>2011-04-09T09:14:48Z</time>
      </trkpt>
      <trkpt lat="43.61038" lon="3.69624">
        <ele>158.5</ele>
        <time>2011-04-09T09:14:49Z</time>
      </trkpt>
      <trkpt lat="43.61043" lon="3.69616">
        <ele>157.3</ele>
        <time>2011-04-09T09:14:50Z</time>
      </trkpt>
      <trkpt lat="43.61047" lon="3.69608">
        <ele>156.4</ele>
        <time>2011-04-09T09:14:51Z</time>
      </trkpt>
      <trkpt lat="43.61049" lon="3.696">
        <ele>154.8</ele>
        <time>2011-04-09T09:14:52Z</time>
      </trkpt>
      <trkpt lat="43.6105" lon="3.69592">
        <ele>153.7</ele>
        <time>2011-04-09T09:14:53Z</time>
      </trkpt>
      <trkpt lat="43.61049" lon="3.69585">
        <ele>152.8</ele>
        <time>2011-04-09T09:14:54Z</time>
      </trkpt>
      <trkpt lat="43.61048" lon="3.69577">
        <ele>152.1</ele>
        <time>2011-04-09T09:14:55Z</time>
      </trkpt>
      <trkpt lat="43.61046" lon="3.6957">
        <ele>151.6</ele>
        <time>2011-04-09T09:14:56Z</time>
      </trkpt>
      <trkpt lat="43.61045" lon="3.69562">
        <ele>151.2</ele>
        <time>2011-04-09T09:14:57Z</time>
      </trkpt>
      <trkpt lat="43.61044" lon="3.69556">
        <ele>150.9</ele>
        <time>2011-04-09T09:14:58Z</time>
      </trkpt>
      <trkpt lat="43.61042" lon="3.69549">
        <ele>150.6</ele>
        <time>2011-04-09T09:14:59Z</time>
      </trkpt>
      <trkpt lat="43.6104" lon="3.69537">
        <ele>150.2</ele>
        <time>2011-04-09T09:15:01Z</time>
      </trkpt>
      <trkpt lat="43.61037" lon="3.69526">
        <ele>149.6</ele>
        <time>2011-04-09T09:15:03Z</time>
      </trkpt>
      <trkpt lat="43.61036" lon="3.6952">
        <ele>149.3</ele>
        <time>2011-04-09T09:15:04Z</time>
      </trkpt>
      <trkpt lat="43.61034" lon="3.69514">
        <ele>149.1</ele>
        <time>2011-04-09T09:15:05Z</time>
      </trkpt>
      <trkpt lat="43.61033" lon="3.69507">
        <ele>149</ele>
        <time>2011-04-09T09:15:06Z</time>
      </trkpt>
      <trkpt lat="43.61032" lon="3.69501">
        <ele>148.9</ele>
        <time>2011-04-09T09:15:07Z</time>
      </trkpt>
      <trkpt lat="43.6103" lon="3.69495">
        <ele>148.7</ele>
        <time>2011-04-09T09:15:08Z</time>
      </trkpt>
      <trkpt lat="43.61028" lon="3.69488">
        <ele>148.5</ele>
        <time>2011-04-09T09:15:09Z</time>
      </trkpt>
      <trkpt lat="43.61026" lon="3.69481">
        <ele>148.4</ele>
        <time>2011-04-09T09:15:10Z</time>
      </trkpt>
      <trkpt lat="43.61024" lon="3.69474">
        <ele>148.3</ele>
        <time>2011-04-09T09:15:11Z</time>
      </trkpt>
      <trkpt lat="43.61023" lon="3.69467">
        <ele>147.9</ele>
        <time>2011-04-09T09:15:12Z</time>
      </trkpt>
      <trkpt lat="43.61023" lon="3.69459">
        <ele>147.6</ele>
        <time>2011-04-09T09:15:13Z</time>
      </trkpt>
      <trkpt lat="43.61022" lon="3.69451">
        <ele>147.4</ele>
        <time>2011-04-09T09:15:14Z</time>
      </trkpt>
      <trkpt lat="43.61022" lon="3.69443">
        <ele>147.3</ele>
        <time>2011-04-09T09:15:15Z</time>
      </trkpt>
      <trkpt lat="43.61023" lon="3.69435">
        <ele>147.2</ele>
        <time>2011-04-09T09:15:16Z</time>
      </trkpt>
      <trkpt lat="43.61024" lon="3.69427">
        <ele>147.1</ele>
        <time>2011-04-09T09:15:17Z</time>
      </trkpt>
      <trkpt lat="43.61025" lon="3.6942">
        <ele>146.4</ele>
        <time>2011-04-09T09:15:18Z</time>
      </trkpt>
      <trkpt lat="43.61026" lon="3.69413">
        <ele>145.8</ele>
        <time>2011-04-09T09:15:19Z</time>
      </trkpt>
      <trkpt lat="43.61028" lon="3.69406">
        <ele>145.4</ele>
        <time>2011-04-09T09:15:20Z</time>
      </trkpt>
      <trkpt lat="43.6103" lon="3.69398">
        <ele>144.8</ele>
        <time>2011-04-09T09:15:21Z</time>
      </trkpt>
      <trkpt lat="43.61032" lon="3.69391">
        <ele>144.3</ele>
        <time>2011-04-09T09:15:22Z</time>
      </trkpt>
      <trkpt lat="43.61032" lon="3.69383">
        <ele>143.9</ele>
        <time>2011-04-09T09:15:23Z</time>
      </trkpt>
      <trkpt lat="43.61033" lon="3.69374">
        <ele>143.6</ele>
        <time>2011-04-09T09:15:24Z</time>
      </trkpt>
      <trkpt lat="43.61033" lon="3.69366">
        <ele>143.3</ele>
        <time>2011-04-09T09:15:25Z</time>
      </trkpt>
      <trkpt lat="43.61032" lon="3.69358">
        <ele>143.1</ele>
        <time>2011-04-09T09:15:26Z</time>
      </trkpt>
      <trkpt lat="43.61031" lon="3.6935">
        <ele>143.1</ele>
        <time>2011-04-09T09:15:27Z</time>
      </trkpt>
      <trkpt lat="43.6103" lon="3.69341">
        <ele>143.1</ele>
        <time>2011-04-09T09:15:28Z</time>
      </trkpt>
      <trkpt lat="43.61028" lon="3.69333">
        <ele>143.1</ele>
        <time>2011-04-09T09:15:29Z</time>
      </trkpt>
      <trkpt lat="43.61027" lon="3.69325">
        <ele>143.1</ele>
        <time>2011-04-09T09:15:30Z</time>
      </trkpt>
      <trkpt lat="43.61025" lon="3.69317">
        <ele>142.9</ele>
        <time>2011-04-09T09:15:31Z</time>
      </trkpt>
      <trkpt lat="43.61024" lon="3.69309">
        <ele>142.9</ele>
        <time>2011-04-09T09:15:32Z</time>
      </trkpt>
      <trkpt lat="43.61023" lon="3.69302">
        <ele>142.8</ele>
        <time>2011-04-09T09:15:33Z</time>
      </trkpt>
      <trkpt lat="43.61023" lon="3.69294">
        <ele>143.1</ele>
        <time>2011-04-09T09:15:34Z</time>
      </trkpt>
      <trkpt lat="43.61022" lon="3.69286">
        <ele>143.3</ele>
        <time>2011-04-09T09:15:35Z</time>
      </trkpt>
      <trkpt lat="43.61022" lon="3.69278">
        <ele>143.4</ele>
        <time>2011-04-09T09:15:36Z</time>
      </trkpt>
      <trkpt lat="43.61021" lon="3.6927">
        <ele>143</ele>
        <time>2011-04-09T09:15:37Z</time>
      </trkpt>
      <trkpt lat="43.61021" lon="3.69261">
        <ele>142.6</ele>
        <time>2011-04-09T09:15:38Z</time>
      </trkpt>
      <trkpt lat="43.6102" lon="3.69252">
        <ele>142.3</ele>
        <time>2011-04-09T09:15:39Z</time>
      </trkpt>
      <trkpt lat="43.6102" lon="3.69244">
        <ele>142</ele>
        <time>2011-04-09T09:15:40Z</time>
      </trkpt>
      <trkpt lat="43.61019" lon="3.69235">
        <ele>141.8</ele>
        <time>2011-04-09T09:15:41Z</time>
      </trkpt>
      <trkpt lat="43.61018" lon="3.69227">
        <ele>141.6</ele>
        <time>2011-04-09T09:15:42Z</time>
      </trkpt>
      <trkpt lat="43.61017" lon="3.6922">
        <ele>141.1</ele>
        <time>2011-04-09T09:15:43Z</time>
      </trkpt>
      <trkpt lat="43.61016" lon="3.69214">
        <ele>140.7</ele>
        <time>2011-04-09T09:15:44Z</time>
      </trkpt>
      <trkpt lat="43.61012" lon="3.69203">
        <ele>140.2</ele>
        <time>2011-04-09T09:15:46Z</time>
      </trkpt>
      <trkpt lat="43.61005" lon="3.69195">
        <ele>139.7</ele>
        <time>2011-04-09T09:15:48Z</time>
      </trkpt>
      <trkpt lat="43.61" lon="3.69193">
        <ele>139.6</ele>
        <time>2011-04-09T09:15:49Z</time>
      </trkpt>
      <trkpt lat="43.60995" lon="3.69191">
        <ele>139.3</ele>
        <time>2011-04-09T09:15:50Z</time>
      </trkpt>
      <trkpt lat="43.6099" lon="3.69189">
        <ele>139.1</ele>
        <time>2011-04-09T09:15:51Z</time>
      </trkpt>
      <trkpt lat="43.60984" lon="3.69188">
        <ele>138.9</ele>
        <time>2011-04-09T09:15:52Z</time>
      </trkpt>
      <trkpt lat="43.60977" lon="3.69181">
        <ele>138.7</ele>
        <time>2011-04-09T09:15:59Z</time>
      </trkpt>
      <trkpt lat="43.60977" lon="3.69179">
        <ele>139</ele>
        <time>2011-04-09T09:16:00Z</time>
      </trkpt>
      <trkpt lat="43.60977" lon="3.69157">
        <ele>139.8</ele>
        <time>2011-04-09T09:16:21Z</time>
      </trkpt>
      <trkpt lat="43.60973" lon="3.69146">
        <ele>140.3</ele>
        <time>2011-04-09T09:16:27Z</time>
      </trkpt>
      <trkpt lat="43.60971" lon="3.69136">
        <ele>141.9</ele>
        <time>2011-04-09T09:16:32Z</time>
      </trkpt>
      <trkpt lat="43.60969" lon="3.69126">
        <ele>143</ele>
        <time>2011-04-09T09:16:36Z</time>
      </trkpt>
      <trkpt lat="43.60969" lon="3.69117">
        <ele>143.8</ele>
        <time>2011-04-09T09:16:39Z</time>
      </trkpt>
      <trkpt lat="43.60968" lon="3.69107">
        <ele>144.3</ele>
        <time>2011-04-09T09:16:42Z</time>
      </trkpt>
      <trkpt lat="43.60966" lon="3.69095">
        <ele>145.3</ele>
        <time>2011-04-09T09:16:46Z</time>
      </trkpt>
      <trkpt lat="43.60962" lon="3.69086">
        <ele>145.1</ele>
        <time>2011-04-09T09:16:49Z</time>
      </trkpt>
      <trkpt lat="43.60956" lon="3.69078">
        <ele>144.8</ele>
        <time>2011-04-09T09:16:53Z</time>
      </trkpt>
      <trkpt lat="43.60948" lon="3.69075">
        <ele>147.9</ele>
        <time>2011-04-09T09:17:01Z</time>
      </trkpt>
      <trkpt lat="43.60948" lon="3.69075">
        <ele>147.9</ele>
        <time>2011-04-09T09:17:02Z</time>
      </trkpt>
      <trkpt lat="43.6094" lon="3.69081">
        <ele>150.8</ele>
        <time>2011-04-09T09:20:45Z</time>
      </trkpt>
      <trkpt lat="43.60939" lon="3.69083">
        <ele>150.7</ele>
        <time>2011-04-09T09:20:46Z</time>
      </trkpt>
      <trkpt lat="43.60929" lon="3.69098">
        <ele>154.5</ele>
        <time>2011-04-09T09:20:59Z</time>
      </trkpt>
      <trkpt lat="43.60921" lon="3.69103">
        <ele>156.1</ele>
        <time>2011-04-09T09:21:05Z</time>
      </trkpt>
      <trkpt lat="43.60913" lon="3.69102">
        <ele>157.1</ele>
        <time>2011-04-09T09:21:10Z</time>
      </trkpt>
      <trkpt lat="43.60906" lon="3.691">
        <ele>159.6</ele>
        <time>2011-04-09T09:21:14Z</time>
      </trkpt>
      <trkpt lat="43.60898" lon="3.69097">
        <ele>160.7</ele>
        <time>2011-04-09T09:21:18Z</time>
      </trkpt>
      <trkpt lat="43.6089" lon="3.69095">
        <ele>161.7</ele>
        <time>2011-04-09T09:21:22Z</time>
      </trkpt>
      <trkpt lat="43.60884" lon="3.69088">
        <ele>162.9</ele>
        <time>2011-04-09T09:21:26Z</time>
      </trkpt>
      <trkpt lat="43.60878" lon="3.69081">
        <ele>162.4</ele>
        <time>2011-04-09T09:21:29Z</time>
      </trkpt>
      <trkpt lat="43.60871" lon="3.69075">
        <ele>162.4</ele>
        <time>2011-04-09T09:21:32Z</time>
      </trkpt>
      <trkpt lat="43.60864" lon="3.69071">
        <ele>162.9</ele>
        <time>2011-04-09T09:21:35Z</time>
      </trkpt>
      <trkpt lat="43.60858" lon="3.69065">
        <ele>163.7</ele>
        <time>2011-04-09T09:21:38Z</time>
      </trkpt>
      <trkpt lat="43.60853" lon="3.69059">
        <ele>164.6</ele>
        <time>2011-04-09T09:21:41Z</time>
      </trkpt>
      <trkpt lat="43.60846" lon="3.69054">
        <ele>165.5</ele>
        <time>2011-04-09T09:21:44Z</time>
      </trkpt>
      <trkpt lat="43.60838" lon="3.6905">
        <ele>166.2</ele>
        <time>2011-04-09T09:21:48Z</time>
      </trkpt>
      <trkpt lat="43.60836" lon="3.69051">
        <ele>166.6</ele>
        <time>2011-04-09T09:21:49Z</time>
      </trkpt>
      <trkpt lat="43.60821" lon="3.69047">
        <ele>168.6</ele>
        <time>2011-04-09T09:21:57Z</time>
      </trkpt>
      <trkpt lat="43.60815" lon="3.69042">
        <ele>168.8</ele>
        <time>2011-04-09T09:21:59Z</time>
      </trkpt>
      <trkpt lat="43.60808" lon="3.6904">
        <ele>168.9</ele>
        <time>2011-04-09T09:22:01Z</time>
      </trkpt>
      <trkpt lat="43.60801" lon="3.69038">
        <ele>168.6</ele>
        <time>2011-04-09T09:22:03Z</time>
      </trkpt>
      <trkpt lat="43.60794" lon="3.69036">
        <ele>168.7</ele>
        <time>2011-04-09T09:22:05Z</time>
      </trkpt>
      <trkpt lat="43.60786" lon="3.69036">
        <ele>169</ele>
        <time>2011-04-09T09:22:07Z</time>
      </trkpt>
      <trkpt lat="43.60779" lon="3.69035">
        <ele>168.7</ele>
        <time>2011-04-09T09:22:09Z</time>
      </trkpt>
      <trkpt lat="43.60773" lon="3.69034">
        <ele>168.3</ele>
        <time>2011-04-09T09:22:11Z</time>
      </trkpt>
      <trkpt lat="43.60766" lon="3.69031">
        <ele>168.3</ele>
        <time>2011-04-09T09:22:13Z</time>
      </trkpt>
      <trkpt lat="43.60758" lon="3.69028">
        <ele>168.3</ele>
        <time>2011-04-09T09:22:15Z</time>
      </trkpt>
      <trkpt lat="43.60751" lon="3.69023">
        <ele>168.3</ele>
        <time>2011-04-09T09:22:17Z</time>
      </trkpt>
      <trkpt lat="43.60743" lon="3.69019">
        <ele>168.9</ele>
        <time>2011-04-09T09:22:19Z</time>
      </trkpt>
      <trkpt lat="43.60735" lon="3.69014">
        <ele>169.1</ele>
        <time>2011-04-09T09:22:21Z</time>
      </trkpt>
      <trkpt lat="43.60729" lon="3.69009">
        <ele>169.1</ele>
        <time>2011-04-09T09:22:23Z</time>
      </trkpt>
      <trkpt lat="43.60722" lon="3.69002">
        <ele>170.4</ele>
        <time>2011-04-09T09:22:26Z</time>
      </trkpt>
      <trkpt lat="43.60717" lon="3.68992">
        <ele>170</ele>
        <time>2011-04-09T09:22:29Z</time>
      </trkpt>
      <trkpt lat="43.60716" lon="3.68983">
        <ele>169.9</ele>
        <time>2011-04-09T09:22:31Z</time>
      </trkpt>
      <trkpt lat="43.60712" lon="3.68975">
        <ele>170</ele>
        <time>2011-04-09T09:22:33Z</time>
      </trkpt>
      <trkpt lat="43.60707" lon="3.68967">
        <ele>169.8</ele>
        <time>2011-04-09T09:22:35Z</time>
      </trkpt>
      <trkpt lat="43.60701" lon="3.68962">
        <ele>170.1</ele>
        <time>2011-04-09T09:22:37Z</time>
      </trkpt>
      <trkpt lat="43.60693" lon="3.68958">
        <ele>170.7</ele>
        <time>2011-04-09T09:22:40Z</time>
      </trkpt>
      <trkpt lat="43.60687" lon="3.6895">
        <ele>172.1</ele>
        <time>2011-04-09T09:22:55Z</time>
      </trkpt>
      <trkpt lat="43.60686" lon="3.68949">
        <ele>172.2</ele>
        <time>2011-04-09T09:22:56Z</time>
      </trkpt>
      <trkpt lat="43.60672" lon="3.6894">
        <ele>173.3</ele>
        <time>2011-04-09T09:25:09Z</time>
      </trkpt>
      <trkpt lat="43.6067" lon="3.68939">
        <ele>173.4</ele>
        <time>2011-04-09T09:25:10Z</time>
      </trkpt>
      <trkpt lat="43.60658" lon="3.68932">
        <ele>172.3</ele>
        <time>2011-04-09T09:25:16Z</time>
      </trkpt>
      <trkpt lat="43.6065" lon="3.68934">
        <ele>172.6</ele>
        <time>2011-04-09T09:25:22Z</time>
      </trkpt>
      <trkpt lat="43.60643" lon="3.68928">
        <ele>171.3</ele>
        <time>2011-04-09T09:25:26Z</time>
      </trkpt>
      <trkpt lat="43.60636" lon="3.68921">
        <ele>170.2</ele>
        <time>2011-04-09T09:25:30Z</time>
      </trkpt>
      <trkpt lat="43.60629" lon="3.68915">
        <ele>168.6</ele>
        <time>2011-04-09T09:25:33Z</time>
      </trkpt>
      <trkpt lat="43.60625" lon="3.68907">
        <ele>166.5</ele>
        <time>2011-04-09T09:25:36Z</time>
      </trkpt>
      <trkpt lat="43.60623" lon="3.689">
        <ele>165.2</ele>
        <time>2011-04-09T09:25:38Z</time>
      </trkpt>
      <trkpt lat="43.60619" lon="3.68892">
        <ele>164</ele>
        <time>2011-04-09T09:25:40Z</time>
      </trkpt>
      <trkpt lat="43.60614" lon="3.68884">
        <ele>163.4</ele>
        <time>2011-04-09T09:25:42Z</time>
      </trkpt>
      <trkpt lat="43.60608" lon="3.68879">
        <ele>161.4</ele>
        <time>2011-04-09T09:25:44Z</time>
      </trkpt>
      <trkpt lat="43.60601" lon="3.68875">
        <ele>159.5</ele>
        <time>2011-04-09T09:25:46Z</time>
      </trkpt>
      <trkpt lat="43.60593" lon="3.68869">
        <ele>155.8</ele>
        <time>2011-04-09T09:25:50Z</time>
      </trkpt>
      <trkpt lat="43.60592" lon="3.68858">
        <ele>153.5</ele>
        <time>2011-04-09T09:25:54Z</time>
      </trkpt>
      <trkpt lat="43.60588" lon="3.68849">
        <ele>151.7</ele>
        <time>2011-04-09T09:25:57Z</time>
      </trkpt>
      <trkpt lat="43.60585" lon="3.68839">
        <ele>151.2</ele>
        <time>2011-04-09T09:25:59Z</time>
      </trkpt>
      <trkpt lat="43.60582" lon="3.68828">
        <ele>151</ele>
        <time>2011-04-09T09:26:01Z</time>
      </trkpt>
      <trkpt lat="43.6058" lon="3.68817">
        <ele>148.2</ele>
        <time>2011-04-09T09:26:05Z</time>
      </trkpt>
      <trkpt lat="43.60577" lon="3.6881">
        <ele>146.8</ele>
        <time>2011-04-09T09:26:07Z</time>
      </trkpt>
      <trkpt lat="43.6057" lon="3.68801">
        <ele>143.5</ele>
        <time>2011-04-09T09:26:10Z</time>
      </trkpt>
      <trkpt lat="43.60568" lon="3.68799">
        <ele>142.7</ele>
        <time>2011-04-09T09:26:11Z</time>
      </trkpt>
      <trkpt lat="43.60561" lon="3.68787">
        <ele>140.8</ele>
        <time>2011-04-09T09:26:15Z</time>
      </trkpt>
      <trkpt lat="43.60558" lon="3.68778">
        <ele>140.3</ele>
        <time>2011-04-09T09:26:17Z</time>
      </trkpt>
      <trkpt lat="43.60553" lon="3.68771">
        <ele>138.5</ele>
        <time>2011-04-09T09:26:19Z</time>
      </trkpt>
      <trkpt lat="43.60547" lon="3.68764">
        <ele>136.8</ele>
        <time>2011-04-09T09:26:21Z</time>
      </trkpt>
      <trkpt lat="43.6054" lon="3.68756">
        <ele>135.4</ele>
        <time>2011-04-09T09:26:23Z</time>
      </trkpt>
      <trkpt lat="43.60535" lon="3.6875">
        <ele>133.5</ele>
        <time>2011-04-09T09:26:25Z</time>
      </trkpt>
      <trkpt lat="43.60535" lon="3.68738">
        <ele>131.9</ele>
        <time>2011-04-09T09:26:28Z</time>
      </trkpt>
      <trkpt lat="43.60536" lon="3.68727">
        <ele>130.2</ele>
        <time>2011-04-09T09:26:31Z</time>
      </trkpt>
      <trkpt lat="43.60534" lon="3.68719">
        <ele>129.5</ele>
        <time>2011-04-09T09:26:33Z</time>
      </trkpt>
      <trkpt lat="43.60533" lon="3.68707">
        <ele>128.5</ele>
        <time>2011-04-09T09:26:36Z</time>
      </trkpt>
      <trkpt lat="43.60533" lon="3.68697">
        <ele>126.1</ele>
        <time>2011-04-09T09:26:40Z</time>
      </trkpt>
      <trkpt lat="43.60532" lon="3.68685">
        <ele>122.2</ele>
        <time>2011-04-09T09:26:56Z</time>
      </trkpt>
      <trkpt lat="43.60528" lon="3.68674">
        <ele>120.9</ele>
        <time>2011-04-09T09:27:16Z</time>
      </trkpt>
      <trkpt lat="43.60528" lon="3.68674">
        <ele>120.7</ele>
        <time>2011-04-09T09:27:17Z</time>
      </trkpt>
      <trkpt lat="43.60513" lon="3.68665">
        <ele>118.3</ele>
        <time>2011-04-09T09:28:09Z</time>
      </trkpt>
      <trkpt lat="43.6051" lon="3.68659">
        <ele>116.9</ele>
        <time>2011-04-09T09:28:12Z</time>
      </trkpt>
      <trkpt lat="43.60509" lon="3.68648">
        <ele>115.8</ele>
        <time>2011-04-09T09:28:14Z</time>
      </trkpt>
      <trkpt lat="43.60505" lon="3.68639">
        <ele>114.6</ele>
        <time>2011-04-09T09:28:16Z</time>
      </trkpt>
      <trkpt lat="43.60498" lon="3.68634">
        <ele>112.3</ele>
        <time>2011-04-09T09:29:22Z</time>
      </trkpt>
      <trkpt lat="43.60496" lon="3.68632">
        <ele>112.2</ele>
        <time>2011-04-09T09:29:23Z</time>
      </trkpt>
      <trkpt lat="43.60484" lon="3.68626">
        <ele>111.6</ele>
        <time>2011-04-09T09:29:29Z</time>
      </trkpt>
      <trkpt lat="43.60477" lon="3.68625">
        <ele>111.4</ele>
        <time>2011-04-09T09:29:32Z</time>
      </trkpt>
      <trkpt lat="43.60468" lon="3.68622">
        <ele>111.3</ele>
        <time>2011-04-09T09:29:34Z</time>
      </trkpt>
      <trkpt lat="43.6046" lon="3.68621">
        <ele>110.6</ele>
        <time>2011-04-09T09:29:36Z</time>
      </trkpt>
      <trkpt lat="43.60452" lon="3.6862">
        <ele>110</ele>
        <time>2011-04-09T09:29:40Z</time>
      </trkpt>
      <trkpt lat="43.60443" lon="3.68623">
        <ele>110.5</ele>
        <time>2011-04-09T09:29:45Z</time>
      </trkpt>
      <trkpt lat="43.6044" lon="3.68633">
        <ele>112</ele>
        <time>2011-04-09T09:29:50Z</time>
      </trkpt>
      <trkpt lat="43.60439" lon="3.68644">
        <ele>112.5</ele>
        <time>2011-04-09T09:29:55Z</time>
      </trkpt>
      <trkpt lat="43.60437" lon="3.68654">
        <ele>112.6</ele>
        <time>2011-04-09T09:29:59Z</time>
      </trkpt>
      <trkpt lat="43.60436" lon="3.68664">
        <ele>113.1</ele>
        <time>2011-04-09T09:30:02Z</time>
      </trkpt>
      <trkpt lat="43.60431" lon="3.68673">
        <ele>113</ele>
        <time>2011-04-09T09:30:05Z</time>
      </trkpt>
      <trkpt lat="43.60427" lon="3.68683">
        <ele>113.3</ele>
        <time>2011-04-09T09:30:08Z</time>
      </trkpt>
      <trkpt lat="43.60424" lon="3.68692">
        <ele>113.5</ele>
        <time>2011-04-09T09:30:10Z</time>
      </trkpt>
      <trkpt lat="43.6042" lon="3.687">
        <ele>113.2</ele>
        <time>2011-04-09T09:30:12Z</time>
      </trkpt>
      <trkpt lat="43.60417" lon="3.68709">
        <ele>112.9</ele>
        <time>2011-04-09T09:30:14Z</time>
      </trkpt>
      <trkpt lat="43.60413" lon="3.68718">
        <ele>112.5</ele>
        <time>2011-04-09T09:30:16Z</time>
      </trkpt>
      <trkpt lat="43.60409" lon="3.68725">
        <ele>112.5</ele>
        <time>2011-04-09T09:30:18Z</time>
      </trkpt>
      <trkpt lat="43.60406" lon="3.68733">
        <ele>112.9</ele>
        <time>2011-04-09T09:30:20Z</time>
      </trkpt>
      <trkpt lat="43.60404" lon="3.68745">
        <ele>113.4</ele>
        <time>2011-04-09T09:30:23Z</time>
      </trkpt>
      <trkpt lat="43.60403" lon="3.6875">
        <ele>113.4</ele>
        <time>2011-04-09T09:30:24Z</time>
      </trkpt>
      <trkpt lat="43.60399" lon="3.68765">
        <ele>112.9</ele>
        <time>2011-04-09T09:30:27Z</time>
      </trkpt>
      <trkpt lat="43.60396" lon="3.68775">
        <ele>112.3</ele>
        <time>2011-04-09T09:30:29Z</time>
      </trkpt>
      <trkpt lat="43.60392" lon="3.68784">
        <ele>112.4</ele>
        <time>2011-04-09T09:30:31Z</time>
      </trkpt>
      <trkpt lat="43.60389" lon="3.68795">
        <ele>112.5</ele>
        <time>2011-04-09T09:30:33Z</time>
      </trkpt>
      <trkpt lat="43.60386" lon="3.68806">
        <ele>112.8</ele>
        <time>2011-04-09T09:30:35Z</time>
      </trkpt>
      <trkpt lat="43.60384" lon="3.68817">
        <ele>112.2</ele>
        <time>2011-04-09T09:30:37Z</time>
      </trkpt>
      <trkpt lat="43.6038" lon="3.68827">
        <ele>111.9</ele>
        <time>2011-04-09T09:30:39Z</time>
      </trkpt>
      <trkpt lat="43.60378" lon="3.68838">
        <ele>111.8</ele>
        <time>2011-04-09T09:30:41Z</time>
      </trkpt>
      <trkpt lat="43.60376" lon="3.68847">
        <ele>111.8</ele>
        <time>2011-04-09T09:30:43Z</time>
      </trkpt>
      <trkpt lat="43.60374" lon="3.68857">
        <ele>111.9</ele>
        <time>2011-04-09T09:30:45Z</time>
      </trkpt>
      <trkpt lat="43.60374" lon="3.68867">
        <ele>112</ele>
        <time>2011-04-09T09:30:47Z</time>
      </trkpt>
      <trkpt lat="43.60373" lon="3.68877">
        <ele>111.9</ele>
        <time>2011-04-09T09:30:49Z</time>
      </trkpt>
      <trkpt lat="43.60371" lon="3.68885">
        <ele>111.7</ele>
        <time>2011-04-09T09:30:51Z</time>
      </trkpt>
      <trkpt lat="43.60368" lon="3.68895">
        <ele>112.3</ele>
        <time>2011-04-09T09:30:54Z</time>
      </trkpt>
      <trkpt lat="43.60364" lon="3.68905">
        <ele>113.1</ele>
        <time>2011-04-09T09:30:58Z</time>
      </trkpt>
      <trkpt lat="43.6036" lon="3.68914">
        <ele>114</ele>
        <time>2011-04-09T09:31:01Z</time>
      </trkpt>
      <trkpt lat="43.60357" lon="3.68924">
        <ele>114.6</ele>
        <time>2011-04-09T09:31:04Z</time>
      </trkpt>
      <trkpt lat="43.60352" lon="3.68933">
        <ele>115.9</ele>
        <time>2011-04-09T09:31:07Z</time>
      </trkpt>
      <trkpt lat="43.60344" lon="3.68935">
        <ele>115.9</ele>
        <time>2011-04-09T09:31:10Z</time>
      </trkpt>
      <trkpt lat="43.60336" lon="3.68933">
        <ele>116.6</ele>
        <time>2011-04-09T09:31:13Z</time>
      </trkpt>
      <trkpt lat="43.60329" lon="3.68927">
        <ele>117.4</ele>
        <time>2011-04-09T09:31:16Z</time>
      </trkpt>
      <trkpt lat="43.60324" lon="3.68917">
        <ele>117.9</ele>
        <time>2011-04-09T09:31:20Z</time>
      </trkpt>
      <trkpt lat="43.60323" lon="3.68905">
        <ele>119</ele>
        <time>2011-04-09T09:31:24Z</time>
      </trkpt>
      <trkpt lat="43.60323" lon="3.68903">
        <ele>119.4</ele>
        <time>2011-04-09T09:31:25Z</time>
      </trkpt>
      <trkpt lat="43.60331" lon="3.68885">
        <ele>121</ele>
        <time>2011-04-09T09:31:34Z</time>
      </trkpt>
      <trkpt lat="43.60335" lon="3.68876">
        <ele>122.1</ele>
        <time>2011-04-09T09:31:38Z</time>
      </trkpt>
      <trkpt lat="43.60338" lon="3.68866">
        <ele>121.4</ele>
        <time>2011-04-09T09:31:42Z</time>
      </trkpt>
      <trkpt lat="43.60341" lon="3.68854">
        <ele>122.4</ele>
        <time>2011-04-09T09:31:46Z</time>
      </trkpt>
      <trkpt lat="43.6034" lon="3.68842">
        <ele>123.3</ele>
        <time>2011-04-09T09:31:50Z</time>
      </trkpt>
      <trkpt lat="43.60338" lon="3.68834">
        <ele>123.5</ele>
        <time>2011-04-09T09:31:53Z</time>
      </trkpt>
      <trkpt lat="43.60335" lon="3.68825">
        <ele>123.9</ele>
        <time>2011-04-09T09:31:56Z</time>
      </trkpt>
      <trkpt lat="43.60334" lon="3.68813">
        <ele>124.1</ele>
        <time>2011-04-09T09:32:00Z</time>
      </trkpt>
      <trkpt lat="43.60336" lon="3.68803">
        <ele>125</ele>
        <time>2011-04-09T09:32:04Z</time>
      </trkpt>
      <trkpt lat="43.6034" lon="3.68794">
        <ele>125.3</ele>
        <time>2011-04-09T09:32:08Z</time>
      </trkpt>
      <trkpt lat="43.60345" lon="3.68788">
        <ele>125.8</ele>
        <time>2011-04-09T09:32:11Z</time>
      </trkpt>
      <trkpt lat="43.60351" lon="3.68782">
        <ele>126.5</ele>
        <time>2011-04-09T09:32:14Z</time>
      </trkpt>
      <trkpt lat="43.60356" lon="3.68774">
        <ele>127.1</ele>
        <time>2011-04-09T09:32:17Z</time>
      </trkpt>
      <trkpt lat="43.60361" lon="3.68765">
        <ele>127.4</ele>
        <time>2011-04-09T09:32:20Z</time>
      </trkpt>
      <trkpt lat="43.60366" lon="3.68757">
        <ele>127.1</ele>
        <time>2011-04-09T09:32:23Z</time>
      </trkpt>
      <trkpt lat="43.6037" lon="3.68748">
        <ele>127.3</ele>
        <time>2011-04-09T09:32:26Z</time>
      </trkpt>
      <trkpt lat="43.60372" lon="3.68745">
        <ele>127.3</ele>
        <time>2011-04-09T09:32:27Z</time>
      </trkpt>
      <trkpt lat="43.60378" lon="3.6873">
        <ele>128.6</ele>
        <time>2011-04-09T09:32:32Z</time>
      </trkpt>
      <trkpt lat="43.60379" lon="3.68721">
        <ele>129</ele>
        <time>2011-04-09T09:32:35Z</time>
      </trkpt>
      <trkpt lat="43.6038" lon="3.68711">
        <ele>130.1</ele>
        <time>2011-04-09T09:32:38Z</time>
      </trkpt>
      <trkpt lat="43.6038" lon="3.68701">
        <ele>130.8</ele>
        <time>2011-04-09T09:32:41Z</time>
      </trkpt>
      <trkpt lat="43.6038" lon="3.68692">
        <ele>131.3</ele>
        <time>2011-04-09T09:32:44Z</time>
      </trkpt>
      <trkpt lat="43.60381" lon="3.68682">
        <ele>131.9</ele>
        <time>2011-04-09T09:32:47Z</time>
      </trkpt>
      <trkpt lat="43.60382" lon="3.68671">
        <ele>132</ele>
        <time>2011-04-09T09:32:50Z</time>
      </trkpt>
      <trkpt lat="43.60383" lon="3.68661">
        <ele>132.2</ele>
        <time>2011-04-09T09:32:53Z</time>
      </trkpt>
      <trkpt lat="43.60383" lon="3.68651">
        <ele>132.5</ele>
        <time>2011-04-09T09:32:56Z</time>
      </trkpt>
      <trkpt lat="43.60382" lon="3.68639">
        <ele>132.8</ele>
        <time>2011-04-09T09:33:00Z</time>
      </trkpt>
      <trkpt lat="43.60379" lon="3.68627">
        <ele>133.4</ele>
        <time>2011-04-09T09:33:04Z</time>
      </trkpt>
      <trkpt lat="43.60375" lon="3.68616">
        <ele>134.2</ele>
        <time>2011-04-09T09:33:08Z</time>
      </trkpt>
      <trkpt lat="43.60369" lon="3.68607">
        <ele>134.8</ele>
        <time>2011-04-09T09:33:12Z</time>
      </trkpt>
      <trkpt lat="43.60364" lon="3.686">
        <ele>135.2</ele>
        <time>2011-04-09T09:33:15Z</time>
      </trkpt>
      <trkpt lat="43.60359" lon="3.68593">
        <ele>135.9</ele>
        <time>2011-04-09T09:33:18Z</time>
      </trkpt>
      <trkpt lat="43.60355" lon="3.68586">
        <ele>136.5</ele>
        <time>2011-04-09T09:33:21Z</time>
      </trkpt>
      <trkpt lat="43.60351" lon="3.68578">
        <ele>137.1</ele>
        <time>2011-04-09T09:33:24Z</time>
      </trkpt>
      <trkpt lat="43.60347" lon="3.6857">
        <ele>137.6</ele>
        <time>2011-04-09T09:33:27Z</time>
      </trkpt>
      <trkpt lat="43.60346" lon="3.68567">
        <ele>137.8</ele>
        <time>2011-04-09T09:33:28Z</time>
      </trkpt>
      <trkpt lat="43.60339" lon="3.68553">
        <ele>138.3</ele>
        <time>2011-04-09T09:33:33Z</time>
      </trkpt>
      <trkpt lat="43.60334" lon="3.68543">
        <ele>138.3</ele>
        <time>2011-04-09T09:33:37Z</time>
      </trkpt>
      <trkpt lat="43.6033" lon="3.68536">
        <ele>139.8</ele>
        <time>2011-04-09T09:33:40Z</time>
      </trkpt>
      <trkpt lat="43.60326" lon="3.68527">
        <ele>139.8</ele>
        <time>2011-04-09T09:33:43Z</time>
      </trkpt>
      <trkpt lat="43.60323" lon="3.68519">
        <ele>140.6</ele>
        <time>2011-04-09T09:33:46Z</time>
      </trkpt>
      <trkpt lat="43.60318" lon="3.68509">
        <ele>140.6</ele>
        <time>2011-04-09T09:33:50Z</time>
      </trkpt>
      <trkpt lat="43.60312" lon="3.68501">
        <ele>141.1</ele>
        <time>2011-04-09T09:33:54Z</time>
      </trkpt>
      <trkpt lat="43.60306" lon="3.68494">
        <ele>142.4</ele>
        <time>2011-04-09T09:33:58Z</time>
      </trkpt>
      <trkpt lat="43.60298" lon="3.68489">
        <ele>143.2</ele>
        <time>2011-04-09T09:34:02Z</time>
      </trkpt>
      <trkpt lat="43.6029" lon="3.68485">
        <ele>143.9</ele>
        <time>2011-04-09T09:34:06Z</time>
      </trkpt>
      <trkpt lat="43.60282" lon="3.68483">
        <ele>144.2</ele>
        <time>2011-04-09T09:34:10Z</time>
      </trkpt>
      <trkpt lat="43.60275" lon="3.68481">
        <ele>144.9</ele>
        <time>2011-04-09T09:34:14Z</time>
      </trkpt>
      <trkpt lat="43.60266" lon="3.68478">
        <ele>145.8</ele>
        <time>2011-04-09T09:34:18Z</time>
      </trkpt>
      <trkpt lat="43.60258" lon="3.68476">
        <ele>146.1</ele>
        <time>2011-04-09T09:34:22Z</time>
      </trkpt>
      <trkpt lat="43.6025" lon="3.68473">
        <ele>146.8</ele>
        <time>2011-04-09T09:34:26Z</time>
      </trkpt>
      <trkpt lat="43.60242" lon="3.68471">
        <ele>146.7</ele>
        <time>2011-04-09T09:34:30Z</time>
      </trkpt>
      <trkpt lat="43.6024" lon="3.6847">
        <ele>146.8</ele>
        <time>2011-04-09T09:34:31Z</time>
      </trkpt>
      <trkpt lat="43.60226" lon="3.68462">
        <ele>148.8</ele>
        <time>2011-04-09T09:34:38Z</time>
      </trkpt>
      <trkpt lat="43.60218" lon="3.68457">
        <ele>149.3</ele>
        <time>2011-04-09T09:34:42Z</time>
      </trkpt>
      <trkpt lat="43.60211" lon="3.68451">
        <ele>149.9</ele>
        <time>2011-04-09T09:34:46Z</time>
      </trkpt>
      <trkpt lat="43.60204" lon="3.68445">
        <ele>150.7</ele>
        <time>2011-04-09T09:34:50Z</time>
      </trkpt>
      <trkpt lat="43.60198" lon="3.68437">
        <ele>151.4</ele>
        <time>2011-04-09T09:34:54Z</time>
      </trkpt>
      <trkpt lat="43.60193" lon="3.68427">
        <ele>152.8</ele>
        <time>2011-04-09T09:34:58Z</time>
      </trkpt>
      <trkpt lat="43.60188" lon="3.68419">
        <ele>152.8</ele>
        <time>2011-04-09T09:35:01Z</time>
      </trkpt>
      <trkpt lat="43.60185" lon="3.68411">
        <ele>153.1</ele>
        <time>2011-04-09T09:35:04Z</time>
      </trkpt>
      <trkpt lat="43.60182" lon="3.68403">
        <ele>153.9</ele>
        <time>2011-04-09T09:35:07Z</time>
      </trkpt>
      <trkpt lat="43.60177" lon="3.68395">
        <ele>154.1</ele>
        <time>2011-04-09T09:35:10Z</time>
      </trkpt>
      <trkpt lat="43.60173" lon="3.68387">
        <ele>154.6</ele>
        <time>2011-04-09T09:35:13Z</time>
      </trkpt>
      <trkpt lat="43.60169" lon="3.68379">
        <ele>155.6</ele>
        <time>2011-04-09T09:35:16Z</time>
      </trkpt>
      <trkpt lat="43.60165" lon="3.68371">
        <ele>156.1</ele>
        <time>2011-04-09T09:35:19Z</time>
      </trkpt>
      <trkpt lat="43.6016" lon="3.68362">
        <ele>156.7</ele>
        <time>2011-04-09T09:35:23Z</time>
      </trkpt>
      <trkpt lat="43.60156" lon="3.68354">
        <ele>156.9</ele>
        <time>2011-04-09T09:35:26Z</time>
      </trkpt>
      <trkpt lat="43.60152" lon="3.68345">
        <ele>157</ele>
        <time>2011-04-09T09:35:29Z</time>
      </trkpt>
      <trkpt lat="43.60148" lon="3.68337">
        <ele>158.3</ele>
        <time>2011-04-09T09:35:32Z</time>
      </trkpt>
      <trkpt lat="43.60146" lon="3.68333">
        <ele>158.4</ele>
        <time>2011-04-09T09:35:33Z</time>
      </trkpt>
      <trkpt lat="43.60139" lon="3.68319">
        <ele>159.2</ele>
        <time>2011-04-09T09:35:38Z</time>
      </trkpt>
      <trkpt lat="43.60133" lon="3.68311">
        <ele>160.4</ele>
        <time>2011-04-09T09:36:09Z</time>
      </trkpt>
      <trkpt lat="43.60126" lon="3.68315">
        <ele>161.1</ele>
        <time>2011-04-09T09:36:14Z</time>
      </trkpt>
      <trkpt lat="43.60123" lon="3.68326">
        <ele>162</ele>
        <time>2011-04-09T09:36:18Z</time>
      </trkpt>
      <trkpt lat="43.60122" lon="3.68338">
        <ele>162.4</ele>
        <time>2011-04-09T09:36:22Z</time>
      </trkpt>
      <trkpt lat="43.60119" lon="3.68347">
        <ele>163.2</ele>
        <time>2011-04-09T09:36:25Z</time>
      </trkpt>
      <trkpt lat="43.60116" lon="3.68356">
        <ele>163.8</ele>
        <time>2011-04-09T09:36:28Z</time>
      </trkpt>
      <trkpt lat="43.60111" lon="3.68364">
        <ele>164.5</ele>
        <time>2011-04-09T09:36:31Z</time>
      </trkpt>
      <trkpt lat="43.60106" lon="3.6837">
        <ele>165.3</ele>
        <time>2011-04-09T09:36:34Z</time>
      </trkpt>
      <trkpt lat="43.60104" lon="3.68372">
        <ele>165.6</ele>
        <time>2011-04-09T09:36:35Z</time>
      </trkpt>
      <trkpt lat="43.60094" lon="3.68384">
        <ele>166</ele>
        <time>2011-04-09T09:36:41Z</time>
      </trkpt>
      <trkpt lat="43.60087" lon="3.6839">
        <ele>167.5</ele>
        <time>2011-04-09T09:36:45Z</time>
      </trkpt>
      <trkpt lat="43.6008" lon="3.68396">
        <ele>168.3</ele>
        <time>2011-04-09T09:36:49Z</time>
      </trkpt>
      <trkpt lat="43.60074" lon="3.68404">
        <ele>169.3</ele>
        <time>2011-04-09T09:36:53Z</time>
      </trkpt>
      <trkpt lat="43.60069" lon="3.68412">
        <ele>169.7</ele>
        <time>2011-04-09T09:36:57Z</time>
      </trkpt>
      <trkpt lat="43.60062" lon="3.68419">
        <ele>170</ele>
        <time>2011-04-09T09:37:01Z</time>
      </trkpt>
      <trkpt lat="43.60055" lon="3.68425">
        <ele>170.5</ele>
        <time>2011-04-09T09:37:05Z</time>
      </trkpt>
      <trkpt lat="43.60048" lon="3.68429">
        <ele>171.8</ele>
        <time>2011-04-09T09:37:09Z</time>
      </trkpt>
      <trkpt lat="43.60041" lon="3.68434">
        <ele>172.1</ele>
        <time>2011-04-09T09:37:13Z</time>
      </trkpt>
      <trkpt lat="43.60034" lon="3.68438">
        <ele>173.2</ele>
        <time>2011-04-09T09:37:17Z</time>
      </trkpt>
      <trkpt lat="43.60027" lon="3.68442">
        <ele>173.6</ele>
        <time>2011-04-09T09:37:21Z</time>
      </trkpt>
      <trkpt lat="43.60021" lon="3.68448">
        <ele>174.6</ele>
        <time>2011-04-09T09:37:25Z</time>
      </trkpt>
      <trkpt lat="43.60013" lon="3.68453">
        <ele>175.2</ele>
        <time>2011-04-09T09:37:30Z</time>
      </trkpt>
      <trkpt lat="43.60005" lon="3.68451">
        <ele>174.9</ele>
        <time>2011-04-09T09:37:34Z</time>
      </trkpt>
      <trkpt lat="43.60003" lon="3.68439">
        <ele>176.1</ele>
        <time>2011-04-09T09:37:39Z</time>
      </trkpt>
      <trkpt lat="43.60003" lon="3.68437">
        <ele>176.4</ele>
        <time>2011-04-09T09:37:40Z</time>
      </trkpt>
      <trkpt lat="43.6" lon="3.68417">
        <ele>177.8</ele>
        <time>2011-04-09T09:37:48Z</time>
      </trkpt>
      <trkpt lat="43.59996" lon="3.68409">
        <ele>178</ele>
        <time>2011-04-09T09:37:52Z</time>
      </trkpt>
      <trkpt lat="43.59989" lon="3.68403">
        <ele>179.1</ele>
        <time>2011-04-09T09:37:56Z</time>
      </trkpt>
      <trkpt lat="43.59981" lon="3.684">
        <ele>180</ele>
        <time>2011-04-09T09:38:00Z</time>
      </trkpt>
      <trkpt lat="43.59974" lon="3.68401">
        <ele>180.6</ele>
        <time>2011-04-09T09:38:04Z</time>
      </trkpt>
      <trkpt lat="43.59966" lon="3.684">
        <ele>181.4</ele>
        <time>2011-04-09T09:38:08Z</time>
      </trkpt>
      <trkpt lat="43.59959" lon="3.684">
        <ele>180.7</ele>
        <time>2011-04-09T09:38:11Z</time>
      </trkpt>
      <trkpt lat="43.59952" lon="3.68399">
        <ele>181.6</ele>
        <time>2011-04-09T09:38:14Z</time>
      </trkpt>
      <trkpt lat="43.59944" lon="3.68396">
        <ele>182.1</ele>
        <time>2011-04-09T09:38:17Z</time>
      </trkpt>
      <trkpt lat="43.59938" lon="3.68391">
        <ele>182.3</ele>
        <time>2011-04-09T09:38:20Z</time>
      </trkpt>
      <trkpt lat="43.59932" lon="3.68386">
        <ele>182.8</ele>
        <time>2011-04-09T09:38:23Z</time>
      </trkpt>
      <trkpt lat="43.59926" lon="3.68381">
        <ele>183.5</ele>
        <time>2011-04-09T09:38:26Z</time>
      </trkpt>
      <trkpt lat="43.5992" lon="3.68377">
        <ele>183.8</ele>
        <time>2011-04-09T09:38:29Z</time>
      </trkpt>
      <trkpt lat="43.59912" lon="3.68375">
        <ele>184.1</ele>
        <time>2011-04-09T09:38:32Z</time>
      </trkpt>
      <trkpt lat="43.59905" lon="3.68375">
        <ele>184.9</ele>
        <time>2011-04-09T09:38:35Z</time>
      </trkpt>
      <trkpt lat="43.59898" lon="3.68375">
        <ele>185.7</ele>
        <time>2011-04-09T09:38:38Z</time>
      </trkpt>
      <trkpt lat="43.59892" lon="3.68374">
        <ele>186.2</ele>
        <time>2011-04-09T09:38:41Z</time>
      </trkpt>
      <trkpt lat="43.59889" lon="3.68373">
        <ele>186.4</ele>
        <time>2011-04-09T09:38:42Z</time>
      </trkpt>
      <trkpt lat="43.59875" lon="3.68365">
        <ele>187.5</ele>
        <time>2011-04-09T09:38:49Z</time>
      </trkpt>
      <trkpt lat="43.59868" lon="3.68359">
        <ele>188.7</ele>
        <time>2011-04-09T09:38:53Z</time>
      </trkpt>
      <trkpt lat="43.5986" lon="3.68353">
        <ele>189.2</ele>
        <time>2011-04-09T09:38:57Z</time>
      </trkpt>
      <trkpt lat="43.59859" lon="3.68344">
        <ele>189.7</ele>
        <time>2011-04-09T09:39:00Z</time>
      </trkpt>
      <trkpt lat="43.59859" lon="3.68334">
        <ele>190.3</ele>
        <time>2011-04-09T09:39:03Z</time>
      </trkpt>
      <trkpt lat="43.59854" lon="3.68326">
        <ele>190.8</ele>
        <time>2011-04-09T09:39:06Z</time>
      </trkpt>
      <trkpt lat="43.59847" lon="3.68319">
        <ele>190.5</ele>
        <time>2011-04-09T09:39:09Z</time>
      </trkpt>
      <trkpt lat="43.59841" lon="3.68314">
        <ele>190.5</ele>
        <time>2011-04-09T09:39:11Z</time>
      </trkpt>
      <trkpt lat="43.59835" lon="3.68309">
        <ele>190.3</ele>
        <time>2011-04-09T09:39:13Z</time>
      </trkpt>
      <trkpt lat="43.59829" lon="3.68304">
        <ele>190.1</ele>
        <time>2011-04-09T09:39:15Z</time>
      </trkpt>
      <trkpt lat="43.59824" lon="3.68296">
        <ele>189.6</ele>
        <time>2011-04-09T09:39:17Z</time>
      </trkpt>
      <trkpt lat="43.5982" lon="3.68288">
        <ele>189.4</ele>
        <time>2011-04-09T09:39:19Z</time>
      </trkpt>
      <trkpt lat="43.59817" lon="3.68279">
        <ele>188.8</ele>
        <time>2011-04-09T09:39:21Z</time>
      </trkpt>
      <trkpt lat="43.59814" lon="3.68271">
        <ele>188.9</ele>
        <time>2011-04-09T09:39:23Z</time>
      </trkpt>
      <trkpt lat="43.59811" lon="3.68262">
        <ele>189.2</ele>
        <time>2011-04-09T09:39:25Z</time>
      </trkpt>
      <trkpt lat="43.59809" lon="3.68254">
        <ele>189.9</ele>
        <time>2011-04-09T09:39:27Z</time>
      </trkpt>
      <trkpt lat="43.59806" lon="3.68247">
        <ele>190.3</ele>
        <time>2011-04-09T09:39:29Z</time>
      </trkpt>
      <trkpt lat="43.59802" lon="3.68239">
        <ele>190.5</ele>
        <time>2011-04-09T09:39:31Z</time>
      </trkpt>
      <trkpt lat="43.598" lon="3.68232">
        <ele>190.5</ele>
        <time>2011-04-09T09:39:33Z</time>
      </trkpt>
      <trkpt lat="43.59797" lon="3.68224">
        <ele>190.5</ele>
        <time>2011-04-09T09:39:35Z</time>
      </trkpt>
      <trkpt lat="43.59794" lon="3.68216">
        <ele>191.9</ele>
        <time>2011-04-09T09:39:37Z</time>
      </trkpt>
      <trkpt lat="43.59791" lon="3.68206">
        <ele>192.5</ele>
        <time>2011-04-09T09:39:40Z</time>
      </trkpt>
      <trkpt lat="43.59787" lon="3.68195">
        <ele>193.2</ele>
        <time>2011-04-09T09:39:43Z</time>
      </trkpt>
      <trkpt lat="43.59785" lon="3.68192">
        <ele>193.4</ele>
        <time>2011-04-09T09:39:44Z</time>
      </trkpt>
      <trkpt lat="43.59778" lon="3.68175">
        <ele>194.4</ele>
        <time>2011-04-09T09:39:49Z</time>
      </trkpt>
      <trkpt lat="43.59772" lon="3.68166">
        <ele>194.9</ele>
        <time>2011-04-09T09:39:52Z</time>
      </trkpt>
      <trkpt lat="43.59767" lon="3.68156">
        <ele>194.9</ele>
        <time>2011-04-09T09:39:55Z</time>
      </trkpt>
      <trkpt lat="43.59764" lon="3.68149">
        <ele>194.6</ele>
        <time>2011-04-09T09:39:57Z</time>
      </trkpt>
      <trkpt lat="43.5976" lon="3.68142">
        <ele>195.2</ele>
        <time>2011-04-09T09:39:59Z</time>
      </trkpt>
      <trkpt lat="43.59757" lon="3.68134">
        <ele>195.5</ele>
        <time>2011-04-09T09:40:01Z</time>
      </trkpt>
      <trkpt lat="43.59753" lon="3.68125">
        <ele>195.7</ele>
        <time>2011-04-09T09:40:03Z</time>
      </trkpt>
      <trkpt lat="43.5975" lon="3.68117">
        <ele>195.5</ele>
        <time>2011-04-09T09:40:05Z</time>
      </trkpt>
      <trkpt lat="43.59747" lon="3.68108">
        <ele>195.3</ele>
        <time>2011-04-09T09:40:07Z</time>
      </trkpt>
      <trkpt lat="43.59745" lon="3.681">
        <ele>195.9</ele>
        <time>2011-04-09T09:40:09Z</time>
      </trkpt>
      <trkpt lat="43.59742" lon="3.68091">
        <ele>196.5</ele>
        <time>2011-04-09T09:40:11Z</time>
      </trkpt>
      <trkpt lat="43.5974" lon="3.68082">
        <ele>197.1</ele>
        <time>2011-04-09T09:40:13Z</time>
      </trkpt>
      <trkpt lat="43.59739" lon="3.68073">
        <ele>197.2</ele>
        <time>2011-04-09T09:40:15Z</time>
      </trkpt>
      <trkpt lat="43.59737" lon="3.68064">
        <ele>197.6</ele>
        <time>2011-04-09T09:40:17Z</time>
      </trkpt>
      <trkpt lat="43.59734" lon="3.68054">
        <ele>198.1</ele>
        <time>2011-04-09T09:40:20Z</time>
      </trkpt>
      <trkpt lat="43.5973" lon="3.68045">
        <ele>198.8</ele>
        <time>2011-04-09T09:40:23Z</time>
      </trkpt>
      <trkpt lat="43.59725" lon="3.68036">
        <ele>199.5</ele>
        <time>2011-04-09T09:40:26Z</time>
      </trkpt>
      <trkpt lat="43.59719" lon="3.68029">
        <ele>200.2</ele>
        <time>2011-04-09T09:40:29Z</time>
      </trkpt>
      <trkpt lat="43.59712" lon="3.68022">
        <ele>200.8</ele>
        <time>2011-04-09T09:40:32Z</time>
      </trkpt>
      <trkpt lat="43.59704" lon="3.68016">
        <ele>201.3</ele>
        <time>2011-04-09T09:40:35Z</time>
      </trkpt>
      <trkpt lat="43.59698" lon="3.68014">
        <ele>201.8</ele>
        <time>2011-04-09T09:40:37Z</time>
      </trkpt>
      <trkpt lat="43.5969" lon="3.6801">
        <ele>202</ele>
        <time>2011-04-09T09:40:40Z</time>
      </trkpt>
      <trkpt lat="43.59683" lon="3.68004">
        <ele>202.2</ele>
        <time>2011-04-09T09:40:43Z</time>
      </trkpt>
      <trkpt lat="43.59674" lon="3.68001">
        <ele>202.8</ele>
        <time>2011-04-09T09:40:47Z</time>
      </trkpt>
      <trkpt lat="43.59672" lon="3.68001">
        <ele>202.9</ele>
        <time>2011-04-09T09:40:48Z</time>
      </trkpt>
      <trkpt lat="43.5966" lon="3.68003">
        <ele>204.1</ele>
        <time>2011-04-09T09:40:53Z</time>
      </trkpt>
      <trkpt lat="43.59651" lon="3.68005">
        <ele>203.1</ele>
        <time>2011-04-09T09:42:54Z</time>
      </trkpt>
      <trkpt lat="43.59651" lon="3.68005">
        <ele>203.1</ele>
        <time>2011-04-09T09:42:55Z</time>
      </trkpt>
      <trkpt lat="43.59642" lon="3.68011">
        <ele>203.8</ele>
        <time>2011-04-09T09:44:52Z</time>
      </trkpt>
      <trkpt lat="43.59627" lon="3.68015">
        <ele>203.6</ele>
        <time>2011-04-09T09:44:58Z</time>
      </trkpt>
      <trkpt lat="43.5962" lon="3.68016">
        <ele>203.4</ele>
        <time>2011-04-09T09:45:00Z</time>
      </trkpt>
      <trkpt lat="43.59614" lon="3.68014">
        <ele>203</ele>
        <time>2011-04-09T09:45:02Z</time>
      </trkpt>
      <trkpt lat="43.59606" lon="3.68013">
        <ele>202.9</ele>
        <time>2011-04-09T09:45:05Z</time>
      </trkpt>
      <trkpt lat="43.596" lon="3.68012">
        <ele>202.9</ele>
        <time>2011-04-09T09:45:07Z</time>
      </trkpt>
      <trkpt lat="43.59593" lon="3.6801">
        <ele>203</ele>
        <time>2011-04-09T09:45:09Z</time>
      </trkpt>
      <trkpt lat="43.59586" lon="3.68011">
        <ele>202.5</ele>
        <time>2011-04-09T09:45:13Z</time>
      </trkpt>
      <trkpt lat="43.59579" lon="3.68009">
        <ele>201.3</ele>
        <time>2011-04-09T09:45:16Z</time>
      </trkpt>
      <trkpt lat="43.59571" lon="3.68007">
        <ele>201.6</ele>
        <time>2011-04-09T09:45:19Z</time>
      </trkpt>
      <trkpt lat="43.59564" lon="3.68009">
        <ele>200.1</ele>
        <time>2011-04-09T09:45:21Z</time>
      </trkpt>
      <trkpt lat="43.59557" lon="3.68011">
        <ele>199.3</ele>
        <time>2011-04-09T09:45:23Z</time>
      </trkpt>
      <trkpt lat="43.59549" lon="3.68014">
        <ele>197.9</ele>
        <time>2011-04-09T09:45:26Z</time>
      </trkpt>
      <trkpt lat="43.59542" lon="3.68018">
        <ele>196.9</ele>
        <time>2011-04-09T09:45:29Z</time>
      </trkpt>
      <trkpt lat="43.59535" lon="3.68019">
        <ele>195.2</ele>
        <time>2011-04-09T09:45:31Z</time>
      </trkpt>
      <trkpt lat="43.59531" lon="3.68019">
        <ele>194.7</ele>
        <time>2011-04-09T09:45:32Z</time>
      </trkpt>
      <trkpt lat="43.59526" lon="3.6802">
        <ele>194.2</ele>
        <time>2011-04-09T09:45:33Z</time>
      </trkpt>
      <trkpt lat="43.5952" lon="3.68021">
        <ele>193.9</ele>
        <time>2011-04-09T09:45:34Z</time>
      </trkpt>
      <trkpt lat="43.59515" lon="3.68022">
        <ele>193.6</ele>
        <time>2011-04-09T09:45:35Z</time>
      </trkpt>
      <trkpt lat="43.59509" lon="3.68022">
        <ele>192.9</ele>
        <time>2011-04-09T09:45:36Z</time>
      </trkpt>
      <trkpt lat="43.59504" lon="3.68022">
        <ele>192.3</ele>
        <time>2011-04-09T09:45:37Z</time>
      </trkpt>
      <trkpt lat="43.59499" lon="3.68023">
        <ele>191.9</ele>
        <time>2011-04-09T09:45:38Z</time>
      </trkpt>
      <trkpt lat="43.59494" lon="3.68025">
        <ele>191.6</ele>
        <time>2011-04-09T09:45:39Z</time>
      </trkpt>
      <trkpt lat="43.59489" lon="3.68027">
        <ele>190.6</ele>
        <time>2011-04-09T09:45:40Z</time>
      </trkpt>
      <trkpt lat="43.59484" lon="3.68029">
        <ele>189.9</ele>
        <time>2011-04-09T09:45:41Z</time>
      </trkpt>
      <trkpt lat="43.5948" lon="3.68029">
        <ele>189.4</ele>
        <time>2011-04-09T09:45:42Z</time>
      </trkpt>
      <trkpt lat="43.59475" lon="3.68028">
        <ele>188.9</ele>
        <time>2011-04-09T09:45:43Z</time>
      </trkpt>
      <trkpt lat="43.5947" lon="3.68027">
        <ele>188.5</ele>
        <time>2011-04-09T09:45:44Z</time>
      </trkpt>
      <trkpt lat="43.59466" lon="3.68024">
        <ele>188.2</ele>
        <time>2011-04-09T09:45:45Z</time>
      </trkpt>
      <trkpt lat="43.59462" lon="3.68022">
        <ele>187.7</ele>
        <time>2011-04-09T09:45:46Z</time>
      </trkpt>
      <trkpt lat="43.59454" lon="3.68016">
        <ele>187</ele>
        <time>2011-04-09T09:45:48Z</time>
      </trkpt>
      <trkpt lat="43.59447" lon="3.68011">
        <ele>185.9</ele>
        <time>2011-04-09T09:45:50Z</time>
      </trkpt>
      <trkpt lat="43.59439" lon="3.68011">
        <ele>184.9</ele>
        <time>2011-04-09T09:45:52Z</time>
      </trkpt>
      <trkpt lat="43.59437" lon="3.6801">
        <ele>184.4</ele>
        <time>2011-04-09T09:45:53Z</time>
      </trkpt>
      <trkpt lat="43.59428" lon="3.68003">
        <ele>183.1</ele>
        <time>2011-04-09T09:45:57Z</time>
      </trkpt>
      <trkpt lat="43.59422" lon="3.67997">
        <ele>182.5</ele>
        <time>2011-04-09T09:45:59Z</time>
      </trkpt>
      <trkpt lat="43.59417" lon="3.67994">
        <ele>182.1</ele>
        <time>2011-04-09T09:46:00Z</time>
      </trkpt>
      <trkpt lat="43.59409" lon="3.6799">
        <ele>181.1</ele>
        <time>2011-04-09T09:46:02Z</time>
      </trkpt>
      <trkpt lat="43.59402" lon="3.67995">
        <ele>177.3</ele>
        <time>2011-04-09T09:46:10Z</time>
      </trkpt>
      <trkpt lat="43.59401" lon="3.68007">
        <ele>175.4</ele>
        <time>2011-04-09T09:46:14Z</time>
      </trkpt>
      <trkpt lat="43.59398" lon="3.68015">
        <ele>175</ele>
        <time>2011-04-09T09:46:16Z</time>
      </trkpt>
      <trkpt lat="43.59395" lon="3.6802">
        <ele>174.8</ele>
        <time>2011-04-09T09:46:17Z</time>
      </trkpt>
      <trkpt lat="43.59394" lon="3.68026">
        <ele>174.5</ele>
        <time>2011-04-09T09:46:18Z</time>
      </trkpt>
      <trkpt lat="43.59392" lon="3.68032">
        <ele>174.2</ele>
        <time>2011-04-09T09:46:19Z</time>
      </trkpt>
      <trkpt lat="43.59391" lon="3.68038">
        <ele>174</ele>
        <time>2011-04-09T09:46:20Z</time>
      </trkpt>
      <trkpt lat="43.5939" lon="3.68048">
        <ele>174.1</ele>
        <time>2011-04-09T09:46:22Z</time>
      </trkpt>
      <trkpt lat="43.59389" lon="3.68057">
        <ele>173.6</ele>
        <time>2011-04-09T09:46:24Z</time>
      </trkpt>
      <trkpt lat="43.59389" lon="3.68066">
        <ele>172.9</ele>
        <time>2011-04-09T09:46:26Z</time>
      </trkpt>
      <trkpt lat="43.59387" lon="3.68074">
        <ele>172.1</ele>
        <time>2011-04-09T09:46:28Z</time>
      </trkpt>
      <trkpt lat="43.59384" lon="3.68082">
        <ele>171.6</ele>
        <time>2011-04-09T09:46:30Z</time>
      </trkpt>
      <trkpt lat="43.59378" lon="3.68091">
        <ele>171.4</ele>
        <time>2011-04-09T09:46:32Z</time>
      </trkpt>
      <trkpt lat="43.59372" lon="3.68097">
        <ele>170.7</ele>
        <time>2011-04-09T09:46:34Z</time>
      </trkpt>
      <trkpt lat="43.59367" lon="3.68104">
        <ele>169.9</ele>
        <time>2011-04-09T09:46:36Z</time>
      </trkpt>
      <trkpt lat="43.59363" lon="3.68115">
        <ele>169.4</ele>
        <time>2011-04-09T09:46:38Z</time>
      </trkpt>
      <trkpt lat="43.59358" lon="3.68121">
        <ele>168.6</ele>
        <time>2011-04-09T09:46:40Z</time>
      </trkpt>
      <trkpt lat="43.59352" lon="3.68123">
        <ele>167.8</ele>
        <time>2011-04-09T09:46:42Z</time>
      </trkpt>
      <trkpt lat="43.59345" lon="3.68125">
        <ele>166.5</ele>
        <time>2011-04-09T09:46:45Z</time>
      </trkpt>
      <trkpt lat="43.59338" lon="3.68126">
        <ele>165.6</ele>
        <time>2011-04-09T09:46:48Z</time>
      </trkpt>
      <trkpt lat="43.59331" lon="3.68127">
        <ele>164.9</ele>
        <time>2011-04-09T09:46:50Z</time>
      </trkpt>
      <trkpt lat="43.59324" lon="3.68128">
        <ele>164.3</ele>
        <time>2011-04-09T09:46:52Z</time>
      </trkpt>
      <trkpt lat="43.59318" lon="3.68128">
        <ele>163.2</ele>
        <time>2011-04-09T09:46:54Z</time>
      </trkpt>
      <trkpt lat="43.59315" lon="3.68127">
        <ele>162.8</ele>
        <time>2011-04-09T09:46:55Z</time>
      </trkpt>
      <trkpt lat="43.59306" lon="3.6813">
        <ele>161.6</ele>
        <time>2011-04-09T09:46:58Z</time>
      </trkpt>
      <trkpt lat="43.593" lon="3.68134">
        <ele>160.3</ele>
        <time>2011-04-09T09:47:00Z</time>
      </trkpt>
      <trkpt lat="43.59293" lon="3.6814">
        <ele>159.2</ele>
        <time>2011-04-09T09:47:03Z</time>
      </trkpt>
      <trkpt lat="43.59286" lon="3.68144">
        <ele>157.8</ele>
        <time>2011-04-09T09:47:06Z</time>
      </trkpt>
      <trkpt lat="43.59277" lon="3.68147">
        <ele>156.4</ele>
        <time>2011-04-09T09:47:09Z</time>
      </trkpt>
      <trkpt lat="43.5927" lon="3.68151">
        <ele>155.2</ele>
        <time>2011-04-09T09:47:14Z</time>
      </trkpt>
      <trkpt lat="43.59263" lon="3.68155">
        <ele>154.9</ele>
        <time>2011-04-09T09:47:19Z</time>
      </trkpt>
      <trkpt lat="43.59255" lon="3.6816">
        <ele>153.7</ele>
        <time>2011-04-09T09:47:22Z</time>
      </trkpt>
      <trkpt lat="43.5925" lon="3.68164">
        <ele>153.2</ele>
        <time>2011-04-09T09:47:24Z</time>
      </trkpt>
      <trkpt lat="43.59245" lon="3.68169">
        <ele>152.7</ele>
        <time>2011-04-09T09:47:26Z</time>
      </trkpt>
      <trkpt lat="43.59239" lon="3.68175">
        <ele>152</ele>
        <time>2011-04-09T09:47:28Z</time>
      </trkpt>
      <trkpt lat="43.59231" lon="3.68179">
        <ele>151.1</ele>
        <time>2011-04-09T09:47:31Z</time>
      </trkpt>
      <trkpt lat="43.59225" lon="3.68183">
        <ele>150.7</ele>
        <time>2011-04-09T09:47:33Z</time>
      </trkpt>
      <trkpt lat="43.5922" lon="3.68188">
        <ele>150.5</ele>
        <time>2011-04-09T09:47:35Z</time>
      </trkpt>
      <trkpt lat="43.59214" lon="3.68195">
        <ele>150.1</ele>
        <time>2011-04-09T09:47:38Z</time>
      </trkpt>
      <trkpt lat="43.59209" lon="3.68201">
        <ele>149.6</ele>
        <time>2011-04-09T09:47:40Z</time>
      </trkpt>
      <trkpt lat="43.59204" lon="3.68206">
        <ele>148.6</ele>
        <time>2011-04-09T09:47:42Z</time>
      </trkpt>
      <trkpt lat="43.592" lon="3.68211">
        <ele>147.7</ele>
        <time>2011-04-09T09:47:44Z</time>
      </trkpt>
      <trkpt lat="43.59194" lon="3.68217">
        <ele>146.8</ele>
        <time>2011-04-09T09:47:46Z</time>
      </trkpt>
      <trkpt lat="43.59189" lon="3.68223">
        <ele>146.4</ele>
        <time>2011-04-09T09:47:48Z</time>
      </trkpt>
      <trkpt lat="43.59185" lon="3.6823">
        <ele>145.8</ele>
        <time>2011-04-09T09:47:50Z</time>
      </trkpt>
      <trkpt lat="43.59179" lon="3.68238">
        <ele>144.8</ele>
        <time>2011-04-09T09:47:53Z</time>
      </trkpt>
      <trkpt lat="43.59175" lon="3.68245">
        <ele>144.4</ele>
        <time>2011-04-09T09:47:55Z</time>
      </trkpt>
      <trkpt lat="43.59173" lon="3.68248">
        <ele>144.2</ele>
        <time>2011-04-09T09:47:56Z</time>
      </trkpt>
      <trkpt lat="43.59164" lon="3.68259">
        <ele>144.2</ele>
        <time>2011-04-09T09:48:00Z</time>
      </trkpt>
      <trkpt lat="43.59157" lon="3.68265">
        <ele>143.4</ele>
        <time>2011-04-09T09:48:03Z</time>
      </trkpt>
      <trkpt lat="43.5915" lon="3.68271">
        <ele>142.1</ele>
        <time>2011-04-09T09:48:07Z</time>
      </trkpt>
      <trkpt lat="43.59144" lon="3.68276">
        <ele>141.6</ele>
        <time>2011-04-09T09:48:10Z</time>
      </trkpt>
      <trkpt lat="43.59137" lon="3.6828">
        <ele>141.1</ele>
        <time>2011-04-09T09:48:14Z</time>
      </trkpt>
      <trkpt lat="43.5913" lon="3.68287">
        <ele>141.1</ele>
        <time>2011-04-09T09:48:18Z</time>
      </trkpt>
      <trkpt lat="43.59124" lon="3.68294">
        <ele>140.1</ele>
        <time>2011-04-09T09:48:22Z</time>
      </trkpt>
      <trkpt lat="43.59116" lon="3.68298">
        <ele>140</ele>
        <time>2011-04-09T09:48:25Z</time>
      </trkpt>
      <trkpt lat="43.59108" lon="3.68299">
        <ele>139.6</ele>
        <time>2011-04-09T09:48:29Z</time>
      </trkpt>
      <trkpt lat="43.59101" lon="3.68301">
        <ele>139</ele>
        <time>2011-04-09T09:48:32Z</time>
      </trkpt>
      <trkpt lat="43.59093" lon="3.68306">
        <ele>137.7</ele>
        <time>2011-04-09T09:48:38Z</time>
      </trkpt>
      <trkpt lat="43.59086" lon="3.68312">
        <ele>136.5</ele>
        <time>2011-04-09T09:48:47Z</time>
      </trkpt>
      <trkpt lat="43.59079" lon="3.68319">
        <ele>137.3</ele>
        <time>2011-04-09T09:49:04Z</time>
      </trkpt>
      <trkpt lat="43.59078" lon="3.68319">
        <ele>137.4</ele>
        <time>2011-04-09T09:49:05Z</time>
      </trkpt>
      <trkpt lat="43.59062" lon="3.68326">
        <ele>136</ele>
        <time>2011-04-09T09:49:27Z</time>
      </trkpt>
      <trkpt lat="43.59055" lon="3.68332">
        <ele>135.4</ele>
        <time>2011-04-09T09:49:40Z</time>
      </trkpt>
      <trkpt lat="43.59049" lon="3.68339">
        <ele>135.2</ele>
        <time>2011-04-09T09:49:58Z</time>
      </trkpt>
      <trkpt lat="43.59043" lon="3.68349">
        <ele>134.6</ele>
        <time>2011-04-09T09:50:28Z</time>
      </trkpt>
      <trkpt lat="43.59043" lon="3.68349">
        <ele>134.8</ele>
        <time>2011-04-09T09:50:29Z</time>
      </trkpt>
      <trkpt lat="43.59035" lon="3.68367">
        <ele>135.1</ele>
        <time>2011-04-09T09:51:19Z</time>
      </trkpt>
      <trkpt lat="43.59029" lon="3.68375">
        <ele>134.9</ele>
        <time>2011-04-09T09:51:23Z</time>
      </trkpt>
      <trkpt lat="43.59023" lon="3.68383">
        <ele>135.7</ele>
        <time>2011-04-09T09:51:27Z</time>
      </trkpt>
      <trkpt lat="43.59017" lon="3.68391">
        <ele>136.3</ele>
        <time>2011-04-09T09:51:31Z</time>
      </trkpt>
      <trkpt lat="43.59015" lon="3.68393">
        <ele>136.7</ele>
        <time>2011-04-09T09:51:32Z</time>
      </trkpt>
      <trkpt lat="43.59006" lon="3.68406">
        <ele>137.7</ele>
        <time>2011-04-09T09:51:38Z</time>
      </trkpt>
      <trkpt lat="43.59001" lon="3.68413">
        <ele>137.9</ele>
        <time>2011-04-09T09:51:41Z</time>
      </trkpt>
      <trkpt lat="43.58996" lon="3.68421">
        <ele>138.4</ele>
        <time>2011-04-09T09:51:44Z</time>
      </trkpt>
      <trkpt lat="43.58992" lon="3.68429">
        <ele>139.4</ele>
        <time>2011-04-09T09:51:47Z</time>
      </trkpt>
      <trkpt lat="43.58989" lon="3.68438">
        <ele>140.1</ele>
        <time>2011-04-09T09:51:50Z</time>
      </trkpt>
      <trkpt lat="43.58988" lon="3.68449">
        <ele>140.6</ele>
        <time>2011-04-09T09:51:53Z</time>
      </trkpt>
      <trkpt lat="43.58988" lon="3.68461">
        <ele>141.3</ele>
        <time>2011-04-09T09:51:56Z</time>
      </trkpt>
      <trkpt lat="43.58989" lon="3.68469">
        <ele>141.5</ele>
        <time>2011-04-09T09:51:58Z</time>
      </trkpt>
      <trkpt lat="43.5899" lon="3.68479">
        <ele>141.5</ele>
        <time>2011-04-09T09:52:00Z</time>
      </trkpt>
      <trkpt lat="43.58993" lon="3.68489">
        <ele>141.5</ele>
        <time>2011-04-09T09:52:02Z</time>
      </trkpt>
      <trkpt lat="43.58998" lon="3.68499">
        <ele>141</ele>
        <time>2011-04-09T09:52:04Z</time>
      </trkpt>
      <trkpt lat="43.59001" lon="3.68504">
        <ele>140.9</ele>
        <time>2011-04-09T09:52:05Z</time>
      </trkpt>
      <trkpt lat="43.59004" lon="3.68509">
        <ele>140.5</ele>
        <time>2011-04-09T09:52:06Z</time>
      </trkpt>
      <trkpt lat="43.59008" lon="3.68514">
        <ele>140.2</ele>
        <time>2011-04-09T09:52:07Z</time>
      </trkpt>
      <trkpt lat="43.59011" lon="3.68518">
        <ele>140</ele>
        <time>2011-04-09T09:52:08Z</time>
      </trkpt>
      <trkpt lat="43.59015" lon="3.68522">
        <ele>139.7</ele>
        <time>2011-04-09T09:52:09Z</time>
      </trkpt>
      <trkpt lat="43.59019" lon="3.68525">
        <ele>139.5</ele>
        <time>2011-04-09T09:52:10Z</time>
      </trkpt>
      <trkpt lat="43.59024" lon="3.68528">
        <ele>139.4</ele>
        <time>2011-04-09T09:52:11Z</time>
      </trkpt>
      <trkpt lat="43.59031" lon="3.68533">
        <ele>138.5</ele>
        <time>2011-04-09T09:52:13Z</time>
      </trkpt>
      <trkpt lat="43.59028" lon="3.68543">
        <ele>138.1</ele>
        <time>2011-04-09T09:52:16Z</time>
      </trkpt>
      <trkpt lat="43.59021" lon="3.68543">
        <ele>138</ele>
        <time>2011-04-09T09:52:18Z</time>
      </trkpt>
      <trkpt lat="43.59013" lon="3.68541">
        <ele>137.9</ele>
        <time>2011-04-09T09:52:20Z</time>
      </trkpt>
      <trkpt lat="43.59008" lon="3.6854">
        <ele>137.8</ele>
        <time>2011-04-09T09:52:21Z</time>
      </trkpt>
      <trkpt lat="43.59003" lon="3.6854">
        <ele>137.3</ele>
        <time>2011-04-09T09:52:22Z</time>
      </trkpt>
      <trkpt lat="43.58998" lon="3.6854">
        <ele>136.9</ele>
        <time>2011-04-09T09:52:23Z</time>
      </trkpt>
      <trkpt lat="43.58992" lon="3.68541">
        <ele>136.5</ele>
        <time>2011-04-09T09:52:24Z</time>
      </trkpt>
      <trkpt lat="43.58986" lon="3.68543">
        <ele>136.1</ele>
        <time>2011-04-09T09:52:25Z</time>
      </trkpt>
      <trkpt lat="43.5898" lon="3.68545">
        <ele>135.7</ele>
        <time>2011-04-09T09:52:26Z</time>
      </trkpt>
      <trkpt lat="43.58974" lon="3.68547">
        <ele>135.4</ele>
        <time>2011-04-09T09:52:27Z</time>
      </trkpt>
      <trkpt lat="43.58968" lon="3.6855">
        <ele>134.6</ele>
        <time>2011-04-09T09:52:28Z</time>
      </trkpt>
      <trkpt lat="43.58961" lon="3.68553">
        <ele>133.9</ele>
        <time>2011-04-09T09:52:29Z</time>
      </trkpt>
      <trkpt lat="43.58955" lon="3.68557">
        <ele>133.4</ele>
        <time>2011-04-09T09:52:30Z</time>
      </trkpt>
      <trkpt lat="43.58948" lon="3.68561">
        <ele>132.9</ele>
        <time>2011-04-09T09:52:31Z</time>
      </trkpt>
      <trkpt lat="43.58942" lon="3.68565">
        <ele>132.6</ele>
        <time>2011-04-09T09:52:32Z</time>
      </trkpt>
      <trkpt lat="43.58935" lon="3.68569">
        <ele>132.3</ele>
        <time>2011-04-09T09:52:33Z</time>
      </trkpt>
      <trkpt lat="43.58928" lon="3.68573">
        <ele>132.1</ele>
        <time>2011-04-09T09:52:34Z</time>
      </trkpt>
      <trkpt lat="43.58921" lon="3.68577">
        <ele>132</ele>
        <time>2011-04-09T09:52:35Z</time>
      </trkpt>
      <trkpt lat="43.58913" lon="3.68581">
        <ele>131.9</ele>
        <time>2011-04-09T09:52:36Z</time>
      </trkpt>
      <trkpt lat="43.58906" lon="3.68584">
        <ele>131.8</ele>
        <time>2011-04-09T09:52:37Z</time>
      </trkpt>
      <trkpt lat="43.58898" lon="3.68587">
        <ele>131</ele>
        <time>2011-04-09T09:52:38Z</time>
      </trkpt>
      <trkpt lat="43.58891" lon="3.6859">
        <ele>130.3</ele>
        <time>2011-04-09T09:52:39Z</time>
      </trkpt>
      <trkpt lat="43.58883" lon="3.68593">
        <ele>129.8</ele>
        <time>2011-04-09T09:52:40Z</time>
      </trkpt>
      <trkpt lat="43.58874" lon="3.68596">
        <ele>129.4</ele>
        <time>2011-04-09T09:52:41Z</time>
      </trkpt>
      <trkpt lat="43.58866" lon="3.68598">
        <ele>129</ele>
        <time>2011-04-09T09:52:42Z</time>
      </trkpt>
      <trkpt lat="43.58858" lon="3.68601">
        <ele>128.7</ele>
        <time>2011-04-09T09:52:43Z</time>
      </trkpt>
      <trkpt lat="43.5885" lon="3.68603">
        <ele>128</ele>
        <time>2011-04-09T09:52:44Z</time>
      </trkpt>
      <trkpt lat="43.58843" lon="3.68605">
        <ele>127.4</ele>
        <time>2011-04-09T09:52:45Z</time>
      </trkpt>
      <trkpt lat="43.58836" lon="3.68607">
        <ele>126.9</ele>
        <time>2011-04-09T09:52:46Z</time>
      </trkpt>
      <trkpt lat="43.58829" lon="3.68608">
        <ele>126.4</ele>
        <time>2011-04-09T09:52:47Z</time>
      </trkpt>
      <trkpt lat="43.58822" lon="3.68606">
        <ele>126</ele>
        <time>2011-04-09T09:52:48Z</time>
      </trkpt>
      <trkpt lat="43.58816" lon="3.68603">
        <ele>125.8</ele>
        <time>2011-04-09T09:52:49Z</time>
      </trkpt>
      <trkpt lat="43.58812" lon="3.68598">
        <ele>125.5</ele>
        <time>2011-04-09T09:52:50Z</time>
      </trkpt>
      <trkpt lat="43.58808" lon="3.68592">
        <ele>125</ele>
        <time>2011-04-09T09:52:51Z</time>
      </trkpt>
      <trkpt lat="43.58806" lon="3.68584">
        <ele>124.5</ele>
        <time>2011-04-09T09:52:52Z</time>
      </trkpt>
      <trkpt lat="43.58806" lon="3.68575">
        <ele>124.2</ele>
        <time>2011-04-09T09:52:53Z</time>
      </trkpt>
      <trkpt lat="43.58806" lon="3.68566">
        <ele>124</ele>
        <time>2011-04-09T09:52:54Z</time>
      </trkpt>
      <trkpt lat="43.58805" lon="3.68556">
        <ele>123.9</ele>
        <time>2011-04-09T09:52:55Z</time>
      </trkpt>
      <trkpt lat="43.58805" lon="3.68546">
        <ele>123.9</ele>
        <time>2011-04-09T09:52:56Z</time>
      </trkpt>
      <trkpt lat="43.58804" lon="3.68536">
        <ele>123.1</ele>
        <time>2011-04-09T09:52:57Z</time>
      </trkpt>
      <trkpt lat="43.58804" lon="3.68526">
        <ele>122.6</ele>
        <time>2011-04-09T09:52:58Z</time>
      </trkpt>
      <trkpt lat="43.58803" lon="3.68516">
        <ele>122.2</ele>
        <time>2011-04-09T09:52:59Z</time>
      </trkpt>
      <trkpt lat="43.58803" lon="3.68505">
        <ele>121.3</ele>
        <time>2011-04-09T09:53:00Z</time>
      </trkpt>
      <trkpt lat="43.58802" lon="3.68494">
        <ele>120.7</ele>
        <time>2011-04-09T09:53:01Z</time>
      </trkpt>
      <trkpt lat="43.58801" lon="3.68484">
        <ele>120.3</ele>
        <time>2011-04-09T09:53:02Z</time>
      </trkpt>
      <trkpt lat="43.58801" lon="3.68473">
        <ele>119.6</ele>
        <time>2011-04-09T09:53:03Z</time>
      </trkpt>
      <trkpt lat="43.588" lon="3.68462">
        <ele>119.1</ele>
        <time>2011-04-09T09:53:04Z</time>
      </trkpt>
      <trkpt lat="43.588" lon="3.68451">
        <ele>118.7</ele>
        <time>2011-04-09T09:53:05Z</time>
      </trkpt>
      <trkpt lat="43.58799" lon="3.68439">
        <ele>118.4</ele>
        <time>2011-04-09T09:53:06Z</time>
      </trkpt>
      <trkpt lat="43.58798" lon="3.68429">
        <ele>117.9</ele>
        <time>2011-04-09T09:53:07Z</time>
      </trkpt>
      <trkpt lat="43.58795" lon="3.68419">
        <ele>117.6</ele>
        <time>2011-04-09T09:53:08Z</time>
      </trkpt>
      <trkpt lat="43.5879" lon="3.68413">
        <ele>117.3</ele>
        <time>2011-04-09T09:53:09Z</time>
      </trkpt>
      <trkpt lat="43.58782" lon="3.68411">
        <ele>116.1</ele>
        <time>2011-04-09T09:53:11Z</time>
      </trkpt>
      <trkpt lat="43.58777" lon="3.68419">
        <ele>115.6</ele>
        <time>2011-04-09T09:53:14Z</time>
      </trkpt>
      <trkpt lat="43.58774" lon="3.6843">
        <ele>115.7</ele>
        <time>2011-04-09T09:53:17Z</time>
      </trkpt>
      <trkpt lat="43.5877" lon="3.6844">
        <ele>116</ele>
        <time>2011-04-09T09:53:20Z</time>
      </trkpt>
      <trkpt lat="43.58766" lon="3.68448">
        <ele>116.4</ele>
        <time>2011-04-09T09:53:22Z</time>
      </trkpt>
      <trkpt lat="43.58763" lon="3.68455">
        <ele>116.8</ele>
        <time>2011-04-09T09:53:24Z</time>
      </trkpt>
      <trkpt lat="43.58758" lon="3.68463">
        <ele>117.3</ele>
        <time>2011-04-09T09:53:26Z</time>
      </trkpt>
      <trkpt lat="43.58753" lon="3.68469">
        <ele>117.8</ele>
        <time>2011-04-09T09:53:28Z</time>
      </trkpt>
      <trkpt lat="43.58747" lon="3.68474">
        <ele>118.8</ele>
        <time>2011-04-09T09:53:30Z</time>
      </trkpt>
      <trkpt lat="43.58741" lon="3.68476">
        <ele>119.4</ele>
        <time>2011-04-09T09:53:32Z</time>
      </trkpt>
      <trkpt lat="43.58733" lon="3.68478">
        <ele>119.9</ele>
        <time>2011-04-09T09:53:34Z</time>
      </trkpt>
      <trkpt lat="43.58729" lon="3.68477">
        <ele>120.2</ele>
        <time>2011-04-09T09:53:35Z</time>
      </trkpt>
      <trkpt lat="43.58718" lon="3.68474">
        <ele>121</ele>
        <time>2011-04-09T09:53:38Z</time>
      </trkpt>
      <trkpt lat="43.58711" lon="3.68472">
        <ele>121.4</ele>
        <time>2011-04-09T09:53:40Z</time>
      </trkpt>
      <trkpt lat="43.58704" lon="3.68469">
        <ele>121.8</ele>
        <time>2011-04-09T09:53:42Z</time>
      </trkpt>
      <trkpt lat="43.58697" lon="3.68466">
        <ele>122.1</ele>
        <time>2011-04-09T09:53:44Z</time>
      </trkpt>
      <trkpt lat="43.5869" lon="3.68464">
        <ele>122.5</ele>
        <time>2011-04-09T09:53:46Z</time>
      </trkpt>
      <trkpt lat="43.58682" lon="3.68464">
        <ele>123</ele>
        <time>2011-04-09T09:53:48Z</time>
      </trkpt>
      <trkpt lat="43.58675" lon="3.6847">
        <ele>123.4</ele>
        <time>2011-04-09T09:53:50Z</time>
      </trkpt>
      <trkpt lat="43.58673" lon="3.68481">
        <ele>123</ele>
        <time>2011-04-09T09:53:52Z</time>
      </trkpt>
      <trkpt lat="43.58679" lon="3.6849">
        <ele>123.3</ele>
        <time>2011-04-09T09:53:55Z</time>
      </trkpt>
      <trkpt lat="43.58685" lon="3.68498">
        <ele>124</ele>
        <time>2011-04-09T09:53:58Z</time>
      </trkpt>
      <trkpt lat="43.58689" lon="3.68505">
        <ele>124.7</ele>
        <time>2011-04-09T09:54:00Z</time>
      </trkpt>
      <trkpt lat="43.58693" lon="3.68513">
        <ele>125.5</ele>
        <time>2011-04-09T09:54:02Z</time>
      </trkpt>
      <trkpt lat="43.58697" lon="3.68521">
        <ele>125.9</ele>
        <time>2011-04-09T09:54:04Z</time>
      </trkpt>
      <trkpt lat="43.58701" lon="3.6853">
        <ele>126</ele>
        <time>2011-04-09T09:54:06Z</time>
      </trkpt>
      <trkpt lat="43.58704" lon="3.6854">
        <ele>126.6</ele>
        <time>2011-04-09T09:54:08Z</time>
      </trkpt>
      <trkpt lat="43.58702" lon="3.68551">
        <ele>126.8</ele>
        <time>2011-04-09T09:54:10Z</time>
      </trkpt>
      <trkpt lat="43.58699" lon="3.68561">
        <ele>126.7</ele>
        <time>2011-04-09T09:54:12Z</time>
      </trkpt>
      <trkpt lat="43.58695" lon="3.68569">
        <ele>127.4</ele>
        <time>2011-04-09T09:54:14Z</time>
      </trkpt>
      <trkpt lat="43.58691" lon="3.68577">
        <ele>128.4</ele>
        <time>2011-04-09T09:54:16Z</time>
      </trkpt>
      <trkpt lat="43.58687" lon="3.68583">
        <ele>128.3</ele>
        <time>2011-04-09T09:54:18Z</time>
      </trkpt>
      <trkpt lat="43.58681" lon="3.68589">
        <ele>128.7</ele>
        <time>2011-04-09T09:54:20Z</time>
      </trkpt>
      <trkpt lat="43.58676" lon="3.68595">
        <ele>129.1</ele>
        <time>2011-04-09T09:54:22Z</time>
      </trkpt>
      <trkpt lat="43.58671" lon="3.68601">
        <ele>130.2</ele>
        <time>2011-04-09T09:54:24Z</time>
      </trkpt>
      <trkpt lat="43.58666" lon="3.68609">
        <ele>130.6</ele>
        <time>2011-04-09T09:54:26Z</time>
      </trkpt>
      <trkpt lat="43.58664" lon="3.68614">
        <ele>130.6</ele>
        <time>2011-04-09T09:54:27Z</time>
      </trkpt>
      <trkpt lat="43.58663" lon="3.68621">
        <ele>130.7</ele>
        <time>2011-04-09T09:54:28Z</time>
      </trkpt>
      <trkpt lat="43.58662" lon="3.68627">
        <ele>130.7</ele>
        <time>2011-04-09T09:54:29Z</time>
      </trkpt>
      <trkpt lat="43.58663" lon="3.68634">
        <ele>130.3</ele>
        <time>2011-04-09T09:54:30Z</time>
      </trkpt>
      <trkpt lat="43.58666" lon="3.68645">
        <ele>129.9</ele>
        <time>2011-04-09T09:54:32Z</time>
      </trkpt>
      <trkpt lat="43.5867" lon="3.68654">
        <ele>130.3</ele>
        <time>2011-04-09T09:54:34Z</time>
      </trkpt>
      <trkpt lat="43.58674" lon="3.68662">
        <ele>130.5</ele>
        <time>2011-04-09T09:54:36Z</time>
      </trkpt>
      <trkpt lat="43.58676" lon="3.68666">
        <ele>130.6</ele>
        <time>2011-04-09T09:54:37Z</time>
      </trkpt>
      <trkpt lat="43.58679" lon="3.68685">
        <ele>132</ele>
        <time>2011-04-09T09:54:42Z</time>
      </trkpt>
      <trkpt lat="43.58678" lon="3.68697">
        <ele>133.6</ele>
        <time>2011-04-09T09:54:45Z</time>
      </trkpt>
      <trkpt lat="43.58677" lon="3.68705">
        <ele>134.5</ele>
        <time>2011-04-09T09:54:47Z</time>
      </trkpt>
      <trkpt lat="43.58676" lon="3.68716">
        <ele>135.6</ele>
        <time>2011-04-09T09:54:50Z</time>
      </trkpt>
      <trkpt lat="43.58675" lon="3.68727">
        <ele>136.7</ele>
        <time>2011-04-09T09:54:53Z</time>
      </trkpt>
      <trkpt lat="43.58673" lon="3.68739">
        <ele>137</ele>
        <time>2011-04-09T09:54:56Z</time>
      </trkpt>
      <trkpt lat="43.58671" lon="3.68748">
        <ele>138.1</ele>
        <time>2011-04-09T09:54:59Z</time>
      </trkpt>
      <trkpt lat="43.5867" lon="3.68759">
        <ele>139.2</ele>
        <time>2011-04-09T09:55:03Z</time>
      </trkpt>
      <trkpt lat="43.58669" lon="3.6877">
        <ele>139.4</ele>
        <time>2011-04-09T09:55:06Z</time>
      </trkpt>
      <trkpt lat="43.58667" lon="3.68781">
        <ele>140.1</ele>
        <time>2011-04-09T09:55:09Z</time>
      </trkpt>
      <trkpt lat="43.58663" lon="3.68792">
        <ele>140.8</ele>
        <time>2011-04-09T09:55:12Z</time>
      </trkpt>
      <trkpt lat="43.58657" lon="3.68801">
        <ele>140.9</ele>
        <time>2011-04-09T09:55:15Z</time>
      </trkpt>
      <trkpt lat="43.5865" lon="3.68806">
        <ele>141.4</ele>
        <time>2011-04-09T09:55:18Z</time>
      </trkpt>
      <trkpt lat="43.58642" lon="3.68809">
        <ele>141.9</ele>
        <time>2011-04-09T09:55:21Z</time>
      </trkpt>
      <trkpt lat="43.58634" lon="3.68813">
        <ele>142.5</ele>
        <time>2011-04-09T09:55:24Z</time>
      </trkpt>
      <trkpt lat="43.58629" lon="3.68819">
        <ele>142.8</ele>
        <time>2011-04-09T09:55:26Z</time>
      </trkpt>
      <trkpt lat="43.58625" lon="3.68829">
        <ele>142.4</ele>
        <time>2011-04-09T09:55:29Z</time>
      </trkpt>
      <trkpt lat="43.58624" lon="3.68839">
        <ele>143.3</ele>
        <time>2011-04-09T09:55:32Z</time>
      </trkpt>
      <trkpt lat="43.58623" lon="3.6885">
        <ele>144.4</ele>
        <time>2011-04-09T09:55:35Z</time>
      </trkpt>
      <trkpt lat="43.58625" lon="3.68861">
        <ele>144.7</ele>
        <time>2011-04-09T09:55:38Z</time>
      </trkpt>
      <trkpt lat="43.58626" lon="3.68864">
        <ele>144.8</ele>
        <time>2011-04-09T09:55:39Z</time>
      </trkpt>
      <trkpt lat="43.58637" lon="3.68875">
        <ele>145.9</ele>
        <time>2011-04-09T09:55:45Z</time>
      </trkpt>
      <trkpt lat="43.58645" lon="3.68877">
        <ele>147.2</ele>
        <time>2011-04-09T09:55:48Z</time>
      </trkpt>
      <trkpt lat="43.58653" lon="3.6888">
        <ele>148.6</ele>
        <time>2011-04-09T09:55:51Z</time>
      </trkpt>
      <trkpt lat="43.58659" lon="3.68885">
        <ele>148.7</ele>
        <time>2011-04-09T09:55:54Z</time>
      </trkpt>
      <trkpt lat="43.58664" lon="3.68894">
        <ele>148.8</ele>
        <time>2011-04-09T09:55:57Z</time>
      </trkpt>
      <trkpt lat="43.58666" lon="3.68905">
        <ele>149.1</ele>
        <time>2011-04-09T09:56:00Z</time>
      </trkpt>
      <trkpt lat="43.58667" lon="3.68917">
        <ele>149</ele>
        <time>2011-04-09T09:56:03Z</time>
      </trkpt>
      <trkpt lat="43.58665" lon="3.68929">
        <ele>149.2</ele>
        <time>2011-04-09T09:56:06Z</time>
      </trkpt>
      <trkpt lat="43.58662" lon="3.6894">
        <ele>149.5</ele>
        <time>2011-04-09T09:56:09Z</time>
      </trkpt>
      <trkpt lat="43.58658" lon="3.68951">
        <ele>149.9</ele>
        <time>2011-04-09T09:56:12Z</time>
      </trkpt>
      <trkpt lat="43.58654" lon="3.68958">
        <ele>150.2</ele>
        <time>2011-04-09T09:56:14Z</time>
      </trkpt>
      <trkpt lat="43.5865" lon="3.68965">
        <ele>150.8</ele>
        <time>2011-04-09T09:56:16Z</time>
      </trkpt>
      <trkpt lat="43.58645" lon="3.68972">
        <ele>151.3</ele>
        <time>2011-04-09T09:56:18Z</time>
      </trkpt>
      <trkpt lat="43.5864" lon="3.68979">
        <ele>151.7</ele>
        <time>2011-04-09T09:56:20Z</time>
      </trkpt>
      <trkpt lat="43.58634" lon="3.68983">
        <ele>151.9</ele>
        <time>2011-04-09T09:56:22Z</time>
      </trkpt>
      <trkpt lat="43.58627" lon="3.68988">
        <ele>152</ele>
        <time>2011-04-09T09:56:24Z</time>
      </trkpt>
      <trkpt lat="43.58621" lon="3.68993">
        <ele>152.1</ele>
        <time>2011-04-09T09:56:26Z</time>
      </trkpt>
      <trkpt lat="43.58613" lon="3.68997">
        <ele>152.6</ele>
        <time>2011-04-09T09:56:28Z</time>
      </trkpt>
      <trkpt lat="43.58607" lon="3.69001">
        <ele>153.2</ele>
        <time>2011-04-09T09:56:30Z</time>
      </trkpt>
      <trkpt lat="43.586" lon="3.69005">
        <ele>153.1</ele>
        <time>2011-04-09T09:56:32Z</time>
      </trkpt>
      <trkpt lat="43.58593" lon="3.69011">
        <ele>153.1</ele>
        <time>2011-04-09T09:56:34Z</time>
      </trkpt>
      <trkpt lat="43.58587" lon="3.69016">
        <ele>153.2</ele>
        <time>2011-04-09T09:56:36Z</time>
      </trkpt>
      <trkpt lat="43.5858" lon="3.6902">
        <ele>153.6</ele>
        <time>2011-04-09T09:56:38Z</time>
      </trkpt>
      <trkpt lat="43.58573" lon="3.69025">
        <ele>154.2</ele>
        <time>2011-04-09T09:56:40Z</time>
      </trkpt>
      <trkpt lat="43.58569" lon="3.69028">
        <ele>154.5</ele>
        <time>2011-04-09T09:56:41Z</time>
      </trkpt>
      <trkpt lat="43.58558" lon="3.69036">
        <ele>154.8</ele>
        <time>2011-04-09T09:56:44Z</time>
      </trkpt>
      <trkpt lat="43.58554" lon="3.69039">
        <ele>154.6</ele>
        <time>2011-04-09T09:56:45Z</time>
      </trkpt>
      <trkpt lat="43.58547" lon="3.69046">
        <ele>154.4</ele>
        <time>2011-04-09T09:56:47Z</time>
      </trkpt>
      <trkpt lat="43.5854" lon="3.69054">
        <ele>154.3</ele>
        <time>2011-04-09T09:56:49Z</time>
      </trkpt>
      <trkpt lat="43.58533" lon="3.69061">
        <ele>154.5</ele>
        <time>2011-04-09T09:56:51Z</time>
      </trkpt>
      <trkpt lat="43.58526" lon="3.69068">
        <ele>154</ele>
        <time>2011-04-09T09:56:53Z</time>
      </trkpt>
      <trkpt lat="43.58522" lon="3.69072">
        <ele>153.7</ele>
        <time>2011-04-09T09:56:54Z</time>
      </trkpt>
      <trkpt lat="43.58518" lon="3.69076">
        <ele>153.4</ele>
        <time>2011-04-09T09:56:55Z</time>
      </trkpt>
      <trkpt lat="43.58515" lon="3.6908">
        <ele>153</ele>
        <time>2011-04-09T09:56:56Z</time>
      </trkpt>
      <trkpt lat="43.58511" lon="3.69085">
        <ele>152.8</ele>
        <time>2011-04-09T09:56:57Z</time>
      </trkpt>
      <trkpt lat="43.58507" lon="3.6909">
        <ele>152.6</ele>
        <time>2011-04-09T09:56:58Z</time>
      </trkpt>
      <trkpt lat="43.58503" lon="3.69094">
        <ele>152.3</ele>
        <time>2011-04-09T09:56:59Z</time>
      </trkpt>
      <trkpt lat="43.58499" lon="3.69099">
        <ele>152</ele>
        <time>2011-04-09T09:57:00Z</time>
      </trkpt>
      <trkpt lat="43.58496" lon="3.69105">
        <ele>151.8</ele>
        <time>2011-04-09T09:57:01Z</time>
      </trkpt>
      <trkpt lat="43.58493" lon="3.69112">
        <ele>151.7</ele>
        <time>2011-04-09T09:57:02Z</time>
      </trkpt>
      <trkpt lat="43.58489" lon="3.69119">
        <ele>151.2</ele>
        <time>2011-04-09T09:57:03Z</time>
      </trkpt>
      <trkpt lat="43.58486" lon="3.69126">
        <ele>150.9</ele>
        <time>2011-04-09T09:57:04Z</time>
      </trkpt>
      <trkpt lat="43.58484" lon="3.69135">
        <ele>150.6</ele>
        <time>2011-04-09T09:57:05Z</time>
      </trkpt>
      <trkpt lat="43.58481" lon="3.69144">
        <ele>150.1</ele>
        <time>2011-04-09T09:57:06Z</time>
      </trkpt>
      <trkpt lat="43.58478" lon="3.69153">
        <ele>149.7</ele>
        <time>2011-04-09T09:57:07Z</time>
      </trkpt>
      <trkpt lat="43.58475" lon="3.69162">
        <ele>149.4</ele>
        <time>2011-04-09T09:57:08Z</time>
      </trkpt>
      <trkpt lat="43.58473" lon="3.69171">
        <ele>148.6</ele>
        <time>2011-04-09T09:57:09Z</time>
      </trkpt>
      <trkpt lat="43.5847" lon="3.69181">
        <ele>148</ele>
        <time>2011-04-09T09:57:10Z</time>
      </trkpt>
      <trkpt lat="43.58468" lon="3.69191">
        <ele>147.6</ele>
        <time>2011-04-09T09:57:11Z</time>
      </trkpt>
      <trkpt lat="43.58465" lon="3.69201">
        <ele>146.3</ele>
        <time>2011-04-09T09:57:12Z</time>
      </trkpt>
      <trkpt lat="43.58462" lon="3.69212">
        <ele>145.4</ele>
        <time>2011-04-09T09:57:13Z</time>
      </trkpt>
      <trkpt lat="43.5846" lon="3.69223">
        <ele>144.7</ele>
        <time>2011-04-09T09:57:14Z</time>
      </trkpt>
      <trkpt lat="43.58457" lon="3.69234">
        <ele>144.1</ele>
        <time>2011-04-09T09:57:15Z</time>
      </trkpt>
      <trkpt lat="43.58454" lon="3.69244">
        <ele>143.6</ele>
        <time>2011-04-09T09:57:16Z</time>
      </trkpt>
      <trkpt lat="43.58451" lon="3.69254">
        <ele>143.2</ele>
        <time>2011-04-09T09:57:17Z</time>
      </trkpt>
      <trkpt lat="43.58446" lon="3.69262">
        <ele>142.9</ele>
        <time>2011-04-09T09:57:18Z</time>
      </trkpt>
      <trkpt lat="43.58441" lon="3.6927">
        <ele>142.5</ele>
        <time>2011-04-09T09:57:19Z</time>
      </trkpt>
      <trkpt lat="43.58435" lon="3.69277">
        <ele>142.2</ele>
        <time>2011-04-09T09:57:20Z</time>
      </trkpt>
      <trkpt lat="43.58429" lon="3.69284">
        <ele>141.9</ele>
        <time>2011-04-09T09:57:21Z</time>
      </trkpt>
      <trkpt lat="43.58424" lon="3.69292">
        <ele>141.4</ele>
        <time>2011-04-09T09:57:22Z</time>
      </trkpt>
      <trkpt lat="43.58419" lon="3.693">
        <ele>141</ele>
        <time>2011-04-09T09:57:23Z</time>
      </trkpt>
      <trkpt lat="43.58414" lon="3.69307">
        <ele>140.7</ele>
        <time>2011-04-09T09:57:24Z</time>
      </trkpt>
      <trkpt lat="43.58409" lon="3.69314">
        <ele>140.6</ele>
        <time>2011-04-09T09:57:25Z</time>
      </trkpt>
      <trkpt lat="43.58403" lon="3.6932">
        <ele>140.5</ele>
        <time>2011-04-09T09:57:26Z</time>
      </trkpt>
      <trkpt lat="43.58397" lon="3.69325">
        <ele>140.4</ele>
        <time>2011-04-09T09:57:27Z</time>
      </trkpt>
      <trkpt lat="43.58391" lon="3.69328">
        <ele>140.5</ele>
        <time>2011-04-09T09:57:28Z</time>
      </trkpt>
      <trkpt lat="43.58385" lon="3.69332">
        <ele>140.5</ele>
        <time>2011-04-09T09:57:29Z</time>
      </trkpt>
      <trkpt lat="43.5838" lon="3.69337">
        <ele>140.6</ele>
        <time>2011-04-09T09:57:30Z</time>
      </trkpt>
      <trkpt lat="43.58376" lon="3.69343">
        <ele>140.4</ele>
        <time>2011-04-09T09:57:31Z</time>
      </trkpt>
      <trkpt lat="43.58371" lon="3.69349">
        <ele>140.3</ele>
        <time>2011-04-09T09:57:32Z</time>
      </trkpt>
      <trkpt lat="43.58366" lon="3.69354">
        <ele>140.2</ele>
        <time>2011-04-09T09:57:33Z</time>
      </trkpt>
      <trkpt lat="43.5836" lon="3.69359">
        <ele>140.1</ele>
        <time>2011-04-09T09:57:34Z</time>
      </trkpt>
      <trkpt lat="43.58354" lon="3.69363">
        <ele>139.4</ele>
        <time>2011-04-09T09:57:35Z</time>
      </trkpt>
      <trkpt lat="43.58347" lon="3.69368">
        <ele>138.9</ele>
        <time>2011-04-09T09:57:36Z</time>
      </trkpt>
      <trkpt lat="43.58341" lon="3.69373">
        <ele>138.5</ele>
        <time>2011-04-09T09:57:37Z</time>
      </trkpt>
      <trkpt lat="43.58335" lon="3.69378">
        <ele>138.1</ele>
        <time>2011-04-09T09:57:38Z</time>
      </trkpt>
      <trkpt lat="43.58328" lon="3.69384">
        <ele>137.8</ele>
        <time>2011-04-09T09:57:39Z</time>
      </trkpt>
      <trkpt lat="43.58321" lon="3.69392">
        <ele>137.6</ele>
        <time>2011-04-09T09:57:40Z</time>
      </trkpt>
      <trkpt lat="43.58316" lon="3.69401">
        <ele>136.4</ele>
        <time>2011-04-09T09:57:41Z</time>
      </trkpt>
      <trkpt lat="43.58311" lon="3.69411">
        <ele>135.6</ele>
        <time>2011-04-09T09:57:42Z</time>
      </trkpt>
      <trkpt lat="43.58307" lon="3.69423">
        <ele>134.9</ele>
        <time>2011-04-09T09:57:43Z</time>
      </trkpt>
      <trkpt lat="43.58303" lon="3.69435">
        <ele>134</ele>
        <time>2011-04-09T09:57:44Z</time>
      </trkpt>
      <trkpt lat="43.583" lon="3.69447">
        <ele>133.3</ele>
        <time>2011-04-09T09:57:45Z</time>
      </trkpt>
      <trkpt lat="43.58297" lon="3.6946">
        <ele>132.7</ele>
        <time>2011-04-09T09:57:46Z</time>
      </trkpt>
      <trkpt lat="43.58295" lon="3.69474">
        <ele>131.5</ele>
        <time>2011-04-09T09:57:47Z</time>
      </trkpt>
      <trkpt lat="43.58291" lon="3.69486">
        <ele>130.6</ele>
        <time>2011-04-09T09:57:48Z</time>
      </trkpt>
      <trkpt lat="43.58285" lon="3.69498">
        <ele>129.9</ele>
        <time>2011-04-09T09:57:49Z</time>
      </trkpt>
      <trkpt lat="43.58278" lon="3.69508">
        <ele>129.4</ele>
        <time>2011-04-09T09:57:50Z</time>
      </trkpt>
      <trkpt lat="43.58272" lon="3.69518">
        <ele>128.1</ele>
        <time>2011-04-09T09:57:51Z</time>
      </trkpt>
      <trkpt lat="43.58266" lon="3.69529">
        <ele>127.2</ele>
        <time>2011-04-09T09:57:52Z</time>
      </trkpt>
      <trkpt lat="43.5826" lon="3.6954">
        <ele>126.5</ele>
        <time>2011-04-09T09:57:53Z</time>
      </trkpt>
      <trkpt lat="43.58255" lon="3.69551">
        <ele>125.6</ele>
        <time>2011-04-09T09:57:54Z</time>
      </trkpt>
      <trkpt lat="43.58249" lon="3.6956">
        <ele>124.8</ele>
        <time>2011-04-09T09:57:55Z</time>
      </trkpt>
      <trkpt lat="43.58243" lon="3.6957">
        <ele>124.3</ele>
        <time>2011-04-09T09:57:56Z</time>
      </trkpt>
      <trkpt lat="43.58238" lon="3.6958">
        <ele>123.8</ele>
        <time>2011-04-09T09:57:57Z</time>
      </trkpt>
      <trkpt lat="43.58232" lon="3.69589">
        <ele>123.4</ele>
        <time>2011-04-09T09:57:58Z</time>
      </trkpt>
      <trkpt lat="43.58227" lon="3.69598">
        <ele>123.2</ele>
        <time>2011-04-09T09:57:59Z</time>
      </trkpt>
      <trkpt lat="43.58221" lon="3.69607">
        <ele>123</ele>
        <time>2011-04-09T09:58:00Z</time>
      </trkpt>
      <trkpt lat="43.58216" lon="3.69615">
        <ele>122.9</ele>
        <time>2011-04-09T09:58:01Z</time>
      </trkpt>
      <trkpt lat="43.5821" lon="3.69624">
        <ele>122.8</ele>
        <time>2011-04-09T09:58:02Z</time>
      </trkpt>
      <trkpt lat="43.58206" lon="3.69632">
        <ele>122.9</ele>
        <time>2011-04-09T09:58:03Z</time>
      </trkpt>
      <trkpt lat="43.58201" lon="3.6964">
        <ele>123</ele>
        <time>2011-04-09T09:58:04Z</time>
      </trkpt>
      <trkpt lat="43.58197" lon="3.69647">
        <ele>123</ele>
        <time>2011-04-09T09:58:05Z</time>
      </trkpt>
      <trkpt lat="43.58192" lon="3.69654">
        <ele>123.1</ele>
        <time>2011-04-09T09:58:06Z</time>
      </trkpt>
      <trkpt lat="43.58187" lon="3.69659">
        <ele>122.7</ele>
        <time>2011-04-09T09:58:07Z</time>
      </trkpt>
      <trkpt lat="43.58182" lon="3.69663">
        <ele>122.5</ele>
        <time>2011-04-09T09:58:08Z</time>
      </trkpt>
      <trkpt lat="43.58177" lon="3.69667">
        <ele>122.3</ele>
        <time>2011-04-09T09:58:09Z</time>
      </trkpt>
      <trkpt lat="43.58172" lon="3.69669">
        <ele>123.1</ele>
        <time>2011-04-09T09:58:10Z</time>
      </trkpt>
      <trkpt lat="43.58166" lon="3.69671">
        <ele>123.7</ele>
        <time>2011-04-09T09:58:11Z</time>
      </trkpt>
      <trkpt lat="43.5816" lon="3.69673">
        <ele>124.2</ele>
        <time>2011-04-09T09:58:12Z</time>
      </trkpt>
      <trkpt lat="43.58154" lon="3.69674">
        <ele>124.6</ele>
        <time>2011-04-09T09:58:13Z</time>
      </trkpt>
      <trkpt lat="43.58148" lon="3.69676">
        <ele>124.9</ele>
        <time>2011-04-09T09:58:14Z</time>
      </trkpt>
      <trkpt lat="43.58142" lon="3.69678">
        <ele>125.1</ele>
        <time>2011-04-09T09:58:15Z</time>
      </trkpt>
      <trkpt lat="43.58137" lon="3.69682">
        <ele>124.9</ele>
        <time>2011-04-09T09:58:16Z</time>
      </trkpt>
      <trkpt lat="43.58132" lon="3.69687">
        <ele>124.8</ele>
        <time>2011-04-09T09:58:17Z</time>
      </trkpt>
      <trkpt lat="43.58127" lon="3.69692">
        <ele>124.8</ele>
        <time>2011-04-09T09:58:18Z</time>
      </trkpt>
      <trkpt lat="43.58123" lon="3.69696">
        <ele>124.8</ele>
        <time>2011-04-09T09:58:19Z</time>
      </trkpt>
      <trkpt lat="43.58118" lon="3.697">
        <ele>124.8</ele>
        <time>2011-04-09T09:58:20Z</time>
      </trkpt>
      <trkpt lat="43.58113" lon="3.69703">
        <ele>124.9</ele>
        <time>2011-04-09T09:58:21Z</time>
      </trkpt>
      <trkpt lat="43.58109" lon="3.69707">
        <ele>124.9</ele>
        <time>2011-04-09T09:58:22Z</time>
      </trkpt>
      <trkpt lat="43.58104" lon="3.69709">
        <ele>125.2</ele>
        <time>2011-04-09T09:58:23Z</time>
      </trkpt>
      <trkpt lat="43.581" lon="3.69712">
        <ele>125.4</ele>
        <time>2011-04-09T09:58:24Z</time>
      </trkpt>
      <trkpt lat="43.58095" lon="3.69714">
        <ele>125.6</ele>
        <time>2011-04-09T09:58:25Z</time>
      </trkpt>
      <trkpt lat="43.58091" lon="3.69717">
        <ele>126</ele>
        <time>2011-04-09T09:58:26Z</time>
      </trkpt>
      <trkpt lat="43.58087" lon="3.69719">
        <ele>126.3</ele>
        <time>2011-04-09T09:58:27Z</time>
      </trkpt>
      <trkpt lat="43.58082" lon="3.69721">
        <ele>126.5</ele>
        <time>2011-04-09T09:58:28Z</time>
      </trkpt>
      <trkpt lat="43.58077" lon="3.69724">
        <ele>126.9</ele>
        <time>2011-04-09T09:58:29Z</time>
      </trkpt>
      <trkpt lat="43.58072" lon="3.69726">
        <ele>127.2</ele>
        <time>2011-04-09T09:58:30Z</time>
      </trkpt>
      <trkpt lat="43.58067" lon="3.69729">
        <ele>127.4</ele>
        <time>2011-04-09T09:58:31Z</time>
      </trkpt>
      <trkpt lat="43.58062" lon="3.69732">
        <ele>127.3</ele>
        <time>2011-04-09T09:58:32Z</time>
      </trkpt>
      <trkpt lat="43.58057" lon="3.69735">
        <ele>127.2</ele>
        <time>2011-04-09T09:58:33Z</time>
      </trkpt>
      <trkpt lat="43.58051" lon="3.69739">
        <ele>127.1</ele>
        <time>2011-04-09T09:58:34Z</time>
      </trkpt>
      <trkpt lat="43.58046" lon="3.69743">
        <ele>126.8</ele>
        <time>2011-04-09T09:58:35Z</time>
      </trkpt>
      <trkpt lat="43.58041" lon="3.69748">
        <ele>126.6</ele>
        <time>2011-04-09T09:58:36Z</time>
      </trkpt>
      <trkpt lat="43.58036" lon="3.69753">
        <ele>126.4</ele>
        <time>2011-04-09T09:58:37Z</time>
      </trkpt>
      <trkpt lat="43.58032" lon="3.69759">
        <ele>126.3</ele>
        <time>2011-04-09T09:58:38Z</time>
      </trkpt>
      <trkpt lat="43.58028" lon="3.69764">
        <ele>126.4</ele>
        <time>2011-04-09T09:58:39Z</time>
      </trkpt>
      <trkpt lat="43.58024" lon="3.6977">
        <ele>126.5</ele>
        <time>2011-04-09T09:58:40Z</time>
      </trkpt>
      <trkpt lat="43.5802" lon="3.69775">
        <ele>126.5</ele>
        <time>2011-04-09T09:58:41Z</time>
      </trkpt>
      <trkpt lat="43.58016" lon="3.6978">
        <ele>126.5</ele>
        <time>2011-04-09T09:58:42Z</time>
      </trkpt>
      <trkpt lat="43.58013" lon="3.69784">
        <ele>126.6</ele>
        <time>2011-04-09T09:58:43Z</time>
      </trkpt>
      <trkpt lat="43.58009" lon="3.69788">
        <ele>126.6</ele>
        <time>2011-04-09T09:58:44Z</time>
      </trkpt>
      <trkpt lat="43.58001" lon="3.69795">
        <ele>127.5</ele>
        <time>2011-04-09T09:58:46Z</time>
      </trkpt>
      <trkpt lat="43.57996" lon="3.69804">
        <ele>127.9</ele>
        <time>2011-04-09T09:58:48Z</time>
      </trkpt>
      <trkpt lat="43.57991" lon="3.69813">
        <ele>128.2</ele>
        <time>2011-04-09T09:58:50Z</time>
      </trkpt>
      <trkpt lat="43.57986" lon="3.69822">
        <ele>128.7</ele>
        <time>2011-04-09T09:58:52Z</time>
      </trkpt>
      <trkpt lat="43.57981" lon="3.69832">
        <ele>129.4</ele>
        <time>2011-04-09T09:58:54Z</time>
      </trkpt>
      <trkpt lat="43.57976" lon="3.69842">
        <ele>130</ele>
        <time>2011-04-09T09:58:56Z</time>
      </trkpt>
      <trkpt lat="43.57971" lon="3.69851">
        <ele>130.2</ele>
        <time>2011-04-09T09:58:58Z</time>
      </trkpt>
      <trkpt lat="43.57966" lon="3.69861">
        <ele>130.2</ele>
        <time>2011-04-09T09:59:00Z</time>
      </trkpt>
      <trkpt lat="43.57961" lon="3.69871">
        <ele>130.1</ele>
        <time>2011-04-09T09:59:02Z</time>
      </trkpt>
      <trkpt lat="43.57956" lon="3.6988">
        <ele>130.3</ele>
        <time>2011-04-09T09:59:04Z</time>
      </trkpt>
      <trkpt lat="43.57952" lon="3.69888">
        <ele>130.7</ele>
        <time>2011-04-09T09:59:06Z</time>
      </trkpt>
      <trkpt lat="43.57948" lon="3.69897">
        <ele>130.9</ele>
        <time>2011-04-09T09:59:09Z</time>
      </trkpt>
      <trkpt lat="43.5794" lon="3.69896">
        <ele>131.4</ele>
        <time>2011-04-09T10:01:21Z</time>
      </trkpt>
      <trkpt lat="43.57938" lon="3.69896">
        <ele>131.2</ele>
        <time>2011-04-09T10:01:22Z</time>
      </trkpt>
      <trkpt lat="43.57925" lon="3.69904">
        <ele>131.1</ele>
        <time>2011-04-09T10:01:28Z</time>
      </trkpt>
      <trkpt lat="43.57918" lon="3.69909">
        <ele>131.1</ele>
        <time>2011-04-09T10:01:31Z</time>
      </trkpt>
      <trkpt lat="43.57912" lon="3.69913">
        <ele>130.8</ele>
        <time>2011-04-09T10:01:33Z</time>
      </trkpt>
      <trkpt lat="43.57906" lon="3.69916">
        <ele>131.3</ele>
        <time>2011-04-09T10:01:35Z</time>
      </trkpt>
      <trkpt lat="43.57898" lon="3.69919">
        <ele>131.1</ele>
        <time>2011-04-09T10:01:37Z</time>
      </trkpt>
      <trkpt lat="43.57889" lon="3.69921">
        <ele>130.7</ele>
        <time>2011-04-09T10:01:39Z</time>
      </trkpt>
      <trkpt lat="43.57885" lon="3.69923">
        <ele>130.3</ele>
        <time>2011-04-09T10:01:40Z</time>
      </trkpt>
      <trkpt lat="43.5788" lon="3.69925">
        <ele>130.1</ele>
        <time>2011-04-09T10:01:41Z</time>
      </trkpt>
      <trkpt lat="43.57876" lon="3.69928">
        <ele>129.8</ele>
        <time>2011-04-09T10:01:42Z</time>
      </trkpt>
      <trkpt lat="43.57871" lon="3.69931">
        <ele>129.7</ele>
        <time>2011-04-09T10:01:43Z</time>
      </trkpt>
      <trkpt lat="43.57866" lon="3.69935">
        <ele>129.1</ele>
        <time>2011-04-09T10:01:44Z</time>
      </trkpt>
      <trkpt lat="43.57861" lon="3.69937">
        <ele>128.7</ele>
        <time>2011-04-09T10:01:45Z</time>
      </trkpt>
      <trkpt lat="43.57855" lon="3.6994">
        <ele>128.4</ele>
        <time>2011-04-09T10:01:46Z</time>
      </trkpt>
      <trkpt lat="43.57849" lon="3.69943">
        <ele>128.1</ele>
        <time>2011-04-09T10:01:47Z</time>
      </trkpt>
      <trkpt lat="43.57842" lon="3.69945">
        <ele>127.9</ele>
        <time>2011-04-09T10:01:48Z</time>
      </trkpt>
      <trkpt lat="43.57835" lon="3.69946">
        <ele>127.7</ele>
        <time>2011-04-09T10:01:49Z</time>
      </trkpt>
      <trkpt lat="43.57827" lon="3.69947">
        <ele>126.9</ele>
        <time>2011-04-09T10:01:50Z</time>
      </trkpt>
      <trkpt lat="43.57819" lon="3.69947">
        <ele>126.3</ele>
        <time>2011-04-09T10:01:51Z</time>
      </trkpt>
      <trkpt lat="43.5781" lon="3.69948">
        <ele>125.8</ele>
        <time>2011-04-09T10:01:52Z</time>
      </trkpt>
      <trkpt lat="43.57801" lon="3.6995">
        <ele>124.9</ele>
        <time>2011-04-09T10:01:53Z</time>
      </trkpt>
      <trkpt lat="43.57792" lon="3.69953">
        <ele>124.3</ele>
        <time>2011-04-09T10:01:54Z</time>
      </trkpt>
      <trkpt lat="43.57782" lon="3.69957">
        <ele>123.8</ele>
        <time>2011-04-09T10:01:55Z</time>
      </trkpt>
      <trkpt lat="43.57772" lon="3.6996">
        <ele>122.7</ele>
        <time>2011-04-09T10:01:56Z</time>
      </trkpt>
      <trkpt lat="43.57762" lon="3.69961">
        <ele>121.8</ele>
        <time>2011-04-09T10:01:57Z</time>
      </trkpt>
      <trkpt lat="43.57752" lon="3.69963">
        <ele>121.1</ele>
        <time>2011-04-09T10:01:58Z</time>
      </trkpt>
      <trkpt lat="43.57741" lon="3.69963">
        <ele>120</ele>
        <time>2011-04-09T10:01:59Z</time>
      </trkpt>
      <trkpt lat="43.57731" lon="3.69964">
        <ele>119.2</ele>
        <time>2011-04-09T10:02:00Z</time>
      </trkpt>
      <trkpt lat="43.5772" lon="3.69964">
        <ele>118.6</ele>
        <time>2011-04-09T10:02:01Z</time>
      </trkpt>
      <trkpt lat="43.57709" lon="3.69964">
        <ele>118.1</ele>
        <time>2011-04-09T10:02:02Z</time>
      </trkpt>
      <trkpt lat="43.57698" lon="3.69964">
        <ele>117.3</ele>
        <time>2011-04-09T10:02:03Z</time>
      </trkpt>
      <trkpt lat="43.57687" lon="3.69965">
        <ele>116.7</ele>
        <time>2011-04-09T10:02:04Z</time>
      </trkpt>
      <trkpt lat="43.57676" lon="3.69967">
        <ele>116.3</ele>
        <time>2011-04-09T10:02:05Z</time>
      </trkpt>
      <trkpt lat="43.57665" lon="3.69968">
        <ele>115.5</ele>
        <time>2011-04-09T10:02:06Z</time>
      </trkpt>
      <trkpt lat="43.57654" lon="3.6997">
        <ele>114.8</ele>
        <time>2011-04-09T10:02:07Z</time>
      </trkpt>
      <trkpt lat="43.57644" lon="3.69972">
        <ele>114.4</ele>
        <time>2011-04-09T10:02:08Z</time>
      </trkpt>
      <trkpt lat="43.57634" lon="3.69974">
        <ele>113.7</ele>
        <time>2011-04-09T10:02:09Z</time>
      </trkpt>
      <trkpt lat="43.57623" lon="3.69976">
        <ele>113.2</ele>
        <time>2011-04-09T10:02:10Z</time>
      </trkpt>
      <trkpt lat="43.57613" lon="3.69979">
        <ele>112.8</ele>
        <time>2011-04-09T10:02:11Z</time>
      </trkpt>
      <trkpt lat="43.57602" lon="3.69982">
        <ele>112.2</ele>
        <time>2011-04-09T10:02:12Z</time>
      </trkpt>
      <trkpt lat="43.57592" lon="3.69987">
        <ele>111.8</ele>
        <time>2011-04-09T10:02:13Z</time>
      </trkpt>
      <trkpt lat="43.57583" lon="3.69993">
        <ele>111.5</ele>
        <time>2011-04-09T10:02:14Z</time>
      </trkpt>
      <trkpt lat="43.57574" lon="3.70001">
        <ele>111.1</ele>
        <time>2011-04-09T10:02:15Z</time>
      </trkpt>
      <trkpt lat="43.57565" lon="3.70008">
        <ele>110.8</ele>
        <time>2011-04-09T10:02:16Z</time>
      </trkpt>
      <trkpt lat="43.57556" lon="3.70014">
        <ele>110.6</ele>
        <time>2011-04-09T10:02:17Z</time>
      </trkpt>
      <trkpt lat="43.57547" lon="3.70019">
        <ele>110.5</ele>
        <time>2011-04-09T10:02:18Z</time>
      </trkpt>
      <trkpt lat="43.57539" lon="3.70025">
        <ele>110.7</ele>
        <time>2011-04-09T10:02:19Z</time>
      </trkpt>
      <trkpt lat="43.5753" lon="3.70029">
        <ele>110.8</ele>
        <time>2011-04-09T10:02:20Z</time>
      </trkpt>
      <trkpt lat="43.57522" lon="3.70033">
        <ele>110.9</ele>
        <time>2011-04-09T10:02:21Z</time>
      </trkpt>
      <trkpt lat="43.57513" lon="3.70036">
        <ele>111.3</ele>
        <time>2011-04-09T10:02:22Z</time>
      </trkpt>
      <trkpt lat="43.57504" lon="3.70038">
        <ele>111.5</ele>
        <time>2011-04-09T10:02:23Z</time>
      </trkpt>
      <trkpt lat="43.57496" lon="3.70039">
        <ele>111.7</ele>
        <time>2011-04-09T10:02:24Z</time>
      </trkpt>
      <trkpt lat="43.57488" lon="3.70038">
        <ele>111.9</ele>
        <time>2011-04-09T10:02:25Z</time>
      </trkpt>
      <trkpt lat="43.5748" lon="3.70037">
        <ele>112</ele>
        <time>2011-04-09T10:02:26Z</time>
      </trkpt>
      <trkpt lat="43.57473" lon="3.70036">
        <ele>112.2</ele>
        <time>2011-04-09T10:02:27Z</time>
      </trkpt>
      <trkpt lat="43.57466" lon="3.70034">
        <ele>112.7</ele>
        <time>2011-04-09T10:02:28Z</time>
      </trkpt>
      <trkpt lat="43.57459" lon="3.70034">
        <ele>113</ele>
        <time>2011-04-09T10:02:29Z</time>
      </trkpt>
      <trkpt lat="43.57453" lon="3.70035">
        <ele>113.3</ele>
        <time>2011-04-09T10:02:30Z</time>
      </trkpt>
      <trkpt lat="43.57447" lon="3.70037">
        <ele>114.1</ele>
        <time>2011-04-09T10:02:31Z</time>
      </trkpt>
      <trkpt lat="43.57442" lon="3.70039">
        <ele>114.6</ele>
        <time>2011-04-09T10:02:32Z</time>
      </trkpt>
      <trkpt lat="43.57436" lon="3.70041">
        <ele>115</ele>
        <time>2011-04-09T10:02:33Z</time>
      </trkpt>
      <trkpt lat="43.57431" lon="3.70044">
        <ele>115.3</ele>
        <time>2011-04-09T10:02:34Z</time>
      </trkpt>
      <trkpt lat="43.57425" lon="3.70046">
        <ele>115.6</ele>
        <time>2011-04-09T10:02:35Z</time>
      </trkpt>
      <trkpt lat="43.5742" lon="3.70048">
        <ele>115.8</ele>
        <time>2011-04-09T10:02:36Z</time>
      </trkpt>
      <trkpt lat="43.57415" lon="3.70051">
        <ele>115.9</ele>
        <time>2011-04-09T10:02:37Z</time>
      </trkpt>
      <trkpt lat="43.5741" lon="3.70053">
        <ele>115.9</ele>
        <time>2011-04-09T10:02:38Z</time>
      </trkpt>
      <trkpt lat="43.57406" lon="3.70055">
        <ele>115.9</ele>
        <time>2011-04-09T10:02:39Z</time>
      </trkpt>
      <trkpt lat="43.57401" lon="3.70057">
        <ele>115.9</ele>
        <time>2011-04-09T10:02:40Z</time>
      </trkpt>
      <trkpt lat="43.57396" lon="3.70059">
        <ele>116.2</ele>
        <time>2011-04-09T10:02:41Z</time>
      </trkpt>
      <trkpt lat="43.57392" lon="3.70062">
        <ele>116.4</ele>
        <time>2011-04-09T10:02:42Z</time>
      </trkpt>
      <trkpt lat="43.57384" lon="3.70066">
        <ele>116.7</ele>
        <time>2011-04-09T10:02:44Z</time>
      </trkpt>
      <trkpt lat="43.57376" lon="3.70071">
        <ele>117</ele>
        <time>2011-04-09T10:02:46Z</time>
      </trkpt>
      <trkpt lat="43.57368" lon="3.70077">
        <ele>117</ele>
        <time>2011-04-09T10:02:48Z</time>
      </trkpt>
      <trkpt lat="43.57361" lon="3.70081">
        <ele>117.1</ele>
        <time>2011-04-09T10:02:50Z</time>
      </trkpt>
      <trkpt lat="43.57354" lon="3.70086">
        <ele>118</ele>
        <time>2011-04-09T10:02:52Z</time>
      </trkpt>
      <trkpt lat="43.57347" lon="3.7009">
        <ele>118.5</ele>
        <time>2011-04-09T10:02:54Z</time>
      </trkpt>
      <trkpt lat="43.57339" lon="3.70093">
        <ele>118.7</ele>
        <time>2011-04-09T10:02:56Z</time>
      </trkpt>
      <trkpt lat="43.57332" lon="3.70097">
        <ele>118.7</ele>
        <time>2011-04-09T10:02:58Z</time>
      </trkpt>
      <trkpt lat="43.57323" lon="3.701">
        <ele>119.2</ele>
        <time>2011-04-09T10:03:00Z</time>
      </trkpt>
      <trkpt lat="43.57316" lon="3.70103">
        <ele>120</ele>
        <time>2011-04-09T10:03:02Z</time>
      </trkpt>
      <trkpt lat="43.57308" lon="3.70106">
        <ele>120.5</ele>
        <time>2011-04-09T10:03:04Z</time>
      </trkpt>
      <trkpt lat="43.573" lon="3.70109">
        <ele>120.9</ele>
        <time>2011-04-09T10:03:06Z</time>
      </trkpt>
      <trkpt lat="43.57293" lon="3.70113">
        <ele>120.3</ele>
        <time>2011-04-09T10:03:08Z</time>
      </trkpt>
      <trkpt lat="43.57288" lon="3.70119">
        <ele>120.2</ele>
        <time>2011-04-09T10:03:10Z</time>
      </trkpt>
      <trkpt lat="43.57282" lon="3.70126">
        <ele>120.2</ele>
        <time>2011-04-09T10:03:12Z</time>
      </trkpt>
      <trkpt lat="43.57276" lon="3.70135">
        <ele>120.3</ele>
        <time>2011-04-09T10:03:14Z</time>
      </trkpt>
      <trkpt lat="43.57271" lon="3.70144">
        <ele>120.3</ele>
        <time>2011-04-09T10:03:16Z</time>
      </trkpt>
      <trkpt lat="43.57268" lon="3.70149">
        <ele>120.3</ele>
        <time>2011-04-09T10:03:17Z</time>
      </trkpt>
      <trkpt lat="43.57265" lon="3.70155">
        <ele>120.2</ele>
        <time>2011-04-09T10:03:18Z</time>
      </trkpt>
      <trkpt lat="43.57263" lon="3.70161">
        <ele>120.6</ele>
        <time>2011-04-09T10:03:19Z</time>
      </trkpt>
      <trkpt lat="43.57259" lon="3.70166">
        <ele>120.8</ele>
        <time>2011-04-09T10:03:20Z</time>
      </trkpt>
      <trkpt lat="43.57256" lon="3.70171">
        <ele>121</ele>
        <time>2011-04-09T10:03:21Z</time>
      </trkpt>
      <trkpt lat="43.57251" lon="3.70175">
        <ele>120.9</ele>
        <time>2011-04-09T10:03:22Z</time>
      </trkpt>
      <trkpt lat="43.57246" lon="3.7018">
        <ele>120.8</ele>
        <time>2011-04-09T10:03:23Z</time>
      </trkpt>
      <trkpt lat="43.57241" lon="3.70183">
        <ele>120.8</ele>
        <time>2011-04-09T10:03:24Z</time>
      </trkpt>
      <trkpt lat="43.57236" lon="3.70187">
        <ele>120.7</ele>
        <time>2011-04-09T10:03:25Z</time>
      </trkpt>
      <trkpt lat="43.5723" lon="3.70191">
        <ele>120.5</ele>
        <time>2011-04-09T10:03:26Z</time>
      </trkpt>
      <trkpt lat="43.57224" lon="3.70195">
        <ele>120.3</ele>
        <time>2011-04-09T10:03:27Z</time>
      </trkpt>
      <trkpt lat="43.57219" lon="3.70201">
        <ele>120.1</ele>
        <time>2011-04-09T10:03:28Z</time>
      </trkpt>
      <trkpt lat="43.57214" lon="3.70208">
        <ele>119.3</ele>
        <time>2011-04-09T10:03:29Z</time>
      </trkpt>
      <trkpt lat="43.57209" lon="3.70214">
        <ele>118.7</ele>
        <time>2011-04-09T10:03:30Z</time>
      </trkpt>
      <trkpt lat="43.57204" lon="3.70222">
        <ele>118.2</ele>
        <time>2011-04-09T10:03:31Z</time>
      </trkpt>
      <trkpt lat="43.57199" lon="3.7023">
        <ele>117.5</ele>
        <time>2011-04-09T10:03:32Z</time>
      </trkpt>
      <trkpt lat="43.57195" lon="3.70239">
        <ele>117</ele>
        <time>2011-04-09T10:03:33Z</time>
      </trkpt>
      <trkpt lat="43.57191" lon="3.70249">
        <ele>116.6</ele>
        <time>2011-04-09T10:03:34Z</time>
      </trkpt>
      <trkpt lat="43.57186" lon="3.70259">
        <ele>116</ele>
        <time>2011-04-09T10:03:35Z</time>
      </trkpt>
      <trkpt lat="43.57182" lon="3.70269">
        <ele>115.5</ele>
        <time>2011-04-09T10:03:36Z</time>
      </trkpt>
      <trkpt lat="43.57177" lon="3.70279">
        <ele>115.1</ele>
        <time>2011-04-09T10:03:37Z</time>
      </trkpt>
      <trkpt lat="43.57172" lon="3.70289">
        <ele>114.9</ele>
        <time>2011-04-09T10:03:38Z</time>
      </trkpt>
      <trkpt lat="43.57167" lon="3.70299">
        <ele>114</ele>
        <time>2011-04-09T10:03:39Z</time>
      </trkpt>
      <trkpt lat="43.57162" lon="3.70309">
        <ele>113.4</ele>
        <time>2011-04-09T10:03:40Z</time>
      </trkpt>
      <trkpt lat="43.57157" lon="3.7032">
        <ele>112.9</ele>
        <time>2011-04-09T10:03:41Z</time>
      </trkpt>
      <trkpt lat="43.57152" lon="3.7033">
        <ele>112</ele>
        <time>2011-04-09T10:03:42Z</time>
      </trkpt>
      <trkpt lat="43.57148" lon="3.70341">
        <ele>111.3</ele>
        <time>2011-04-09T10:03:43Z</time>
      </trkpt>
      <trkpt lat="43.57145" lon="3.70353">
        <ele>110.8</ele>
        <time>2011-04-09T10:03:44Z</time>
      </trkpt>
      <trkpt lat="43.57142" lon="3.70365">
        <ele>110.1</ele>
        <time>2011-04-09T10:03:45Z</time>
      </trkpt>
      <trkpt lat="43.57139" lon="3.70376">
        <ele>109.7</ele>
        <time>2011-04-09T10:03:46Z</time>
      </trkpt>
      <trkpt lat="43.57135" lon="3.70387">
        <ele>109.3</ele>
        <time>2011-04-09T10:03:47Z</time>
      </trkpt>
      <trkpt lat="43.57131" lon="3.70397">
        <ele>108.8</ele>
        <time>2011-04-09T10:03:48Z</time>
      </trkpt>
      <trkpt lat="43.57129" lon="3.70408">
        <ele>108.4</ele>
        <time>2011-04-09T10:03:49Z</time>
      </trkpt>
      <trkpt lat="43.57129" lon="3.70417">
        <ele>108.1</ele>
        <time>2011-04-09T10:03:50Z</time>
      </trkpt>
      <trkpt lat="43.57129" lon="3.70425">
        <ele>108.2</ele>
        <time>2011-04-09T10:03:51Z</time>
      </trkpt>
      <trkpt lat="43.5713" lon="3.70433">
        <ele>108.3</ele>
        <time>2011-04-09T10:03:52Z</time>
      </trkpt>
      <trkpt lat="43.5713" lon="3.7044">
        <ele>108.4</ele>
        <time>2011-04-09T10:03:53Z</time>
      </trkpt>
      <trkpt lat="43.57131" lon="3.70447">
        <ele>107.9</ele>
        <time>2011-04-09T10:03:54Z</time>
      </trkpt>
      <trkpt lat="43.57132" lon="3.70454">
        <ele>107.6</ele>
        <time>2011-04-09T10:03:55Z</time>
      </trkpt>
      <trkpt lat="43.57134" lon="3.70465">
        <ele>107.1</ele>
        <time>2011-04-09T10:03:57Z</time>
      </trkpt>
      <trkpt lat="43.57131" lon="3.70475">
        <ele>106.6</ele>
        <time>2011-04-09T10:03:59Z</time>
      </trkpt>
      <trkpt lat="43.57129" lon="3.70486">
        <ele>105.8</ele>
        <time>2011-04-09T10:04:01Z</time>
      </trkpt>
      <trkpt lat="43.57127" lon="3.70497">
        <ele>104.8</ele>
        <time>2011-04-09T10:04:03Z</time>
      </trkpt>
      <trkpt lat="43.57125" lon="3.70503">
        <ele>103.7</ele>
        <time>2011-04-09T10:04:04Z</time>
      </trkpt>
      <trkpt lat="43.57123" lon="3.70509">
        <ele>102.8</ele>
        <time>2011-04-09T10:04:05Z</time>
      </trkpt>
      <trkpt lat="43.57121" lon="3.70516">
        <ele>102.2</ele>
        <time>2011-04-09T10:04:06Z</time>
      </trkpt>
      <trkpt lat="43.57119" lon="3.70522">
        <ele>101.4</ele>
        <time>2011-04-09T10:04:07Z</time>
      </trkpt>
      <trkpt lat="43.57118" lon="3.70528">
        <ele>100.9</ele>
        <time>2011-04-09T10:04:08Z</time>
      </trkpt>
      <trkpt lat="43.57116" lon="3.70535">
        <ele>100.4</ele>
        <time>2011-04-09T10:04:09Z</time>
      </trkpt>
      <trkpt lat="43.57113" lon="3.70546">
        <ele>98.6</ele>
        <time>2011-04-09T10:04:11Z</time>
      </trkpt>
      <trkpt lat="43.5711" lon="3.70551">
        <ele>98</ele>
        <time>2011-04-09T10:04:12Z</time>
      </trkpt>
      <trkpt lat="43.57106" lon="3.70562">
        <ele>96.9</ele>
        <time>2011-04-09T10:04:14Z</time>
      </trkpt>
      <trkpt lat="43.57103" lon="3.70571">
        <ele>96.1</ele>
        <time>2011-04-09T10:04:16Z</time>
      </trkpt>
      <trkpt lat="43.57101" lon="3.70582">
        <ele>93.7</ele>
        <time>2011-04-09T10:04:18Z</time>
      </trkpt>
      <trkpt lat="43.571" lon="3.70589">
        <ele>92.9</ele>
        <time>2011-04-09T10:04:19Z</time>
      </trkpt>
      <trkpt lat="43.57097" lon="3.70595">
        <ele>92</ele>
        <time>2011-04-09T10:04:20Z</time>
      </trkpt>
      <trkpt lat="43.57094" lon="3.70601">
        <ele>91.3</ele>
        <time>2011-04-09T10:04:21Z</time>
      </trkpt>
      <trkpt lat="43.57092" lon="3.70608">
        <ele>90.8</ele>
        <time>2011-04-09T10:04:22Z</time>
      </trkpt>
      <trkpt lat="43.57089" lon="3.70616">
        <ele>89.5</ele>
        <time>2011-04-09T10:04:23Z</time>
      </trkpt>
      <trkpt lat="43.57088" lon="3.70624">
        <ele>88.6</ele>
        <time>2011-04-09T10:04:24Z</time>
      </trkpt>
      <trkpt lat="43.57086" lon="3.7063">
        <ele>87.9</ele>
        <time>2011-04-09T10:04:25Z</time>
      </trkpt>
      <trkpt lat="43.57083" lon="3.70636">
        <ele>87</ele>
        <time>2011-04-09T10:04:26Z</time>
      </trkpt>
      <trkpt lat="43.5708" lon="3.70641">
        <ele>86.3</ele>
        <time>2011-04-09T10:04:27Z</time>
      </trkpt>
      <trkpt lat="43.57074" lon="3.7065">
        <ele>85.4</ele>
        <time>2011-04-09T10:04:29Z</time>
      </trkpt>
      <trkpt lat="43.5707" lon="3.70653">
        <ele>84.5</ele>
        <time>2011-04-09T10:04:30Z</time>
      </trkpt>
      <trkpt lat="43.57066" lon="3.70658">
        <ele>83.7</ele>
        <time>2011-04-09T10:04:31Z</time>
      </trkpt>
      <trkpt lat="43.5706" lon="3.70662">
        <ele>83.2</ele>
        <time>2011-04-09T10:04:32Z</time>
      </trkpt>
      <trkpt lat="43.57055" lon="3.70667">
        <ele>81.8</ele>
        <time>2011-04-09T10:04:33Z</time>
      </trkpt>
      <trkpt lat="43.5705" lon="3.70671">
        <ele>80.7</ele>
        <time>2011-04-09T10:04:34Z</time>
      </trkpt>
      <trkpt lat="43.57046" lon="3.70675">
        <ele>79.9</ele>
        <time>2011-04-09T10:04:35Z</time>
      </trkpt>
      <trkpt lat="43.57042" lon="3.70679">
        <ele>79.5</ele>
        <time>2011-04-09T10:04:36Z</time>
      </trkpt>
      <trkpt lat="43.57037" lon="3.70684">
        <ele>79.2</ele>
        <time>2011-04-09T10:04:37Z</time>
      </trkpt>
      <trkpt lat="43.57032" lon="3.70689">
        <ele>79</ele>
        <time>2011-04-09T10:04:38Z</time>
      </trkpt>
      <trkpt lat="43.57027" lon="3.70694">
        <ele>78.2</ele>
        <time>2011-04-09T10:04:39Z</time>
      </trkpt>
      <trkpt lat="43.57022" lon="3.707">
        <ele>77.6</ele>
        <time>2011-04-09T10:04:40Z</time>
      </trkpt>
      <trkpt lat="43.57017" lon="3.70705">
        <ele>77.1</ele>
        <time>2011-04-09T10:04:41Z</time>
      </trkpt>
      <trkpt lat="43.57012" lon="3.70711">
        <ele>77.1</ele>
        <time>2011-04-09T10:04:42Z</time>
      </trkpt>
      <trkpt lat="43.57007" lon="3.70717">
        <ele>77.2</ele>
        <time>2011-04-09T10:04:43Z</time>
      </trkpt>
      <trkpt lat="43.57002" lon="3.70723">
        <ele>77.2</ele>
        <time>2011-04-09T10:04:44Z</time>
      </trkpt>
      <trkpt lat="43.56997" lon="3.70729">
        <ele>76.6</ele>
        <time>2011-04-09T10:04:45Z</time>
      </trkpt>
      <trkpt lat="43.56992" lon="3.70736">
        <ele>76.2</ele>
        <time>2011-04-09T10:04:46Z</time>
      </trkpt>
      <trkpt lat="43.56986" lon="3.70743">
        <ele>75.9</ele>
        <time>2011-04-09T10:04:47Z</time>
      </trkpt>
      <trkpt lat="43.5698" lon="3.7075">
        <ele>75.6</ele>
        <time>2011-04-09T10:04:48Z</time>
      </trkpt>
      <trkpt lat="43.56973" lon="3.70757">
        <ele>74.4</ele>
        <time>2011-04-09T10:04:49Z</time>
      </trkpt>
      <trkpt lat="43.56966" lon="3.70764">
        <ele>73.6</ele>
        <time>2011-04-09T10:04:50Z</time>
      </trkpt>
      <trkpt lat="43.5696" lon="3.70771">
        <ele>72.9</ele>
        <time>2011-04-09T10:04:51Z</time>
      </trkpt>
      <trkpt lat="43.56953" lon="3.70777">
        <ele>72.3</ele>
        <time>2011-04-09T10:04:52Z</time>
      </trkpt>
      <trkpt lat="43.56945" lon="3.70783">
        <ele>71.9</ele>
        <time>2011-04-09T10:04:53Z</time>
      </trkpt>
      <trkpt lat="43.56938" lon="3.70789">
        <ele>71.6</ele>
        <time>2011-04-09T10:04:54Z</time>
      </trkpt>
      <trkpt lat="43.56931" lon="3.70793">
        <ele>70.8</ele>
        <time>2011-04-09T10:04:55Z</time>
      </trkpt>
      <trkpt lat="43.56923" lon="3.70798">
        <ele>70.2</ele>
        <time>2011-04-09T10:04:56Z</time>
      </trkpt>
      <trkpt lat="43.56916" lon="3.70804">
        <ele>69.8</ele>
        <time>2011-04-09T10:04:57Z</time>
      </trkpt>
      <trkpt lat="43.56909" lon="3.70809">
        <ele>69.3</ele>
        <time>2011-04-09T10:04:58Z</time>
      </trkpt>
      <trkpt lat="43.56902" lon="3.70814">
        <ele>68.9</ele>
        <time>2011-04-09T10:04:59Z</time>
      </trkpt>
      <trkpt lat="43.56895" lon="3.70819">
        <ele>68.6</ele>
        <time>2011-04-09T10:05:00Z</time>
      </trkpt>
      <trkpt lat="43.56889" lon="3.70825">
        <ele>68.7</ele>
        <time>2011-04-09T10:05:01Z</time>
      </trkpt>
      <trkpt lat="43.56882" lon="3.7083">
        <ele>68.8</ele>
        <time>2011-04-09T10:05:02Z</time>
      </trkpt>
      <trkpt lat="43.56877" lon="3.70837">
        <ele>68.9</ele>
        <time>2011-04-09T10:05:03Z</time>
      </trkpt>
      <trkpt lat="43.56871" lon="3.70844">
        <ele>69</ele>
        <time>2011-04-09T10:05:04Z</time>
      </trkpt>
      <trkpt lat="43.56865" lon="3.7085">
        <ele>69</ele>
        <time>2011-04-09T10:05:05Z</time>
      </trkpt>
      <trkpt lat="43.56859" lon="3.70857">
        <ele>69</ele>
        <time>2011-04-09T10:05:06Z</time>
      </trkpt>
      <trkpt lat="43.56854" lon="3.70865">
        <ele>69</ele>
        <time>2011-04-09T10:05:07Z</time>
      </trkpt>
      <trkpt lat="43.56848" lon="3.70872">
        <ele>68.8</ele>
        <time>2011-04-09T10:05:08Z</time>
      </trkpt>
      <trkpt lat="43.56843" lon="3.70879">
        <ele>68.6</ele>
        <time>2011-04-09T10:05:09Z</time>
      </trkpt>
      <trkpt lat="43.56837" lon="3.70886">
        <ele>68.4</ele>
        <time>2011-04-09T10:05:10Z</time>
      </trkpt>
      <trkpt lat="43.56831" lon="3.70893">
        <ele>68.1</ele>
        <time>2011-04-09T10:05:11Z</time>
      </trkpt>
      <trkpt lat="43.56826" lon="3.709">
        <ele>67.9</ele>
        <time>2011-04-09T10:05:12Z</time>
      </trkpt>
      <trkpt lat="43.56821" lon="3.70907">
        <ele>67.7</ele>
        <time>2011-04-09T10:05:13Z</time>
      </trkpt>
      <trkpt lat="43.56816" lon="3.70913">
        <ele>67.9</ele>
        <time>2011-04-09T10:05:14Z</time>
      </trkpt>
      <trkpt lat="43.56811" lon="3.7092">
        <ele>68.1</ele>
        <time>2011-04-09T10:05:15Z</time>
      </trkpt>
      <trkpt lat="43.56806" lon="3.70926">
        <ele>68.3</ele>
        <time>2011-04-09T10:05:16Z</time>
      </trkpt>
      <trkpt lat="43.56801" lon="3.70932">
        <ele>68.2</ele>
        <time>2011-04-09T10:05:17Z</time>
      </trkpt>
      <trkpt lat="43.56797" lon="3.70938">
        <ele>68.1</ele>
        <time>2011-04-09T10:05:18Z</time>
      </trkpt>
      <trkpt lat="43.56791" lon="3.70944">
        <ele>68</ele>
        <time>2011-04-09T10:05:19Z</time>
      </trkpt>
      <trkpt lat="43.56786" lon="3.7095">
        <ele>68</ele>
        <time>2011-04-09T10:05:20Z</time>
      </trkpt>
      <trkpt lat="43.56781" lon="3.70956">
        <ele>68</ele>
        <time>2011-04-09T10:05:21Z</time>
      </trkpt>
      <trkpt lat="43.56776" lon="3.70961">
        <ele>68</ele>
        <time>2011-04-09T10:05:22Z</time>
      </trkpt>
      <trkpt lat="43.56771" lon="3.70967">
        <ele>67.9</ele>
        <time>2011-04-09T10:05:23Z</time>
      </trkpt>
      <trkpt lat="43.56766" lon="3.70973">
        <ele>67.9</ele>
        <time>2011-04-09T10:05:24Z</time>
      </trkpt>
      <trkpt lat="43.5676" lon="3.70978">
        <ele>67.8</ele>
        <time>2011-04-09T10:05:25Z</time>
      </trkpt>
      <trkpt lat="43.56755" lon="3.70983">
        <ele>67.8</ele>
        <time>2011-04-09T10:05:26Z</time>
      </trkpt>
      <trkpt lat="43.5675" lon="3.70989">
        <ele>67.4</ele>
        <time>2011-04-09T10:05:27Z</time>
      </trkpt>
      <trkpt lat="43.56744" lon="3.70994">
        <ele>67.1</ele>
        <time>2011-04-09T10:05:28Z</time>
      </trkpt>
      <trkpt lat="43.56739" lon="3.70999">
        <ele>66.9</ele>
        <time>2011-04-09T10:05:29Z</time>
      </trkpt>
      <trkpt lat="43.56733" lon="3.71004">
        <ele>66.6</ele>
        <time>2011-04-09T10:05:30Z</time>
      </trkpt>
      <trkpt lat="43.56728" lon="3.71009">
        <ele>66.3</ele>
        <time>2011-04-09T10:05:31Z</time>
      </trkpt>
      <trkpt lat="43.56723" lon="3.71014">
        <ele>66.1</ele>
        <time>2011-04-09T10:05:32Z</time>
      </trkpt>
      <trkpt lat="43.56718" lon="3.71019">
        <ele>65.9</ele>
        <time>2011-04-09T10:05:33Z</time>
      </trkpt>
      <trkpt lat="43.56712" lon="3.71024">
        <ele>65.6</ele>
        <time>2011-04-09T10:05:34Z</time>
      </trkpt>
      <trkpt lat="43.56707" lon="3.71028">
        <ele>65.5</ele>
        <time>2011-04-09T10:05:35Z</time>
      </trkpt>
      <trkpt lat="43.56702" lon="3.71033">
        <ele>65.4</ele>
        <time>2011-04-09T10:05:36Z</time>
      </trkpt>
      <trkpt lat="43.56696" lon="3.71038">
        <ele>65.5</ele>
        <time>2011-04-09T10:05:37Z</time>
      </trkpt>
      <trkpt lat="43.56691" lon="3.71042">
        <ele>65.6</ele>
        <time>2011-04-09T10:05:38Z</time>
      </trkpt>
      <trkpt lat="43.56685" lon="3.71047">
        <ele>65.7</ele>
        <time>2011-04-09T10:05:39Z</time>
      </trkpt>
      <trkpt lat="43.5668" lon="3.71051">
        <ele>65.5</ele>
        <time>2011-04-09T10:05:40Z</time>
      </trkpt>
      <trkpt lat="43.56675" lon="3.71056">
        <ele>65.3</ele>
        <time>2011-04-09T10:05:41Z</time>
      </trkpt>
      <trkpt lat="43.5667" lon="3.71061">
        <ele>65.2</ele>
        <time>2011-04-09T10:05:42Z</time>
      </trkpt>
      <trkpt lat="43.56665" lon="3.71066">
        <ele>64.8</ele>
        <time>2011-04-09T10:05:43Z</time>
      </trkpt>
      <trkpt lat="43.56659" lon="3.71071">
        <ele>64.5</ele>
        <time>2011-04-09T10:05:44Z</time>
      </trkpt>
      <trkpt lat="43.56654" lon="3.71076">
        <ele>64.3</ele>
        <time>2011-04-09T10:05:45Z</time>
      </trkpt>
      <trkpt lat="43.56649" lon="3.71081">
        <ele>64.2</ele>
        <time>2011-04-09T10:05:46Z</time>
      </trkpt>
      <trkpt lat="43.56643" lon="3.71087">
        <ele>64.1</ele>
        <time>2011-04-09T10:05:47Z</time>
      </trkpt>
      <trkpt lat="43.56638" lon="3.71092">
        <ele>64</ele>
        <time>2011-04-09T10:05:48Z</time>
      </trkpt>
      <trkpt lat="43.56632" lon="3.71097">
        <ele>63.7</ele>
        <time>2011-04-09T10:05:49Z</time>
      </trkpt>
      <trkpt lat="43.56627" lon="3.71103">
        <ele>63.5</ele>
        <time>2011-04-09T10:05:50Z</time>
      </trkpt>
      <trkpt lat="43.56621" lon="3.71108">
        <ele>63.4</ele>
        <time>2011-04-09T10:05:51Z</time>
      </trkpt>
      <trkpt lat="43.56615" lon="3.71112">
        <ele>63.3</ele>
        <time>2011-04-09T10:05:52Z</time>
      </trkpt>
      <trkpt lat="43.5661" lon="3.71117">
        <ele>63.5</ele>
        <time>2011-04-09T10:05:53Z</time>
      </trkpt>
      <trkpt lat="43.56605" lon="3.71121">
        <ele>63.6</ele>
        <time>2011-04-09T10:05:54Z</time>
      </trkpt>
      <trkpt lat="43.566" lon="3.71125">
        <ele>63.7</ele>
        <time>2011-04-09T10:05:55Z</time>
      </trkpt>
      <trkpt lat="43.56594" lon="3.71129">
        <ele>63.8</ele>
        <time>2011-04-09T10:05:56Z</time>
      </trkpt>
      <trkpt lat="43.56589" lon="3.71133">
        <ele>63.8</ele>
        <time>2011-04-09T10:05:57Z</time>
      </trkpt>
      <trkpt lat="43.56585" lon="3.71137">
        <ele>63.9</ele>
        <time>2011-04-09T10:05:58Z</time>
      </trkpt>
      <trkpt lat="43.56581" lon="3.71141">
        <ele>64.4</ele>
        <time>2011-04-09T10:05:59Z</time>
      </trkpt>
      <trkpt lat="43.56576" lon="3.71146">
        <ele>64.8</ele>
        <time>2011-04-09T10:06:00Z</time>
      </trkpt>
      <trkpt lat="43.56572" lon="3.71151">
        <ele>65.1</ele>
        <time>2011-04-09T10:06:01Z</time>
      </trkpt>
      <trkpt lat="43.56567" lon="3.71157">
        <ele>65</ele>
        <time>2011-04-09T10:06:02Z</time>
      </trkpt>
      <trkpt lat="43.56563" lon="3.71163">
        <ele>64.9</ele>
        <time>2011-04-09T10:06:03Z</time>
      </trkpt>
      <trkpt lat="43.56557" lon="3.71169">
        <ele>64.8</ele>
        <time>2011-04-09T10:06:04Z</time>
      </trkpt>
      <trkpt lat="43.56553" lon="3.71175">
        <ele>64.2</ele>
        <time>2011-04-09T10:06:05Z</time>
      </trkpt>
      <trkpt lat="43.56549" lon="3.71182">
        <ele>63.8</ele>
        <time>2011-04-09T10:06:06Z</time>
      </trkpt>
      <trkpt lat="43.56545" lon="3.71189">
        <ele>63.5</ele>
        <time>2011-04-09T10:06:07Z</time>
      </trkpt>
      <trkpt lat="43.56542" lon="3.71196">
        <ele>63.3</ele>
        <time>2011-04-09T10:06:08Z</time>
      </trkpt>
      <trkpt lat="43.56539" lon="3.71203">
        <ele>62.9</ele>
        <time>2011-04-09T10:06:09Z</time>
      </trkpt>
      <trkpt lat="43.56536" lon="3.7121">
        <ele>62.6</ele>
        <time>2011-04-09T10:06:10Z</time>
      </trkpt>
      <trkpt lat="43.56533" lon="3.71217">
        <ele>62.4</ele>
        <time>2011-04-09T10:06:11Z</time>
      </trkpt>
      <trkpt lat="43.56529" lon="3.71224">
        <ele>62.1</ele>
        <time>2011-04-09T10:06:12Z</time>
      </trkpt>
      <trkpt lat="43.56525" lon="3.71231">
        <ele>61.9</ele>
        <time>2011-04-09T10:06:13Z</time>
      </trkpt>
      <trkpt lat="43.56521" lon="3.71238">
        <ele>61.7</ele>
        <time>2011-04-09T10:06:14Z</time>
      </trkpt>
      <trkpt lat="43.56518" lon="3.71244">
        <ele>61.7</ele>
        <time>2011-04-09T10:06:15Z</time>
      </trkpt>
      <trkpt lat="43.56514" lon="3.7125">
        <ele>61.7</ele>
        <time>2011-04-09T10:06:16Z</time>
      </trkpt>
      <trkpt lat="43.56511" lon="3.71254">
        <ele>61.6</ele>
        <time>2011-04-09T10:06:17Z</time>
      </trkpt>
      <trkpt lat="43.56504" lon="3.71261">
        <ele>61.6</ele>
        <time>2011-04-09T10:06:19Z</time>
      </trkpt>
      <trkpt lat="43.56497" lon="3.71266">
        <ele>61.8</ele>
        <time>2011-04-09T10:06:21Z</time>
      </trkpt>
      <trkpt lat="43.5649" lon="3.71274">
        <ele>62.2</ele>
        <time>2011-04-09T10:06:23Z</time>
      </trkpt>
      <trkpt lat="43.56486" lon="3.71278">
        <ele>61.8</ele>
        <time>2011-04-09T10:06:24Z</time>
      </trkpt>
      <trkpt lat="43.56482" lon="3.71282">
        <ele>61.4</ele>
        <time>2011-04-09T10:06:25Z</time>
      </trkpt>
      <trkpt lat="43.56477" lon="3.71284">
        <ele>61.1</ele>
        <time>2011-04-09T10:06:26Z</time>
      </trkpt>
      <trkpt lat="43.56473" lon="3.71286">
        <ele>60.9</ele>
        <time>2011-04-09T10:06:27Z</time>
      </trkpt>
      <trkpt lat="43.56464" lon="3.71288">
        <ele>60.8</ele>
        <time>2011-04-09T10:06:29Z</time>
      </trkpt>
      <trkpt lat="43.5646" lon="3.71288">
        <ele>60.8</ele>
        <time>2011-04-09T10:06:30Z</time>
      </trkpt>
      <trkpt lat="43.56451" lon="3.71289">
        <ele>60.5</ele>
        <time>2011-04-09T10:06:32Z</time>
      </trkpt>
      <trkpt lat="43.56442" lon="3.71289">
        <ele>60.1</ele>
        <time>2011-04-09T10:06:34Z</time>
      </trkpt>
      <trkpt lat="43.56433" lon="3.71289">
        <ele>59.7</ele>
        <time>2011-04-09T10:06:36Z</time>
      </trkpt>
      <trkpt lat="43.56429" lon="3.7129">
        <ele>59.8</ele>
        <time>2011-04-09T10:06:37Z</time>
      </trkpt>
      <trkpt lat="43.5642" lon="3.71291">
        <ele>59.9</ele>
        <time>2011-04-09T10:06:39Z</time>
      </trkpt>
      <trkpt lat="43.56412" lon="3.71294">
        <ele>59.2</ele>
        <time>2011-04-09T10:06:41Z</time>
      </trkpt>
      <trkpt lat="43.56407" lon="3.71296">
        <ele>58.9</ele>
        <time>2011-04-09T10:06:42Z</time>
      </trkpt>
      <trkpt lat="43.56402" lon="3.71299">
        <ele>58.8</ele>
        <time>2011-04-09T10:06:43Z</time>
      </trkpt>
      <trkpt lat="43.56396" lon="3.71302">
        <ele>58.4</ele>
        <time>2011-04-09T10:06:44Z</time>
      </trkpt>
      <trkpt lat="43.5639" lon="3.71303">
        <ele>58.1</ele>
        <time>2011-04-09T10:06:45Z</time>
      </trkpt>
      <trkpt lat="43.56384" lon="3.71304">
        <ele>57.9</ele>
        <time>2011-04-09T10:06:46Z</time>
      </trkpt>
      <trkpt lat="43.56378" lon="3.71305">
        <ele>57.3</ele>
        <time>2011-04-09T10:06:47Z</time>
      </trkpt>
      <trkpt lat="43.56371" lon="3.71306">
        <ele>56.9</ele>
        <time>2011-04-09T10:06:48Z</time>
      </trkpt>
      <trkpt lat="43.56365" lon="3.71306">
        <ele>56.5</ele>
        <time>2011-04-09T10:06:49Z</time>
      </trkpt>
      <trkpt lat="43.56359" lon="3.71306">
        <ele>56.2</ele>
        <time>2011-04-09T10:06:50Z</time>
      </trkpt>
      <trkpt lat="43.56353" lon="3.71307">
        <ele>55.9</ele>
        <time>2011-04-09T10:06:51Z</time>
      </trkpt>
      <trkpt lat="43.56348" lon="3.71311">
        <ele>55.6</ele>
        <time>2011-04-09T10:06:52Z</time>
      </trkpt>
      <trkpt lat="43.56343" lon="3.71315">
        <ele>55.2</ele>
        <time>2011-04-09T10:06:53Z</time>
      </trkpt>
      <trkpt lat="43.56339" lon="3.7132">
        <ele>54.9</ele>
        <time>2011-04-09T10:06:54Z</time>
      </trkpt>
      <trkpt lat="43.56335" lon="3.71324">
        <ele>54.7</ele>
        <time>2011-04-09T10:06:55Z</time>
      </trkpt>
      <trkpt lat="43.56331" lon="3.71329">
        <ele>54.6</ele>
        <time>2011-04-09T10:06:56Z</time>
      </trkpt>
      <trkpt lat="43.56327" lon="3.71334">
        <ele>54.6</ele>
        <time>2011-04-09T10:06:57Z</time>
      </trkpt>
      <trkpt lat="43.5632" lon="3.7134">
        <ele>54.5</ele>
        <time>2011-04-09T10:06:59Z</time>
      </trkpt>
      <trkpt lat="43.56312" lon="3.71344">
        <ele>54.1</ele>
        <time>2011-04-09T10:07:01Z</time>
      </trkpt>
      <trkpt lat="43.56305" lon="3.71346">
        <ele>53.9</ele>
        <time>2011-04-09T10:07:03Z</time>
      </trkpt>
      <trkpt lat="43.56297" lon="3.71348">
        <ele>53.9</ele>
        <time>2011-04-09T10:07:05Z</time>
      </trkpt>
      <trkpt lat="43.5629" lon="3.71349">
        <ele>54.1</ele>
        <time>2011-04-09T10:07:07Z</time>
      </trkpt>
      <trkpt lat="43.56283" lon="3.71351">
        <ele>54.3</ele>
        <time>2011-04-09T10:07:09Z</time>
      </trkpt>
      <trkpt lat="43.56276" lon="3.71354">
        <ele>54.4</ele>
        <time>2011-04-09T10:07:11Z</time>
      </trkpt>
      <trkpt lat="43.56271" lon="3.71361">
        <ele>54.5</ele>
        <time>2011-04-09T10:07:13Z</time>
      </trkpt>
      <trkpt lat="43.56269" lon="3.71372">
        <ele>55.1</ele>
        <time>2011-04-09T10:07:16Z</time>
      </trkpt>
      <trkpt lat="43.56262" lon="3.71379">
        <ele>56.1</ele>
        <time>2011-04-09T10:07:19Z</time>
      </trkpt>
      <trkpt lat="43.56256" lon="3.71385">
        <ele>56.9</ele>
        <time>2011-04-09T10:07:22Z</time>
      </trkpt>
      <trkpt lat="43.5625" lon="3.71391">
        <ele>57.8</ele>
        <time>2011-04-09T10:07:25Z</time>
      </trkpt>
      <trkpt lat="43.56243" lon="3.71397">
        <ele>59.3</ele>
        <time>2011-04-09T10:07:28Z</time>
      </trkpt>
      <trkpt lat="43.56242" lon="3.714">
        <ele>59.7</ele>
        <time>2011-04-09T10:07:29Z</time>
      </trkpt>
      <trkpt lat="43.56233" lon="3.71417">
        <ele>59.7</ele>
        <time>2011-04-09T10:07:34Z</time>
      </trkpt>
      <trkpt lat="43.56228" lon="3.71426">
        <ele>59.4</ele>
        <time>2011-04-09T10:07:37Z</time>
      </trkpt>
      <trkpt lat="43.56222" lon="3.71435">
        <ele>60.6</ele>
        <time>2011-04-09T10:07:40Z</time>
      </trkpt>
      <trkpt lat="43.56217" lon="3.71444">
        <ele>61.2</ele>
        <time>2011-04-09T10:07:43Z</time>
      </trkpt>
      <trkpt lat="43.56214" lon="3.71453">
        <ele>61.7</ele>
        <time>2011-04-09T10:07:45Z</time>
      </trkpt>
      <trkpt lat="43.56212" lon="3.71461">
        <ele>61.9</ele>
        <time>2011-04-09T10:07:47Z</time>
      </trkpt>
      <trkpt lat="43.56208" lon="3.71471">
        <ele>62</ele>
        <time>2011-04-09T10:07:50Z</time>
      </trkpt>
      <trkpt lat="43.56205" lon="3.71481">
        <ele>62</ele>
        <time>2011-04-09T10:07:53Z</time>
      </trkpt>
      <trkpt lat="43.56202" lon="3.71492">
        <ele>62.8</ele>
        <time>2011-04-09T10:07:57Z</time>
      </trkpt>
      <trkpt lat="43.56198" lon="3.71502">
        <ele>62.7</ele>
        <time>2011-04-09T10:08:00Z</time>
      </trkpt>
      <trkpt lat="43.56195" lon="3.71514">
        <ele>63.1</ele>
        <time>2011-04-09T10:08:04Z</time>
      </trkpt>
      <trkpt lat="43.56193" lon="3.71525">
        <ele>63.5</ele>
        <time>2011-04-09T10:08:07Z</time>
      </trkpt>
      <trkpt lat="43.56194" lon="3.71537">
        <ele>67.6</ele>
        <time>2011-04-09T10:08:24Z</time>
      </trkpt>
      <trkpt lat="43.56199" lon="3.71545">
        <ele>66.6</ele>
        <time>2011-04-09T10:08:29Z</time>
      </trkpt>
      <trkpt lat="43.56201" lon="3.71546">
        <ele>66.7</ele>
        <time>2011-04-09T10:08:30Z</time>
      </trkpt>
      <trkpt lat="43.56206" lon="3.71554">
        <ele>66.5</ele>
        <time>2011-04-09T10:10:29Z</time>
      </trkpt>
      <trkpt lat="43.56219" lon="3.71568">
        <ele>67.2</ele>
        <time>2011-04-09T10:10:37Z</time>
      </trkpt>
      <trkpt lat="43.56225" lon="3.71575">
        <ele>67.5</ele>
        <time>2011-04-09T10:10:40Z</time>
      </trkpt>
      <trkpt lat="43.56231" lon="3.71583">
        <ele>67.8</ele>
        <time>2011-04-09T10:10:43Z</time>
      </trkpt>
      <trkpt lat="43.56235" lon="3.71589">
        <ele>67.5</ele>
        <time>2011-04-09T10:10:45Z</time>
      </trkpt>
      <trkpt lat="43.56239" lon="3.71596">
        <ele>67.4</ele>
        <time>2011-04-09T10:10:47Z</time>
      </trkpt>
      <trkpt lat="43.56244" lon="3.71604">
        <ele>67.4</ele>
        <time>2011-04-09T10:10:49Z</time>
      </trkpt>
      <trkpt lat="43.56248" lon="3.71612">
        <ele>67.5</ele>
        <time>2011-04-09T10:10:51Z</time>
      </trkpt>
      <trkpt lat="43.56253" lon="3.71619">
        <ele>67.6</ele>
        <time>2011-04-09T10:10:53Z</time>
      </trkpt>
      <trkpt lat="43.56257" lon="3.71627">
        <ele>67.7</ele>
        <time>2011-04-09T10:10:55Z</time>
      </trkpt>
      <trkpt lat="43.56262" lon="3.71636">
        <ele>68.2</ele>
        <time>2011-04-09T10:10:57Z</time>
      </trkpt>
      <trkpt lat="43.56266" lon="3.71644">
        <ele>68.5</ele>
        <time>2011-04-09T10:10:59Z</time>
      </trkpt>
      <trkpt lat="43.56271" lon="3.71653">
        <ele>68.6</ele>
        <time>2011-04-09T10:11:01Z</time>
      </trkpt>
      <trkpt lat="43.56276" lon="3.71663">
        <ele>68.4</ele>
        <time>2011-04-09T10:11:03Z</time>
      </trkpt>
      <trkpt lat="43.5628" lon="3.71673">
        <ele>68.3</ele>
        <time>2011-04-09T10:11:05Z</time>
      </trkpt>
      <trkpt lat="43.56284" lon="3.71682">
        <ele>68.4</ele>
        <time>2011-04-09T10:11:07Z</time>
      </trkpt>
      <trkpt lat="43.56288" lon="3.71691">
        <ele>68.5</ele>
        <time>2011-04-09T10:11:09Z</time>
      </trkpt>
      <trkpt lat="43.56291" lon="3.71701">
        <ele>68.6</ele>
        <time>2011-04-09T10:11:11Z</time>
      </trkpt>
      <trkpt lat="43.56295" lon="3.71709">
        <ele>68.3</ele>
        <time>2011-04-09T10:11:13Z</time>
      </trkpt>
      <trkpt lat="43.56298" lon="3.71719">
        <ele>68.4</ele>
        <time>2011-04-09T10:11:15Z</time>
      </trkpt>
      <trkpt lat="43.56301" lon="3.71729">
        <ele>68.7</ele>
        <time>2011-04-09T10:11:17Z</time>
      </trkpt>
      <trkpt lat="43.56304" lon="3.71738">
        <ele>69.1</ele>
        <time>2011-04-09T10:11:19Z</time>
      </trkpt>
      <trkpt lat="43.56307" lon="3.71748">
        <ele>69.2</ele>
        <time>2011-04-09T10:11:21Z</time>
      </trkpt>
      <trkpt lat="43.5631" lon="3.71758">
        <ele>69.2</ele>
        <time>2011-04-09T10:11:23Z</time>
      </trkpt>
      <trkpt lat="43.56312" lon="3.71768">
        <ele>69.4</ele>
        <time>2011-04-09T10:11:25Z</time>
      </trkpt>
      <trkpt lat="43.56314" lon="3.71778">
        <ele>69.4</ele>
        <time>2011-04-09T10:11:27Z</time>
      </trkpt>
      <trkpt lat="43.56316" lon="3.71788">
        <ele>69.6</ele>
        <time>2011-04-09T10:11:29Z</time>
      </trkpt>
      <trkpt lat="43.56317" lon="3.71793">
        <ele>69.7</ele>
        <time>2011-04-09T10:11:30Z</time>
      </trkpt>
      <trkpt lat="43.5632" lon="3.71809">
        <ele>70.1</ele>
        <time>2011-04-09T10:11:33Z</time>
      </trkpt>
      <trkpt lat="43.56322" lon="3.71819">
        <ele>70.1</ele>
        <time>2011-04-09T10:11:35Z</time>
      </trkpt>
      <trkpt lat="43.56324" lon="3.7183">
        <ele>69.9</ele>
        <time>2011-04-09T10:11:37Z</time>
      </trkpt>
      <trkpt lat="43.56326" lon="3.71841">
        <ele>69.5</ele>
        <time>2011-04-09T10:11:39Z</time>
      </trkpt>
      <trkpt lat="43.56327" lon="3.71853">
        <ele>69.5</ele>
        <time>2011-04-09T10:11:41Z</time>
      </trkpt>
      <trkpt lat="43.56328" lon="3.71865">
        <ele>69.5</ele>
        <time>2011-04-09T10:11:43Z</time>
      </trkpt>
      <trkpt lat="43.56329" lon="3.71877">
        <ele>69.7</ele>
        <time>2011-04-09T10:11:45Z</time>
      </trkpt>
      <trkpt lat="43.56329" lon="3.71889">
        <ele>69.7</ele>
        <time>2011-04-09T10:11:47Z</time>
      </trkpt>
      <trkpt lat="43.56329" lon="3.71895">
        <ele>69.6</ele>
        <time>2011-04-09T10:11:48Z</time>
      </trkpt>
      <trkpt lat="43.56329" lon="3.71902">
        <ele>69.6</ele>
        <time>2011-04-09T10:11:49Z</time>
      </trkpt>
      <trkpt lat="43.56329" lon="3.71908">
        <ele>69.5</ele>
        <time>2011-04-09T10:11:50Z</time>
      </trkpt>
      <trkpt lat="43.56329" lon="3.71915">
        <ele>69.5</ele>
        <time>2011-04-09T10:11:51Z</time>
      </trkpt>
      <trkpt lat="43.56329" lon="3.71922">
        <ele>69.5</ele>
        <time>2011-04-09T10:11:52Z</time>
      </trkpt>
      <trkpt lat="43.56329" lon="3.71928">
        <ele>69.2</ele>
        <time>2011-04-09T10:11:53Z</time>
      </trkpt>
      <trkpt lat="43.56329" lon="3.71935">
        <ele>69</ele>
        <time>2011-04-09T10:11:54Z</time>
      </trkpt>
      <trkpt lat="43.56329" lon="3.71942">
        <ele>68.9</ele>
        <time>2011-04-09T10:11:55Z</time>
      </trkpt>
      <trkpt lat="43.56329" lon="3.71949">
        <ele>69</ele>
        <time>2011-04-09T10:11:56Z</time>
      </trkpt>
      <trkpt lat="43.56329" lon="3.71956">
        <ele>69.1</ele>
        <time>2011-04-09T10:11:57Z</time>
      </trkpt>
      <trkpt lat="43.56329" lon="3.71963">
        <ele>69.2</ele>
        <time>2011-04-09T10:11:58Z</time>
      </trkpt>
      <trkpt lat="43.56329" lon="3.7197">
        <ele>69.3</ele>
        <time>2011-04-09T10:11:59Z</time>
      </trkpt>
      <trkpt lat="43.5633" lon="3.71978">
        <ele>69.4</ele>
        <time>2011-04-09T10:12:00Z</time>
      </trkpt>
      <trkpt lat="43.5633" lon="3.71985">
        <ele>69.5</ele>
        <time>2011-04-09T10:12:01Z</time>
      </trkpt>
      <trkpt lat="43.5633" lon="3.71992">
        <ele>69.6</ele>
        <time>2011-04-09T10:12:02Z</time>
      </trkpt>
      <trkpt lat="43.5633" lon="3.71999">
        <ele>69.7</ele>
        <time>2011-04-09T10:12:03Z</time>
      </trkpt>
      <trkpt lat="43.5633" lon="3.72006">
        <ele>69.8</ele>
        <time>2011-04-09T10:12:04Z</time>
      </trkpt>
      <trkpt lat="43.5633" lon="3.72013">
        <ele>69.8</ele>
        <time>2011-04-09T10:12:05Z</time>
      </trkpt>
      <trkpt lat="43.5633" lon="3.72021">
        <ele>69.8</ele>
        <time>2011-04-09T10:12:06Z</time>
      </trkpt>
      <trkpt lat="43.5633" lon="3.72028">
        <ele>69.8</ele>
        <time>2011-04-09T10:12:07Z</time>
      </trkpt>
      <trkpt lat="43.5633" lon="3.72035">
        <ele>69.8</ele>
        <time>2011-04-09T10:12:08Z</time>
      </trkpt>
      <trkpt lat="43.5633" lon="3.72043">
        <ele>69.3</ele>
        <time>2011-04-09T10:12:09Z</time>
      </trkpt>
      <trkpt lat="43.5633" lon="3.7205">
        <ele>69</ele>
        <time>2011-04-09T10:12:10Z</time>
      </trkpt>
      <trkpt lat="43.56331" lon="3.72058">
        <ele>68.8</ele>
        <time>2011-04-09T10:12:11Z</time>
      </trkpt>
      <trkpt lat="43.56331" lon="3.72066">
        <ele>69</ele>
        <time>2011-04-09T10:12:12Z</time>
      </trkpt>
      <trkpt lat="43.56331" lon="3.72073">
        <ele>69.2</ele>
        <time>2011-04-09T10:12:13Z</time>
      </trkpt>
      <trkpt lat="43.56331" lon="3.72081">
        <ele>69.3</ele>
        <time>2011-04-09T10:12:14Z</time>
      </trkpt>
      <trkpt lat="43.56331" lon="3.72088">
        <ele>69.4</ele>
        <time>2011-04-09T10:12:15Z</time>
      </trkpt>
      <trkpt lat="43.56331" lon="3.72096">
        <ele>68.9</ele>
        <time>2011-04-09T10:12:16Z</time>
      </trkpt>
      <trkpt lat="43.56331" lon="3.72103">
        <ele>68.5</ele>
        <time>2011-04-09T10:12:17Z</time>
      </trkpt>
      <trkpt lat="43.5633" lon="3.72111">
        <ele>68.2</ele>
        <time>2011-04-09T10:12:18Z</time>
      </trkpt>
      <trkpt lat="43.5633" lon="3.72119">
        <ele>68.2</ele>
        <time>2011-04-09T10:12:19Z</time>
      </trkpt>
      <trkpt lat="43.5633" lon="3.72127">
        <ele>68.2</ele>
        <time>2011-04-09T10:12:20Z</time>
      </trkpt>
      <trkpt lat="43.56331" lon="3.72134">
        <ele>68.2</ele>
        <time>2011-04-09T10:12:21Z</time>
      </trkpt>
      <trkpt lat="43.56331" lon="3.72142">
        <ele>67.8</ele>
        <time>2011-04-09T10:12:22Z</time>
      </trkpt>
      <trkpt lat="43.5633" lon="3.72149">
        <ele>67.5</ele>
        <time>2011-04-09T10:12:23Z</time>
      </trkpt>
      <trkpt lat="43.5633" lon="3.72157">
        <ele>67.3</ele>
        <time>2011-04-09T10:12:24Z</time>
      </trkpt>
      <trkpt lat="43.56331" lon="3.72165">
        <ele>67.2</ele>
        <time>2011-04-09T10:12:25Z</time>
      </trkpt>
      <trkpt lat="43.56331" lon="3.72173">
        <ele>67.2</ele>
        <time>2011-04-09T10:12:26Z</time>
      </trkpt>
      <trkpt lat="43.56332" lon="3.72181">
        <ele>67.2</ele>
        <time>2011-04-09T10:12:27Z</time>
      </trkpt>
      <trkpt lat="43.56332" lon="3.72189">
        <ele>67</ele>
        <time>2011-04-09T10:12:28Z</time>
      </trkpt>
      <trkpt lat="43.56333" lon="3.72196">
        <ele>66.9</ele>
        <time>2011-04-09T10:12:29Z</time>
      </trkpt>
      <trkpt lat="43.56334" lon="3.72204">
        <ele>66.8</ele>
        <time>2011-04-09T10:12:30Z</time>
      </trkpt>
      <trkpt lat="43.56334" lon="3.72212">
        <ele>66.8</ele>
        <time>2011-04-09T10:12:31Z</time>
      </trkpt>
      <trkpt lat="43.56336" lon="3.72219">
        <ele>66.8</ele>
        <time>2011-04-09T10:12:32Z</time>
      </trkpt>
      <trkpt lat="43.56338" lon="3.72227">
        <ele>66.8</ele>
        <time>2011-04-09T10:12:33Z</time>
      </trkpt>
      <trkpt lat="43.5634" lon="3.72234">
        <ele>66.9</ele>
        <time>2011-04-09T10:12:34Z</time>
      </trkpt>
      <trkpt lat="43.56341" lon="3.72242">
        <ele>66.5</ele>
        <time>2011-04-09T10:12:35Z</time>
      </trkpt>
      <trkpt lat="43.56343" lon="3.7225">
        <ele>66.3</ele>
        <time>2011-04-09T10:12:36Z</time>
      </trkpt>
      <trkpt lat="43.56345" lon="3.72257">
        <ele>66.1</ele>
        <time>2011-04-09T10:12:37Z</time>
      </trkpt>
      <trkpt lat="43.56347" lon="3.72265">
        <ele>66.2</ele>
        <time>2011-04-09T10:12:38Z</time>
      </trkpt>
      <trkpt lat="43.56349" lon="3.72273">
        <ele>66.3</ele>
        <time>2011-04-09T10:12:39Z</time>
      </trkpt>
      <trkpt lat="43.56351" lon="3.7228">
        <ele>66.4</ele>
        <time>2011-04-09T10:12:40Z</time>
      </trkpt>
      <trkpt lat="43.56353" lon="3.72288">
        <ele>66.6</ele>
        <time>2011-04-09T10:12:41Z</time>
      </trkpt>
      <trkpt lat="43.56355" lon="3.72295">
        <ele>66.8</ele>
        <time>2011-04-09T10:12:42Z</time>
      </trkpt>
      <trkpt lat="43.56358" lon="3.72302">
        <ele>66.9</ele>
        <time>2011-04-09T10:12:43Z</time>
      </trkpt>
      <trkpt lat="43.5636" lon="3.7231">
        <ele>66.7</ele>
        <time>2011-04-09T10:12:44Z</time>
      </trkpt>
      <trkpt lat="43.56362" lon="3.72317">
        <ele>66.5</ele>
        <time>2011-04-09T10:12:45Z</time>
      </trkpt>
      <trkpt lat="43.56365" lon="3.72324">
        <ele>66.4</ele>
        <time>2011-04-09T10:12:46Z</time>
      </trkpt>
      <trkpt lat="43.56368" lon="3.72331">
        <ele>66.3</ele>
        <time>2011-04-09T10:12:47Z</time>
      </trkpt>
      <trkpt lat="43.56371" lon="3.72337">
        <ele>66.5</ele>
        <time>2011-04-09T10:12:48Z</time>
      </trkpt>
      <trkpt lat="43.56374" lon="3.72344">
        <ele>66.7</ele>
        <time>2011-04-09T10:12:49Z</time>
      </trkpt>
      <trkpt lat="43.56377" lon="3.72351">
        <ele>66.8</ele>
        <time>2011-04-09T10:12:50Z</time>
      </trkpt>
      <trkpt lat="43.5638" lon="3.72357">
        <ele>67.1</ele>
        <time>2011-04-09T10:12:51Z</time>
      </trkpt>
      <trkpt lat="43.56383" lon="3.72363">
        <ele>67.4</ele>
        <time>2011-04-09T10:12:52Z</time>
      </trkpt>
      <trkpt lat="43.56387" lon="3.72369">
        <ele>67.5</ele>
        <time>2011-04-09T10:12:53Z</time>
      </trkpt>
      <trkpt lat="43.56391" lon="3.72375">
        <ele>67.4</ele>
        <time>2011-04-09T10:12:54Z</time>
      </trkpt>
      <trkpt lat="43.56395" lon="3.7238">
        <ele>67.3</ele>
        <time>2011-04-09T10:12:55Z</time>
      </trkpt>
      <trkpt lat="43.56399" lon="3.72386">
        <ele>67.3</ele>
        <time>2011-04-09T10:12:56Z</time>
      </trkpt>
      <trkpt lat="43.56402" lon="3.72391">
        <ele>67.5</ele>
        <time>2011-04-09T10:12:57Z</time>
      </trkpt>
      <trkpt lat="43.56406" lon="3.72397">
        <ele>67.7</ele>
        <time>2011-04-09T10:12:58Z</time>
      </trkpt>
      <trkpt lat="43.56409" lon="3.72402">
        <ele>67.8</ele>
        <time>2011-04-09T10:12:59Z</time>
      </trkpt>
      <trkpt lat="43.56413" lon="3.72408">
        <ele>67.4</ele>
        <time>2011-04-09T10:13:00Z</time>
      </trkpt>
      <trkpt lat="43.56417" lon="3.72413">
        <ele>67.1</ele>
        <time>2011-04-09T10:13:01Z</time>
      </trkpt>
      <trkpt lat="43.56421" lon="3.72418">
        <ele>66.9</ele>
        <time>2011-04-09T10:13:02Z</time>
      </trkpt>
      <trkpt lat="43.56425" lon="3.72423">
        <ele>67.1</ele>
        <time>2011-04-09T10:13:03Z</time>
      </trkpt>
      <trkpt lat="43.5643" lon="3.72428">
        <ele>67.3</ele>
        <time>2011-04-09T10:13:04Z</time>
      </trkpt>
      <trkpt lat="43.56434" lon="3.72433">
        <ele>67.5</ele>
        <time>2011-04-09T10:13:05Z</time>
      </trkpt>
      <trkpt lat="43.56439" lon="3.72437">
        <ele>67.6</ele>
        <time>2011-04-09T10:13:06Z</time>
      </trkpt>
      <trkpt lat="43.56444" lon="3.72442">
        <ele>67.4</ele>
        <time>2011-04-09T10:13:07Z</time>
      </trkpt>
      <trkpt lat="43.56448" lon="3.72447">
        <ele>67.2</ele>
        <time>2011-04-09T10:13:08Z</time>
      </trkpt>
      <trkpt lat="43.56453" lon="3.72451">
        <ele>67</ele>
        <time>2011-04-09T10:13:09Z</time>
      </trkpt>
      <trkpt lat="43.56458" lon="3.72455">
        <ele>67.1</ele>
        <time>2011-04-09T10:13:10Z</time>
      </trkpt>
      <trkpt lat="43.56463" lon="3.7246">
        <ele>67.1</ele>
        <time>2011-04-09T10:13:11Z</time>
      </trkpt>
      <trkpt lat="43.56467" lon="3.72465">
        <ele>67.1</ele>
        <time>2011-04-09T10:13:12Z</time>
      </trkpt>
      <trkpt lat="43.56472" lon="3.72469">
        <ele>66.7</ele>
        <time>2011-04-09T10:13:13Z</time>
      </trkpt>
      <trkpt lat="43.56476" lon="3.72474">
        <ele>66.4</ele>
        <time>2011-04-09T10:13:14Z</time>
      </trkpt>
      <trkpt lat="43.56481" lon="3.72478">
        <ele>66.2</ele>
        <time>2011-04-09T10:13:15Z</time>
      </trkpt>
      <trkpt lat="43.56486" lon="3.72482">
        <ele>66.9</ele>
        <time>2011-04-09T10:13:16Z</time>
      </trkpt>
      <trkpt lat="43.5649" lon="3.72487">
        <ele>67.4</ele>
        <time>2011-04-09T10:13:17Z</time>
      </trkpt>
      <trkpt lat="43.56495" lon="3.72491">
        <ele>67.7</ele>
        <time>2011-04-09T10:13:18Z</time>
      </trkpt>
      <trkpt lat="43.56499" lon="3.72495">
        <ele>68</ele>
        <time>2011-04-09T10:13:19Z</time>
      </trkpt>
      <trkpt lat="43.56504" lon="3.72499">
        <ele>68.2</ele>
        <time>2011-04-09T10:13:20Z</time>
      </trkpt>
      <trkpt lat="43.56508" lon="3.72504">
        <ele>68.3</ele>
        <time>2011-04-09T10:13:21Z</time>
      </trkpt>
      <trkpt lat="43.56513" lon="3.72508">
        <ele>68.4</ele>
        <time>2011-04-09T10:13:22Z</time>
      </trkpt>
      <trkpt lat="43.56517" lon="3.72512">
        <ele>68.6</ele>
        <time>2011-04-09T10:13:23Z</time>
      </trkpt>
      <trkpt lat="43.56522" lon="3.72517">
        <ele>68.7</ele>
        <time>2011-04-09T10:13:24Z</time>
      </trkpt>
      <trkpt lat="43.56526" lon="3.72521">
        <ele>68.8</ele>
        <time>2011-04-09T10:13:25Z</time>
      </trkpt>
      <trkpt lat="43.5653" lon="3.72526">
        <ele>68.6</ele>
        <time>2011-04-09T10:13:26Z</time>
      </trkpt>
      <trkpt lat="43.56535" lon="3.72531">
        <ele>68.4</ele>
        <time>2011-04-09T10:13:27Z</time>
      </trkpt>
      <trkpt lat="43.56539" lon="3.72536">
        <ele>68.3</ele>
        <time>2011-04-09T10:13:28Z</time>
      </trkpt>
      <trkpt lat="43.56543" lon="3.72541">
        <ele>68.1</ele>
        <time>2011-04-09T10:13:29Z</time>
      </trkpt>
      <trkpt lat="43.56547" lon="3.72547">
        <ele>68</ele>
        <time>2011-04-09T10:13:30Z</time>
      </trkpt>
      <trkpt lat="43.56551" lon="3.72552">
        <ele>67.9</ele>
        <time>2011-04-09T10:13:31Z</time>
      </trkpt>
      <trkpt lat="43.56555" lon="3.72557">
        <ele>68</ele>
        <time>2011-04-09T10:13:32Z</time>
      </trkpt>
      <trkpt lat="43.5656" lon="3.72562">
        <ele>68.1</ele>
        <time>2011-04-09T10:13:33Z</time>
      </trkpt>
      <trkpt lat="43.56563" lon="3.72567">
        <ele>68.2</ele>
        <time>2011-04-09T10:13:34Z</time>
      </trkpt>
      <trkpt lat="43.56567" lon="3.72571">
        <ele>68.2</ele>
        <time>2011-04-09T10:13:35Z</time>
      </trkpt>
      <trkpt lat="43.56571" lon="3.72575">
        <ele>68.2</ele>
        <time>2011-04-09T10:13:36Z</time>
      </trkpt>
      <trkpt lat="43.56578" lon="3.72581">
        <ele>68.3</ele>
        <time>2011-04-09T10:13:38Z</time>
      </trkpt>
      <trkpt lat="43.56584" lon="3.72586">
        <ele>69.3</ele>
        <time>2011-04-09T10:13:40Z</time>
      </trkpt>
      <trkpt lat="43.5659" lon="3.72592">
        <ele>70</ele>
        <time>2011-04-09T10:13:42Z</time>
      </trkpt>
      <trkpt lat="43.56597" lon="3.72599">
        <ele>70.3</ele>
        <time>2011-04-09T10:13:44Z</time>
      </trkpt>
      <trkpt lat="43.566" lon="3.72603">
        <ele>70.5</ele>
        <time>2011-04-09T10:13:45Z</time>
      </trkpt>
      <trkpt lat="43.56604" lon="3.72607">
        <ele>70.7</ele>
        <time>2011-04-09T10:13:46Z</time>
      </trkpt>
      <trkpt lat="43.56608" lon="3.72612">
        <ele>70.8</ele>
        <time>2011-04-09T10:13:47Z</time>
      </trkpt>
      <trkpt lat="43.56612" lon="3.72616">
        <ele>70.5</ele>
        <time>2011-04-09T10:13:48Z</time>
      </trkpt>
      <trkpt lat="43.56616" lon="3.7262">
        <ele>70.3</ele>
        <time>2011-04-09T10:13:49Z</time>
      </trkpt>
      <trkpt lat="43.5662" lon="3.72625">
        <ele>70.1</ele>
        <time>2011-04-09T10:13:50Z</time>
      </trkpt>
      <trkpt lat="43.56625" lon="3.72629">
        <ele>69.8</ele>
        <time>2011-04-09T10:13:51Z</time>
      </trkpt>
      <trkpt lat="43.56629" lon="3.72633">
        <ele>69.6</ele>
        <time>2011-04-09T10:13:52Z</time>
      </trkpt>
      <trkpt lat="43.56633" lon="3.72636">
        <ele>69.4</ele>
        <time>2011-04-09T10:13:53Z</time>
      </trkpt>
      <trkpt lat="43.56638" lon="3.7264">
        <ele>69.5</ele>
        <time>2011-04-09T10:13:54Z</time>
      </trkpt>
      <trkpt lat="43.56642" lon="3.72645">
        <ele>69.5</ele>
        <time>2011-04-09T10:13:55Z</time>
      </trkpt>
      <trkpt lat="43.56646" lon="3.72649">
        <ele>69.5</ele>
        <time>2011-04-09T10:13:56Z</time>
      </trkpt>
      <trkpt lat="43.56651" lon="3.72653">
        <ele>69.5</ele>
        <time>2011-04-09T10:13:57Z</time>
      </trkpt>
      <trkpt lat="43.56655" lon="3.72658">
        <ele>69.4</ele>
        <time>2011-04-09T10:13:58Z</time>
      </trkpt>
      <trkpt lat="43.5666" lon="3.72663">
        <ele>69.3</ele>
        <time>2011-04-09T10:13:59Z</time>
      </trkpt>
      <trkpt lat="43.56665" lon="3.72668">
        <ele>69.3</ele>
        <time>2011-04-09T10:14:00Z</time>
      </trkpt>
      <trkpt lat="43.5667" lon="3.72673">
        <ele>69</ele>
        <time>2011-04-09T10:14:01Z</time>
      </trkpt>
      <trkpt lat="43.56676" lon="3.72678">
        <ele>68.8</ele>
        <time>2011-04-09T10:14:02Z</time>
      </trkpt>
      <trkpt lat="43.56681" lon="3.72683">
        <ele>68.6</ele>
        <time>2011-04-09T10:14:03Z</time>
      </trkpt>
      <trkpt lat="43.56686" lon="3.72688">
        <ele>68.1</ele>
        <time>2011-04-09T10:14:04Z</time>
      </trkpt>
      <trkpt lat="43.56691" lon="3.72694">
        <ele>67.7</ele>
        <time>2011-04-09T10:14:05Z</time>
      </trkpt>
      <trkpt lat="43.56696" lon="3.72699">
        <ele>67.4</ele>
        <time>2011-04-09T10:14:06Z</time>
      </trkpt>
      <trkpt lat="43.56702" lon="3.72704">
        <ele>67.5</ele>
        <time>2011-04-09T10:14:07Z</time>
      </trkpt>
      <trkpt lat="43.56707" lon="3.72709">
        <ele>67.6</ele>
        <time>2011-04-09T10:14:08Z</time>
      </trkpt>
      <trkpt lat="43.56712" lon="3.72714">
        <ele>67.7</ele>
        <time>2011-04-09T10:14:09Z</time>
      </trkpt>
      <trkpt lat="43.56717" lon="3.72719">
        <ele>67.5</ele>
        <time>2011-04-09T10:14:10Z</time>
      </trkpt>
      <trkpt lat="43.56721" lon="3.72724">
        <ele>67.3</ele>
        <time>2011-04-09T10:14:11Z</time>
      </trkpt>
      <trkpt lat="43.56726" lon="3.72729">
        <ele>67.2</ele>
        <time>2011-04-09T10:14:12Z</time>
      </trkpt>
      <trkpt lat="43.5673" lon="3.72734">
        <ele>67.1</ele>
        <time>2011-04-09T10:14:13Z</time>
      </trkpt>
      <trkpt lat="43.56735" lon="3.72739">
        <ele>66.9</ele>
        <time>2011-04-09T10:14:14Z</time>
      </trkpt>
      <trkpt lat="43.56739" lon="3.72744">
        <ele>66.8</ele>
        <time>2011-04-09T10:14:15Z</time>
      </trkpt>
      <trkpt lat="43.56743" lon="3.72749">
        <ele>66.7</ele>
        <time>2011-04-09T10:14:16Z</time>
      </trkpt>
      <trkpt lat="43.56747" lon="3.72754">
        <ele>67.1</ele>
        <time>2011-04-09T10:14:17Z</time>
      </trkpt>
      <trkpt lat="43.56751" lon="3.72758">
        <ele>67.4</ele>
        <time>2011-04-09T10:14:18Z</time>
      </trkpt>
      <trkpt lat="43.56755" lon="3.72762">
        <ele>67.6</ele>
        <time>2011-04-09T10:14:19Z</time>
      </trkpt>
      <trkpt lat="43.56758" lon="3.72767">
        <ele>67.8</ele>
        <time>2011-04-09T10:14:20Z</time>
      </trkpt>
      <trkpt lat="43.56762" lon="3.72771">
        <ele>67.9</ele>
        <time>2011-04-09T10:14:21Z</time>
      </trkpt>
      <trkpt lat="43.56766" lon="3.72776">
        <ele>68</ele>
        <time>2011-04-09T10:14:22Z</time>
      </trkpt>
      <trkpt lat="43.5677" lon="3.7278">
        <ele>67.8</ele>
        <time>2011-04-09T10:14:23Z</time>
      </trkpt>
      <trkpt lat="43.56773" lon="3.72785">
        <ele>67.7</ele>
        <time>2011-04-09T10:14:24Z</time>
      </trkpt>
      <trkpt lat="43.56777" lon="3.72789">
        <ele>67.6</ele>
        <time>2011-04-09T10:14:25Z</time>
      </trkpt>
      <trkpt lat="43.56781" lon="3.72794">
        <ele>67.7</ele>
        <time>2011-04-09T10:14:26Z</time>
      </trkpt>
      <trkpt lat="43.56784" lon="3.72798">
        <ele>67.8</ele>
        <time>2011-04-09T10:14:27Z</time>
      </trkpt>
      <trkpt lat="43.56787" lon="3.72803">
        <ele>67.9</ele>
        <time>2011-04-09T10:14:28Z</time>
      </trkpt>
      <trkpt lat="43.56791" lon="3.72808">
        <ele>68</ele>
        <time>2011-04-09T10:14:29Z</time>
      </trkpt>
      <trkpt lat="43.56794" lon="3.72813">
        <ele>68.2</ele>
        <time>2011-04-09T10:14:30Z</time>
      </trkpt>
      <trkpt lat="43.56797" lon="3.72818">
        <ele>68.4</ele>
        <time>2011-04-09T10:14:31Z</time>
      </trkpt>
      <trkpt lat="43.56801" lon="3.72823">
        <ele>68.5</ele>
        <time>2011-04-09T10:14:32Z</time>
      </trkpt>
      <trkpt lat="43.56804" lon="3.72828">
        <ele>68.8</ele>
        <time>2011-04-09T10:14:33Z</time>
      </trkpt>
      <trkpt lat="43.56808" lon="3.72833">
        <ele>69</ele>
        <time>2011-04-09T10:14:34Z</time>
      </trkpt>
      <trkpt lat="43.56811" lon="3.72838">
        <ele>69.1</ele>
        <time>2011-04-09T10:14:35Z</time>
      </trkpt>
      <trkpt lat="43.56814" lon="3.72842">
        <ele>69.5</ele>
        <time>2011-04-09T10:14:36Z</time>
      </trkpt>
      <trkpt lat="43.56817" lon="3.72847">
        <ele>69.8</ele>
        <time>2011-04-09T10:14:37Z</time>
      </trkpt>
      <trkpt lat="43.56821" lon="3.72852">
        <ele>70</ele>
        <time>2011-04-09T10:14:38Z</time>
      </trkpt>
      <trkpt lat="43.56824" lon="3.72856">
        <ele>70.1</ele>
        <time>2011-04-09T10:14:39Z</time>
      </trkpt>
      <trkpt lat="43.56827" lon="3.72861">
        <ele>70.2</ele>
        <time>2011-04-09T10:14:40Z</time>
      </trkpt>
      <trkpt lat="43.5683" lon="3.72866">
        <ele>70.3</ele>
        <time>2011-04-09T10:14:41Z</time>
      </trkpt>
      <trkpt lat="43.56833" lon="3.72871">
        <ele>70.3</ele>
        <time>2011-04-09T10:14:42Z</time>
      </trkpt>
      <trkpt lat="43.5684" lon="3.72878">
        <ele>70.3</ele>
        <time>2011-04-09T10:14:44Z</time>
      </trkpt>
      <trkpt lat="43.56847" lon="3.72884">
        <ele>70.9</ele>
        <time>2011-04-09T10:14:46Z</time>
      </trkpt>
      <trkpt lat="43.56853" lon="3.72892">
        <ele>71.6</ele>
        <time>2011-04-09T10:14:48Z</time>
      </trkpt>
      <trkpt lat="43.56859" lon="3.72901">
        <ele>71.8</ele>
        <time>2011-04-09T10:14:50Z</time>
      </trkpt>
      <trkpt lat="43.56862" lon="3.72906">
        <ele>71.8</ele>
        <time>2011-04-09T10:14:51Z</time>
      </trkpt>
      <trkpt lat="43.56864" lon="3.72911">
        <ele>71.9</ele>
        <time>2011-04-09T10:14:52Z</time>
      </trkpt>
      <trkpt lat="43.56867" lon="3.72916">
        <ele>71.9</ele>
        <time>2011-04-09T10:14:53Z</time>
      </trkpt>
      <trkpt lat="43.56869" lon="3.72922">
        <ele>71.9</ele>
        <time>2011-04-09T10:14:54Z</time>
      </trkpt>
      <trkpt lat="43.56872" lon="3.72927">
        <ele>71.7</ele>
        <time>2011-04-09T10:14:55Z</time>
      </trkpt>
      <trkpt lat="43.56876" lon="3.72932">
        <ele>71.5</ele>
        <time>2011-04-09T10:14:56Z</time>
      </trkpt>
      <trkpt lat="43.56879" lon="3.72937">
        <ele>71.4</ele>
        <time>2011-04-09T10:14:57Z</time>
      </trkpt>
      <trkpt lat="43.56882" lon="3.72942">
        <ele>71.6</ele>
        <time>2011-04-09T10:14:58Z</time>
      </trkpt>
      <trkpt lat="43.56885" lon="3.72947">
        <ele>71.7</ele>
        <time>2011-04-09T10:14:59Z</time>
      </trkpt>
      <trkpt lat="43.56888" lon="3.72952">
        <ele>71.8</ele>
        <time>2011-04-09T10:15:00Z</time>
      </trkpt>
      <trkpt lat="43.56891" lon="3.72957">
        <ele>71.8</ele>
        <time>2011-04-09T10:15:01Z</time>
      </trkpt>
      <trkpt lat="43.56894" lon="3.72962">
        <ele>71.6</ele>
        <time>2011-04-09T10:15:02Z</time>
      </trkpt>
      <trkpt lat="43.56897" lon="3.72967">
        <ele>71.5</ele>
        <time>2011-04-09T10:15:03Z</time>
      </trkpt>
      <trkpt lat="43.569" lon="3.72972">
        <ele>71.3</ele>
        <time>2011-04-09T10:15:04Z</time>
      </trkpt>
      <trkpt lat="43.56903" lon="3.72977">
        <ele>71.8</ele>
        <time>2011-04-09T10:15:05Z</time>
      </trkpt>
      <trkpt lat="43.56906" lon="3.72982">
        <ele>72.1</ele>
        <time>2011-04-09T10:15:06Z</time>
      </trkpt>
      <trkpt lat="43.56909" lon="3.72988">
        <ele>72.3</ele>
        <time>2011-04-09T10:15:07Z</time>
      </trkpt>
      <trkpt lat="43.56913" lon="3.72993">
        <ele>72.3</ele>
        <time>2011-04-09T10:15:08Z</time>
      </trkpt>
      <trkpt lat="43.56916" lon="3.72998">
        <ele>72.4</ele>
        <time>2011-04-09T10:15:09Z</time>
      </trkpt>
      <trkpt lat="43.56919" lon="3.73003">
        <ele>72.4</ele>
        <time>2011-04-09T10:15:10Z</time>
      </trkpt>
      <trkpt lat="43.56922" lon="3.73007">
        <ele>72.3</ele>
        <time>2011-04-09T10:15:11Z</time>
      </trkpt>
      <trkpt lat="43.56925" lon="3.73012">
        <ele>72.2</ele>
        <time>2011-04-09T10:15:12Z</time>
      </trkpt>
      <trkpt lat="43.56928" lon="3.73017">
        <ele>72.1</ele>
        <time>2011-04-09T10:15:13Z</time>
      </trkpt>
      <trkpt lat="43.56931" lon="3.73022">
        <ele>72.3</ele>
        <time>2011-04-09T10:15:14Z</time>
      </trkpt>
      <trkpt lat="43.56934" lon="3.73027">
        <ele>72.4</ele>
        <time>2011-04-09T10:15:15Z</time>
      </trkpt>
      <trkpt lat="43.56937" lon="3.73032">
        <ele>72.5</ele>
        <time>2011-04-09T10:15:16Z</time>
      </trkpt>
      <trkpt lat="43.5694" lon="3.73037">
        <ele>72.5</ele>
        <time>2011-04-09T10:15:17Z</time>
      </trkpt>
      <trkpt lat="43.56943" lon="3.73042">
        <ele>72.6</ele>
        <time>2011-04-09T10:15:18Z</time>
      </trkpt>
      <trkpt lat="43.56946" lon="3.73048">
        <ele>72.7</ele>
        <time>2011-04-09T10:15:19Z</time>
      </trkpt>
      <trkpt lat="43.56949" lon="3.73053">
        <ele>72.7</ele>
        <time>2011-04-09T10:15:20Z</time>
      </trkpt>
      <trkpt lat="43.56952" lon="3.73058">
        <ele>72.9</ele>
        <time>2011-04-09T10:15:21Z</time>
      </trkpt>
      <trkpt lat="43.56955" lon="3.73063">
        <ele>73</ele>
        <time>2011-04-09T10:15:22Z</time>
      </trkpt>
      <trkpt lat="43.56958" lon="3.73068">
        <ele>73.1</ele>
        <time>2011-04-09T10:15:23Z</time>
      </trkpt>
      <trkpt lat="43.56961" lon="3.73074">
        <ele>73</ele>
        <time>2011-04-09T10:15:24Z</time>
      </trkpt>
      <trkpt lat="43.56964" lon="3.73079">
        <ele>73</ele>
        <time>2011-04-09T10:15:25Z</time>
      </trkpt>
      <trkpt lat="43.56968" lon="3.73084">
        <ele>72.9</ele>
        <time>2011-04-09T10:15:26Z</time>
      </trkpt>
      <trkpt lat="43.56971" lon="3.73089">
        <ele>73</ele>
        <time>2011-04-09T10:15:27Z</time>
      </trkpt>
      <trkpt lat="43.56974" lon="3.73094">
        <ele>73.1</ele>
        <time>2011-04-09T10:15:28Z</time>
      </trkpt>
      <trkpt lat="43.56976" lon="3.73099">
        <ele>73.2</ele>
        <time>2011-04-09T10:15:29Z</time>
      </trkpt>
      <trkpt lat="43.56979" lon="3.73104">
        <ele>73.2</ele>
        <time>2011-04-09T10:15:30Z</time>
      </trkpt>
      <trkpt lat="43.56983" lon="3.7311">
        <ele>73.2</ele>
        <time>2011-04-09T10:15:31Z</time>
      </trkpt>
      <trkpt lat="43.56986" lon="3.73115">
        <ele>73.3</ele>
        <time>2011-04-09T10:15:32Z</time>
      </trkpt>
      <trkpt lat="43.56989" lon="3.7312">
        <ele>73.3</ele>
        <time>2011-04-09T10:15:33Z</time>
      </trkpt>
      <trkpt lat="43.56992" lon="3.73126">
        <ele>73.7</ele>
        <time>2011-04-09T10:15:34Z</time>
      </trkpt>
      <trkpt lat="43.56995" lon="3.73131">
        <ele>74</ele>
        <time>2011-04-09T10:15:35Z</time>
      </trkpt>
      <trkpt lat="43.56998" lon="3.73136">
        <ele>74.2</ele>
        <time>2011-04-09T10:15:36Z</time>
      </trkpt>
      <trkpt lat="43.57001" lon="3.73142">
        <ele>73.6</ele>
        <time>2011-04-09T10:15:37Z</time>
      </trkpt>
      <trkpt lat="43.57005" lon="3.73147">
        <ele>73.2</ele>
        <time>2011-04-09T10:15:38Z</time>
      </trkpt>
      <trkpt lat="43.57008" lon="3.73151">
        <ele>72.9</ele>
        <time>2011-04-09T10:15:39Z</time>
      </trkpt>
      <trkpt lat="43.57011" lon="3.73156">
        <ele>72.8</ele>
        <time>2011-04-09T10:15:40Z</time>
      </trkpt>
      <trkpt lat="43.57014" lon="3.73162">
        <ele>72.6</ele>
        <time>2011-04-09T10:15:41Z</time>
      </trkpt>
      <trkpt lat="43.57018" lon="3.73167">
        <ele>72.5</ele>
        <time>2011-04-09T10:15:42Z</time>
      </trkpt>
      <trkpt lat="43.57021" lon="3.73173">
        <ele>73</ele>
        <time>2011-04-09T10:15:43Z</time>
      </trkpt>
      <trkpt lat="43.57023" lon="3.73178">
        <ele>73.4</ele>
        <time>2011-04-09T10:15:44Z</time>
      </trkpt>
      <trkpt lat="43.57026" lon="3.73184">
        <ele>73.7</ele>
        <time>2011-04-09T10:15:45Z</time>
      </trkpt>
      <trkpt lat="43.57029" lon="3.73189">
        <ele>73.8</ele>
        <time>2011-04-09T10:15:46Z</time>
      </trkpt>
      <trkpt lat="43.57032" lon="3.73194">
        <ele>73.8</ele>
        <time>2011-04-09T10:15:47Z</time>
      </trkpt>
      <trkpt lat="43.57036" lon="3.732">
        <ele>73.9</ele>
        <time>2011-04-09T10:15:48Z</time>
      </trkpt>
      <trkpt lat="43.57039" lon="3.73205">
        <ele>73.6</ele>
        <time>2011-04-09T10:15:49Z</time>
      </trkpt>
      <trkpt lat="43.57042" lon="3.7321">
        <ele>73.3</ele>
        <time>2011-04-09T10:15:50Z</time>
      </trkpt>
      <trkpt lat="43.57045" lon="3.73216">
        <ele>73.1</ele>
        <time>2011-04-09T10:15:51Z</time>
      </trkpt>
      <trkpt lat="43.57049" lon="3.73221">
        <ele>73</ele>
        <time>2011-04-09T10:15:52Z</time>
      </trkpt>
      <trkpt lat="43.57052" lon="3.73227">
        <ele>73.1</ele>
        <time>2011-04-09T10:15:53Z</time>
      </trkpt>
      <trkpt lat="43.57055" lon="3.73232">
        <ele>73.2</ele>
        <time>2011-04-09T10:15:54Z</time>
      </trkpt>
      <trkpt lat="43.57058" lon="3.73238">
        <ele>73.3</ele>
        <time>2011-04-09T10:15:55Z</time>
      </trkpt>
      <trkpt lat="43.57061" lon="3.73243">
        <ele>73.3</ele>
        <time>2011-04-09T10:15:56Z</time>
      </trkpt>
      <trkpt lat="43.57064" lon="3.73249">
        <ele>73.3</ele>
        <time>2011-04-09T10:15:57Z</time>
      </trkpt>
      <trkpt lat="43.57068" lon="3.73254">
        <ele>73.3</ele>
        <time>2011-04-09T10:15:58Z</time>
      </trkpt>
      <trkpt lat="43.57071" lon="3.73259">
        <ele>73.2</ele>
        <time>2011-04-09T10:15:59Z</time>
      </trkpt>
      <trkpt lat="43.57075" lon="3.73264">
        <ele>73.1</ele>
        <time>2011-04-09T10:16:00Z</time>
      </trkpt>
      <trkpt lat="43.57078" lon="3.7327">
        <ele>73.1</ele>
        <time>2011-04-09T10:16:01Z</time>
      </trkpt>
      <trkpt lat="43.57081" lon="3.73275">
        <ele>73</ele>
        <time>2011-04-09T10:16:02Z</time>
      </trkpt>
      <trkpt lat="43.57084" lon="3.73281">
        <ele>73</ele>
        <time>2011-04-09T10:16:03Z</time>
      </trkpt>
      <trkpt lat="43.57087" lon="3.73287">
        <ele>72.9</ele>
        <time>2011-04-09T10:16:04Z</time>
      </trkpt>
      <trkpt lat="43.5709" lon="3.73293">
        <ele>73.1</ele>
        <time>2011-04-09T10:16:05Z</time>
      </trkpt>
      <trkpt lat="43.57094" lon="3.73298">
        <ele>73.2</ele>
        <time>2011-04-09T10:16:06Z</time>
      </trkpt>
      <trkpt lat="43.57097" lon="3.73304">
        <ele>73.3</ele>
        <time>2011-04-09T10:16:07Z</time>
      </trkpt>
      <trkpt lat="43.571" lon="3.7331">
        <ele>73.4</ele>
        <time>2011-04-09T10:16:08Z</time>
      </trkpt>
      <trkpt lat="43.57103" lon="3.73316">
        <ele>73.2</ele>
        <time>2011-04-09T10:16:09Z</time>
      </trkpt>
      <trkpt lat="43.57106" lon="3.73321">
        <ele>73</ele>
        <time>2011-04-09T10:16:10Z</time>
      </trkpt>
      <trkpt lat="43.57109" lon="3.73327">
        <ele>72.9</ele>
        <time>2011-04-09T10:16:11Z</time>
      </trkpt>
      <trkpt lat="43.57112" lon="3.73333">
        <ele>73</ele>
        <time>2011-04-09T10:16:12Z</time>
      </trkpt>
      <trkpt lat="43.57116" lon="3.73338">
        <ele>73.1</ele>
        <time>2011-04-09T10:16:13Z</time>
      </trkpt>
      <trkpt lat="43.57119" lon="3.73344">
        <ele>73.2</ele>
        <time>2011-04-09T10:16:14Z</time>
      </trkpt>
      <trkpt lat="43.57122" lon="3.7335">
        <ele>73.1</ele>
        <time>2011-04-09T10:16:15Z</time>
      </trkpt>
      <trkpt lat="43.57126" lon="3.73356">
        <ele>73</ele>
        <time>2011-04-09T10:16:16Z</time>
      </trkpt>
      <trkpt lat="43.57129" lon="3.73362">
        <ele>72.9</ele>
        <time>2011-04-09T10:16:17Z</time>
      </trkpt>
      <trkpt lat="43.57132" lon="3.73368">
        <ele>72.6</ele>
        <time>2011-04-09T10:16:18Z</time>
      </trkpt>
      <trkpt lat="43.57136" lon="3.73374">
        <ele>72.4</ele>
        <time>2011-04-09T10:16:19Z</time>
      </trkpt>
      <trkpt lat="43.5714" lon="3.73379">
        <ele>72.2</ele>
        <time>2011-04-09T10:16:20Z</time>
      </trkpt>
      <trkpt lat="43.57143" lon="3.73385">
        <ele>72.3</ele>
        <time>2011-04-09T10:16:21Z</time>
      </trkpt>
      <trkpt lat="43.57146" lon="3.73391">
        <ele>72.4</ele>
        <time>2011-04-09T10:16:22Z</time>
      </trkpt>
      <trkpt lat="43.5715" lon="3.73397">
        <ele>72.4</ele>
        <time>2011-04-09T10:16:23Z</time>
      </trkpt>
      <trkpt lat="43.57153" lon="3.73402">
        <ele>72.3</ele>
        <time>2011-04-09T10:16:24Z</time>
      </trkpt>
      <trkpt lat="43.57156" lon="3.73408">
        <ele>72.2</ele>
        <time>2011-04-09T10:16:25Z</time>
      </trkpt>
      <trkpt lat="43.57159" lon="3.73414">
        <ele>72.2</ele>
        <time>2011-04-09T10:16:26Z</time>
      </trkpt>
      <trkpt lat="43.57163" lon="3.7342">
        <ele>72.1</ele>
        <time>2011-04-09T10:16:27Z</time>
      </trkpt>
      <trkpt lat="43.57166" lon="3.73425">
        <ele>72</ele>
        <time>2011-04-09T10:16:28Z</time>
      </trkpt>
      <trkpt lat="43.57169" lon="3.73432">
        <ele>72</ele>
        <time>2011-04-09T10:16:29Z</time>
      </trkpt>
      <trkpt lat="43.57172" lon="3.73438">
        <ele>72</ele>
        <time>2011-04-09T10:16:30Z</time>
      </trkpt>
      <trkpt lat="43.57175" lon="3.73444">
        <ele>71.7</ele>
        <time>2011-04-09T10:16:31Z</time>
      </trkpt>
      <trkpt lat="43.57178" lon="3.7345">
        <ele>71.6</ele>
        <time>2011-04-09T10:16:32Z</time>
      </trkpt>
      <trkpt lat="43.57182" lon="3.73457">
        <ele>71.5</ele>
        <time>2011-04-09T10:16:33Z</time>
      </trkpt>
      <trkpt lat="43.57186" lon="3.73463">
        <ele>71.5</ele>
        <time>2011-04-09T10:16:34Z</time>
      </trkpt>
      <trkpt lat="43.57189" lon="3.73469">
        <ele>71.5</ele>
        <time>2011-04-09T10:16:35Z</time>
      </trkpt>
      <trkpt lat="43.57193" lon="3.73475">
        <ele>71.5</ele>
        <time>2011-04-09T10:16:36Z</time>
      </trkpt>
      <trkpt lat="43.57196" lon="3.73481">
        <ele>71.5</ele>
        <time>2011-04-09T10:16:37Z</time>
      </trkpt>
      <trkpt lat="43.572" lon="3.73487">
        <ele>71.4</ele>
        <time>2011-04-09T10:16:38Z</time>
      </trkpt>
      <trkpt lat="43.57203" lon="3.73494">
        <ele>71.4</ele>
        <time>2011-04-09T10:16:39Z</time>
      </trkpt>
      <trkpt lat="43.57206" lon="3.735">
        <ele>71.3</ele>
        <time>2011-04-09T10:16:40Z</time>
      </trkpt>
      <trkpt lat="43.57209" lon="3.73506">
        <ele>71.3</ele>
        <time>2011-04-09T10:16:41Z</time>
      </trkpt>
      <trkpt lat="43.57213" lon="3.73512">
        <ele>71.2</ele>
        <time>2011-04-09T10:16:42Z</time>
      </trkpt>
      <trkpt lat="43.57216" lon="3.73518">
        <ele>71.2</ele>
        <time>2011-04-09T10:16:43Z</time>
      </trkpt>
      <trkpt lat="43.57219" lon="3.73524">
        <ele>71.3</ele>
        <time>2011-04-09T10:16:44Z</time>
      </trkpt>
      <trkpt lat="43.57223" lon="3.73529">
        <ele>71.4</ele>
        <time>2011-04-09T10:16:45Z</time>
      </trkpt>
      <trkpt lat="43.57227" lon="3.73535">
        <ele>71.5</ele>
        <time>2011-04-09T10:16:46Z</time>
      </trkpt>
      <trkpt lat="43.57231" lon="3.73541">
        <ele>71.4</ele>
        <time>2011-04-09T10:16:47Z</time>
      </trkpt>
      <trkpt lat="43.57234" lon="3.73547">
        <ele>71.4</ele>
        <time>2011-04-09T10:16:48Z</time>
      </trkpt>
      <trkpt lat="43.57236" lon="3.73553">
        <ele>71.3</ele>
        <time>2011-04-09T10:16:49Z</time>
      </trkpt>
      <trkpt lat="43.57239" lon="3.73559">
        <ele>71.6</ele>
        <time>2011-04-09T10:16:50Z</time>
      </trkpt>
      <trkpt lat="43.57242" lon="3.73566">
        <ele>71.9</ele>
        <time>2011-04-09T10:16:51Z</time>
      </trkpt>
      <trkpt lat="43.57246" lon="3.73572">
        <ele>72</ele>
        <time>2011-04-09T10:16:52Z</time>
      </trkpt>
      <trkpt lat="43.57249" lon="3.73578">
        <ele>72</ele>
        <time>2011-04-09T10:16:53Z</time>
      </trkpt>
      <trkpt lat="43.57252" lon="3.73585">
        <ele>72</ele>
        <time>2011-04-09T10:16:54Z</time>
      </trkpt>
      <trkpt lat="43.57256" lon="3.73591">
        <ele>72</ele>
        <time>2011-04-09T10:16:55Z</time>
      </trkpt>
      <trkpt lat="43.57259" lon="3.73597">
        <ele>72</ele>
        <time>2011-04-09T10:16:56Z</time>
      </trkpt>
      <trkpt lat="43.57262" lon="3.73604">
        <ele>72</ele>
        <time>2011-04-09T10:16:57Z</time>
      </trkpt>
      <trkpt lat="43.57266" lon="3.7361">
        <ele>72</ele>
        <time>2011-04-09T10:16:58Z</time>
      </trkpt>
      <trkpt lat="43.57269" lon="3.73616">
        <ele>72.1</ele>
        <time>2011-04-09T10:16:59Z</time>
      </trkpt>
      <trkpt lat="43.57272" lon="3.73623">
        <ele>72</ele>
        <time>2011-04-09T10:17:00Z</time>
      </trkpt>
      <trkpt lat="43.57276" lon="3.73629">
        <ele>71.9</ele>
        <time>2011-04-09T10:17:01Z</time>
      </trkpt>
      <trkpt lat="43.57279" lon="3.73636">
        <ele>71.8</ele>
        <time>2011-04-09T10:17:02Z</time>
      </trkpt>
      <trkpt lat="43.57283" lon="3.73642">
        <ele>71.6</ele>
        <time>2011-04-09T10:17:03Z</time>
      </trkpt>
      <trkpt lat="43.57286" lon="3.73648">
        <ele>71.4</ele>
        <time>2011-04-09T10:17:04Z</time>
      </trkpt>
      <trkpt lat="43.5729" lon="3.73654">
        <ele>71.2</ele>
        <time>2011-04-09T10:17:05Z</time>
      </trkpt>
      <trkpt lat="43.57293" lon="3.7366">
        <ele>71.3</ele>
        <time>2011-04-09T10:17:06Z</time>
      </trkpt>
      <trkpt lat="43.57297" lon="3.73666">
        <ele>71.3</ele>
        <time>2011-04-09T10:17:07Z</time>
      </trkpt>
      <trkpt lat="43.573" lon="3.73672">
        <ele>71.3</ele>
        <time>2011-04-09T10:17:08Z</time>
      </trkpt>
      <trkpt lat="43.57303" lon="3.73678">
        <ele>71.6</ele>
        <time>2011-04-09T10:17:09Z</time>
      </trkpt>
      <trkpt lat="43.57307" lon="3.73685">
        <ele>71.7</ele>
        <time>2011-04-09T10:17:10Z</time>
      </trkpt>
      <trkpt lat="43.5731" lon="3.73691">
        <ele>71.9</ele>
        <time>2011-04-09T10:17:11Z</time>
      </trkpt>
      <trkpt lat="43.57314" lon="3.73697">
        <ele>71.9</ele>
        <time>2011-04-09T10:17:12Z</time>
      </trkpt>
      <trkpt lat="43.57317" lon="3.73703">
        <ele>72</ele>
        <time>2011-04-09T10:17:13Z</time>
      </trkpt>
      <trkpt lat="43.57321" lon="3.7371">
        <ele>72</ele>
        <time>2011-04-09T10:17:14Z</time>
      </trkpt>
      <trkpt lat="43.57324" lon="3.73716">
        <ele>72.1</ele>
        <time>2011-04-09T10:17:15Z</time>
      </trkpt>
      <trkpt lat="43.57327" lon="3.73722">
        <ele>71.8</ele>
        <time>2011-04-09T10:17:16Z</time>
      </trkpt>
      <trkpt lat="43.57331" lon="3.73728">
        <ele>71.7</ele>
        <time>2011-04-09T10:17:17Z</time>
      </trkpt>
      <trkpt lat="43.57334" lon="3.73735">
        <ele>71.5</ele>
        <time>2011-04-09T10:17:18Z</time>
      </trkpt>
      <trkpt lat="43.57338" lon="3.73741">
        <ele>71.7</ele>
        <time>2011-04-09T10:17:19Z</time>
      </trkpt>
      <trkpt lat="43.57341" lon="3.73747">
        <ele>71.8</ele>
        <time>2011-04-09T10:17:20Z</time>
      </trkpt>
      <trkpt lat="43.57345" lon="3.73753">
        <ele>71.9</ele>
        <time>2011-04-09T10:17:21Z</time>
      </trkpt>
      <trkpt lat="43.57348" lon="3.73759">
        <ele>71.9</ele>
        <time>2011-04-09T10:17:22Z</time>
      </trkpt>
      <trkpt lat="43.57352" lon="3.73765">
        <ele>71.9</ele>
        <time>2011-04-09T10:17:23Z</time>
      </trkpt>
      <trkpt lat="43.57355" lon="3.73771">
        <ele>71.9</ele>
        <time>2011-04-09T10:17:24Z</time>
      </trkpt>
      <trkpt lat="43.57359" lon="3.73777">
        <ele>71.9</ele>
        <time>2011-04-09T10:17:25Z</time>
      </trkpt>
      <trkpt lat="43.57362" lon="3.73783">
        <ele>71.9</ele>
        <time>2011-04-09T10:17:26Z</time>
      </trkpt>
      <trkpt lat="43.57366" lon="3.73789">
        <ele>71.9</ele>
        <time>2011-04-09T10:17:27Z</time>
      </trkpt>
      <trkpt lat="43.5737" lon="3.73796">
        <ele>71.8</ele>
        <time>2011-04-09T10:17:28Z</time>
      </trkpt>
      <trkpt lat="43.57373" lon="3.73802">
        <ele>71.8</ele>
        <time>2011-04-09T10:17:29Z</time>
      </trkpt>
      <trkpt lat="43.57377" lon="3.73808">
        <ele>71.8</ele>
        <time>2011-04-09T10:17:30Z</time>
      </trkpt>
      <trkpt lat="43.5738" lon="3.73815">
        <ele>71.8</ele>
        <time>2011-04-09T10:17:31Z</time>
      </trkpt>
      <trkpt lat="43.57384" lon="3.73821">
        <ele>71.6</ele>
        <time>2011-04-09T10:17:32Z</time>
      </trkpt>
      <trkpt lat="43.57387" lon="3.73827">
        <ele>71.4</ele>
        <time>2011-04-09T10:17:33Z</time>
      </trkpt>
      <trkpt lat="43.57391" lon="3.73834">
        <ele>71.3</ele>
        <time>2011-04-09T10:17:34Z</time>
      </trkpt>
      <trkpt lat="43.57394" lon="3.7384">
        <ele>71.3</ele>
        <time>2011-04-09T10:17:35Z</time>
      </trkpt>
      <trkpt lat="43.57397" lon="3.73847">
        <ele>71.4</ele>
        <time>2011-04-09T10:17:36Z</time>
      </trkpt>
      <trkpt lat="43.57401" lon="3.73853">
        <ele>71.4</ele>
        <time>2011-04-09T10:17:37Z</time>
      </trkpt>
      <trkpt lat="43.57405" lon="3.73859">
        <ele>71.5</ele>
        <time>2011-04-09T10:17:38Z</time>
      </trkpt>
      <trkpt lat="43.57409" lon="3.73865">
        <ele>71.6</ele>
        <time>2011-04-09T10:17:39Z</time>
      </trkpt>
      <trkpt lat="43.57412" lon="3.73872">
        <ele>71.6</ele>
        <time>2011-04-09T10:17:40Z</time>
      </trkpt>
      <trkpt lat="43.57416" lon="3.73878">
        <ele>71.5</ele>
        <time>2011-04-09T10:17:41Z</time>
      </trkpt>
      <trkpt lat="43.57419" lon="3.73884">
        <ele>71.5</ele>
        <time>2011-04-09T10:17:42Z</time>
      </trkpt>
      <trkpt lat="43.57423" lon="3.73891">
        <ele>71.4</ele>
        <time>2011-04-09T10:17:43Z</time>
      </trkpt>
      <trkpt lat="43.57426" lon="3.73897">
        <ele>71.3</ele>
        <time>2011-04-09T10:17:44Z</time>
      </trkpt>
      <trkpt lat="43.5743" lon="3.73903">
        <ele>71.3</ele>
        <time>2011-04-09T10:17:45Z</time>
      </trkpt>
      <trkpt lat="43.57434" lon="3.73909">
        <ele>71.3</ele>
        <time>2011-04-09T10:17:46Z</time>
      </trkpt>
      <trkpt lat="43.57437" lon="3.73916">
        <ele>71.2</ele>
        <time>2011-04-09T10:17:47Z</time>
      </trkpt>
      <trkpt lat="43.5744" lon="3.73923">
        <ele>71.6</ele>
        <time>2011-04-09T10:17:48Z</time>
      </trkpt>
      <trkpt lat="43.57443" lon="3.73929">
        <ele>71.9</ele>
        <time>2011-04-09T10:17:49Z</time>
      </trkpt>
      <trkpt lat="43.57447" lon="3.73936">
        <ele>72.2</ele>
        <time>2011-04-09T10:17:50Z</time>
      </trkpt>
      <trkpt lat="43.57451" lon="3.73942">
        <ele>72.1</ele>
        <time>2011-04-09T10:17:51Z</time>
      </trkpt>
      <trkpt lat="43.57455" lon="3.73948">
        <ele>72.1</ele>
        <time>2011-04-09T10:17:52Z</time>
      </trkpt>
      <trkpt lat="43.57458" lon="3.73954">
        <ele>72.1</ele>
        <time>2011-04-09T10:17:53Z</time>
      </trkpt>
      <trkpt lat="43.57462" lon="3.73959">
        <ele>72</ele>
        <time>2011-04-09T10:17:54Z</time>
      </trkpt>
      <trkpt lat="43.57466" lon="3.73965">
        <ele>71.9</ele>
        <time>2011-04-09T10:17:55Z</time>
      </trkpt>
      <trkpt lat="43.5747" lon="3.7397">
        <ele>71.8</ele>
        <time>2011-04-09T10:17:56Z</time>
      </trkpt>
      <trkpt lat="43.57474" lon="3.73976">
        <ele>71.6</ele>
        <time>2011-04-09T10:17:57Z</time>
      </trkpt>
      <trkpt lat="43.57478" lon="3.73981">
        <ele>71.4</ele>
        <time>2011-04-09T10:17:58Z</time>
      </trkpt>
      <trkpt lat="43.57482" lon="3.73987">
        <ele>71.3</ele>
        <time>2011-04-09T10:17:59Z</time>
      </trkpt>
      <trkpt lat="43.57486" lon="3.73992">
        <ele>71.1</ele>
        <time>2011-04-09T10:18:00Z</time>
      </trkpt>
      <trkpt lat="43.5749" lon="3.73997">
        <ele>71</ele>
        <time>2011-04-09T10:18:01Z</time>
      </trkpt>
      <trkpt lat="43.57494" lon="3.74002">
        <ele>70.9</ele>
        <time>2011-04-09T10:18:02Z</time>
      </trkpt>
      <trkpt lat="43.57499" lon="3.74007">
        <ele>70.8</ele>
        <time>2011-04-09T10:18:03Z</time>
      </trkpt>
      <trkpt lat="43.57503" lon="3.74012">
        <ele>70.8</ele>
        <time>2011-04-09T10:18:04Z</time>
      </trkpt>
      <trkpt lat="43.57507" lon="3.74017">
        <ele>70.9</ele>
        <time>2011-04-09T10:18:05Z</time>
      </trkpt>
      <trkpt lat="43.57511" lon="3.74023">
        <ele>70.9</ele>
        <time>2011-04-09T10:18:06Z</time>
      </trkpt>
      <trkpt lat="43.57515" lon="3.74028">
        <ele>71.4</ele>
        <time>2011-04-09T10:18:07Z</time>
      </trkpt>
      <trkpt lat="43.5752" lon="3.74033">
        <ele>71.8</ele>
        <time>2011-04-09T10:18:08Z</time>
      </trkpt>
      <trkpt lat="43.57524" lon="3.74038">
        <ele>72</ele>
        <time>2011-04-09T10:18:09Z</time>
      </trkpt>
      <trkpt lat="43.57528" lon="3.74043">
        <ele>72</ele>
        <time>2011-04-09T10:18:10Z</time>
      </trkpt>
      <trkpt lat="43.57532" lon="3.74047">
        <ele>71.9</ele>
        <time>2011-04-09T10:18:11Z</time>
      </trkpt>
      <trkpt lat="43.57537" lon="3.74052">
        <ele>71.9</ele>
        <time>2011-04-09T10:18:12Z</time>
      </trkpt>
      <trkpt lat="43.57541" lon="3.74057">
        <ele>72</ele>
        <time>2011-04-09T10:18:13Z</time>
      </trkpt>
      <trkpt lat="43.57546" lon="3.74062">
        <ele>72.1</ele>
        <time>2011-04-09T10:18:14Z</time>
      </trkpt>
      <trkpt lat="43.5755" lon="3.74067">
        <ele>72.2</ele>
        <time>2011-04-09T10:18:15Z</time>
      </trkpt>
      <trkpt lat="43.57554" lon="3.74072">
        <ele>71.8</ele>
        <time>2011-04-09T10:18:16Z</time>
      </trkpt>
      <trkpt lat="43.57559" lon="3.74077">
        <ele>71.5</ele>
        <time>2011-04-09T10:18:17Z</time>
      </trkpt>
      <trkpt lat="43.57564" lon="3.74082">
        <ele>71.3</ele>
        <time>2011-04-09T10:18:18Z</time>
      </trkpt>
      <trkpt lat="43.57569" lon="3.74087">
        <ele>71.5</ele>
        <time>2011-04-09T10:18:19Z</time>
      </trkpt>
      <trkpt lat="43.57573" lon="3.74093">
        <ele>71.6</ele>
        <time>2011-04-09T10:18:20Z</time>
      </trkpt>
      <trkpt lat="43.57578" lon="3.74098">
        <ele>71.7</ele>
        <time>2011-04-09T10:18:21Z</time>
      </trkpt>
      <trkpt lat="43.57583" lon="3.74103">
        <ele>71.8</ele>
        <time>2011-04-09T10:18:22Z</time>
      </trkpt>
      <trkpt lat="43.57588" lon="3.74108">
        <ele>71.7</ele>
        <time>2011-04-09T10:18:23Z</time>
      </trkpt>
      <trkpt lat="43.57593" lon="3.74112">
        <ele>71.6</ele>
        <time>2011-04-09T10:18:24Z</time>
      </trkpt>
      <trkpt lat="43.57598" lon="3.74118">
        <ele>71.6</ele>
        <time>2011-04-09T10:18:25Z</time>
      </trkpt>
      <trkpt lat="43.57602" lon="3.74123">
        <ele>71.6</ele>
        <time>2011-04-09T10:18:26Z</time>
      </trkpt>
      <trkpt lat="43.57607" lon="3.74128">
        <ele>71.6</ele>
        <time>2011-04-09T10:18:27Z</time>
      </trkpt>
      <trkpt lat="43.57611" lon="3.74133">
        <ele>71.6</ele>
        <time>2011-04-09T10:18:28Z</time>
      </trkpt>
      <trkpt lat="43.57616" lon="3.74138">
        <ele>71.9</ele>
        <time>2011-04-09T10:18:29Z</time>
      </trkpt>
      <trkpt lat="43.57621" lon="3.74144">
        <ele>72.1</ele>
        <time>2011-04-09T10:18:30Z</time>
      </trkpt>
      <trkpt lat="43.57626" lon="3.74149">
        <ele>72.3</ele>
        <time>2011-04-09T10:18:31Z</time>
      </trkpt>
      <trkpt lat="43.5763" lon="3.74154">
        <ele>72.1</ele>
        <time>2011-04-09T10:18:32Z</time>
      </trkpt>
      <trkpt lat="43.57635" lon="3.74159">
        <ele>71.9</ele>
        <time>2011-04-09T10:18:33Z</time>
      </trkpt>
      <trkpt lat="43.5764" lon="3.74164">
        <ele>71.8</ele>
        <time>2011-04-09T10:18:34Z</time>
      </trkpt>
      <trkpt lat="43.57645" lon="3.74169">
        <ele>72</ele>
        <time>2011-04-09T10:18:35Z</time>
      </trkpt>
      <trkpt lat="43.57649" lon="3.74174">
        <ele>72.2</ele>
        <time>2011-04-09T10:18:36Z</time>
      </trkpt>
      <trkpt lat="43.57654" lon="3.74179">
        <ele>72.3</ele>
        <time>2011-04-09T10:18:37Z</time>
      </trkpt>
      <trkpt lat="43.57659" lon="3.74184">
        <ele>72.4</ele>
        <time>2011-04-09T10:18:38Z</time>
      </trkpt>
      <trkpt lat="43.57664" lon="3.7419">
        <ele>72.2</ele>
        <time>2011-04-09T10:18:39Z</time>
      </trkpt>
      <trkpt lat="43.57668" lon="3.74195">
        <ele>72.1</ele>
        <time>2011-04-09T10:18:40Z</time>
      </trkpt>
      <trkpt lat="43.57673" lon="3.742">
        <ele>72</ele>
        <time>2011-04-09T10:18:41Z</time>
      </trkpt>
      <trkpt lat="43.57678" lon="3.74205">
        <ele>71.6</ele>
        <time>2011-04-09T10:18:42Z</time>
      </trkpt>
      <trkpt lat="43.57683" lon="3.7421">
        <ele>71.4</ele>
        <time>2011-04-09T10:18:43Z</time>
      </trkpt>
      <trkpt lat="43.57687" lon="3.74215">
        <ele>71.2</ele>
        <time>2011-04-09T10:18:44Z</time>
      </trkpt>
      <trkpt lat="43.57692" lon="3.7422">
        <ele>71.4</ele>
        <time>2011-04-09T10:18:45Z</time>
      </trkpt>
      <trkpt lat="43.57697" lon="3.74226">
        <ele>71.6</ele>
        <time>2011-04-09T10:18:46Z</time>
      </trkpt>
      <trkpt lat="43.57702" lon="3.74231">
        <ele>71.7</ele>
        <time>2011-04-09T10:18:47Z</time>
      </trkpt>
      <trkpt lat="43.57706" lon="3.74236">
        <ele>71.6</ele>
        <time>2011-04-09T10:18:48Z</time>
      </trkpt>
      <trkpt lat="43.57711" lon="3.74242">
        <ele>71.5</ele>
        <time>2011-04-09T10:18:49Z</time>
      </trkpt>
      <trkpt lat="43.57716" lon="3.74247">
        <ele>71.4</ele>
        <time>2011-04-09T10:18:50Z</time>
      </trkpt>
      <trkpt lat="43.57721" lon="3.74252">
        <ele>71.4</ele>
        <time>2011-04-09T10:18:51Z</time>
      </trkpt>
      <trkpt lat="43.57725" lon="3.74257">
        <ele>71.3</ele>
        <time>2011-04-09T10:18:52Z</time>
      </trkpt>
      <trkpt lat="43.5773" lon="3.74263">
        <ele>71.3</ele>
        <time>2011-04-09T10:18:53Z</time>
      </trkpt>
      <trkpt lat="43.57735" lon="3.74268">
        <ele>71.3</ele>
        <time>2011-04-09T10:18:54Z</time>
      </trkpt>
      <trkpt lat="43.57739" lon="3.74273">
        <ele>71.2</ele>
        <time>2011-04-09T10:18:55Z</time>
      </trkpt>
      <trkpt lat="43.57744" lon="3.74278">
        <ele>71.1</ele>
        <time>2011-04-09T10:18:56Z</time>
      </trkpt>
      <trkpt lat="43.57748" lon="3.74284">
        <ele>71.1</ele>
        <time>2011-04-09T10:18:57Z</time>
      </trkpt>
      <trkpt lat="43.57753" lon="3.74289">
        <ele>71.4</ele>
        <time>2011-04-09T10:18:58Z</time>
      </trkpt>
      <trkpt lat="43.57758" lon="3.74294">
        <ele>71.6</ele>
        <time>2011-04-09T10:18:59Z</time>
      </trkpt>
      <trkpt lat="43.57762" lon="3.74299">
        <ele>71.8</ele>
        <time>2011-04-09T10:19:00Z</time>
      </trkpt>
      <trkpt lat="43.57767" lon="3.74305">
        <ele>71.2</ele>
        <time>2011-04-09T10:19:01Z</time>
      </trkpt>
      <trkpt lat="43.57771" lon="3.7431">
        <ele>70.8</ele>
        <time>2011-04-09T10:19:02Z</time>
      </trkpt>
      <trkpt lat="43.57776" lon="3.74315">
        <ele>70.5</ele>
        <time>2011-04-09T10:19:03Z</time>
      </trkpt>
      <trkpt lat="43.5778" lon="3.7432">
        <ele>70.5</ele>
        <time>2011-04-09T10:19:04Z</time>
      </trkpt>
      <trkpt lat="43.57785" lon="3.74326">
        <ele>70.6</ele>
        <time>2011-04-09T10:19:05Z</time>
      </trkpt>
      <trkpt lat="43.57789" lon="3.74331">
        <ele>70.6</ele>
        <time>2011-04-09T10:19:06Z</time>
      </trkpt>
      <trkpt lat="43.57794" lon="3.74337">
        <ele>70.3</ele>
        <time>2011-04-09T10:19:07Z</time>
      </trkpt>
      <trkpt lat="43.57798" lon="3.74342">
        <ele>70.1</ele>
        <time>2011-04-09T10:19:08Z</time>
      </trkpt>
      <trkpt lat="43.57802" lon="3.74348">
        <ele>70</ele>
        <time>2011-04-09T10:19:09Z</time>
      </trkpt>
      <trkpt lat="43.57806" lon="3.74353">
        <ele>69.9</ele>
        <time>2011-04-09T10:19:10Z</time>
      </trkpt>
      <trkpt lat="43.57811" lon="3.74358">
        <ele>70</ele>
        <time>2011-04-09T10:19:11Z</time>
      </trkpt>
      <trkpt lat="43.57815" lon="3.74364">
        <ele>70.2</ele>
        <time>2011-04-09T10:19:12Z</time>
      </trkpt>
      <trkpt lat="43.57819" lon="3.7437">
        <ele>70.3</ele>
        <time>2011-04-09T10:19:13Z</time>
      </trkpt>
      <trkpt lat="43.57823" lon="3.74376">
        <ele>70.6</ele>
        <time>2011-04-09T10:19:14Z</time>
      </trkpt>
      <trkpt lat="43.57827" lon="3.74382">
        <ele>70.8</ele>
        <time>2011-04-09T10:19:15Z</time>
      </trkpt>
      <trkpt lat="43.57831" lon="3.74387">
        <ele>71</ele>
        <time>2011-04-09T10:19:16Z</time>
      </trkpt>
      <trkpt lat="43.57835" lon="3.74393">
        <ele>70.9</ele>
        <time>2011-04-09T10:19:17Z</time>
      </trkpt>
      <trkpt lat="43.57838" lon="3.74399">
        <ele>70.9</ele>
        <time>2011-04-09T10:19:18Z</time>
      </trkpt>
      <trkpt lat="43.57842" lon="3.74405">
        <ele>70.8</ele>
        <time>2011-04-09T10:19:19Z</time>
      </trkpt>
      <trkpt lat="43.57845" lon="3.74411">
        <ele>70.9</ele>
        <time>2011-04-09T10:19:20Z</time>
      </trkpt>
      <trkpt lat="43.57848" lon="3.74417">
        <ele>70.9</ele>
        <time>2011-04-09T10:19:21Z</time>
      </trkpt>
      <trkpt lat="43.57852" lon="3.74423">
        <ele>70.9</ele>
        <time>2011-04-09T10:19:22Z</time>
      </trkpt>
      <trkpt lat="43.57855" lon="3.7443">
        <ele>70.8</ele>
        <time>2011-04-09T10:19:23Z</time>
      </trkpt>
      <trkpt lat="43.57858" lon="3.74436">
        <ele>70.7</ele>
        <time>2011-04-09T10:19:24Z</time>
      </trkpt>
      <trkpt lat="43.57861" lon="3.74442">
        <ele>70.7</ele>
        <time>2011-04-09T10:19:25Z</time>
      </trkpt>
      <trkpt lat="43.57864" lon="3.74448">
        <ele>70.6</ele>
        <time>2011-04-09T10:19:26Z</time>
      </trkpt>
      <trkpt lat="43.57867" lon="3.74454">
        <ele>70.6</ele>
        <time>2011-04-09T10:19:27Z</time>
      </trkpt>
      <trkpt lat="43.5787" lon="3.7446">
        <ele>70.5</ele>
        <time>2011-04-09T10:19:28Z</time>
      </trkpt>
      <trkpt lat="43.57873" lon="3.74466">
        <ele>70.5</ele>
        <time>2011-04-09T10:19:29Z</time>
      </trkpt>
      <trkpt lat="43.57876" lon="3.74473">
        <ele>70.3</ele>
        <time>2011-04-09T10:19:30Z</time>
      </trkpt>
      <trkpt lat="43.57879" lon="3.74479">
        <ele>70.1</ele>
        <time>2011-04-09T10:19:31Z</time>
      </trkpt>
      <trkpt lat="43.57882" lon="3.74485">
        <ele>70</ele>
        <time>2011-04-09T10:19:32Z</time>
      </trkpt>
      <trkpt lat="43.57885" lon="3.74491">
        <ele>70.1</ele>
        <time>2011-04-09T10:19:33Z</time>
      </trkpt>
      <trkpt lat="43.57888" lon="3.74497">
        <ele>70.2</ele>
        <time>2011-04-09T10:19:34Z</time>
      </trkpt>
      <trkpt lat="43.57891" lon="3.74504">
        <ele>70.2</ele>
        <time>2011-04-09T10:19:35Z</time>
      </trkpt>
      <trkpt lat="43.57894" lon="3.7451">
        <ele>69.9</ele>
        <time>2011-04-09T10:19:36Z</time>
      </trkpt>
      <trkpt lat="43.57897" lon="3.74517">
        <ele>69.7</ele>
        <time>2011-04-09T10:19:37Z</time>
      </trkpt>
      <trkpt lat="43.579" lon="3.74523">
        <ele>69.5</ele>
        <time>2011-04-09T10:19:38Z</time>
      </trkpt>
      <trkpt lat="43.57903" lon="3.74529">
        <ele>69.6</ele>
        <time>2011-04-09T10:19:39Z</time>
      </trkpt>
      <trkpt lat="43.57906" lon="3.74536">
        <ele>69.6</ele>
        <time>2011-04-09T10:19:40Z</time>
      </trkpt>
      <trkpt lat="43.5791" lon="3.74542">
        <ele>69.7</ele>
        <time>2011-04-09T10:19:41Z</time>
      </trkpt>
      <trkpt lat="43.57913" lon="3.74548">
        <ele>69.7</ele>
        <time>2011-04-09T10:19:42Z</time>
      </trkpt>
      <trkpt lat="43.57916" lon="3.74555">
        <ele>69.7</ele>
        <time>2011-04-09T10:19:43Z</time>
      </trkpt>
      <trkpt lat="43.57919" lon="3.74561">
        <ele>69.8</ele>
        <time>2011-04-09T10:19:44Z</time>
      </trkpt>
      <trkpt lat="43.57922" lon="3.74568">
        <ele>69.8</ele>
        <time>2011-04-09T10:19:45Z</time>
      </trkpt>
      <trkpt lat="43.57924" lon="3.74574">
        <ele>70.1</ele>
        <time>2011-04-09T10:19:46Z</time>
      </trkpt>
      <trkpt lat="43.57927" lon="3.74581">
        <ele>70.4</ele>
        <time>2011-04-09T10:19:47Z</time>
      </trkpt>
      <trkpt lat="43.5793" lon="3.74587">
        <ele>70.5</ele>
        <time>2011-04-09T10:19:48Z</time>
      </trkpt>
      <trkpt lat="43.57933" lon="3.74594">
        <ele>70.5</ele>
        <time>2011-04-09T10:19:49Z</time>
      </trkpt>
      <trkpt lat="43.57936" lon="3.746">
        <ele>70.5</ele>
        <time>2011-04-09T10:19:50Z</time>
      </trkpt>
      <trkpt lat="43.57939" lon="3.74607">
        <ele>70.5</ele>
        <time>2011-04-09T10:19:51Z</time>
      </trkpt>
      <trkpt lat="43.57942" lon="3.74613">
        <ele>70.6</ele>
        <time>2011-04-09T10:19:52Z</time>
      </trkpt>
      <trkpt lat="43.57945" lon="3.7462">
        <ele>70.7</ele>
        <time>2011-04-09T10:19:53Z</time>
      </trkpt>
      <trkpt lat="43.57948" lon="3.74626">
        <ele>70.8</ele>
        <time>2011-04-09T10:19:54Z</time>
      </trkpt>
      <trkpt lat="43.57951" lon="3.74632">
        <ele>70.7</ele>
        <time>2011-04-09T10:19:55Z</time>
      </trkpt>
      <trkpt lat="43.57953" lon="3.74638">
        <ele>70.7</ele>
        <time>2011-04-09T10:19:56Z</time>
      </trkpt>
      <trkpt lat="43.57956" lon="3.74644">
        <ele>70.7</ele>
        <time>2011-04-09T10:19:57Z</time>
      </trkpt>
      <trkpt lat="43.57959" lon="3.7465">
        <ele>70.6</ele>
        <time>2011-04-09T10:19:58Z</time>
      </trkpt>
      <trkpt lat="43.57962" lon="3.74656">
        <ele>70.5</ele>
        <time>2011-04-09T10:19:59Z</time>
      </trkpt>
      <trkpt lat="43.57964" lon="3.74662">
        <ele>70.4</ele>
        <time>2011-04-09T10:20:00Z</time>
      </trkpt>
      <trkpt lat="43.57967" lon="3.74668">
        <ele>70.4</ele>
        <time>2011-04-09T10:20:01Z</time>
      </trkpt>
      <trkpt lat="43.5797" lon="3.74675">
        <ele>70.3</ele>
        <time>2011-04-09T10:20:02Z</time>
      </trkpt>
      <trkpt lat="43.57973" lon="3.74681">
        <ele>70.3</ele>
        <time>2011-04-09T10:20:03Z</time>
      </trkpt>
      <trkpt lat="43.57976" lon="3.74688">
        <ele>70.3</ele>
        <time>2011-04-09T10:20:04Z</time>
      </trkpt>
      <trkpt lat="43.57979" lon="3.74694">
        <ele>70.3</ele>
        <time>2011-04-09T10:20:05Z</time>
      </trkpt>
      <trkpt lat="43.57982" lon="3.74701">
        <ele>70.2</ele>
        <time>2011-04-09T10:20:06Z</time>
      </trkpt>
      <trkpt lat="43.57985" lon="3.74707">
        <ele>70.2</ele>
        <time>2011-04-09T10:20:07Z</time>
      </trkpt>
      <trkpt lat="43.57988" lon="3.74713">
        <ele>69.8</ele>
        <time>2011-04-09T10:20:08Z</time>
      </trkpt>
      <trkpt lat="43.57991" lon="3.7472">
        <ele>69.4</ele>
        <time>2011-04-09T10:20:09Z</time>
      </trkpt>
      <trkpt lat="43.57994" lon="3.74726">
        <ele>69.2</ele>
        <time>2011-04-09T10:20:10Z</time>
      </trkpt>
      <trkpt lat="43.57997" lon="3.74732">
        <ele>69.2</ele>
        <time>2011-04-09T10:20:11Z</time>
      </trkpt>
      <trkpt lat="43.58002" lon="3.74742">
        <ele>69.2</ele>
        <time>2011-04-09T10:20:13Z</time>
      </trkpt>
      <trkpt lat="43.58006" lon="3.74752">
        <ele>68.6</ele>
        <time>2011-04-09T10:20:15Z</time>
      </trkpt>
      <trkpt lat="43.58009" lon="3.74761">
        <ele>68.3</ele>
        <time>2011-04-09T10:20:17Z</time>
      </trkpt>
      <trkpt lat="43.58015" lon="3.74771">
        <ele>68.4</ele>
        <time>2011-04-09T10:21:11Z</time>
      </trkpt>
      <trkpt lat="43.58015" lon="3.74771">
        <ele>68.9</ele>
        <time>2011-04-09T10:21:12Z</time>
      </trkpt>
      <trkpt lat="43.58014" lon="3.74757">
        <ele>68.6</ele>
        <time>2011-04-09T10:22:28Z</time>
      </trkpt>
      <trkpt lat="43.58024" lon="3.74743">
        <ele>69.7</ele>
        <time>2011-04-09T10:22:34Z</time>
      </trkpt>
      <trkpt lat="43.5803" lon="3.74738">
        <ele>69.5</ele>
        <time>2011-04-09T10:22:37Z</time>
      </trkpt>
      <trkpt lat="43.58036" lon="3.74733">
        <ele>70.7</ele>
        <time>2011-04-09T10:22:40Z</time>
      </trkpt>
      <trkpt lat="43.58043" lon="3.74728">
        <ele>70.6</ele>
        <time>2011-04-09T10:22:43Z</time>
      </trkpt>
      <trkpt lat="43.58047" lon="3.7472">
        <ele>72.1</ele>
        <time>2011-04-09T10:22:47Z</time>
      </trkpt>
      <trkpt lat="43.58045" lon="3.7471">
        <ele>72.2</ele>
        <time>2011-04-09T10:22:50Z</time>
      </trkpt>
      <trkpt lat="43.58048" lon="3.74701">
        <ele>72.5</ele>
        <time>2011-04-09T10:22:54Z</time>
      </trkpt>
      <trkpt lat="43.58054" lon="3.74692">
        <ele>72.5</ele>
        <time>2011-04-09T10:22:58Z</time>
      </trkpt>
      <trkpt lat="43.58059" lon="3.74683">
        <ele>74.2</ele>
        <time>2011-04-09T10:23:10Z</time>
      </trkpt>
      <trkpt lat="43.58065" lon="3.74675">
        <ele>76.6</ele>
        <time>2011-04-09T10:23:19Z</time>
      </trkpt>
      <trkpt lat="43.58071" lon="3.74667">
        <ele>77.9</ele>
        <time>2011-04-09T10:23:27Z</time>
      </trkpt>
      <trkpt lat="43.58079" lon="3.74668">
        <ele>78.8</ele>
        <time>2011-04-09T10:23:37Z</time>
      </trkpt>
      <trkpt lat="43.5808" lon="3.74668">
        <ele>78.9</ele>
        <time>2011-04-09T10:23:38Z</time>
      </trkpt>
      <trkpt lat="43.5809" lon="3.74685">
        <ele>81</ele>
        <time>2011-04-09T10:25:01Z</time>
      </trkpt>
      <trkpt lat="43.5809" lon="3.74686">
        <ele>81.1</ele>
        <time>2011-04-09T10:25:02Z</time>
      </trkpt>
      <trkpt lat="43.58101" lon="3.74703">
        <ele>80.9</ele>
        <time>2011-04-09T10:28:02Z</time>
      </trkpt>
      <trkpt lat="43.58101" lon="3.74703">
        <ele>81</ele>
        <time>2011-04-09T10:28:03Z</time>
      </trkpt>
      <trkpt lat="43.58092" lon="3.74702">
        <ele>79.2</ele>
        <time>2011-04-09T10:49:39Z</time>
      </trkpt>
      <trkpt lat="43.58088" lon="3.74707">
        <ele>79.9</ele>
        <time>2011-04-09T10:51:28Z</time>
      </trkpt>
      <trkpt lat="43.58088" lon="3.74707">
        <ele>79.7</ele>
        <time>2011-04-09T10:51:29Z</time>
      </trkpt>
      <trkpt lat="43.58103" lon="3.74711">
        <ele>80.8</ele>
        <time>2011-04-09T10:56:53Z</time>
      </trkpt>
      <trkpt lat="43.58104" lon="3.74712">
        <ele>80.8</ele>
        <time>2011-04-09T10:56:54Z</time>
      </trkpt>
      <trkpt lat="43.58098" lon="3.74701">
        <ele>81.5</ele>
        <time>2011-04-09T11:01:14Z</time>
      </trkpt>
      <trkpt lat="43.58093" lon="3.74712">
        <ele>82</ele>
        <time>2011-04-09T11:14:57Z</time>
      </trkpt>
      <trkpt lat="43.58096" lon="3.747">
        <ele>82.2</ele>
        <time>2011-04-09T11:24:49Z</time>
      </trkpt>
      <trkpt lat="43.58089" lon="3.74709">
        <ele>82.6</ele>
        <time>2011-04-09T11:30:00Z</time>
      </trkpt>
      <trkpt lat="43.58097" lon="3.74702">
        <ele>83.1</ele>
        <time>2011-04-09T11:33:38Z</time>
      </trkpt>
      <trkpt lat="43.58106" lon="3.74701">
        <ele>83.6</ele>
        <time>2011-04-09T11:37:29Z</time>
      </trkpt>
      <trkpt lat="43.58097" lon="3.74696">
        <ele>85</ele>
        <time>2011-04-09T11:40:14Z</time>
      </trkpt>
      <trkpt lat="43.58092" lon="3.74705">
        <ele>84.5</ele>
        <time>2011-04-09T11:41:25Z</time>
      </trkpt>
      <trkpt lat="43.58093" lon="3.74707">
        <ele>84.3</ele>
        <time>2011-04-09T11:44:31Z</time>
      </trkpt>
      <trkpt lat="43.58094" lon="3.74707">
        <ele>84.5</ele>
        <time>2011-04-09T11:44:32Z</time>
      </trkpt>
      <trkpt lat="43.58096" lon="3.74695">
        <ele>85.1</ele>
        <time>2011-04-09T11:49:08Z</time>
      </trkpt>
      <trkpt lat="43.58103" lon="3.74702">
        <ele>85.8</ele>
        <time>2011-04-09T12:00:34Z</time>
      </trkpt>
      <trkpt lat="43.58094" lon="3.74707">
        <ele>86.5</ele>
        <time>2011-04-09T12:03:23Z</time>
      </trkpt>
      <trkpt lat="43.58102" lon="3.74699">
        <ele>86.5</ele>
        <time>2011-04-09T12:05:25Z</time>
      </trkpt>
      <trkpt lat="43.58093" lon="3.74704">
        <ele>87</ele>
        <time>2011-04-09T12:11:45Z</time>
      </trkpt>
      <trkpt lat="43.58098" lon="3.74694">
        <ele>87.6</ele>
        <time>2011-04-09T12:19:00Z</time>
      </trkpt>
      <trkpt lat="43.58092" lon="3.74685">
        <ele>88.8</ele>
        <time>2011-04-09T12:33:54Z</time>
      </trkpt>
      <trkpt lat="43.58096" lon="3.74696">
        <ele>88.8</ele>
        <time>2011-04-09T12:35:59Z</time>
      </trkpt>
      <trkpt lat="43.58095" lon="3.74709">
        <ele>88.9</ele>
        <time>2011-04-09T12:45:18Z</time>
      </trkpt>
      <trkpt lat="43.58086" lon="3.7471">
        <ele>89.2</ele>
        <time>2011-04-09T12:48:19Z</time>
      </trkpt>
      <trkpt lat="43.58093" lon="3.74701">
        <ele>90.2</ele>
        <time>2011-04-09T12:54:40Z</time>
      </trkpt>
      <trkpt lat="43.58101" lon="3.74704">
        <ele>90.1</ele>
        <time>2011-04-09T12:58:08Z</time>
      </trkpt>
      <trkpt lat="43.58094" lon="3.74696">
        <ele>90.7</ele>
        <time>2011-04-09T13:07:41Z</time>
      </trkpt>
      <trkpt lat="43.58086" lon="3.74702">
        <ele>71.8</ele>
        <time>2011-04-09T13:19:44Z</time>
      </trkpt>
      <trkpt lat="43.58096" lon="3.74702">
        <ele>72.8</ele>
        <time>2011-04-09T13:23:30Z</time>
      </trkpt>
      <trkpt lat="43.58087" lon="3.74698">
        <ele>72.1</ele>
        <time>2011-04-09T13:27:22Z</time>
      </trkpt>
      <trkpt lat="43.58096" lon="3.74693">
        <ele>72.4</ele>
        <time>2011-04-09T13:29:58Z</time>
      </trkpt>
      <trkpt lat="43.58095" lon="3.74706">
        <ele>73.1</ele>
        <time>2011-04-09T13:36:07Z</time>
      </trkpt>
      <trkpt lat="43.58097" lon="3.74718">
        <ele>73.9</ele>
        <time>2011-04-09T13:58:23Z</time>
      </trkpt>
      <trkpt lat="43.58096" lon="3.74705">
        <ele>75.3</ele>
        <time>2011-04-09T14:04:13Z</time>
      </trkpt>
      <trkpt lat="43.58088" lon="3.74703">
        <ele>74.6</ele>
        <time>2011-04-09T14:07:36Z</time>
      </trkpt>
      <trkpt lat="43.58083" lon="3.74714">
        <ele>75.4</ele>
        <time>2011-04-09T14:10:28Z</time>
      </trkpt>
      <trkpt lat="43.58086" lon="3.74702">
        <ele>75.7</ele>
        <time>2011-04-09T14:13:47Z</time>
      </trkpt>
      <trkpt lat="43.58095" lon="3.74705">
        <ele>77.2</ele>
        <time>2011-04-09T14:18:17Z</time>
      </trkpt>
      <trkpt lat="43.58104" lon="3.74709">
        <ele>78.4</ele>
        <time>2011-04-09T14:40:03Z</time>
      </trkpt>
      <trkpt lat="43.58091" lon="3.74694">
        <ele>78.4</ele>
        <time>2011-04-09T14:42:51Z</time>
      </trkpt>
      <trkpt lat="43.58091" lon="3.74693">
        <ele>78.6</ele>
        <time>2011-04-09T14:42:52Z</time>
      </trkpt>
      <trkpt lat="43.58095" lon="3.74705">
        <ele>77.1</ele>
        <time>2011-04-09T14:53:28Z</time>
      </trkpt>
      <trkpt lat="43.58089" lon="3.74695">
        <ele>77.9</ele>
        <time>2011-04-09T14:58:43Z</time>
      </trkpt>
      <trkpt lat="43.58091" lon="3.74707">
        <ele>77.2</ele>
        <time>2011-04-09T15:07:28Z</time>
      </trkpt>
      <trkpt lat="43.58095" lon="3.74719">
        <ele>77.3</ele>
        <time>2011-04-09T15:09:31Z</time>
      </trkpt>
      <trkpt lat="43.58093" lon="3.74706">
        <ele>78.5</ele>
        <time>2011-04-09T15:11:44Z</time>
      </trkpt>
      <trkpt lat="43.58079" lon="3.74693">
        <ele>78.1</ele>
        <time>2011-04-09T15:13:12Z</time>
      </trkpt>
      <trkpt lat="43.58079" lon="3.74693">
        <ele>77.8</ele>
        <time>2011-04-09T15:13:13Z</time>
      </trkpt>
      <trkpt lat="43.58086" lon="3.747">
        <ele>78.1</ele>
        <time>2011-04-09T15:14:20Z</time>
      </trkpt>
      <trkpt lat="43.58089" lon="3.74695">
        <ele>77.7</ele>
        <time>2011-04-09T15:16:54Z</time>
      </trkpt>
      <trkpt lat="43.58089" lon="3.74695">
        <ele>77.7</ele>
        <time>2011-04-09T15:16:55Z</time>
      </trkpt>
      <trkpt lat="43.58098" lon="3.74699">
        <ele>78.3</ele>
        <time>2011-04-09T15:19:00Z</time>
      </trkpt>
      <trkpt lat="43.58089" lon="3.74703">
        <ele>77.9</ele>
        <time>2011-04-09T15:20:41Z</time>
      </trkpt>
      <trkpt lat="43.58097" lon="3.74698">
        <ele>79.1</ele>
        <time>2011-04-09T15:28:08Z</time>
      </trkpt>
      <trkpt lat="43.58098" lon="3.74686">
        <ele>78.7</ele>
        <time>2011-04-09T15:30:26Z</time>
      </trkpt>
      <trkpt lat="43.58107" lon="3.74684">
        <ele>78.6</ele>
        <time>2011-04-09T15:32:22Z</time>
      </trkpt>
      <trkpt lat="43.58107" lon="3.74682">
        <ele>78.9</ele>
        <time>2011-04-09T15:33:36Z</time>
      </trkpt>
      <trkpt lat="43.58106" lon="3.74682">
        <ele>78.8</ele>
        <time>2011-04-09T15:33:37Z</time>
      </trkpt>
      <trkpt lat="43.58091" lon="3.74693">
        <ele>78.6</ele>
        <time>2011-04-09T15:35:02Z</time>
      </trkpt>
      <trkpt lat="43.58091" lon="3.74693">
        <ele>78.5</ele>
        <time>2011-04-09T15:35:03Z</time>
      </trkpt>
      <trkpt lat="43.58098" lon="3.74701">
        <ele>78.3</ele>
        <time>2011-04-09T15:38:00Z</time>
      </trkpt>
      <trkpt lat="43.58093" lon="3.74712">
        <ele>78.1</ele>
        <time>2011-04-09T15:39:34Z</time>
      </trkpt>
      <trkpt lat="43.581" lon="3.74704">
        <ele>78.9</ele>
        <time>2011-04-09T15:43:21Z</time>
      </trkpt>
      <trkpt lat="43.58083" lon="3.74702">
        <ele>79.6</ele>
        <time>2011-04-09T15:44:34Z</time>
      </trkpt>
      <trkpt lat="43.58083" lon="3.74702">
        <ele>79.6</ele>
        <time>2011-04-09T15:44:35Z</time>
      </trkpt>
      <trkpt lat="43.5809" lon="3.74695">
        <ele>79.2</ele>
        <time>2011-04-09T15:51:23Z</time>
      </trkpt>
      <trkpt lat="43.5809" lon="3.74697">
        <ele>78.9</ele>
        <time>2011-04-09T15:53:23Z</time>
      </trkpt>
      <trkpt lat="43.5809" lon="3.74697">
        <ele>79</ele>
        <time>2011-04-09T15:53:24Z</time>
      </trkpt>
      <trkpt lat="43.58083" lon="3.74688">
        <ele>79.3</ele>
        <time>2011-04-09T16:06:46Z</time>
      </trkpt>
      <trkpt lat="43.58091" lon="3.74696">
        <ele>79.5</ele>
        <time>2011-04-09T16:09:02Z</time>
      </trkpt>
      <trkpt lat="43.581" lon="3.74694">
        <ele>79.6</ele>
        <time>2011-04-09T16:11:00Z</time>
      </trkpt>
      <trkpt lat="43.581" lon="3.74696">
        <ele>79.5</ele>
        <time>2011-04-09T16:12:51Z</time>
      </trkpt>
      <trkpt lat="43.581" lon="3.74697">
        <ele>79.3</ele>
        <time>2011-04-09T16:12:52Z</time>
      </trkpt>
      <trkpt lat="43.58093" lon="3.74704">
        <ele>79.8</ele>
        <time>2011-04-09T16:19:23Z</time>
      </trkpt>
      <trkpt lat="43.58089" lon="3.74715">
        <ele>78.5</ele>
        <time>2011-04-09T17:32:31Z</time>
      </trkpt>
      <trkpt lat="43.58095" lon="3.74714">
        <ele>77.5</ele>
        <time>2011-04-09T17:34:11Z</time>
      </trkpt>
      <trkpt lat="43.58095" lon="3.74713">
        <ele>77.6</ele>
        <time>2011-04-09T17:34:12Z</time>
      </trkpt>
      <trkpt lat="43.58098" lon="3.74699">
        <ele>78.5</ele>
        <time>2011-04-09T17:50:39Z</time>
      </trkpt>
      <trkpt lat="43.58098" lon="3.74698">
        <ele>78.7</ele>
        <time>2011-04-09T17:50:40Z</time>
      </trkpt>
      <trkpt lat="43.581" lon="3.74686">
        <ele>78.6</ele>
        <time>2011-04-09T17:52:29Z</time>
      </trkpt>
      <trkpt lat="43.58088" lon="3.74705">
        <ele>78.8</ele>
        <time>2011-04-09T17:53:30Z</time>
      </trkpt>
      <trkpt lat="43.58088" lon="3.74706">
        <ele>79.1</ele>
        <time>2011-04-09T17:53:31Z</time>
      </trkpt>
      <trkpt lat="43.58083" lon="3.74703">
        <ele>78.4</ele>
        <time>2011-04-09T17:55:36Z</time>
      </trkpt>
      <trkpt lat="43.58083" lon="3.74702">
        <ele>78.1</ele>
        <time>2011-04-09T17:55:37Z</time>
      </trkpt>
      <trkpt lat="43.5809" lon="3.74697">
        <ele>78.5</ele>
        <time>2011-04-09T17:56:35Z</time>
      </trkpt>
      <trkpt lat="43.58094" lon="3.74707">
        <ele>77.6</ele>
        <time>2011-04-09T17:56:51Z</time>
      </trkpt>
      <trkpt lat="43.58094" lon="3.74707">
        <ele>77.9</ele>
        <time>2011-04-09T17:56:52Z</time>
      </trkpt>
      <trkpt lat="43.58104" lon="3.74759">
        <ele>78.3</ele>
        <time>2011-04-09T17:57:22Z</time>
      </trkpt>
      <trkpt lat="43.58102" lon="3.74748">
        <ele>77.6</ele>
        <time>2011-04-09T17:57:39Z</time>
      </trkpt>
      <trkpt lat="43.58098" lon="3.74737">
        <ele>77.1</ele>
        <time>2011-04-09T17:57:45Z</time>
      </trkpt>
      <trkpt lat="43.58093" lon="3.74727">
        <ele>78.3</ele>
        <time>2011-04-09T17:57:52Z</time>
      </trkpt>
      <trkpt lat="43.58093" lon="3.74726">
        <ele>78.7</ele>
        <time>2011-04-09T17:57:53Z</time>
      </trkpt>
      <trkpt lat="43.58083" lon="3.74708">
        <ele>78.5</ele>
        <time>2011-04-09T17:58:15Z</time>
      </trkpt>
      <trkpt lat="43.58091" lon="3.74713">
        <ele>77.3</ele>
        <time>2011-04-09T18:00:06Z</time>
      </trkpt>
      <trkpt lat="43.58092" lon="3.74713">
        <ele>77.6</ele>
        <time>2011-04-09T18:00:07Z</time>
      </trkpt>
      <trkpt lat="43.58096" lon="3.74702">
        <ele>77.5</ele>
        <time>2011-04-09T18:01:26Z</time>
      </trkpt>
      <trkpt lat="43.5809" lon="3.74712">
        <ele>77.4</ele>
        <time>2011-04-09T18:12:09Z</time>
      </trkpt>
      <trkpt lat="43.581" lon="3.747">
        <ele>78.4</ele>
        <time>2011-04-09T18:16:34Z</time>
      </trkpt>
      <trkpt lat="43.58107" lon="3.74696">
        <ele>77.8</ele>
        <time>2011-04-09T18:18:40Z</time>
      </trkpt>
      <trkpt lat="43.58108" lon="3.74694">
        <ele>77.8</ele>
        <time>2011-04-09T18:18:43Z</time>
      </trkpt>
      <trkpt lat="43.58107" lon="3.74694">
        <ele>77.2</ele>
        <time>2011-04-09T18:19:20Z</time>
      </trkpt>
      <trkpt lat="43.58099" lon="3.74699">
        <ele>77.5</ele>
        <time>2011-04-09T18:19:45Z</time>
      </trkpt>
      <trkpt lat="43.58098" lon="3.74699">
        <ele>77.4</ele>
        <time>2011-04-09T18:19:46Z</time>
      </trkpt>
      <trkpt lat="43.5809" lon="3.74705">
        <ele>77.7</ele>
        <time>2011-04-09T18:21:13Z</time>
      </trkpt>
      <trkpt lat="43.58099" lon="3.74698">
        <ele>76.7</ele>
        <time>2011-04-09T18:23:36Z</time>
      </trkpt>
      <trkpt lat="43.58092" lon="3.74708">
        <ele>76.5</ele>
        <time>2011-04-09T18:26:43Z</time>
      </trkpt>
      <trkpt lat="43.581" lon="3.74701">
        <ele>76</ele>
        <time>2011-04-09T18:33:40Z</time>
      </trkpt>
      <trkpt lat="43.58091" lon="3.74704">
        <ele>75</ele>
        <time>2011-04-09T18:40:33Z</time>
      </trkpt>
      <trkpt lat="43.5809" lon="3.74716">
        <ele>74.8</ele>
        <time>2011-04-09T18:47:38Z</time>
      </trkpt>
      <trkpt lat="43.58092" lon="3.74704">
        <ele>74.9</ele>
        <time>2011-04-09T18:51:07Z</time>
      </trkpt>
      <trkpt lat="43.581" lon="3.74712">
        <ele>74.4</ele>
        <time>2011-04-09T18:52:21Z</time>
      </trkpt>
      <trkpt lat="43.58091" lon="3.7471">
        <ele>74.3</ele>
        <time>2011-04-09T18:55:53Z</time>
      </trkpt>
      <trkpt lat="43.581" lon="3.74708">
        <ele>73.7</ele>
        <time>2011-04-09T18:58:32Z</time>
      </trkpt>
      <trkpt lat="43.58107" lon="3.74705">
        <ele>73.6</ele>
        <time>2011-04-09T18:59:26Z</time>
      </trkpt>
      <trkpt lat="43.581" lon="3.74711">
        <ele>73.9</ele>
        <time>2011-04-09T19:00:17Z</time>
      </trkpt>
      <trkpt lat="43.58099" lon="3.74711">
        <ele>73.9</ele>
        <time>2011-04-09T19:00:18Z</time>
      </trkpt>
      <trkpt lat="43.58091" lon="3.74707">
        <ele>73.8</ele>
        <time>2011-04-09T19:01:52Z</time>
      </trkpt>
      <trkpt lat="43.5809" lon="3.74714">
        <ele>74.1</ele>
        <time>2011-04-09T19:03:32Z</time>
      </trkpt>
      <trkpt lat="43.58091" lon="3.74715">
        <ele>74</ele>
        <time>2011-04-09T19:03:33Z</time>
      </trkpt>
      <trkpt lat="43.58094" lon="3.74703">
        <ele>73</ele>
        <time>2011-04-09T19:06:55Z</time>
      </trkpt>
      <trkpt lat="43.58087" lon="3.74712">
        <ele>73.5</ele>
        <time>2011-04-09T19:08:07Z</time>
      </trkpt>
      <trkpt lat="43.58085" lon="3.74703">
        <ele>71.6</ele>
        <time>2011-04-09T19:18:58Z</time>
      </trkpt>
      <trkpt lat="43.58084" lon="3.74703">
        <ele>71.3</ele>
        <time>2011-04-09T19:18:59Z</time>
      </trkpt>
      <trkpt lat="43.58085" lon="3.74707">
        <ele>71.6</ele>
        <time>2011-04-09T19:20:33Z</time>
      </trkpt>
      <trkpt lat="43.58085" lon="3.74706">
        <ele>72</ele>
        <time>2011-04-09T19:20:34Z</time>
      </trkpt>
      <trkpt lat="43.58091" lon="3.74717">
        <ele>70.9</ele>
        <time>2011-04-09T19:22:03Z</time>
      </trkpt>
      <trkpt lat="43.58098" lon="3.7471">
        <ele>69.4</ele>
        <time>2011-04-09T19:30:29Z</time>
      </trkpt>
      <trkpt lat="43.581" lon="3.74697">
        <ele>70.4</ele>
        <time>2011-04-09T19:45:43Z</time>
      </trkpt>
      <trkpt lat="43.58094" lon="3.74708">
        <ele>69.6</ele>
        <time>2011-04-09T19:50:02Z</time>
      </trkpt>
      <trkpt lat="43.58103" lon="3.74711">
        <ele>69.5</ele>
        <time>2011-04-09T19:52:40Z</time>
      </trkpt>
      <trkpt lat="43.58098" lon="3.74701">
        <ele>69.2</ele>
        <time>2011-04-09T19:54:01Z</time>
      </trkpt>
      <trkpt lat="43.58105" lon="3.74709">
        <ele>70.2</ele>
        <time>2011-04-09T19:59:19Z</time>
      </trkpt>
      <trkpt lat="43.58098" lon="3.74717">
        <ele>69.7</ele>
        <time>2011-04-09T20:00:53Z</time>
      </trkpt>
      <trkpt lat="43.58094" lon="3.74706">
        <ele>69.7</ele>
        <time>2011-04-09T20:03:57Z</time>
      </trkpt>
      <trkpt lat="43.58086" lon="3.74702">
        <ele>69.5</ele>
        <time>2011-04-09T20:07:57Z</time>
      </trkpt>
      <trkpt lat="43.58093" lon="3.74709">
        <ele>69.4</ele>
        <time>2011-04-09T20:09:45Z</time>
      </trkpt>
      <trkpt lat="43.58101" lon="3.74701">
        <ele>68.6</ele>
        <time>2011-04-09T20:12:06Z</time>
      </trkpt>
      <trkpt lat="43.58092" lon="3.74704">
        <ele>68.8</ele>
        <time>2011-04-09T20:17:37Z</time>
      </trkpt>
      <trkpt lat="43.58096" lon="3.74693">
        <ele>68.5</ele>
        <time>2011-04-09T20:35:30Z</time>
      </trkpt>
      <trkpt lat="43.58087" lon="3.74694">
        <ele>68.7</ele>
        <time>2011-04-09T20:38:41Z</time>
      </trkpt>
      <trkpt lat="43.58092" lon="3.74704">
        <ele>68.7</ele>
        <time>2011-04-09T20:41:23Z</time>
      </trkpt>
      <trkpt lat="43.58086" lon="3.74713">
        <ele>68.6</ele>
        <time>2011-04-09T20:50:32Z</time>
      </trkpt>
      <trkpt lat="43.58093" lon="3.74705">
        <ele>69.1</ele>
        <time>2011-04-09T20:53:49Z</time>
      </trkpt>
      <trkpt lat="43.58088" lon="3.74715">
        <ele>69.1</ele>
        <time>2011-04-09T20:58:01Z</time>
      </trkpt>
      <trkpt lat="43.58097" lon="3.74712">
        <ele>70.1</ele>
        <time>2011-04-09T20:59:20Z</time>
      </trkpt>
      <trkpt lat="43.58091" lon="3.74701">
        <ele>68.8</ele>
        <time>2011-04-09T21:00:53Z</time>
      </trkpt>
      <trkpt lat="43.58098" lon="3.74692">
        <ele>69.3</ele>
        <time>2011-04-09T21:03:34Z</time>
      </trkpt>
      <trkpt lat="43.58105" lon="3.74688">
        <ele>69.5</ele>
        <time>2011-04-09T21:04:59Z</time>
      </trkpt>
      <trkpt lat="43.58104" lon="3.74713">
        <ele>69.8</ele>
        <time>2011-04-09T21:06:19Z</time>
      </trkpt>
      <trkpt lat="43.58104" lon="3.74713">
        <ele>69.8</ele>
        <time>2011-04-09T21:06:20Z</time>
      </trkpt>
      <trkpt lat="43.58095" lon="3.74708">
        <ele>69.8</ele>
        <time>2011-04-09T21:08:25Z</time>
      </trkpt>
      <trkpt lat="43.58087" lon="3.74702">
        <ele>69.7</ele>
        <time>2011-04-09T21:22:54Z</time>
      </trkpt>
      <trkpt lat="43.58097" lon="3.74701">
        <ele>69.1</ele>
        <time>2011-04-09T21:43:37Z</time>
      </trkpt>
      <trkpt lat="43.58104" lon="3.74694">
        <ele>68.3</ele>
        <time>2011-04-09T21:51:21Z</time>
      </trkpt>
      <trkpt lat="43.58104" lon="3.74707">
        <ele>68.5</ele>
        <time>2011-04-09T21:52:40Z</time>
      </trkpt>
      <trkpt lat="43.58095" lon="3.74702">
        <ele>68.6</ele>
        <time>2011-04-09T21:54:14Z</time>
      </trkpt>
      <trkpt lat="43.58105" lon="3.74697">
        <ele>67.2</ele>
        <time>2011-04-09T22:08:27Z</time>
      </trkpt>
      <trkpt lat="43.58095" lon="3.74702">
        <ele>68.7</ele>
        <time>2011-04-09T22:18:44Z</time>
      </trkpt>
      <trkpt lat="43.58087" lon="3.74703">
        <ele>67.7</ele>
        <time>2011-04-09T22:23:33Z</time>
      </trkpt>
      <trkpt lat="43.58097" lon="3.74703">
        <ele>67.3</ele>
        <time>2011-04-09T22:26:19Z</time>
      </trkpt>
      <trkpt lat="43.581" lon="3.74715">
        <ele>67.6</ele>
        <time>2011-04-09T22:29:51Z</time>
      </trkpt>
      <trkpt lat="43.58092" lon="3.74708">
        <ele>67.6</ele>
        <time>2011-04-09T22:31:48Z</time>
      </trkpt>
      <trkpt lat="43.58079" lon="3.747">
        <ele>67.2</ele>
        <time>2011-04-09T22:36:38Z</time>
      </trkpt>
      <trkpt lat="43.58076" lon="3.74702">
        <ele>67.2</ele>
        <time>2011-04-09T22:36:45Z</time>
      </trkpt>
      <trkpt lat="43.58065" lon="3.74713">
        <ele>67.3</ele>
        <time>2011-04-09T22:37:51Z</time>
      </trkpt>
      <trkpt lat="43.58065" lon="3.74713">
        <ele>67.3</ele>
        <time>2011-04-09T22:37:52Z</time>
      </trkpt>
      <trkpt lat="43.58077" lon="3.74711">
        <ele>67.3</ele>
        <time>2011-04-09T22:38:48Z</time>
      </trkpt>
      <trkpt lat="43.58086" lon="3.74709">
        <ele>67.1</ele>
        <time>2011-04-09T22:39:37Z</time>
      </trkpt>
      <trkpt lat="43.58086" lon="3.74709">
        <ele>67.1</ele>
        <time>2011-04-09T22:39:38Z</time>
      </trkpt>
      <trkpt lat="43.58077" lon="3.74708">
        <ele>66.1</ele>
        <time>2011-04-09T22:43:49Z</time>
      </trkpt>
      <trkpt lat="43.58093" lon="3.74701">
        <ele>65.7</ele>
        <time>2011-04-09T22:44:50Z</time>
      </trkpt>
      <trkpt lat="43.58099" lon="3.7471">
        <ele>65</ele>
        <time>2011-04-09T22:46:54Z</time>
      </trkpt>
      <trkpt lat="43.58091" lon="3.74702">
        <ele>64.3</ele>
        <time>2011-04-09T22:48:52Z</time>
      </trkpt>
      <trkpt lat="43.581" lon="3.74712">
        <ele>63.2</ele>
        <time>2011-04-09T22:52:02Z</time>
      </trkpt>
      <trkpt lat="43.58091" lon="3.7471">
        <ele>62.8</ele>
        <time>2011-04-09T22:53:56Z</time>
      </trkpt>
      <trkpt lat="43.58092" lon="3.74708">
        <ele>63.1</ele>
        <time>2011-04-09T22:57:06Z</time>
      </trkpt>
      <trkpt lat="43.58093" lon="3.74708">
        <ele>63.1</ele>
        <time>2011-04-09T22:57:07Z</time>
      </trkpt>
      <trkpt lat="43.58079" lon="3.74704">
        <ele>64.9</ele>
        <time>2011-04-09T23:01:41Z</time>
      </trkpt>
      <trkpt lat="43.5808" lon="3.74706">
        <ele>63.7</ele>
        <time>2011-04-09T23:01:58Z</time>
      </trkpt>
      <trkpt lat="43.58088" lon="3.74708">
        <ele>63.8</ele>
        <time>2011-04-09T23:02:06Z</time>
      </trkpt>
      <trkpt lat="43.58097" lon="3.7471">
        <ele>63.4</ele>
        <time>2011-04-09T23:02:25Z</time>
      </trkpt>
      <trkpt lat="43.58088" lon="3.74711">
        <ele>63.8</ele>
        <time>2011-04-09T23:18:54Z</time>
      </trkpt>
      <trkpt lat="43.58088" lon="3.74711">
        <ele>63.9</ele>
        <time>2011-04-09T23:18:55Z</time>
      </trkpt>
    </trkseg>
  </trk>
</gpx>